<?xml version="1.0" encoding="UTF-8" standalone="no" ?>
<gpx xmlns="http://www.topografix.com/GPX/1/1" xmlns:xsi="http://www.w3.org/2001/XMLSchema-instance" xsi:schemaLocation="http://www.topografix.com/GPX/1/1 http://www.topografix.com/GPX/1/1/gpx.xsd" version="1.1" creator="VisuGPX - https://www.visugpx.com">
  <metadata>
    <name>Circuit Roybon-Genissieux-Hauterives-Roybon</name>
    <desc><![CDATA[Circuit de la sortie surprise du 14/09/2013 du club de cyclotourisme de Seyssins (ASSC) site = http://cyclo-seyssins.e-monsite.com]]></desc>
  </metadata>
  <trk>
    <name><![CDATA[Roybon Hauterives - 14/09/2013]]></name>
    <trkseg>
      <trkpt lat="45.24997" lon="5.24576">
        <ele>589</ele>
        <time>2013-09-14T09:25:14Z</time>
      </trkpt>
      <trkpt lat="45.24997" lon="5.24576">
        <ele>588</ele>
        <time>2013-09-14T09:25:18Z</time>
      </trkpt>
      <trkpt lat="45.24997" lon="5.24576">
        <ele>588</ele>
        <time>2013-09-14T09:25:21Z</time>
      </trkpt>
      <trkpt lat="45.25001" lon="5.24574">
        <ele>588</ele>
        <time>2013-09-14T09:25:25Z</time>
      </trkpt>
      <trkpt lat="45.25006" lon="5.24572">
        <ele>588</ele>
        <time>2013-09-14T09:25:28Z</time>
      </trkpt>
      <trkpt lat="45.25012" lon="5.24573">
        <ele>588</ele>
        <time>2013-09-14T09:25:32Z</time>
      </trkpt>
      <trkpt lat="45.25013" lon="5.24573">
        <ele>588</ele>
        <time>2013-09-14T09:25:35Z</time>
      </trkpt>
      <trkpt lat="45.25013" lon="5.24573">
        <ele>588</ele>
        <time>2013-09-14T09:25:39Z</time>
      </trkpt>
      <trkpt lat="45.25013" lon="5.24573">
        <ele>588</ele>
        <time>2013-09-14T09:25:42Z</time>
      </trkpt>
      <trkpt lat="45.25013" lon="5.24573">
        <ele>588</ele>
        <time>2013-09-14T09:25:46Z</time>
      </trkpt>
      <trkpt lat="45.25013" lon="5.24573">
        <ele>589</ele>
        <time>2013-09-14T09:25:49Z</time>
      </trkpt>
      <trkpt lat="45.25013" lon="5.24573">
        <ele>591</ele>
        <time>2013-09-14T09:25:53Z</time>
      </trkpt>
      <trkpt lat="45.25013" lon="5.24573">
        <ele>589</ele>
        <time>2013-09-14T09:25:56Z</time>
      </trkpt>
      <trkpt lat="45.25013" lon="5.24573">
        <ele>589</ele>
        <time>2013-09-14T09:26:00Z</time>
      </trkpt>
      <trkpt lat="45.25013" lon="5.24573">
        <ele>589</ele>
        <time>2013-09-14T09:26:03Z</time>
      </trkpt>
      <trkpt lat="45.25013" lon="5.24573">
        <ele>589</ele>
        <time>2013-09-14T09:26:07Z</time>
      </trkpt>
      <trkpt lat="45.25013" lon="5.24573">
        <ele>589</ele>
        <time>2013-09-14T09:26:10Z</time>
      </trkpt>
      <trkpt lat="45.25013" lon="5.24573">
        <ele>589</ele>
        <time>2013-09-14T09:26:14Z</time>
      </trkpt>
      <trkpt lat="45.25013" lon="5.24573">
        <ele>588</ele>
        <time>2013-09-14T09:26:17Z</time>
      </trkpt>
      <trkpt lat="45.25018" lon="5.2457">
        <ele>589</ele>
        <time>2013-09-14T09:26:21Z</time>
      </trkpt>
      <trkpt lat="45.25021" lon="5.2457">
        <ele>589</ele>
        <time>2013-09-14T09:26:24Z</time>
      </trkpt>
      <trkpt lat="45.25026" lon="5.24567">
        <ele>589</ele>
        <time>2013-09-14T09:26:28Z</time>
      </trkpt>
      <trkpt lat="45.25033" lon="5.24565">
        <ele>589</ele>
        <time>2013-09-14T09:26:31Z</time>
      </trkpt>
      <trkpt lat="45.25045" lon="5.24559">
        <ele>589</ele>
        <time>2013-09-14T09:26:35Z</time>
      </trkpt>
      <trkpt lat="45.25055" lon="5.24554">
        <ele>588</ele>
        <time>2013-09-14T09:26:38Z</time>
      </trkpt>
      <trkpt lat="45.25072" lon="5.24549">
        <ele>589</ele>
        <time>2013-09-14T09:26:42Z</time>
      </trkpt>
      <trkpt lat="45.25084" lon="5.24547">
        <ele>587</ele>
        <time>2013-09-14T09:26:45Z</time>
      </trkpt>
      <trkpt lat="45.25096" lon="5.2454">
        <ele>588</ele>
        <time>2013-09-14T09:26:49Z</time>
      </trkpt>
      <trkpt lat="45.25105" lon="5.24533">
        <ele>588</ele>
        <time>2013-09-14T09:26:53Z</time>
      </trkpt>
      <trkpt lat="45.25115" lon="5.24529">
        <ele>587</ele>
        <time>2013-09-14T09:26:56Z</time>
      </trkpt>
      <trkpt lat="45.25133" lon="5.24526">
        <ele>585</ele>
        <time>2013-09-14T09:27:00Z</time>
      </trkpt>
      <trkpt lat="45.25146" lon="5.24523">
        <ele>586</ele>
        <time>2013-09-14T09:27:03Z</time>
      </trkpt>
      <trkpt lat="45.25166" lon="5.2452">
        <ele>584</ele>
        <time>2013-09-14T09:27:07Z</time>
      </trkpt>
      <trkpt lat="45.25181" lon="5.24514">
        <ele>582</ele>
        <time>2013-09-14T09:27:10Z</time>
      </trkpt>
      <trkpt lat="45.25203" lon="5.24501">
        <ele>580</ele>
        <time>2013-09-14T09:27:14Z</time>
      </trkpt>
      <trkpt lat="45.2522" lon="5.24492">
        <ele>580</ele>
        <time>2013-09-14T09:27:17Z</time>
      </trkpt>
      <trkpt lat="45.25243" lon="5.24485">
        <ele>580</ele>
        <time>2013-09-14T09:27:21Z</time>
      </trkpt>
      <trkpt lat="45.25257" lon="5.2448">
        <ele>579</ele>
        <time>2013-09-14T09:27:24Z</time>
      </trkpt>
      <trkpt lat="45.25274" lon="5.24475">
        <ele>579</ele>
        <time>2013-09-14T09:27:28Z</time>
      </trkpt>
      <trkpt lat="45.25286" lon="5.24473">
        <ele>578</ele>
        <time>2013-09-14T09:27:31Z</time>
      </trkpt>
      <trkpt lat="45.25307" lon="5.24478">
        <ele>575</ele>
        <time>2013-09-14T09:27:35Z</time>
      </trkpt>
      <trkpt lat="45.25324" lon="5.24486">
        <ele>573</ele>
        <time>2013-09-14T09:27:38Z</time>
      </trkpt>
      <trkpt lat="45.25351" lon="5.24494">
        <ele>570</ele>
        <time>2013-09-14T09:27:42Z</time>
      </trkpt>
      <trkpt lat="45.25373" lon="5.24494">
        <ele>570</ele>
        <time>2013-09-14T09:27:45Z</time>
      </trkpt>
      <trkpt lat="45.25397" lon="5.24488">
        <ele>570</ele>
        <time>2013-09-14T09:27:49Z</time>
      </trkpt>
      <trkpt lat="45.25412" lon="5.24481">
        <ele>570</ele>
        <time>2013-09-14T09:27:52Z</time>
      </trkpt>
      <trkpt lat="45.25434" lon="5.24473">
        <ele>569</ele>
        <time>2013-09-14T09:27:56Z</time>
      </trkpt>
      <trkpt lat="45.25453" lon="5.24469">
        <ele>567</ele>
        <time>2013-09-14T09:27:59Z</time>
      </trkpt>
      <trkpt lat="45.25479" lon="5.24459">
        <ele>567</ele>
        <time>2013-09-14T09:28:03Z</time>
      </trkpt>
      <trkpt lat="45.25498" lon="5.24451">
        <ele>567</ele>
        <time>2013-09-14T09:28:06Z</time>
      </trkpt>
      <trkpt lat="45.25521" lon="5.2444">
        <ele>567</ele>
        <time>2013-09-14T09:28:10Z</time>
      </trkpt>
      <trkpt lat="45.25537" lon="5.24432">
        <ele>566</ele>
        <time>2013-09-14T09:28:13Z</time>
      </trkpt>
      <trkpt lat="45.25557" lon="5.24422">
        <ele>566</ele>
        <time>2013-09-14T09:28:17Z</time>
      </trkpt>
      <trkpt lat="45.25569" lon="5.24414">
        <ele>566</ele>
        <time>2013-09-14T09:28:20Z</time>
      </trkpt>
      <trkpt lat="45.25588" lon="5.24405">
        <ele>565</ele>
        <time>2013-09-14T09:28:24Z</time>
      </trkpt>
      <trkpt lat="45.25609" lon="5.24389">
        <ele>564</ele>
        <time>2013-09-14T09:28:28Z</time>
      </trkpt>
      <trkpt lat="45.25624" lon="5.24371">
        <ele>564</ele>
        <time>2013-09-14T09:28:31Z</time>
      </trkpt>
      <trkpt lat="45.25646" lon="5.24344">
        <ele>564</ele>
        <time>2013-09-14T09:28:35Z</time>
      </trkpt>
      <trkpt lat="45.25664" lon="5.24323">
        <ele>562</ele>
        <time>2013-09-14T09:28:38Z</time>
      </trkpt>
      <trkpt lat="45.25687" lon="5.24293">
        <ele>563</ele>
        <time>2013-09-14T09:28:42Z</time>
      </trkpt>
      <trkpt lat="45.25704" lon="5.24273">
        <ele>563</ele>
        <time>2013-09-14T09:28:45Z</time>
      </trkpt>
      <trkpt lat="45.25725" lon="5.24246">
        <ele>562</ele>
        <time>2013-09-14T09:28:49Z</time>
      </trkpt>
      <trkpt lat="45.2574" lon="5.24227">
        <ele>562</ele>
        <time>2013-09-14T09:28:52Z</time>
      </trkpt>
      <trkpt lat="45.25755" lon="5.24206">
        <ele>562</ele>
        <time>2013-09-14T09:28:56Z</time>
      </trkpt>
      <trkpt lat="45.25763" lon="5.24196">
        <ele>562</ele>
        <time>2013-09-14T09:28:59Z</time>
      </trkpt>
      <trkpt lat="45.25772" lon="5.24186">
        <ele>562</ele>
        <time>2013-09-14T09:29:03Z</time>
      </trkpt>
      <trkpt lat="45.25778" lon="5.24179">
        <ele>562</ele>
        <time>2013-09-14T09:29:06Z</time>
      </trkpt>
      <trkpt lat="45.25788" lon="5.24166">
        <ele>561</ele>
        <time>2013-09-14T09:29:10Z</time>
      </trkpt>
      <trkpt lat="45.25795" lon="5.24159">
        <ele>562</ele>
        <time>2013-09-14T09:29:13Z</time>
      </trkpt>
      <trkpt lat="45.25805" lon="5.2415">
        <ele>561</ele>
        <time>2013-09-14T09:29:17Z</time>
      </trkpt>
      <trkpt lat="45.25813" lon="5.24141">
        <ele>562</ele>
        <time>2013-09-14T09:29:20Z</time>
      </trkpt>
      <trkpt lat="45.25823" lon="5.24128">
        <ele>562</ele>
        <time>2013-09-14T09:29:24Z</time>
      </trkpt>
      <trkpt lat="45.2583" lon="5.2412">
        <ele>562</ele>
        <time>2013-09-14T09:29:27Z</time>
      </trkpt>
      <trkpt lat="45.25838" lon="5.24129">
        <ele>563</ele>
        <time>2013-09-14T09:29:31Z</time>
      </trkpt>
      <trkpt lat="45.25839" lon="5.24143">
        <ele>563</ele>
        <time>2013-09-14T09:29:34Z</time>
      </trkpt>
      <trkpt lat="45.25829" lon="5.24161">
        <ele>563</ele>
        <time>2013-09-14T09:29:38Z</time>
      </trkpt>
      <trkpt lat="45.25822" lon="5.24173">
        <ele>564</ele>
        <time>2013-09-14T09:29:41Z</time>
      </trkpt>
      <trkpt lat="45.25813" lon="5.24193">
        <ele>565</ele>
        <time>2013-09-14T09:29:45Z</time>
      </trkpt>
      <trkpt lat="45.25806" lon="5.24207">
        <ele>565</ele>
        <time>2013-09-14T09:29:48Z</time>
      </trkpt>
      <trkpt lat="45.25797" lon="5.24228">
        <ele>565</ele>
        <time>2013-09-14T09:29:52Z</time>
      </trkpt>
      <trkpt lat="45.25791" lon="5.24241">
        <ele>565</ele>
        <time>2013-09-14T09:29:55Z</time>
      </trkpt>
      <trkpt lat="45.25783" lon="5.24257">
        <ele>567</ele>
        <time>2013-09-14T09:29:59Z</time>
      </trkpt>
      <trkpt lat="45.25778" lon="5.24268">
        <ele>567</ele>
        <time>2013-09-14T09:30:02Z</time>
      </trkpt>
      <trkpt lat="45.25771" lon="5.24284">
        <ele>568</ele>
        <time>2013-09-14T09:30:06Z</time>
      </trkpt>
      <trkpt lat="45.25764" lon="5.24299">
        <ele>568</ele>
        <time>2013-09-14T09:30:10Z</time>
      </trkpt>
      <trkpt lat="45.25758" lon="5.24311">
        <ele>570</ele>
        <time>2013-09-14T09:30:13Z</time>
      </trkpt>
      <trkpt lat="45.25751" lon="5.24326">
        <ele>570</ele>
        <time>2013-09-14T09:30:17Z</time>
      </trkpt>
      <trkpt lat="45.25748" lon="5.24338">
        <ele>571</ele>
        <time>2013-09-14T09:30:20Z</time>
      </trkpt>
      <trkpt lat="45.25742" lon="5.24353">
        <ele>572</ele>
        <time>2013-09-14T09:30:24Z</time>
      </trkpt>
      <trkpt lat="45.25737" lon="5.24364">
        <ele>573</ele>
        <time>2013-09-14T09:30:27Z</time>
      </trkpt>
      <trkpt lat="45.25729" lon="5.24377">
        <ele>573</ele>
        <time>2013-09-14T09:30:31Z</time>
      </trkpt>
      <trkpt lat="45.25724" lon="5.24388">
        <ele>574</ele>
        <time>2013-09-14T09:30:34Z</time>
      </trkpt>
      <trkpt lat="45.25718" lon="5.24402">
        <ele>575</ele>
        <time>2013-09-14T09:30:38Z</time>
      </trkpt>
      <trkpt lat="45.25713" lon="5.24413">
        <ele>576</ele>
        <time>2013-09-14T09:30:41Z</time>
      </trkpt>
      <trkpt lat="45.25704" lon="5.24428">
        <ele>576</ele>
        <time>2013-09-14T09:30:45Z</time>
      </trkpt>
      <trkpt lat="45.25698" lon="5.24437">
        <ele>576</ele>
        <time>2013-09-14T09:30:48Z</time>
      </trkpt>
      <trkpt lat="45.25686" lon="5.2445">
        <ele>576</ele>
        <time>2013-09-14T09:30:52Z</time>
      </trkpt>
      <trkpt lat="45.25677" lon="5.24458">
        <ele>577</ele>
        <time>2013-09-14T09:30:55Z</time>
      </trkpt>
      <trkpt lat="45.25666" lon="5.24472">
        <ele>577</ele>
        <time>2013-09-14T09:30:59Z</time>
      </trkpt>
      <trkpt lat="45.25658" lon="5.24482">
        <ele>577</ele>
        <time>2013-09-14T09:31:02Z</time>
      </trkpt>
      <trkpt lat="45.25645" lon="5.24498">
        <ele>577</ele>
        <time>2013-09-14T09:31:06Z</time>
      </trkpt>
      <trkpt lat="45.25633" lon="5.2451">
        <ele>577</ele>
        <time>2013-09-14T09:31:09Z</time>
      </trkpt>
      <trkpt lat="45.25617" lon="5.24525">
        <ele>577</ele>
        <time>2013-09-14T09:31:13Z</time>
      </trkpt>
      <trkpt lat="45.25606" lon="5.24536">
        <ele>578</ele>
        <time>2013-09-14T09:31:16Z</time>
      </trkpt>
      <trkpt lat="45.25592" lon="5.24551">
        <ele>578</ele>
        <time>2013-09-14T09:31:20Z</time>
      </trkpt>
      <trkpt lat="45.25581" lon="5.2456">
        <ele>578</ele>
        <time>2013-09-14T09:31:23Z</time>
      </trkpt>
      <trkpt lat="45.25564" lon="5.24575">
        <ele>578</ele>
        <time>2013-09-14T09:31:27Z</time>
      </trkpt>
      <trkpt lat="45.25551" lon="5.24586">
        <ele>578</ele>
        <time>2013-09-14T09:31:30Z</time>
      </trkpt>
      <trkpt lat="45.25532" lon="5.24598">
        <ele>579</ele>
        <time>2013-09-14T09:31:34Z</time>
      </trkpt>
      <trkpt lat="45.25518" lon="5.24607">
        <ele>579</ele>
        <time>2013-09-14T09:31:37Z</time>
      </trkpt>
      <trkpt lat="45.25498" lon="5.24618">
        <ele>579</ele>
        <time>2013-09-14T09:31:41Z</time>
      </trkpt>
      <trkpt lat="45.25481" lon="5.2463">
        <ele>579</ele>
        <time>2013-09-14T09:31:45Z</time>
      </trkpt>
      <trkpt lat="45.25465" lon="5.24639">
        <ele>579</ele>
        <time>2013-09-14T09:31:48Z</time>
      </trkpt>
      <trkpt lat="45.25445" lon="5.24651">
        <ele>580</ele>
        <time>2013-09-14T09:31:52Z</time>
      </trkpt>
      <trkpt lat="45.2543" lon="5.24659">
        <ele>580</ele>
        <time>2013-09-14T09:31:55Z</time>
      </trkpt>
      <trkpt lat="45.2541" lon="5.24672">
        <ele>580</ele>
        <time>2013-09-14T09:31:59Z</time>
      </trkpt>
      <trkpt lat="45.25394" lon="5.24681">
        <ele>580</ele>
        <time>2013-09-14T09:32:02Z</time>
      </trkpt>
      <trkpt lat="45.25374" lon="5.24693">
        <ele>580</ele>
        <time>2013-09-14T09:32:06Z</time>
      </trkpt>
      <trkpt lat="45.25358" lon="5.24704">
        <ele>580</ele>
        <time>2013-09-14T09:32:09Z</time>
      </trkpt>
      <trkpt lat="45.25335" lon="5.24717">
        <ele>579</ele>
        <time>2013-09-14T09:32:13Z</time>
      </trkpt>
      <trkpt lat="45.25319" lon="5.24725">
        <ele>580</ele>
        <time>2013-09-14T09:32:16Z</time>
      </trkpt>
      <trkpt lat="45.25299" lon="5.24734">
        <ele>580</ele>
        <time>2013-09-14T09:32:20Z</time>
      </trkpt>
      <trkpt lat="45.25283" lon="5.24738">
        <ele>581</ele>
        <time>2013-09-14T09:32:23Z</time>
      </trkpt>
      <trkpt lat="45.2526" lon="5.24738">
        <ele>580</ele>
        <time>2013-09-14T09:32:27Z</time>
      </trkpt>
      <trkpt lat="45.25245" lon="5.24735">
        <ele>580</ele>
        <time>2013-09-14T09:32:30Z</time>
      </trkpt>
      <trkpt lat="45.25224" lon="5.24736">
        <ele>581</ele>
        <time>2013-09-14T09:32:34Z</time>
      </trkpt>
      <trkpt lat="45.25207" lon="5.24741">
        <ele>581</ele>
        <time>2013-09-14T09:32:37Z</time>
      </trkpt>
      <trkpt lat="45.25186" lon="5.2475">
        <ele>581</ele>
        <time>2013-09-14T09:32:41Z</time>
      </trkpt>
      <trkpt lat="45.25171" lon="5.24758">
        <ele>581</ele>
        <time>2013-09-14T09:32:44Z</time>
      </trkpt>
      <trkpt lat="45.2515" lon="5.24771">
        <ele>582</ele>
        <time>2013-09-14T09:32:48Z</time>
      </trkpt>
      <trkpt lat="45.25134" lon="5.24781">
        <ele>581</ele>
        <time>2013-09-14T09:32:51Z</time>
      </trkpt>
      <trkpt lat="45.25111" lon="5.24794">
        <ele>581</ele>
        <time>2013-09-14T09:32:55Z</time>
      </trkpt>
      <trkpt lat="45.25096" lon="5.24804">
        <ele>581</ele>
        <time>2013-09-14T09:32:58Z</time>
      </trkpt>
      <trkpt lat="45.25076" lon="5.24818">
        <ele>581</ele>
        <time>2013-09-14T09:33:02Z</time>
      </trkpt>
      <trkpt lat="45.25061" lon="5.24829">
        <ele>581</ele>
        <time>2013-09-14T09:33:05Z</time>
      </trkpt>
      <trkpt lat="45.25041" lon="5.24843">
        <ele>581</ele>
        <time>2013-09-14T09:33:09Z</time>
      </trkpt>
      <trkpt lat="45.25027" lon="5.24853">
        <ele>582</ele>
        <time>2013-09-14T09:33:12Z</time>
      </trkpt>
      <trkpt lat="45.25006" lon="5.24867">
        <ele>582</ele>
        <time>2013-09-14T09:33:16Z</time>
      </trkpt>
      <trkpt lat="45.24985" lon="5.24879">
        <ele>581</ele>
        <time>2013-09-14T09:33:20Z</time>
      </trkpt>
      <trkpt lat="45.24969" lon="5.24888">
        <ele>581</ele>
        <time>2013-09-14T09:33:23Z</time>
      </trkpt>
      <trkpt lat="45.24947" lon="5.24897">
        <ele>582</ele>
        <time>2013-09-14T09:33:27Z</time>
      </trkpt>
      <trkpt lat="45.2493" lon="5.24902">
        <ele>582</ele>
        <time>2013-09-14T09:33:30Z</time>
      </trkpt>
      <trkpt lat="45.24908" lon="5.2491">
        <ele>582</ele>
        <time>2013-09-14T09:33:34Z</time>
      </trkpt>
      <trkpt lat="45.24891" lon="5.24915">
        <ele>582</ele>
        <time>2013-09-14T09:33:37Z</time>
      </trkpt>
      <trkpt lat="45.24869" lon="5.24922">
        <ele>582</ele>
        <time>2013-09-14T09:33:41Z</time>
      </trkpt>
      <trkpt lat="45.24853" lon="5.24927">
        <ele>582</ele>
        <time>2013-09-14T09:33:44Z</time>
      </trkpt>
      <trkpt lat="45.24832" lon="5.24933">
        <ele>583</ele>
        <time>2013-09-14T09:33:48Z</time>
      </trkpt>
      <trkpt lat="45.24816" lon="5.24936">
        <ele>582</ele>
        <time>2013-09-14T09:33:51Z</time>
      </trkpt>
      <trkpt lat="45.24794" lon="5.24936">
        <ele>582</ele>
        <time>2013-09-14T09:33:55Z</time>
      </trkpt>
      <trkpt lat="45.24777" lon="5.24932">
        <ele>583</ele>
        <time>2013-09-14T09:33:58Z</time>
      </trkpt>
      <trkpt lat="45.24755" lon="5.24925">
        <ele>583</ele>
        <time>2013-09-14T09:34:02Z</time>
      </trkpt>
      <trkpt lat="45.2474" lon="5.24918">
        <ele>584</ele>
        <time>2013-09-14T09:34:05Z</time>
      </trkpt>
      <trkpt lat="45.24719" lon="5.24908">
        <ele>583</ele>
        <time>2013-09-14T09:34:09Z</time>
      </trkpt>
      <trkpt lat="45.24704" lon="5.249">
        <ele>583</ele>
        <time>2013-09-14T09:34:12Z</time>
      </trkpt>
      <trkpt lat="45.24683" lon="5.2489">
        <ele>583</ele>
        <time>2013-09-14T09:34:16Z</time>
      </trkpt>
      <trkpt lat="45.24667" lon="5.24882">
        <ele>584</ele>
        <time>2013-09-14T09:34:19Z</time>
      </trkpt>
      <trkpt lat="45.24644" lon="5.24872">
        <ele>584</ele>
        <time>2013-09-14T09:34:23Z</time>
      </trkpt>
      <trkpt lat="45.24626" lon="5.24863">
        <ele>584</ele>
        <time>2013-09-14T09:34:26Z</time>
      </trkpt>
      <trkpt lat="45.24601" lon="5.24853">
        <ele>584</ele>
        <time>2013-09-14T09:34:30Z</time>
      </trkpt>
      <trkpt lat="45.24581" lon="5.2485">
        <ele>584</ele>
        <time>2013-09-14T09:34:33Z</time>
      </trkpt>
      <trkpt lat="45.24556" lon="5.24859">
        <ele>585</ele>
        <time>2013-09-14T09:34:37Z</time>
      </trkpt>
      <trkpt lat="45.24539" lon="5.2487">
        <ele>585</ele>
        <time>2013-09-14T09:34:40Z</time>
      </trkpt>
      <trkpt lat="45.24518" lon="5.24883">
        <ele>585</ele>
        <time>2013-09-14T09:34:44Z</time>
      </trkpt>
      <trkpt lat="45.24502" lon="5.24891">
        <ele>585</ele>
        <time>2013-09-14T09:34:47Z</time>
      </trkpt>
      <trkpt lat="45.24484" lon="5.24902">
        <ele>586</ele>
        <time>2013-09-14T09:34:51Z</time>
      </trkpt>
      <trkpt lat="45.2447" lon="5.24911">
        <ele>586</ele>
        <time>2013-09-14T09:34:54Z</time>
      </trkpt>
      <trkpt lat="45.24452" lon="5.24923">
        <ele>587</ele>
        <time>2013-09-14T09:34:58Z</time>
      </trkpt>
      <trkpt lat="45.24434" lon="5.24934">
        <ele>587</ele>
        <time>2013-09-14T09:35:02Z</time>
      </trkpt>
      <trkpt lat="45.24422" lon="5.24941">
        <ele>588</ele>
        <time>2013-09-14T09:35:05Z</time>
      </trkpt>
      <trkpt lat="45.24404" lon="5.24949">
        <ele>589</ele>
        <time>2013-09-14T09:35:09Z</time>
      </trkpt>
      <trkpt lat="45.2439" lon="5.24954">
        <ele>589</ele>
        <time>2013-09-14T09:35:12Z</time>
      </trkpt>
      <trkpt lat="45.24374" lon="5.2496">
        <ele>589</ele>
        <time>2013-09-14T09:35:16Z</time>
      </trkpt>
      <trkpt lat="45.24362" lon="5.24965">
        <ele>590</ele>
        <time>2013-09-14T09:35:19Z</time>
      </trkpt>
      <trkpt lat="45.24345" lon="5.2497">
        <ele>590</ele>
        <time>2013-09-14T09:35:23Z</time>
      </trkpt>
      <trkpt lat="45.24333" lon="5.24973">
        <ele>591</ele>
        <time>2013-09-14T09:35:26Z</time>
      </trkpt>
      <trkpt lat="45.24318" lon="5.24976">
        <ele>591</ele>
        <time>2013-09-14T09:35:30Z</time>
      </trkpt>
      <trkpt lat="45.24305" lon="5.2498">
        <ele>591</ele>
        <time>2013-09-14T09:35:33Z</time>
      </trkpt>
      <trkpt lat="45.24287" lon="5.24982">
        <ele>592</ele>
        <time>2013-09-14T09:35:37Z</time>
      </trkpt>
      <trkpt lat="45.24273" lon="5.24984">
        <ele>592</ele>
        <time>2013-09-14T09:35:40Z</time>
      </trkpt>
      <trkpt lat="45.24255" lon="5.24985">
        <ele>593</ele>
        <time>2013-09-14T09:35:44Z</time>
      </trkpt>
      <trkpt lat="45.24242" lon="5.24987">
        <ele>593</ele>
        <time>2013-09-14T09:35:47Z</time>
      </trkpt>
      <trkpt lat="45.24223" lon="5.24989">
        <ele>593</ele>
        <time>2013-09-14T09:35:51Z</time>
      </trkpt>
      <trkpt lat="45.2421" lon="5.2499">
        <ele>594</ele>
        <time>2013-09-14T09:35:54Z</time>
      </trkpt>
      <trkpt lat="45.24193" lon="5.24988">
        <ele>594</ele>
        <time>2013-09-14T09:35:58Z</time>
      </trkpt>
      <trkpt lat="45.24182" lon="5.24984">
        <ele>595</ele>
        <time>2013-09-14T09:36:01Z</time>
      </trkpt>
      <trkpt lat="45.24166" lon="5.24978">
        <ele>594</ele>
        <time>2013-09-14T09:36:05Z</time>
      </trkpt>
      <trkpt lat="45.24153" lon="5.24972">
        <ele>596</ele>
        <time>2013-09-14T09:36:08Z</time>
      </trkpt>
      <trkpt lat="45.24137" lon="5.24963">
        <ele>595</ele>
        <time>2013-09-14T09:36:12Z</time>
      </trkpt>
      <trkpt lat="45.24125" lon="5.24953">
        <ele>595</ele>
        <time>2013-09-14T09:36:15Z</time>
      </trkpt>
      <trkpt lat="45.24111" lon="5.24939">
        <ele>596</ele>
        <time>2013-09-14T09:36:19Z</time>
      </trkpt>
      <trkpt lat="45.24101" lon="5.24929">
        <ele>596</ele>
        <time>2013-09-14T09:36:22Z</time>
      </trkpt>
      <trkpt lat="45.24086" lon="5.24914">
        <ele>597</ele>
        <time>2013-09-14T09:36:26Z</time>
      </trkpt>
      <trkpt lat="45.24076" lon="5.24903">
        <ele>597</ele>
        <time>2013-09-14T09:36:29Z</time>
      </trkpt>
      <trkpt lat="45.24063" lon="5.24889">
        <ele>598</ele>
        <time>2013-09-14T09:36:33Z</time>
      </trkpt>
      <trkpt lat="45.24049" lon="5.24874">
        <ele>598</ele>
        <time>2013-09-14T09:36:37Z</time>
      </trkpt>
      <trkpt lat="45.24038" lon="5.24864">
        <ele>598</ele>
        <time>2013-09-14T09:36:40Z</time>
      </trkpt>
      <trkpt lat="45.24024" lon="5.24851">
        <ele>599</ele>
        <time>2013-09-14T09:36:44Z</time>
      </trkpt>
      <trkpt lat="45.24014" lon="5.24841">
        <ele>599</ele>
        <time>2013-09-14T09:36:47Z</time>
      </trkpt>
      <trkpt lat="45.24" lon="5.24828">
        <ele>599</ele>
        <time>2013-09-14T09:36:51Z</time>
      </trkpt>
      <trkpt lat="45.2399" lon="5.24817">
        <ele>600</ele>
        <time>2013-09-14T09:36:54Z</time>
      </trkpt>
      <trkpt lat="45.23976" lon="5.24802">
        <ele>600</ele>
        <time>2013-09-14T09:36:58Z</time>
      </trkpt>
      <trkpt lat="45.23966" lon="5.24792">
        <ele>600</ele>
        <time>2013-09-14T09:37:01Z</time>
      </trkpt>
      <trkpt lat="45.23953" lon="5.24778">
        <ele>601</ele>
        <time>2013-09-14T09:37:05Z</time>
      </trkpt>
      <trkpt lat="45.23943" lon="5.24768">
        <ele>601</ele>
        <time>2013-09-14T09:37:08Z</time>
      </trkpt>
      <trkpt lat="45.2393" lon="5.24755">
        <ele>601</ele>
        <time>2013-09-14T09:37:12Z</time>
      </trkpt>
      <trkpt lat="45.2392" lon="5.24747">
        <ele>601</ele>
        <time>2013-09-14T09:37:15Z</time>
      </trkpt>
      <trkpt lat="45.23906" lon="5.24735">
        <ele>602</ele>
        <time>2013-09-14T09:37:19Z</time>
      </trkpt>
      <trkpt lat="45.23895" lon="5.2473">
        <ele>602</ele>
        <time>2013-09-14T09:37:22Z</time>
      </trkpt>
      <trkpt lat="45.2388" lon="5.24723">
        <ele>603</ele>
        <time>2013-09-14T09:37:26Z</time>
      </trkpt>
      <trkpt lat="45.23869" lon="5.24718">
        <ele>603</ele>
        <time>2013-09-14T09:37:29Z</time>
      </trkpt>
      <trkpt lat="45.23853" lon="5.24712">
        <ele>603</ele>
        <time>2013-09-14T09:37:33Z</time>
      </trkpt>
      <trkpt lat="45.23841" lon="5.24707">
        <ele>603</ele>
        <time>2013-09-14T09:37:36Z</time>
      </trkpt>
      <trkpt lat="45.23824" lon="5.247">
        <ele>603</ele>
        <time>2013-09-14T09:37:40Z</time>
      </trkpt>
      <trkpt lat="45.23813" lon="5.24695">
        <ele>603</ele>
        <time>2013-09-14T09:37:43Z</time>
      </trkpt>
      <trkpt lat="45.23798" lon="5.24687">
        <ele>604</ele>
        <time>2013-09-14T09:37:47Z</time>
      </trkpt>
      <trkpt lat="45.23786" lon="5.2468">
        <ele>604</ele>
        <time>2013-09-14T09:37:50Z</time>
      </trkpt>
      <trkpt lat="45.23771" lon="5.24668">
        <ele>605</ele>
        <time>2013-09-14T09:37:54Z</time>
      </trkpt>
      <trkpt lat="45.2376" lon="5.24657">
        <ele>605</ele>
        <time>2013-09-14T09:37:57Z</time>
      </trkpt>
      <trkpt lat="45.23747" lon="5.24643">
        <ele>605</ele>
        <time>2013-09-14T09:38:01Z</time>
      </trkpt>
      <trkpt lat="45.23737" lon="5.24633">
        <ele>606</ele>
        <time>2013-09-14T09:38:04Z</time>
      </trkpt>
      <trkpt lat="45.23725" lon="5.24618">
        <ele>606</ele>
        <time>2013-09-14T09:38:08Z</time>
      </trkpt>
      <trkpt lat="45.23716" lon="5.24607">
        <ele>606</ele>
        <time>2013-09-14T09:38:11Z</time>
      </trkpt>
      <trkpt lat="45.23705" lon="5.24591">
        <ele>607</ele>
        <time>2013-09-14T09:38:15Z</time>
      </trkpt>
      <trkpt lat="45.23692" lon="5.24577">
        <ele>607</ele>
        <time>2013-09-14T09:38:19Z</time>
      </trkpt>
      <trkpt lat="45.23683" lon="5.24567">
        <ele>608</ele>
        <time>2013-09-14T09:38:22Z</time>
      </trkpt>
      <trkpt lat="45.23672" lon="5.24552">
        <ele>608</ele>
        <time>2013-09-14T09:38:26Z</time>
      </trkpt>
      <trkpt lat="45.23663" lon="5.24542">
        <ele>609</ele>
        <time>2013-09-14T09:38:29Z</time>
      </trkpt>
      <trkpt lat="45.23653" lon="5.24529">
        <ele>609</ele>
        <time>2013-09-14T09:38:33Z</time>
      </trkpt>
      <trkpt lat="45.23644" lon="5.24518">
        <ele>609</ele>
        <time>2013-09-14T09:38:36Z</time>
      </trkpt>
      <trkpt lat="45.23632" lon="5.24504">
        <ele>610</ele>
        <time>2013-09-14T09:38:40Z</time>
      </trkpt>
      <trkpt lat="45.23624" lon="5.24493">
        <ele>609</ele>
        <time>2013-09-14T09:38:43Z</time>
      </trkpt>
      <trkpt lat="45.23612" lon="5.24477">
        <ele>610</ele>
        <time>2013-09-14T09:38:47Z</time>
      </trkpt>
      <trkpt lat="45.23602" lon="5.24465">
        <ele>610</ele>
        <time>2013-09-14T09:38:50Z</time>
      </trkpt>
      <trkpt lat="45.2359" lon="5.24447">
        <ele>610</ele>
        <time>2013-09-14T09:38:54Z</time>
      </trkpt>
      <trkpt lat="45.2358" lon="5.24435">
        <ele>611</ele>
        <time>2013-09-14T09:38:57Z</time>
      </trkpt>
      <trkpt lat="45.23566" lon="5.24421">
        <ele>611</ele>
        <time>2013-09-14T09:39:01Z</time>
      </trkpt>
      <trkpt lat="45.23555" lon="5.24413">
        <ele>611</ele>
        <time>2013-09-14T09:39:04Z</time>
      </trkpt>
      <trkpt lat="45.23541" lon="5.24404">
        <ele>611</ele>
        <time>2013-09-14T09:39:08Z</time>
      </trkpt>
      <trkpt lat="45.2353" lon="5.244">
        <ele>611</ele>
        <time>2013-09-14T09:39:11Z</time>
      </trkpt>
      <trkpt lat="45.23514" lon="5.24395">
        <ele>611</ele>
        <time>2013-09-14T09:39:15Z</time>
      </trkpt>
      <trkpt lat="45.23502" lon="5.24393">
        <ele>612</ele>
        <time>2013-09-14T09:39:18Z</time>
      </trkpt>
      <trkpt lat="45.23486" lon="5.24388">
        <ele>612</ele>
        <time>2013-09-14T09:39:22Z</time>
      </trkpt>
      <trkpt lat="45.23473" lon="5.24382">
        <ele>612</ele>
        <time>2013-09-14T09:39:25Z</time>
      </trkpt>
      <trkpt lat="45.23458" lon="5.24373">
        <ele>612</ele>
        <time>2013-09-14T09:39:29Z</time>
      </trkpt>
      <trkpt lat="45.23448" lon="5.24365">
        <ele>612</ele>
        <time>2013-09-14T09:39:32Z</time>
      </trkpt>
      <trkpt lat="45.23434" lon="5.24353">
        <ele>612</ele>
        <time>2013-09-14T09:39:36Z</time>
      </trkpt>
      <trkpt lat="45.23424" lon="5.24343">
        <ele>614</ele>
        <time>2013-09-14T09:39:39Z</time>
      </trkpt>
      <trkpt lat="45.23412" lon="5.2433">
        <ele>614</ele>
        <time>2013-09-14T09:39:43Z</time>
      </trkpt>
      <trkpt lat="45.23401" lon="5.24317">
        <ele>614</ele>
        <time>2013-09-14T09:39:46Z</time>
      </trkpt>
      <trkpt lat="45.23388" lon="5.24301">
        <ele>614</ele>
        <time>2013-09-14T09:39:50Z</time>
      </trkpt>
      <trkpt lat="45.23373" lon="5.24283">
        <ele>615</ele>
        <time>2013-09-14T09:39:54Z</time>
      </trkpt>
      <trkpt lat="45.23361" lon="5.24269">
        <ele>615</ele>
        <time>2013-09-14T09:39:57Z</time>
      </trkpt>
      <trkpt lat="45.23344" lon="5.24253">
        <ele>615</ele>
        <time>2013-09-14T09:40:01Z</time>
      </trkpt>
      <trkpt lat="45.23331" lon="5.24241">
        <ele>616</ele>
        <time>2013-09-14T09:40:04Z</time>
      </trkpt>
      <trkpt lat="45.23314" lon="5.24226">
        <ele>616</ele>
        <time>2013-09-14T09:40:08Z</time>
      </trkpt>
      <trkpt lat="45.23302" lon="5.24215">
        <ele>615</ele>
        <time>2013-09-14T09:40:11Z</time>
      </trkpt>
      <trkpt lat="45.23285" lon="5.24203">
        <ele>617</ele>
        <time>2013-09-14T09:40:15Z</time>
      </trkpt>
      <trkpt lat="45.23273" lon="5.24191">
        <ele>617</ele>
        <time>2013-09-14T09:40:18Z</time>
      </trkpt>
      <trkpt lat="45.23257" lon="5.24174">
        <ele>617</ele>
        <time>2013-09-14T09:40:22Z</time>
      </trkpt>
      <trkpt lat="45.23245" lon="5.24161">
        <ele>618</ele>
        <time>2013-09-14T09:40:25Z</time>
      </trkpt>
      <trkpt lat="45.2323" lon="5.24144">
        <ele>618</ele>
        <time>2013-09-14T09:40:29Z</time>
      </trkpt>
      <trkpt lat="45.23219" lon="5.2413">
        <ele>618</ele>
        <time>2013-09-14T09:40:32Z</time>
      </trkpt>
      <trkpt lat="45.23204" lon="5.24113">
        <ele>618</ele>
        <time>2013-09-14T09:40:36Z</time>
      </trkpt>
      <trkpt lat="45.23194" lon="5.241">
        <ele>619</ele>
        <time>2013-09-14T09:40:39Z</time>
      </trkpt>
      <trkpt lat="45.2318" lon="5.24083">
        <ele>620</ele>
        <time>2013-09-14T09:40:43Z</time>
      </trkpt>
      <trkpt lat="45.23168" lon="5.2407">
        <ele>620</ele>
        <time>2013-09-14T09:40:46Z</time>
      </trkpt>
      <trkpt lat="45.23153" lon="5.24054">
        <ele>620</ele>
        <time>2013-09-14T09:40:50Z</time>
      </trkpt>
      <trkpt lat="45.23141" lon="5.24042">
        <ele>621</ele>
        <time>2013-09-14T09:40:53Z</time>
      </trkpt>
      <trkpt lat="45.23125" lon="5.24028">
        <ele>622</ele>
        <time>2013-09-14T09:40:57Z</time>
      </trkpt>
      <trkpt lat="45.23113" lon="5.24017">
        <ele>622</ele>
        <time>2013-09-14T09:41:00Z</time>
      </trkpt>
      <trkpt lat="45.23096" lon="5.24005">
        <ele>622</ele>
        <time>2013-09-14T09:41:04Z</time>
      </trkpt>
      <trkpt lat="45.23083" lon="5.23996">
        <ele>623</ele>
        <time>2013-09-14T09:41:07Z</time>
      </trkpt>
      <trkpt lat="45.23066" lon="5.23984">
        <ele>623</ele>
        <time>2013-09-14T09:41:11Z</time>
      </trkpt>
      <trkpt lat="45.23054" lon="5.23976">
        <ele>624</ele>
        <time>2013-09-14T09:41:14Z</time>
      </trkpt>
      <trkpt lat="45.23037" lon="5.23967">
        <ele>624</ele>
        <time>2013-09-14T09:41:18Z</time>
      </trkpt>
      <trkpt lat="45.23024" lon="5.2396">
        <ele>625</ele>
        <time>2013-09-14T09:41:21Z</time>
      </trkpt>
      <trkpt lat="45.23007" lon="5.23953">
        <ele>625</ele>
        <time>2013-09-14T09:41:25Z</time>
      </trkpt>
      <trkpt lat="45.22989" lon="5.23944">
        <ele>626</ele>
        <time>2013-09-14T09:41:29Z</time>
      </trkpt>
      <trkpt lat="45.22977" lon="5.23935">
        <ele>625</ele>
        <time>2013-09-14T09:41:32Z</time>
      </trkpt>
      <trkpt lat="45.2296" lon="5.23921">
        <ele>626</ele>
        <time>2013-09-14T09:41:36Z</time>
      </trkpt>
      <trkpt lat="45.22948" lon="5.2391">
        <ele>627</ele>
        <time>2013-09-14T09:41:39Z</time>
      </trkpt>
      <trkpt lat="45.22933" lon="5.23895">
        <ele>627</ele>
        <time>2013-09-14T09:41:43Z</time>
      </trkpt>
      <trkpt lat="45.22921" lon="5.23885">
        <ele>627</ele>
        <time>2013-09-14T09:41:46Z</time>
      </trkpt>
      <trkpt lat="45.22905" lon="5.23876">
        <ele>628</ele>
        <time>2013-09-14T09:41:50Z</time>
      </trkpt>
      <trkpt lat="45.22893" lon="5.2387">
        <ele>629</ele>
        <time>2013-09-14T09:41:53Z</time>
      </trkpt>
      <trkpt lat="45.22876" lon="5.23864">
        <ele>629</ele>
        <time>2013-09-14T09:41:57Z</time>
      </trkpt>
      <trkpt lat="45.22862" lon="5.23858">
        <ele>630</ele>
        <time>2013-09-14T09:42:00Z</time>
      </trkpt>
      <trkpt lat="45.22844" lon="5.23849">
        <ele>630</ele>
        <time>2013-09-14T09:42:04Z</time>
      </trkpt>
      <trkpt lat="45.22831" lon="5.2384">
        <ele>630</ele>
        <time>2013-09-14T09:42:07Z</time>
      </trkpt>
      <trkpt lat="45.22813" lon="5.23828">
        <ele>632</ele>
        <time>2013-09-14T09:42:11Z</time>
      </trkpt>
      <trkpt lat="45.228" lon="5.23818">
        <ele>631</ele>
        <time>2013-09-14T09:42:14Z</time>
      </trkpt>
      <trkpt lat="45.22784" lon="5.23802">
        <ele>632</ele>
        <time>2013-09-14T09:42:18Z</time>
      </trkpt>
      <trkpt lat="45.22773" lon="5.23788">
        <ele>633</ele>
        <time>2013-09-14T09:42:21Z</time>
      </trkpt>
      <trkpt lat="45.22759" lon="5.2377">
        <ele>634</ele>
        <time>2013-09-14T09:42:25Z</time>
      </trkpt>
      <trkpt lat="45.2275" lon="5.23756">
        <ele>634</ele>
        <time>2013-09-14T09:42:28Z</time>
      </trkpt>
      <trkpt lat="45.22736" lon="5.23736">
        <ele>635</ele>
        <time>2013-09-14T09:42:32Z</time>
      </trkpt>
      <trkpt lat="45.22724" lon="5.23723">
        <ele>636</ele>
        <time>2013-09-14T09:42:35Z</time>
      </trkpt>
      <trkpt lat="45.22706" lon="5.23708">
        <ele>635</ele>
        <time>2013-09-14T09:42:39Z</time>
      </trkpt>
      <trkpt lat="45.22691" lon="5.23698">
        <ele>636</ele>
        <time>2013-09-14T09:42:42Z</time>
      </trkpt>
      <trkpt lat="45.22672" lon="5.23684">
        <ele>637</ele>
        <time>2013-09-14T09:42:46Z</time>
      </trkpt>
      <trkpt lat="45.22657" lon="5.23673">
        <ele>638</ele>
        <time>2013-09-14T09:42:49Z</time>
      </trkpt>
      <trkpt lat="45.22638" lon="5.23658">
        <ele>638</ele>
        <time>2013-09-14T09:42:53Z</time>
      </trkpt>
      <trkpt lat="45.22624" lon="5.23649">
        <ele>639</ele>
        <time>2013-09-14T09:42:56Z</time>
      </trkpt>
      <trkpt lat="45.22605" lon="5.23636">
        <ele>639</ele>
        <time>2013-09-14T09:43:00Z</time>
      </trkpt>
      <trkpt lat="45.2259" lon="5.23633">
        <ele>640</ele>
        <time>2013-09-14T09:43:03Z</time>
      </trkpt>
      <trkpt lat="45.22573" lon="5.23646">
        <ele>641</ele>
        <time>2013-09-14T09:43:07Z</time>
      </trkpt>
      <trkpt lat="45.22571" lon="5.23672">
        <ele>642</ele>
        <time>2013-09-14T09:43:11Z</time>
      </trkpt>
      <trkpt lat="45.22577" lon="5.23693">
        <ele>641</ele>
        <time>2013-09-14T09:43:14Z</time>
      </trkpt>
      <trkpt lat="45.22585" lon="5.23721">
        <ele>642</ele>
        <time>2013-09-14T09:43:18Z</time>
      </trkpt>
      <trkpt lat="45.2259" lon="5.23741">
        <ele>642</ele>
        <time>2013-09-14T09:43:21Z</time>
      </trkpt>
      <trkpt lat="45.22593" lon="5.23768">
        <ele>643</ele>
        <time>2013-09-14T09:43:25Z</time>
      </trkpt>
      <trkpt lat="45.22584" lon="5.23787">
        <ele>644</ele>
        <time>2013-09-14T09:43:28Z</time>
      </trkpt>
      <trkpt lat="45.22565" lon="5.23797">
        <ele>644</ele>
        <time>2013-09-14T09:43:32Z</time>
      </trkpt>
      <trkpt lat="45.22551" lon="5.23801">
        <ele>645</ele>
        <time>2013-09-14T09:43:35Z</time>
      </trkpt>
      <trkpt lat="45.22534" lon="5.23804">
        <ele>645</ele>
        <time>2013-09-14T09:43:39Z</time>
      </trkpt>
      <trkpt lat="45.2252" lon="5.23806">
        <ele>646</ele>
        <time>2013-09-14T09:43:42Z</time>
      </trkpt>
      <trkpt lat="45.22501" lon="5.23808">
        <ele>646</ele>
        <time>2013-09-14T09:43:46Z</time>
      </trkpt>
      <trkpt lat="45.22486" lon="5.23808">
        <ele>647</ele>
        <time>2013-09-14T09:43:49Z</time>
      </trkpt>
      <trkpt lat="45.22469" lon="5.23815">
        <ele>648</ele>
        <time>2013-09-14T09:43:53Z</time>
      </trkpt>
      <trkpt lat="45.22456" lon="5.23822">
        <ele>648</ele>
        <time>2013-09-14T09:43:56Z</time>
      </trkpt>
      <trkpt lat="45.22438" lon="5.23828">
        <ele>648</ele>
        <time>2013-09-14T09:44:00Z</time>
      </trkpt>
      <trkpt lat="45.22424" lon="5.23829">
        <ele>649</ele>
        <time>2013-09-14T09:44:03Z</time>
      </trkpt>
      <trkpt lat="45.22407" lon="5.23827">
        <ele>649</ele>
        <time>2013-09-14T09:44:07Z</time>
      </trkpt>
      <trkpt lat="45.22396" lon="5.23822">
        <ele>650</ele>
        <time>2013-09-14T09:44:10Z</time>
      </trkpt>
      <trkpt lat="45.2238" lon="5.23813">
        <ele>651</ele>
        <time>2013-09-14T09:44:14Z</time>
      </trkpt>
      <trkpt lat="45.22369" lon="5.23805">
        <ele>652</ele>
        <time>2013-09-14T09:44:17Z</time>
      </trkpt>
      <trkpt lat="45.22354" lon="5.23794">
        <ele>652</ele>
        <time>2013-09-14T09:44:21Z</time>
      </trkpt>
      <trkpt lat="45.22344" lon="5.23784">
        <ele>653</ele>
        <time>2013-09-14T09:44:24Z</time>
      </trkpt>
      <trkpt lat="45.22331" lon="5.2377">
        <ele>653</ele>
        <time>2013-09-14T09:44:28Z</time>
      </trkpt>
      <trkpt lat="45.22322" lon="5.23758">
        <ele>654</ele>
        <time>2013-09-14T09:44:31Z</time>
      </trkpt>
      <trkpt lat="45.22312" lon="5.2374">
        <ele>655</ele>
        <time>2013-09-14T09:44:35Z</time>
      </trkpt>
      <trkpt lat="45.22306" lon="5.23725">
        <ele>655</ele>
        <time>2013-09-14T09:44:38Z</time>
      </trkpt>
      <trkpt lat="45.223" lon="5.23703">
        <ele>655</ele>
        <time>2013-09-14T09:44:42Z</time>
      </trkpt>
      <trkpt lat="45.22296" lon="5.23681">
        <ele>656</ele>
        <time>2013-09-14T09:44:46Z</time>
      </trkpt>
      <trkpt lat="45.22294" lon="5.23665">
        <ele>656</ele>
        <time>2013-09-14T09:44:49Z</time>
      </trkpt>
      <trkpt lat="45.22293" lon="5.23645">
        <ele>657</ele>
        <time>2013-09-14T09:44:53Z</time>
      </trkpt>
      <trkpt lat="45.22293" lon="5.23629">
        <ele>657</ele>
        <time>2013-09-14T09:44:56Z</time>
      </trkpt>
      <trkpt lat="45.2229" lon="5.23609">
        <ele>658</ele>
        <time>2013-09-14T09:45:00Z</time>
      </trkpt>
      <trkpt lat="45.22283" lon="5.23596">
        <ele>658</ele>
        <time>2013-09-14T09:45:03Z</time>
      </trkpt>
      <trkpt lat="45.2227" lon="5.23584">
        <ele>659</ele>
        <time>2013-09-14T09:45:07Z</time>
      </trkpt>
      <trkpt lat="45.22261" lon="5.23578">
        <ele>659</ele>
        <time>2013-09-14T09:45:10Z</time>
      </trkpt>
      <trkpt lat="45.22249" lon="5.23571">
        <ele>660</ele>
        <time>2013-09-14T09:45:14Z</time>
      </trkpt>
      <trkpt lat="45.22239" lon="5.23566">
        <ele>660</ele>
        <time>2013-09-14T09:45:17Z</time>
      </trkpt>
      <trkpt lat="45.22225" lon="5.23559">
        <ele>661</ele>
        <time>2013-09-14T09:45:21Z</time>
      </trkpt>
      <trkpt lat="45.22215" lon="5.23555">
        <ele>662</ele>
        <time>2013-09-14T09:45:24Z</time>
      </trkpt>
      <trkpt lat="45.22201" lon="5.2355">
        <ele>662</ele>
        <time>2013-09-14T09:45:28Z</time>
      </trkpt>
      <trkpt lat="45.22191" lon="5.23545">
        <ele>662</ele>
        <time>2013-09-14T09:45:31Z</time>
      </trkpt>
      <trkpt lat="45.22177" lon="5.23539">
        <ele>662</ele>
        <time>2013-09-14T09:45:35Z</time>
      </trkpt>
      <trkpt lat="45.22167" lon="5.23535">
        <ele>663</ele>
        <time>2013-09-14T09:45:38Z</time>
      </trkpt>
      <trkpt lat="45.22153" lon="5.23529">
        <ele>664</ele>
        <time>2013-09-14T09:45:42Z</time>
      </trkpt>
      <trkpt lat="45.22142" lon="5.23524">
        <ele>665</ele>
        <time>2013-09-14T09:45:45Z</time>
      </trkpt>
      <trkpt lat="45.22127" lon="5.23518">
        <ele>664</ele>
        <time>2013-09-14T09:45:49Z</time>
      </trkpt>
      <trkpt lat="45.22115" lon="5.23513">
        <ele>665</ele>
        <time>2013-09-14T09:45:52Z</time>
      </trkpt>
      <trkpt lat="45.22101" lon="5.23502">
        <ele>665</ele>
        <time>2013-09-14T09:45:56Z</time>
      </trkpt>
      <trkpt lat="45.2209" lon="5.23493">
        <ele>666</ele>
        <time>2013-09-14T09:45:59Z</time>
      </trkpt>
      <trkpt lat="45.22076" lon="5.2348">
        <ele>666</ele>
        <time>2013-09-14T09:46:03Z</time>
      </trkpt>
      <trkpt lat="45.22067" lon="5.2347">
        <ele>666</ele>
        <time>2013-09-14T09:46:06Z</time>
      </trkpt>
      <trkpt lat="45.22056" lon="5.23456">
        <ele>667</ele>
        <time>2013-09-14T09:46:10Z</time>
      </trkpt>
      <trkpt lat="45.22047" lon="5.23444">
        <ele>668</ele>
        <time>2013-09-14T09:46:13Z</time>
      </trkpt>
      <trkpt lat="45.22035" lon="5.23429">
        <ele>667</ele>
        <time>2013-09-14T09:46:17Z</time>
      </trkpt>
      <trkpt lat="45.22025" lon="5.23418">
        <ele>668</ele>
        <time>2013-09-14T09:46:20Z</time>
      </trkpt>
      <trkpt lat="45.22013" lon="5.23406">
        <ele>669</ele>
        <time>2013-09-14T09:46:24Z</time>
      </trkpt>
      <trkpt lat="45.22" lon="5.23393">
        <ele>670</ele>
        <time>2013-09-14T09:46:28Z</time>
      </trkpt>
      <trkpt lat="45.2199" lon="5.23386">
        <ele>670</ele>
        <time>2013-09-14T09:46:31Z</time>
      </trkpt>
      <trkpt lat="45.21976" lon="5.23378">
        <ele>671</ele>
        <time>2013-09-14T09:46:35Z</time>
      </trkpt>
      <trkpt lat="45.21965" lon="5.23371">
        <ele>670</ele>
        <time>2013-09-14T09:46:38Z</time>
      </trkpt>
      <trkpt lat="45.2195" lon="5.23361">
        <ele>671</ele>
        <time>2013-09-14T09:46:42Z</time>
      </trkpt>
      <trkpt lat="45.2194" lon="5.23352">
        <ele>672</ele>
        <time>2013-09-14T09:46:45Z</time>
      </trkpt>
      <trkpt lat="45.2193" lon="5.23339">
        <ele>672</ele>
        <time>2013-09-14T09:46:49Z</time>
      </trkpt>
      <trkpt lat="45.21924" lon="5.23327">
        <ele>673</ele>
        <time>2013-09-14T09:46:52Z</time>
      </trkpt>
      <trkpt lat="45.21913" lon="5.23307">
        <ele>674</ele>
        <time>2013-09-14T09:46:56Z</time>
      </trkpt>
      <trkpt lat="45.21905" lon="5.23292">
        <ele>673</ele>
        <time>2013-09-14T09:46:59Z</time>
      </trkpt>
      <trkpt lat="45.21897" lon="5.23275">
        <ele>674</ele>
        <time>2013-09-14T09:47:03Z</time>
      </trkpt>
      <trkpt lat="45.21891" lon="5.23262">
        <ele>675</ele>
        <time>2013-09-14T09:47:06Z</time>
      </trkpt>
      <trkpt lat="45.21883" lon="5.23243">
        <ele>676</ele>
        <time>2013-09-14T09:47:10Z</time>
      </trkpt>
      <trkpt lat="45.21876" lon="5.23228">
        <ele>676</ele>
        <time>2013-09-14T09:47:13Z</time>
      </trkpt>
      <trkpt lat="45.21868" lon="5.23209">
        <ele>677</ele>
        <time>2013-09-14T09:47:17Z</time>
      </trkpt>
      <trkpt lat="45.2186" lon="5.23194">
        <ele>677</ele>
        <time>2013-09-14T09:47:20Z</time>
      </trkpt>
      <trkpt lat="45.21851" lon="5.23175">
        <ele>677</ele>
        <time>2013-09-14T09:47:24Z</time>
      </trkpt>
      <trkpt lat="45.21844" lon="5.23158">
        <ele>678</ele>
        <time>2013-09-14T09:47:27Z</time>
      </trkpt>
      <trkpt lat="45.21833" lon="5.23137">
        <ele>678</ele>
        <time>2013-09-14T09:47:31Z</time>
      </trkpt>
      <trkpt lat="45.21826" lon="5.23122">
        <ele>678</ele>
        <time>2013-09-14T09:47:34Z</time>
      </trkpt>
      <trkpt lat="45.21816" lon="5.23101">
        <ele>679</ele>
        <time>2013-09-14T09:47:38Z</time>
      </trkpt>
      <trkpt lat="45.21808" lon="5.23084">
        <ele>679</ele>
        <time>2013-09-14T09:47:41Z</time>
      </trkpt>
      <trkpt lat="45.21799" lon="5.23062">
        <ele>679</ele>
        <time>2013-09-14T09:47:45Z</time>
      </trkpt>
      <trkpt lat="45.21792" lon="5.23045">
        <ele>680</ele>
        <time>2013-09-14T09:47:48Z</time>
      </trkpt>
      <trkpt lat="45.21781" lon="5.23022">
        <ele>680</ele>
        <time>2013-09-14T09:47:52Z</time>
      </trkpt>
      <trkpt lat="45.21774" lon="5.23004">
        <ele>681</ele>
        <time>2013-09-14T09:47:55Z</time>
      </trkpt>
      <trkpt lat="45.21764" lon="5.22981">
        <ele>681</ele>
        <time>2013-09-14T09:47:59Z</time>
      </trkpt>
      <trkpt lat="45.21754" lon="5.22958">
        <ele>682</ele>
        <time>2013-09-14T09:48:03Z</time>
      </trkpt>
      <trkpt lat="45.21746" lon="5.22941">
        <ele>681</ele>
        <time>2013-09-14T09:48:06Z</time>
      </trkpt>
      <trkpt lat="45.21733" lon="5.2292">
        <ele>682</ele>
        <time>2013-09-14T09:48:10Z</time>
      </trkpt>
      <trkpt lat="45.21727" lon="5.2291">
        <ele>681</ele>
        <time>2013-09-14T09:48:13Z</time>
      </trkpt>
      <trkpt lat="45.21723" lon="5.22905">
        <ele>681</ele>
        <time>2013-09-14T09:48:17Z</time>
      </trkpt>
      <trkpt lat="45.21723" lon="5.22905">
        <ele>681</ele>
        <time>2013-09-14T09:48:20Z</time>
      </trkpt>
      <trkpt lat="45.21723" lon="5.22905">
        <ele>681</ele>
        <time>2013-09-14T09:48:24Z</time>
      </trkpt>
      <trkpt lat="45.21723" lon="5.22905">
        <ele>681</ele>
        <time>2013-09-14T09:48:27Z</time>
      </trkpt>
      <trkpt lat="45.21723" lon="5.22905">
        <ele>681</ele>
        <time>2013-09-14T09:48:31Z</time>
      </trkpt>
      <trkpt lat="45.21723" lon="5.22905">
        <ele>681</ele>
        <time>2013-09-14T09:48:34Z</time>
      </trkpt>
      <trkpt lat="45.21723" lon="5.22905">
        <ele>681</ele>
        <time>2013-09-14T09:48:38Z</time>
      </trkpt>
      <trkpt lat="45.21723" lon="5.22905">
        <ele>682</ele>
        <time>2013-09-14T09:48:41Z</time>
      </trkpt>
      <trkpt lat="45.21723" lon="5.22905">
        <ele>681</ele>
        <time>2013-09-14T09:48:45Z</time>
      </trkpt>
      <trkpt lat="45.21723" lon="5.22905">
        <ele>682</ele>
        <time>2013-09-14T09:48:48Z</time>
      </trkpt>
      <trkpt lat="45.21723" lon="5.22905">
        <ele>681</ele>
        <time>2013-09-14T09:48:52Z</time>
      </trkpt>
      <trkpt lat="45.21723" lon="5.22905">
        <ele>681</ele>
        <time>2013-09-14T09:48:55Z</time>
      </trkpt>
      <trkpt lat="45.21724" lon="5.22905">
        <ele>682</ele>
        <time>2013-09-14T09:48:59Z</time>
      </trkpt>
      <trkpt lat="45.21724" lon="5.22905">
        <ele>682</ele>
        <time>2013-09-14T09:49:02Z</time>
      </trkpt>
      <trkpt lat="45.21724" lon="5.22905">
        <ele>682</ele>
        <time>2013-09-14T09:49:06Z</time>
      </trkpt>
      <trkpt lat="45.21724" lon="5.22905">
        <ele>682</ele>
        <time>2013-09-14T09:49:09Z</time>
      </trkpt>
      <trkpt lat="45.21724" lon="5.22905">
        <ele>682</ele>
        <time>2013-09-14T09:49:13Z</time>
      </trkpt>
      <trkpt lat="45.21724" lon="5.22905">
        <ele>682</ele>
        <time>2013-09-14T09:49:16Z</time>
      </trkpt>
      <trkpt lat="45.21724" lon="5.22905">
        <ele>681</ele>
        <time>2013-09-14T09:49:20Z</time>
      </trkpt>
      <trkpt lat="45.21724" lon="5.22905">
        <ele>681</ele>
        <time>2013-09-14T09:49:23Z</time>
      </trkpt>
      <trkpt lat="45.21724" lon="5.22905">
        <ele>682</ele>
        <time>2013-09-14T09:49:27Z</time>
      </trkpt>
      <trkpt lat="45.21724" lon="5.22905">
        <ele>682</ele>
        <time>2013-09-14T09:49:30Z</time>
      </trkpt>
      <trkpt lat="45.21724" lon="5.22905">
        <ele>682</ele>
        <time>2013-09-14T09:49:34Z</time>
      </trkpt>
      <trkpt lat="45.21724" lon="5.22905">
        <ele>682</ele>
        <time>2013-09-14T09:49:38Z</time>
      </trkpt>
      <trkpt lat="45.21724" lon="5.22905">
        <ele>682</ele>
        <time>2013-09-14T09:49:41Z</time>
      </trkpt>
      <trkpt lat="45.21724" lon="5.22905">
        <ele>681</ele>
        <time>2013-09-14T09:49:45Z</time>
      </trkpt>
      <trkpt lat="45.21724" lon="5.22905">
        <ele>682</ele>
        <time>2013-09-14T09:49:48Z</time>
      </trkpt>
      <trkpt lat="45.21724" lon="5.22905">
        <ele>682</ele>
        <time>2013-09-14T09:49:52Z</time>
      </trkpt>
      <trkpt lat="45.21724" lon="5.22905">
        <ele>681</ele>
        <time>2013-09-14T09:49:55Z</time>
      </trkpt>
      <trkpt lat="45.21724" lon="5.22905">
        <ele>682</ele>
        <time>2013-09-14T09:49:59Z</time>
      </trkpt>
      <trkpt lat="45.21724" lon="5.22905">
        <ele>682</ele>
        <time>2013-09-14T09:50:02Z</time>
      </trkpt>
      <trkpt lat="45.21724" lon="5.22905">
        <ele>681</ele>
        <time>2013-09-14T09:50:06Z</time>
      </trkpt>
      <trkpt lat="45.21724" lon="5.22905">
        <ele>682</ele>
        <time>2013-09-14T09:50:09Z</time>
      </trkpt>
      <trkpt lat="45.21724" lon="5.22905">
        <ele>682</ele>
        <time>2013-09-14T09:50:13Z</time>
      </trkpt>
      <trkpt lat="45.21724" lon="5.22905">
        <ele>682</ele>
        <time>2013-09-14T09:50:16Z</time>
      </trkpt>
      <trkpt lat="45.21723" lon="5.22904">
        <ele>682</ele>
        <time>2013-09-14T09:50:20Z</time>
      </trkpt>
      <trkpt lat="45.21723" lon="5.22904">
        <ele>682</ele>
        <time>2013-09-14T09:50:23Z</time>
      </trkpt>
      <trkpt lat="45.21723" lon="5.22904">
        <ele>682</ele>
        <time>2013-09-14T09:50:27Z</time>
      </trkpt>
      <trkpt lat="45.21723" lon="5.22904">
        <ele>682</ele>
        <time>2013-09-14T09:50:30Z</time>
      </trkpt>
      <trkpt lat="45.21723" lon="5.22904">
        <ele>682</ele>
        <time>2013-09-14T09:50:34Z</time>
      </trkpt>
      <trkpt lat="45.21723" lon="5.22904">
        <ele>682</ele>
        <time>2013-09-14T09:50:37Z</time>
      </trkpt>
      <trkpt lat="45.21723" lon="5.22904">
        <ele>682</ele>
        <time>2013-09-14T09:50:41Z</time>
      </trkpt>
      <trkpt lat="45.21723" lon="5.22904">
        <ele>683</ele>
        <time>2013-09-14T09:50:44Z</time>
      </trkpt>
      <trkpt lat="45.21723" lon="5.22904">
        <ele>682</ele>
        <time>2013-09-14T09:50:48Z</time>
      </trkpt>
      <trkpt lat="45.21723" lon="5.22904">
        <ele>682</ele>
        <time>2013-09-14T09:50:51Z</time>
      </trkpt>
      <trkpt lat="45.21723" lon="5.22904">
        <ele>682</ele>
        <time>2013-09-14T09:50:55Z</time>
      </trkpt>
      <trkpt lat="45.21723" lon="5.22904">
        <ele>682</ele>
        <time>2013-09-14T09:50:58Z</time>
      </trkpt>
      <trkpt lat="45.21723" lon="5.22904">
        <ele>682</ele>
        <time>2013-09-14T09:51:02Z</time>
      </trkpt>
      <trkpt lat="45.21723" lon="5.22904">
        <ele>682</ele>
        <time>2013-09-14T09:51:05Z</time>
      </trkpt>
      <trkpt lat="45.21723" lon="5.22904">
        <ele>682</ele>
        <time>2013-09-14T09:51:09Z</time>
      </trkpt>
      <trkpt lat="45.21723" lon="5.22904">
        <ele>682</ele>
        <time>2013-09-14T09:51:12Z</time>
      </trkpt>
      <trkpt lat="45.21723" lon="5.22904">
        <ele>682</ele>
        <time>2013-09-14T09:51:16Z</time>
      </trkpt>
      <trkpt lat="45.21723" lon="5.22904">
        <ele>681</ele>
        <time>2013-09-14T09:51:20Z</time>
      </trkpt>
      <trkpt lat="45.21723" lon="5.22904">
        <ele>682</ele>
        <time>2013-09-14T09:51:23Z</time>
      </trkpt>
      <trkpt lat="45.21723" lon="5.22904">
        <ele>682</ele>
        <time>2013-09-14T09:51:27Z</time>
      </trkpt>
      <trkpt lat="45.21722" lon="5.22898">
        <ele>682</ele>
        <time>2013-09-14T09:51:30Z</time>
      </trkpt>
      <trkpt lat="45.21722" lon="5.22888">
        <ele>682</ele>
        <time>2013-09-14T09:51:34Z</time>
      </trkpt>
      <trkpt lat="45.21718" lon="5.22879">
        <ele>682</ele>
        <time>2013-09-14T09:51:37Z</time>
      </trkpt>
      <trkpt lat="45.2171" lon="5.22864">
        <ele>682</ele>
        <time>2013-09-14T09:51:41Z</time>
      </trkpt>
      <trkpt lat="45.21704" lon="5.2285">
        <ele>683</ele>
        <time>2013-09-14T09:51:44Z</time>
      </trkpt>
      <trkpt lat="45.21695" lon="5.22829">
        <ele>683</ele>
        <time>2013-09-14T09:51:48Z</time>
      </trkpt>
      <trkpt lat="45.21688" lon="5.22813">
        <ele>683</ele>
        <time>2013-09-14T09:51:51Z</time>
      </trkpt>
      <trkpt lat="45.21679" lon="5.2279">
        <ele>683</ele>
        <time>2013-09-14T09:51:55Z</time>
      </trkpt>
      <trkpt lat="45.2167" lon="5.22772">
        <ele>683</ele>
        <time>2013-09-14T09:51:58Z</time>
      </trkpt>
      <trkpt lat="45.21659" lon="5.22746">
        <ele>682</ele>
        <time>2013-09-14T09:52:02Z</time>
      </trkpt>
      <trkpt lat="45.2165" lon="5.22726">
        <ele>683</ele>
        <time>2013-09-14T09:52:05Z</time>
      </trkpt>
      <trkpt lat="45.21638" lon="5.22698">
        <ele>683</ele>
        <time>2013-09-14T09:52:09Z</time>
      </trkpt>
      <trkpt lat="45.21629" lon="5.22677">
        <ele>684</ele>
        <time>2013-09-14T09:52:12Z</time>
      </trkpt>
      <trkpt lat="45.21616" lon="5.22647">
        <ele>683</ele>
        <time>2013-09-14T09:52:16Z</time>
      </trkpt>
      <trkpt lat="45.21606" lon="5.22625">
        <ele>684</ele>
        <time>2013-09-14T09:52:19Z</time>
      </trkpt>
      <trkpt lat="45.21593" lon="5.22595">
        <ele>683</ele>
        <time>2013-09-14T09:52:23Z</time>
      </trkpt>
      <trkpt lat="45.21584" lon="5.22573">
        <ele>684</ele>
        <time>2013-09-14T09:52:26Z</time>
      </trkpt>
      <trkpt lat="45.21572" lon="5.22545">
        <ele>684</ele>
        <time>2013-09-14T09:52:30Z</time>
      </trkpt>
      <trkpt lat="45.21563" lon="5.22524">
        <ele>683</ele>
        <time>2013-09-14T09:52:33Z</time>
      </trkpt>
      <trkpt lat="45.21551" lon="5.22496">
        <ele>684</ele>
        <time>2013-09-14T09:52:37Z</time>
      </trkpt>
      <trkpt lat="45.21541" lon="5.22475">
        <ele>685</ele>
        <time>2013-09-14T09:52:40Z</time>
      </trkpt>
      <trkpt lat="45.21526" lon="5.22451">
        <ele>685</ele>
        <time>2013-09-14T09:52:44Z</time>
      </trkpt>
      <trkpt lat="45.21513" lon="5.22434">
        <ele>685</ele>
        <time>2013-09-14T09:52:47Z</time>
      </trkpt>
      <trkpt lat="45.21496" lon="5.2241">
        <ele>685</ele>
        <time>2013-09-14T09:52:51Z</time>
      </trkpt>
      <trkpt lat="45.21478" lon="5.22385">
        <ele>685</ele>
        <time>2013-09-14T09:52:55Z</time>
      </trkpt>
      <trkpt lat="45.21465" lon="5.22367">
        <ele>685</ele>
        <time>2013-09-14T09:52:58Z</time>
      </trkpt>
      <trkpt lat="45.21445" lon="5.22342">
        <ele>684</ele>
        <time>2013-09-14T09:53:02Z</time>
      </trkpt>
      <trkpt lat="45.21431" lon="5.22323">
        <ele>685</ele>
        <time>2013-09-14T09:53:05Z</time>
      </trkpt>
      <trkpt lat="45.21412" lon="5.22298">
        <ele>685</ele>
        <time>2013-09-14T09:53:09Z</time>
      </trkpt>
      <trkpt lat="45.21398" lon="5.22279">
        <ele>684</ele>
        <time>2013-09-14T09:53:12Z</time>
      </trkpt>
      <trkpt lat="45.2138" lon="5.22254">
        <ele>685</ele>
        <time>2013-09-14T09:53:16Z</time>
      </trkpt>
      <trkpt lat="45.21366" lon="5.22236">
        <ele>685</ele>
        <time>2013-09-14T09:53:19Z</time>
      </trkpt>
      <trkpt lat="45.21347" lon="5.22212">
        <ele>685</ele>
        <time>2013-09-14T09:53:23Z</time>
      </trkpt>
      <trkpt lat="45.21331" lon="5.22197">
        <ele>685</ele>
        <time>2013-09-14T09:53:26Z</time>
      </trkpt>
      <trkpt lat="45.21308" lon="5.22186">
        <ele>685</ele>
        <time>2013-09-14T09:53:30Z</time>
      </trkpt>
      <trkpt lat="45.2129" lon="5.22182">
        <ele>685</ele>
        <time>2013-09-14T09:53:33Z</time>
      </trkpt>
      <trkpt lat="45.21264" lon="5.22175">
        <ele>684</ele>
        <time>2013-09-14T09:53:37Z</time>
      </trkpt>
      <trkpt lat="45.21245" lon="5.22169">
        <ele>684</ele>
        <time>2013-09-14T09:53:40Z</time>
      </trkpt>
      <trkpt lat="45.21218" lon="5.22162">
        <ele>684</ele>
        <time>2013-09-14T09:53:44Z</time>
      </trkpt>
      <trkpt lat="45.21198" lon="5.22157">
        <ele>684</ele>
        <time>2013-09-14T09:53:47Z</time>
      </trkpt>
      <trkpt lat="45.21173" lon="5.22149">
        <ele>684</ele>
        <time>2013-09-14T09:53:51Z</time>
      </trkpt>
      <trkpt lat="45.21153" lon="5.22144">
        <ele>683</ele>
        <time>2013-09-14T09:53:54Z</time>
      </trkpt>
      <trkpt lat="45.21127" lon="5.22136">
        <ele>682</ele>
        <time>2013-09-14T09:53:58Z</time>
      </trkpt>
      <trkpt lat="45.21106" lon="5.22131">
        <ele>681</ele>
        <time>2013-09-14T09:54:01Z</time>
      </trkpt>
      <trkpt lat="45.21077" lon="5.22122">
        <ele>680</ele>
        <time>2013-09-14T09:54:05Z</time>
      </trkpt>
      <trkpt lat="45.21055" lon="5.22115">
        <ele>680</ele>
        <time>2013-09-14T09:54:08Z</time>
      </trkpt>
      <trkpt lat="45.21026" lon="5.22093">
        <ele>679</ele>
        <time>2013-09-14T09:54:12Z</time>
      </trkpt>
      <trkpt lat="45.21009" lon="5.22064">
        <ele>679</ele>
        <time>2013-09-14T09:54:15Z</time>
      </trkpt>
      <trkpt lat="45.20994" lon="5.22013">
        <ele>678</ele>
        <time>2013-09-14T09:54:19Z</time>
      </trkpt>
      <trkpt lat="45.20983" lon="5.21972">
        <ele>676</ele>
        <time>2013-09-14T09:54:22Z</time>
      </trkpt>
      <trkpt lat="45.20965" lon="5.21916">
        <ele>675</ele>
        <time>2013-09-14T09:54:26Z</time>
      </trkpt>
      <trkpt lat="45.20953" lon="5.21873">
        <ele>673</ele>
        <time>2013-09-14T09:54:29Z</time>
      </trkpt>
      <trkpt lat="45.20936" lon="5.21814">
        <ele>669</ele>
        <time>2013-09-14T09:54:33Z</time>
      </trkpt>
      <trkpt lat="45.20918" lon="5.21754">
        <ele>667</ele>
        <time>2013-09-14T09:54:37Z</time>
      </trkpt>
      <trkpt lat="45.20905" lon="5.21707">
        <ele>666</ele>
        <time>2013-09-14T09:54:40Z</time>
      </trkpt>
      <trkpt lat="45.20886" lon="5.21645">
        <ele>664</ele>
        <time>2013-09-14T09:54:44Z</time>
      </trkpt>
      <trkpt lat="45.20872" lon="5.21601">
        <ele>663</ele>
        <time>2013-09-14T09:54:47Z</time>
      </trkpt>
      <trkpt lat="45.20856" lon="5.21544">
        <ele>662</ele>
        <time>2013-09-14T09:54:51Z</time>
      </trkpt>
      <trkpt lat="45.20843" lon="5.21503">
        <ele>661</ele>
        <time>2013-09-14T09:54:54Z</time>
      </trkpt>
      <trkpt lat="45.20827" lon="5.2145">
        <ele>661</ele>
        <time>2013-09-14T09:54:58Z</time>
      </trkpt>
      <trkpt lat="45.20814" lon="5.21411">
        <ele>659</ele>
        <time>2013-09-14T09:55:01Z</time>
      </trkpt>
      <trkpt lat="45.2079" lon="5.21362">
        <ele>657</ele>
        <time>2013-09-14T09:55:05Z</time>
      </trkpt>
      <trkpt lat="45.20763" lon="5.21341">
        <ele>656</ele>
        <time>2013-09-14T09:55:08Z</time>
      </trkpt>
      <trkpt lat="45.20725" lon="5.21317">
        <ele>653</ele>
        <time>2013-09-14T09:55:12Z</time>
      </trkpt>
      <trkpt lat="45.20709" lon="5.21278">
        <ele>651</ele>
        <time>2013-09-14T09:55:15Z</time>
      </trkpt>
      <trkpt lat="45.20704" lon="5.21216">
        <ele>649</ele>
        <time>2013-09-14T09:55:19Z</time>
      </trkpt>
      <trkpt lat="45.20711" lon="5.21171">
        <ele>647</ele>
        <time>2013-09-14T09:55:22Z</time>
      </trkpt>
      <trkpt lat="45.20706" lon="5.21113">
        <ele>645</ele>
        <time>2013-09-14T09:55:26Z</time>
      </trkpt>
      <trkpt lat="45.20684" lon="5.2108">
        <ele>644</ele>
        <time>2013-09-14T09:55:29Z</time>
      </trkpt>
      <trkpt lat="45.20663" lon="5.21028">
        <ele>642</ele>
        <time>2013-09-14T09:55:33Z</time>
      </trkpt>
      <trkpt lat="45.20635" lon="5.21002">
        <ele>639</ele>
        <time>2013-09-14T09:55:36Z</time>
      </trkpt>
      <trkpt lat="45.206" lon="5.20964">
        <ele>637</ele>
        <time>2013-09-14T09:55:40Z</time>
      </trkpt>
      <trkpt lat="45.20584" lon="5.20923">
        <ele>635</ele>
        <time>2013-09-14T09:55:43Z</time>
      </trkpt>
      <trkpt lat="45.20578" lon="5.20859">
        <ele>633</ele>
        <time>2013-09-14T09:55:47Z</time>
      </trkpt>
      <trkpt lat="45.20567" lon="5.20815">
        <ele>632</ele>
        <time>2013-09-14T09:55:50Z</time>
      </trkpt>
      <trkpt lat="45.20529" lon="5.20782">
        <ele>630</ele>
        <time>2013-09-14T09:55:54Z</time>
      </trkpt>
      <trkpt lat="45.20499" lon="5.20763">
        <ele>627</ele>
        <time>2013-09-14T09:55:57Z</time>
      </trkpt>
      <trkpt lat="45.20452" lon="5.20763">
        <ele>625</ele>
        <time>2013-09-14T09:56:01Z</time>
      </trkpt>
      <trkpt lat="45.20417" lon="5.20774">
        <ele>623</ele>
        <time>2013-09-14T09:56:04Z</time>
      </trkpt>
      <trkpt lat="45.20369" lon="5.20791">
        <ele>621</ele>
        <time>2013-09-14T09:56:08Z</time>
      </trkpt>
      <trkpt lat="45.20321" lon="5.20806">
        <ele>618</ele>
        <time>2013-09-14T09:56:12Z</time>
      </trkpt>
      <trkpt lat="45.20283" lon="5.20815">
        <ele>615</ele>
        <time>2013-09-14T09:56:15Z</time>
      </trkpt>
      <trkpt lat="45.20234" lon="5.2081">
        <ele>612</ele>
        <time>2013-09-14T09:56:19Z</time>
      </trkpt>
      <trkpt lat="45.20201" lon="5.20793">
        <ele>609</ele>
        <time>2013-09-14T09:56:22Z</time>
      </trkpt>
      <trkpt lat="45.2017" lon="5.20747">
        <ele>606</ele>
        <time>2013-09-14T09:56:26Z</time>
      </trkpt>
      <trkpt lat="45.20151" lon="5.20704">
        <ele>604</ele>
        <time>2013-09-14T09:56:29Z</time>
      </trkpt>
      <trkpt lat="45.20119" lon="5.20654">
        <ele>602</ele>
        <time>2013-09-14T09:56:33Z</time>
      </trkpt>
      <trkpt lat="45.20087" lon="5.20626">
        <ele>600</ele>
        <time>2013-09-14T09:56:36Z</time>
      </trkpt>
      <trkpt lat="45.2004" lon="5.20598">
        <ele>597</ele>
        <time>2013-09-14T09:56:40Z</time>
      </trkpt>
      <trkpt lat="45.20002" lon="5.20577">
        <ele>594</ele>
        <time>2013-09-14T09:56:43Z</time>
      </trkpt>
      <trkpt lat="45.19953" lon="5.20554">
        <ele>591</ele>
        <time>2013-09-14T09:56:47Z</time>
      </trkpt>
      <trkpt lat="45.19915" lon="5.2054">
        <ele>589</ele>
        <time>2013-09-14T09:56:50Z</time>
      </trkpt>
      <trkpt lat="45.19865" lon="5.2052">
        <ele>587</ele>
        <time>2013-09-14T09:56:54Z</time>
      </trkpt>
      <trkpt lat="45.19831" lon="5.20506">
        <ele>584</ele>
        <time>2013-09-14T09:56:57Z</time>
      </trkpt>
      <trkpt lat="45.19795" lon="5.20472">
        <ele>581</ele>
        <time>2013-09-14T09:57:01Z</time>
      </trkpt>
      <trkpt lat="45.19782" lon="5.20429">
        <ele>578</ele>
        <time>2013-09-14T09:57:04Z</time>
      </trkpt>
      <trkpt lat="45.19776" lon="5.20365">
        <ele>576</ele>
        <time>2013-09-14T09:57:08Z</time>
      </trkpt>
      <trkpt lat="45.19771" lon="5.20319">
        <ele>574</ele>
        <time>2013-09-14T09:57:11Z</time>
      </trkpt>
      <trkpt lat="45.19777" lon="5.20261">
        <ele>571</ele>
        <time>2013-09-14T09:57:15Z</time>
      </trkpt>
      <trkpt lat="45.19783" lon="5.20227">
        <ele>569</ele>
        <time>2013-09-14T09:57:18Z</time>
      </trkpt>
      <trkpt lat="45.1976" lon="5.20193">
        <ele>567</ele>
        <time>2013-09-14T09:57:22Z</time>
      </trkpt>
      <trkpt lat="45.19742" lon="5.20167">
        <ele>567</ele>
        <time>2013-09-14T09:57:25Z</time>
      </trkpt>
      <trkpt lat="45.19719" lon="5.20125">
        <ele>565</ele>
        <time>2013-09-14T09:57:29Z</time>
      </trkpt>
      <trkpt lat="45.197" lon="5.2009">
        <ele>564</ele>
        <time>2013-09-14T09:57:32Z</time>
      </trkpt>
      <trkpt lat="45.19677" lon="5.20043">
        <ele>561</ele>
        <time>2013-09-14T09:57:36Z</time>
      </trkpt>
      <trkpt lat="45.19661" lon="5.20015">
        <ele>559</ele>
        <time>2013-09-14T09:57:39Z</time>
      </trkpt>
      <trkpt lat="45.19647" lon="5.19995">
        <ele>556</ele>
        <time>2013-09-14T09:57:43Z</time>
      </trkpt>
      <trkpt lat="45.1964" lon="5.19991">
        <ele>556</ele>
        <time>2013-09-14T09:57:47Z</time>
      </trkpt>
      <trkpt lat="45.19635" lon="5.19987">
        <ele>555</ele>
        <time>2013-09-14T09:57:50Z</time>
      </trkpt>
      <trkpt lat="45.1963" lon="5.1999">
        <ele>555</ele>
        <time>2013-09-14T09:57:54Z</time>
      </trkpt>
      <trkpt lat="45.1963" lon="5.19991">
        <ele>555</ele>
        <time>2013-09-14T09:57:57Z</time>
      </trkpt>
      <trkpt lat="45.1963" lon="5.19991">
        <ele>555</ele>
        <time>2013-09-14T09:58:01Z</time>
      </trkpt>
      <trkpt lat="45.1963" lon="5.19991">
        <ele>555</ele>
        <time>2013-09-14T09:58:04Z</time>
      </trkpt>
      <trkpt lat="45.19628" lon="5.19986">
        <ele>555</ele>
        <time>2013-09-14T09:58:08Z</time>
      </trkpt>
      <trkpt lat="45.19624" lon="5.19983">
        <ele>555</ele>
        <time>2013-09-14T09:58:11Z</time>
      </trkpt>
      <trkpt lat="45.19616" lon="5.1998">
        <ele>554</ele>
        <time>2013-09-14T09:58:15Z</time>
      </trkpt>
      <trkpt lat="45.19609" lon="5.19977">
        <ele>554</ele>
        <time>2013-09-14T09:58:18Z</time>
      </trkpt>
      <trkpt lat="45.19598" lon="5.19969">
        <ele>554</ele>
        <time>2013-09-14T09:58:22Z</time>
      </trkpt>
      <trkpt lat="45.1959" lon="5.19965">
        <ele>555</ele>
        <time>2013-09-14T09:58:25Z</time>
      </trkpt>
      <trkpt lat="45.19577" lon="5.19958">
        <ele>554</ele>
        <time>2013-09-14T09:58:29Z</time>
      </trkpt>
      <trkpt lat="45.19569" lon="5.19953">
        <ele>554</ele>
        <time>2013-09-14T09:58:32Z</time>
      </trkpt>
      <trkpt lat="45.19554" lon="5.19947">
        <ele>555</ele>
        <time>2013-09-14T09:58:36Z</time>
      </trkpt>
      <trkpt lat="45.1954" lon="5.1994">
        <ele>554</ele>
        <time>2013-09-14T09:58:39Z</time>
      </trkpt>
      <trkpt lat="45.19519" lon="5.1993">
        <ele>555</ele>
        <time>2013-09-14T09:58:43Z</time>
      </trkpt>
      <trkpt lat="45.19501" lon="5.19922">
        <ele>554</ele>
        <time>2013-09-14T09:58:46Z</time>
      </trkpt>
      <trkpt lat="45.19479" lon="5.19911">
        <ele>555</ele>
        <time>2013-09-14T09:58:50Z</time>
      </trkpt>
      <trkpt lat="45.19461" lon="5.19902">
        <ele>554</ele>
        <time>2013-09-14T09:58:53Z</time>
      </trkpt>
      <trkpt lat="45.19436" lon="5.19891">
        <ele>555</ele>
        <time>2013-09-14T09:58:57Z</time>
      </trkpt>
      <trkpt lat="45.19415" lon="5.19889">
        <ele>555</ele>
        <time>2013-09-14T09:59:00Z</time>
      </trkpt>
      <trkpt lat="45.1939" lon="5.19892">
        <ele>555</ele>
        <time>2013-09-14T09:59:04Z</time>
      </trkpt>
      <trkpt lat="45.19372" lon="5.19892">
        <ele>555</ele>
        <time>2013-09-14T09:59:07Z</time>
      </trkpt>
      <trkpt lat="45.19349" lon="5.19889">
        <ele>555</ele>
        <time>2013-09-14T09:59:11Z</time>
      </trkpt>
      <trkpt lat="45.19332" lon="5.19884">
        <ele>555</ele>
        <time>2013-09-14T09:59:14Z</time>
      </trkpt>
      <trkpt lat="45.1931" lon="5.19875">
        <ele>557</ele>
        <time>2013-09-14T09:59:18Z</time>
      </trkpt>
      <trkpt lat="45.19294" lon="5.1987">
        <ele>557</ele>
        <time>2013-09-14T09:59:21Z</time>
      </trkpt>
      <trkpt lat="45.1927" lon="5.19866">
        <ele>557</ele>
        <time>2013-09-14T09:59:25Z</time>
      </trkpt>
      <trkpt lat="45.19246" lon="5.19863">
        <ele>557</ele>
        <time>2013-09-14T09:59:29Z</time>
      </trkpt>
      <trkpt lat="45.19228" lon="5.1986">
        <ele>558</ele>
        <time>2013-09-14T09:59:32Z</time>
      </trkpt>
      <trkpt lat="45.19206" lon="5.19858">
        <ele>558</ele>
        <time>2013-09-14T09:59:36Z</time>
      </trkpt>
      <trkpt lat="45.19189" lon="5.19856">
        <ele>558</ele>
        <time>2013-09-14T09:59:39Z</time>
      </trkpt>
      <trkpt lat="45.19169" lon="5.19851">
        <ele>559</ele>
        <time>2013-09-14T09:59:43Z</time>
      </trkpt>
      <trkpt lat="45.19154" lon="5.19848">
        <ele>559</ele>
        <time>2013-09-14T09:59:46Z</time>
      </trkpt>
      <trkpt lat="45.19131" lon="5.19847">
        <ele>559</ele>
        <time>2013-09-14T09:59:50Z</time>
      </trkpt>
      <trkpt lat="45.19113" lon="5.19849">
        <ele>559</ele>
        <time>2013-09-14T09:59:53Z</time>
      </trkpt>
      <trkpt lat="45.19087" lon="5.19847">
        <ele>560</ele>
        <time>2013-09-14T09:59:57Z</time>
      </trkpt>
      <trkpt lat="45.1907" lon="5.19847">
        <ele>560</ele>
        <time>2013-09-14T10:00:00Z</time>
      </trkpt>
      <trkpt lat="45.19046" lon="5.19848">
        <ele>560</ele>
        <time>2013-09-14T10:00:04Z</time>
      </trkpt>
      <trkpt lat="45.19027" lon="5.19846">
        <ele>560</ele>
        <time>2013-09-14T10:00:07Z</time>
      </trkpt>
      <trkpt lat="45.19002" lon="5.19837">
        <ele>561</ele>
        <time>2013-09-14T10:00:11Z</time>
      </trkpt>
      <trkpt lat="45.18984" lon="5.19826">
        <ele>560</ele>
        <time>2013-09-14T10:00:14Z</time>
      </trkpt>
      <trkpt lat="45.1896" lon="5.19805">
        <ele>561</ele>
        <time>2013-09-14T10:00:18Z</time>
      </trkpt>
      <trkpt lat="45.18948" lon="5.19783">
        <ele>561</ele>
        <time>2013-09-14T10:00:21Z</time>
      </trkpt>
      <trkpt lat="45.18938" lon="5.1975">
        <ele>561</ele>
        <time>2013-09-14T10:00:25Z</time>
      </trkpt>
      <trkpt lat="45.18928" lon="5.19727">
        <ele>562</ele>
        <time>2013-09-14T10:00:28Z</time>
      </trkpt>
      <trkpt lat="45.18909" lon="5.19703">
        <ele>563</ele>
        <time>2013-09-14T10:00:32Z</time>
      </trkpt>
      <trkpt lat="45.18889" lon="5.19698">
        <ele>562</ele>
        <time>2013-09-14T10:00:35Z</time>
      </trkpt>
      <trkpt lat="45.18858" lon="5.19694">
        <ele>561</ele>
        <time>2013-09-14T10:00:39Z</time>
      </trkpt>
      <trkpt lat="45.18835" lon="5.19696">
        <ele>561</ele>
        <time>2013-09-14T10:00:42Z</time>
      </trkpt>
      <trkpt lat="45.18802" lon="5.19705">
        <ele>561</ele>
        <time>2013-09-14T10:00:46Z</time>
      </trkpt>
      <trkpt lat="45.18778" lon="5.19714">
        <ele>561</ele>
        <time>2013-09-14T10:00:49Z</time>
      </trkpt>
      <trkpt lat="45.18752" lon="5.1974">
        <ele>560</ele>
        <time>2013-09-14T10:00:53Z</time>
      </trkpt>
      <trkpt lat="45.18736" lon="5.19764">
        <ele>560</ele>
        <time>2013-09-14T10:00:56Z</time>
      </trkpt>
      <trkpt lat="45.18706" lon="5.19786">
        <ele>559</ele>
        <time>2013-09-14T10:01:00Z</time>
      </trkpt>
      <trkpt lat="45.18673" lon="5.19788">
        <ele>559</ele>
        <time>2013-09-14T10:01:04Z</time>
      </trkpt>
      <trkpt lat="45.18648" lon="5.19787">
        <ele>559</ele>
        <time>2013-09-14T10:01:07Z</time>
      </trkpt>
      <trkpt lat="45.18616" lon="5.19797">
        <ele>558</ele>
        <time>2013-09-14T10:01:11Z</time>
      </trkpt>
      <trkpt lat="45.18596" lon="5.19818">
        <ele>558</ele>
        <time>2013-09-14T10:01:14Z</time>
      </trkpt>
      <trkpt lat="45.18563" lon="5.19829">
        <ele>559</ele>
        <time>2013-09-14T10:01:18Z</time>
      </trkpt>
      <trkpt lat="45.18538" lon="5.19827">
        <ele>558</ele>
        <time>2013-09-14T10:01:21Z</time>
      </trkpt>
      <trkpt lat="45.18506" lon="5.1983">
        <ele>557</ele>
        <time>2013-09-14T10:01:25Z</time>
      </trkpt>
      <trkpt lat="45.18482" lon="5.19839">
        <ele>556</ele>
        <time>2013-09-14T10:01:28Z</time>
      </trkpt>
      <trkpt lat="45.18449" lon="5.19857">
        <ele>556</ele>
        <time>2013-09-14T10:01:32Z</time>
      </trkpt>
      <trkpt lat="45.18424" lon="5.19869">
        <ele>556</ele>
        <time>2013-09-14T10:01:35Z</time>
      </trkpt>
      <trkpt lat="45.18392" lon="5.19886">
        <ele>556</ele>
        <time>2013-09-14T10:01:39Z</time>
      </trkpt>
      <trkpt lat="45.18373" lon="5.1991">
        <ele>554</ele>
        <time>2013-09-14T10:01:42Z</time>
      </trkpt>
      <trkpt lat="45.18346" lon="5.19941">
        <ele>554</ele>
        <time>2013-09-14T10:01:46Z</time>
      </trkpt>
      <trkpt lat="45.18326" lon="5.19964">
        <ele>554</ele>
        <time>2013-09-14T10:01:49Z</time>
      </trkpt>
      <trkpt lat="45.18299" lon="5.19992">
        <ele>552</ele>
        <time>2013-09-14T10:01:53Z</time>
      </trkpt>
      <trkpt lat="45.18282" lon="5.20018">
        <ele>553</ele>
        <time>2013-09-14T10:01:56Z</time>
      </trkpt>
      <trkpt lat="45.1826" lon="5.20053">
        <ele>553</ele>
        <time>2013-09-14T10:02:00Z</time>
      </trkpt>
      <trkpt lat="45.18237" lon="5.20071">
        <ele>552</ele>
        <time>2013-09-14T10:02:03Z</time>
      </trkpt>
      <trkpt lat="45.18205" lon="5.20086">
        <ele>551</ele>
        <time>2013-09-14T10:02:07Z</time>
      </trkpt>
      <trkpt lat="45.18179" lon="5.20093">
        <ele>551</ele>
        <time>2013-09-14T10:02:10Z</time>
      </trkpt>
      <trkpt lat="45.18145" lon="5.201">
        <ele>551</ele>
        <time>2013-09-14T10:02:14Z</time>
      </trkpt>
      <trkpt lat="45.18121" lon="5.20107">
        <ele>550</ele>
        <time>2013-09-14T10:02:17Z</time>
      </trkpt>
      <trkpt lat="45.1809" lon="5.2012">
        <ele>550</ele>
        <time>2013-09-14T10:02:21Z</time>
      </trkpt>
      <trkpt lat="45.18065" lon="5.20123">
        <ele>551</ele>
        <time>2013-09-14T10:02:24Z</time>
      </trkpt>
      <trkpt lat="45.18032" lon="5.20121">
        <ele>549</ele>
        <time>2013-09-14T10:02:28Z</time>
      </trkpt>
      <trkpt lat="45.18008" lon="5.20129">
        <ele>549</ele>
        <time>2013-09-14T10:02:31Z</time>
      </trkpt>
      <trkpt lat="45.17986" lon="5.2016">
        <ele>549</ele>
        <time>2013-09-14T10:02:35Z</time>
      </trkpt>
      <trkpt lat="45.17961" lon="5.20184">
        <ele>547</ele>
        <time>2013-09-14T10:02:39Z</time>
      </trkpt>
      <trkpt lat="45.1794" lon="5.20194">
        <ele>547</ele>
        <time>2013-09-14T10:02:42Z</time>
      </trkpt>
      <trkpt lat="45.17911" lon="5.20198">
        <ele>548</ele>
        <time>2013-09-14T10:02:46Z</time>
      </trkpt>
      <trkpt lat="45.17889" lon="5.20189">
        <ele>547</ele>
        <time>2013-09-14T10:02:49Z</time>
      </trkpt>
      <trkpt lat="45.17863" lon="5.20201">
        <ele>547</ele>
        <time>2013-09-14T10:02:53Z</time>
      </trkpt>
      <trkpt lat="45.17848" lon="5.20223">
        <ele>547</ele>
        <time>2013-09-14T10:02:56Z</time>
      </trkpt>
      <trkpt lat="45.17819" lon="5.20242">
        <ele>546</ele>
        <time>2013-09-14T10:03:00Z</time>
      </trkpt>
      <trkpt lat="45.17796" lon="5.20237">
        <ele>545</ele>
        <time>2013-09-14T10:03:03Z</time>
      </trkpt>
      <trkpt lat="45.17766" lon="5.20238">
        <ele>545</ele>
        <time>2013-09-14T10:03:07Z</time>
      </trkpt>
      <trkpt lat="45.17743" lon="5.20242">
        <ele>545</ele>
        <time>2013-09-14T10:03:10Z</time>
      </trkpt>
      <trkpt lat="45.17717" lon="5.20221">
        <ele>545</ele>
        <time>2013-09-14T10:03:14Z</time>
      </trkpt>
      <trkpt lat="45.17701" lon="5.20201">
        <ele>546</ele>
        <time>2013-09-14T10:03:17Z</time>
      </trkpt>
      <trkpt lat="45.17679" lon="5.20173">
        <ele>547</ele>
        <time>2013-09-14T10:03:21Z</time>
      </trkpt>
      <trkpt lat="45.17665" lon="5.20151">
        <ele>546</ele>
        <time>2013-09-14T10:03:24Z</time>
      </trkpt>
      <trkpt lat="45.17654" lon="5.20115">
        <ele>548</ele>
        <time>2013-09-14T10:03:28Z</time>
      </trkpt>
      <trkpt lat="45.17645" lon="5.20085">
        <ele>547</ele>
        <time>2013-09-14T10:03:31Z</time>
      </trkpt>
      <trkpt lat="45.17629" lon="5.20054">
        <ele>548</ele>
        <time>2013-09-14T10:03:35Z</time>
      </trkpt>
      <trkpt lat="45.17614" lon="5.20033">
        <ele>549</ele>
        <time>2013-09-14T10:03:38Z</time>
      </trkpt>
      <trkpt lat="45.1759" lon="5.2001">
        <ele>548</ele>
        <time>2013-09-14T10:03:42Z</time>
      </trkpt>
      <trkpt lat="45.17569" lon="5.19999">
        <ele>550</ele>
        <time>2013-09-14T10:03:45Z</time>
      </trkpt>
      <trkpt lat="45.17542" lon="5.19987">
        <ele>549</ele>
        <time>2013-09-14T10:03:49Z</time>
      </trkpt>
      <trkpt lat="45.17522" lon="5.19978">
        <ele>550</ele>
        <time>2013-09-14T10:03:52Z</time>
      </trkpt>
      <trkpt lat="45.17496" lon="5.19963">
        <ele>550</ele>
        <time>2013-09-14T10:03:56Z</time>
      </trkpt>
      <trkpt lat="45.17476" lon="5.19952">
        <ele>549</ele>
        <time>2013-09-14T10:03:59Z</time>
      </trkpt>
      <trkpt lat="45.17451" lon="5.19937">
        <ele>550</ele>
        <time>2013-09-14T10:04:03Z</time>
      </trkpt>
      <trkpt lat="45.17432" lon="5.19924">
        <ele>550</ele>
        <time>2013-09-14T10:04:06Z</time>
      </trkpt>
      <trkpt lat="45.17405" lon="5.19917">
        <ele>551</ele>
        <time>2013-09-14T10:04:10Z</time>
      </trkpt>
      <trkpt lat="45.17386" lon="5.19921">
        <ele>552</ele>
        <time>2013-09-14T10:04:13Z</time>
      </trkpt>
      <trkpt lat="45.17359" lon="5.1993">
        <ele>552</ele>
        <time>2013-09-14T10:04:17Z</time>
      </trkpt>
      <trkpt lat="45.17334" lon="5.19949">
        <ele>552</ele>
        <time>2013-09-14T10:04:21Z</time>
      </trkpt>
      <trkpt lat="45.17316" lon="5.19966">
        <ele>553</ele>
        <time>2013-09-14T10:04:24Z</time>
      </trkpt>
      <trkpt lat="45.17294" lon="5.19988">
        <ele>553</ele>
        <time>2013-09-14T10:04:28Z</time>
      </trkpt>
      <trkpt lat="45.17278" lon="5.20005">
        <ele>553</ele>
        <time>2013-09-14T10:04:31Z</time>
      </trkpt>
      <trkpt lat="45.17258" lon="5.20027">
        <ele>554</ele>
        <time>2013-09-14T10:04:35Z</time>
      </trkpt>
      <trkpt lat="45.17243" lon="5.20039">
        <ele>554</ele>
        <time>2013-09-14T10:04:38Z</time>
      </trkpt>
      <trkpt lat="45.17223" lon="5.20055">
        <ele>555</ele>
        <time>2013-09-14T10:04:42Z</time>
      </trkpt>
      <trkpt lat="45.17208" lon="5.20057">
        <ele>555</ele>
        <time>2013-09-14T10:04:45Z</time>
      </trkpt>
      <trkpt lat="45.17186" lon="5.20055">
        <ele>555</ele>
        <time>2013-09-14T10:04:49Z</time>
      </trkpt>
      <trkpt lat="45.1717" lon="5.20053">
        <ele>555</ele>
        <time>2013-09-14T10:04:52Z</time>
      </trkpt>
      <trkpt lat="45.17148" lon="5.20058">
        <ele>557</ele>
        <time>2013-09-14T10:04:56Z</time>
      </trkpt>
      <trkpt lat="45.17132" lon="5.20069">
        <ele>556</ele>
        <time>2013-09-14T10:04:59Z</time>
      </trkpt>
      <trkpt lat="45.17113" lon="5.2009">
        <ele>558</ele>
        <time>2013-09-14T10:05:03Z</time>
      </trkpt>
      <trkpt lat="45.17098" lon="5.20107">
        <ele>557</ele>
        <time>2013-09-14T10:05:06Z</time>
      </trkpt>
      <trkpt lat="45.17077" lon="5.20128">
        <ele>558</ele>
        <time>2013-09-14T10:05:10Z</time>
      </trkpt>
      <trkpt lat="45.17059" lon="5.2014">
        <ele>559</ele>
        <time>2013-09-14T10:05:13Z</time>
      </trkpt>
      <trkpt lat="45.17034" lon="5.20151">
        <ele>558</ele>
        <time>2013-09-14T10:05:17Z</time>
      </trkpt>
      <trkpt lat="45.17013" lon="5.20154">
        <ele>557</ele>
        <time>2013-09-14T10:05:20Z</time>
      </trkpt>
      <trkpt lat="45.16986" lon="5.20142">
        <ele>557</ele>
        <time>2013-09-14T10:05:24Z</time>
      </trkpt>
      <trkpt lat="45.16968" lon="5.20125">
        <ele>557</ele>
        <time>2013-09-14T10:05:27Z</time>
      </trkpt>
      <trkpt lat="45.16947" lon="5.20096">
        <ele>556</ele>
        <time>2013-09-14T10:05:31Z</time>
      </trkpt>
      <trkpt lat="45.16931" lon="5.20071">
        <ele>556</ele>
        <time>2013-09-14T10:05:34Z</time>
      </trkpt>
      <trkpt lat="45.16909" lon="5.20039">
        <ele>555</ele>
        <time>2013-09-14T10:05:38Z</time>
      </trkpt>
      <trkpt lat="45.16889" lon="5.2002">
        <ele>556</ele>
        <time>2013-09-14T10:05:41Z</time>
      </trkpt>
      <trkpt lat="45.16857" lon="5.20008">
        <ele>555</ele>
        <time>2013-09-14T10:05:45Z</time>
      </trkpt>
      <trkpt lat="45.16831" lon="5.20007">
        <ele>554</ele>
        <time>2013-09-14T10:05:48Z</time>
      </trkpt>
      <trkpt lat="45.16796" lon="5.20008">
        <ele>553</ele>
        <time>2013-09-14T10:05:52Z</time>
      </trkpt>
      <trkpt lat="45.16762" lon="5.20007">
        <ele>553</ele>
        <time>2013-09-14T10:05:56Z</time>
      </trkpt>
      <trkpt lat="45.16735" lon="5.20007">
        <ele>552</ele>
        <time>2013-09-14T10:05:59Z</time>
      </trkpt>
      <trkpt lat="45.16702" lon="5.20023">
        <ele>553</ele>
        <time>2013-09-14T10:06:03Z</time>
      </trkpt>
      <trkpt lat="45.16682" lon="5.20045">
        <ele>552</ele>
        <time>2013-09-14T10:06:06Z</time>
      </trkpt>
      <trkpt lat="45.16664" lon="5.20085">
        <ele>552</ele>
        <time>2013-09-14T10:06:10Z</time>
      </trkpt>
      <trkpt lat="45.16657" lon="5.2012">
        <ele>551</ele>
        <time>2013-09-14T10:06:13Z</time>
      </trkpt>
      <trkpt lat="45.16647" lon="5.20165">
        <ele>549</ele>
        <time>2013-09-14T10:06:17Z</time>
      </trkpt>
      <trkpt lat="45.16639" lon="5.20197">
        <ele>549</ele>
        <time>2013-09-14T10:06:20Z</time>
      </trkpt>
      <trkpt lat="45.16612" lon="5.20215">
        <ele>549</ele>
        <time>2013-09-14T10:06:24Z</time>
      </trkpt>
      <trkpt lat="45.16585" lon="5.20216">
        <ele>548</ele>
        <time>2013-09-14T10:06:27Z</time>
      </trkpt>
      <trkpt lat="45.16548" lon="5.20216">
        <ele>547</ele>
        <time>2013-09-14T10:06:31Z</time>
      </trkpt>
      <trkpt lat="45.16521" lon="5.20215">
        <ele>548</ele>
        <time>2013-09-14T10:06:34Z</time>
      </trkpt>
      <trkpt lat="45.16485" lon="5.20212">
        <ele>547</ele>
        <time>2013-09-14T10:06:38Z</time>
      </trkpt>
      <trkpt lat="45.16459" lon="5.20211">
        <ele>547</ele>
        <time>2013-09-14T10:06:41Z</time>
      </trkpt>
      <trkpt lat="45.16424" lon="5.20211">
        <ele>547</ele>
        <time>2013-09-14T10:06:45Z</time>
      </trkpt>
      <trkpt lat="45.16399" lon="5.2021">
        <ele>546</ele>
        <time>2013-09-14T10:06:48Z</time>
      </trkpt>
      <trkpt lat="45.16366" lon="5.2021">
        <ele>544</ele>
        <time>2013-09-14T10:06:52Z</time>
      </trkpt>
      <trkpt lat="45.16341" lon="5.20208">
        <ele>545</ele>
        <time>2013-09-14T10:06:55Z</time>
      </trkpt>
      <trkpt lat="45.16313" lon="5.20203">
        <ele>544</ele>
        <time>2013-09-14T10:06:59Z</time>
      </trkpt>
      <trkpt lat="45.16303" lon="5.20185">
        <ele>543</ele>
        <time>2013-09-14T10:07:02Z</time>
      </trkpt>
      <trkpt lat="45.16304" lon="5.20145">
        <ele>543</ele>
        <time>2013-09-14T10:07:06Z</time>
      </trkpt>
      <trkpt lat="45.16309" lon="5.20113">
        <ele>543</ele>
        <time>2013-09-14T10:07:09Z</time>
      </trkpt>
      <trkpt lat="45.16314" lon="5.20065">
        <ele>542</ele>
        <time>2013-09-14T10:07:13Z</time>
      </trkpt>
      <trkpt lat="45.16312" lon="5.20029">
        <ele>542</ele>
        <time>2013-09-14T10:07:16Z</time>
      </trkpt>
      <trkpt lat="45.16307" lon="5.19978">
        <ele>541</ele>
        <time>2013-09-14T10:07:20Z</time>
      </trkpt>
      <trkpt lat="45.16302" lon="5.19939">
        <ele>541</ele>
        <time>2013-09-14T10:07:23Z</time>
      </trkpt>
      <trkpt lat="45.16297" lon="5.19889">
        <ele>539</ele>
        <time>2013-09-14T10:07:27Z</time>
      </trkpt>
      <trkpt lat="45.16295" lon="5.1985">
        <ele>540</ele>
        <time>2013-09-14T10:07:30Z</time>
      </trkpt>
      <trkpt lat="45.16291" lon="5.19801">
        <ele>541</ele>
        <time>2013-09-14T10:07:34Z</time>
      </trkpt>
      <trkpt lat="45.16287" lon="5.19756">
        <ele>539</ele>
        <time>2013-09-14T10:07:38Z</time>
      </trkpt>
      <trkpt lat="45.16284" lon="5.19725">
        <ele>539</ele>
        <time>2013-09-14T10:07:41Z</time>
      </trkpt>
      <trkpt lat="45.16281" lon="5.19688">
        <ele>539</ele>
        <time>2013-09-14T10:07:45Z</time>
      </trkpt>
      <trkpt lat="45.16277" lon="5.1966">
        <ele>538</ele>
        <time>2013-09-14T10:07:48Z</time>
      </trkpt>
      <trkpt lat="45.16272" lon="5.19619">
        <ele>538</ele>
        <time>2013-09-14T10:07:52Z</time>
      </trkpt>
      <trkpt lat="45.16269" lon="5.1959">
        <ele>538</ele>
        <time>2013-09-14T10:07:55Z</time>
      </trkpt>
      <trkpt lat="45.16258" lon="5.19548">
        <ele>537</ele>
        <time>2013-09-14T10:07:59Z</time>
      </trkpt>
      <trkpt lat="45.16243" lon="5.19522">
        <ele>536</ele>
        <time>2013-09-14T10:08:02Z</time>
      </trkpt>
      <trkpt lat="45.16216" lon="5.19492">
        <ele>536</ele>
        <time>2013-09-14T10:08:06Z</time>
      </trkpt>
      <trkpt lat="45.16202" lon="5.19462">
        <ele>537</ele>
        <time>2013-09-14T10:08:09Z</time>
      </trkpt>
      <trkpt lat="45.16186" lon="5.19417">
        <ele>536</ele>
        <time>2013-09-14T10:08:13Z</time>
      </trkpt>
      <trkpt lat="45.16173" lon="5.19389">
        <ele>536</ele>
        <time>2013-09-14T10:08:16Z</time>
      </trkpt>
      <trkpt lat="45.16155" lon="5.19356">
        <ele>538</ele>
        <time>2013-09-14T10:08:20Z</time>
      </trkpt>
      <trkpt lat="45.16142" lon="5.19332">
        <ele>537</ele>
        <time>2013-09-14T10:08:23Z</time>
      </trkpt>
      <trkpt lat="45.16123" lon="5.193">
        <ele>537</ele>
        <time>2013-09-14T10:08:27Z</time>
      </trkpt>
      <trkpt lat="45.16109" lon="5.19276">
        <ele>537</ele>
        <time>2013-09-14T10:08:30Z</time>
      </trkpt>
      <trkpt lat="45.16086" lon="5.19245">
        <ele>537</ele>
        <time>2013-09-14T10:08:34Z</time>
      </trkpt>
      <trkpt lat="45.16069" lon="5.19224">
        <ele>537</ele>
        <time>2013-09-14T10:08:37Z</time>
      </trkpt>
      <trkpt lat="45.16046" lon="5.19196">
        <ele>537</ele>
        <time>2013-09-14T10:08:41Z</time>
      </trkpt>
      <trkpt lat="45.16031" lon="5.19174">
        <ele>538</ele>
        <time>2013-09-14T10:08:44Z</time>
      </trkpt>
      <trkpt lat="45.16013" lon="5.1914">
        <ele>538</ele>
        <time>2013-09-14T10:08:48Z</time>
      </trkpt>
      <trkpt lat="45.16" lon="5.19114">
        <ele>537</ele>
        <time>2013-09-14T10:08:51Z</time>
      </trkpt>
      <trkpt lat="45.15989" lon="5.19082">
        <ele>538</ele>
        <time>2013-09-14T10:08:55Z</time>
      </trkpt>
      <trkpt lat="45.15991" lon="5.19054">
        <ele>538</ele>
        <time>2013-09-14T10:08:58Z</time>
      </trkpt>
      <trkpt lat="45.16004" lon="5.19019">
        <ele>538</ele>
        <time>2013-09-14T10:09:02Z</time>
      </trkpt>
      <trkpt lat="45.16014" lon="5.18995">
        <ele>540</ele>
        <time>2013-09-14T10:09:05Z</time>
      </trkpt>
      <trkpt lat="45.16024" lon="5.18962">
        <ele>540</ele>
        <time>2013-09-14T10:09:09Z</time>
      </trkpt>
      <trkpt lat="45.16034" lon="5.18926">
        <ele>540</ele>
        <time>2013-09-14T10:09:13Z</time>
      </trkpt>
      <trkpt lat="45.1604" lon="5.18898">
        <ele>539</ele>
        <time>2013-09-14T10:09:16Z</time>
      </trkpt>
      <trkpt lat="45.16045" lon="5.18861">
        <ele>539</ele>
        <time>2013-09-14T10:09:20Z</time>
      </trkpt>
      <trkpt lat="45.16049" lon="5.18833">
        <ele>540</ele>
        <time>2013-09-14T10:09:23Z</time>
      </trkpt>
      <trkpt lat="45.16055" lon="5.18796">
        <ele>540</ele>
        <time>2013-09-14T10:09:27Z</time>
      </trkpt>
      <trkpt lat="45.16057" lon="5.18768">
        <ele>541</ele>
        <time>2013-09-14T10:09:30Z</time>
      </trkpt>
      <trkpt lat="45.16055" lon="5.18731">
        <ele>540</ele>
        <time>2013-09-14T10:09:34Z</time>
      </trkpt>
      <trkpt lat="45.1605" lon="5.18703">
        <ele>541</ele>
        <time>2013-09-14T10:09:37Z</time>
      </trkpt>
      <trkpt lat="45.16039" lon="5.18667">
        <ele>541</ele>
        <time>2013-09-14T10:09:41Z</time>
      </trkpt>
      <trkpt lat="45.16029" lon="5.18641">
        <ele>541</ele>
        <time>2013-09-14T10:09:44Z</time>
      </trkpt>
      <trkpt lat="45.16017" lon="5.18609">
        <ele>542</ele>
        <time>2013-09-14T10:09:48Z</time>
      </trkpt>
      <trkpt lat="45.16005" lon="5.18587">
        <ele>542</ele>
        <time>2013-09-14T10:09:51Z</time>
      </trkpt>
      <trkpt lat="45.15989" lon="5.18559">
        <ele>542</ele>
        <time>2013-09-14T10:09:55Z</time>
      </trkpt>
      <trkpt lat="45.15975" lon="5.18541">
        <ele>540</ele>
        <time>2013-09-14T10:09:58Z</time>
      </trkpt>
      <trkpt lat="45.15948" lon="5.18526">
        <ele>540</ele>
        <time>2013-09-14T10:10:02Z</time>
      </trkpt>
      <trkpt lat="45.15926" lon="5.18512">
        <ele>539</ele>
        <time>2013-09-14T10:10:05Z</time>
      </trkpt>
      <trkpt lat="45.159" lon="5.18479">
        <ele>538</ele>
        <time>2013-09-14T10:10:09Z</time>
      </trkpt>
      <trkpt lat="45.15878" lon="5.18453">
        <ele>538</ele>
        <time>2013-09-14T10:10:12Z</time>
      </trkpt>
      <trkpt lat="45.15847" lon="5.18428">
        <ele>536</ele>
        <time>2013-09-14T10:10:16Z</time>
      </trkpt>
      <trkpt lat="45.15824" lon="5.18409">
        <ele>535</ele>
        <time>2013-09-14T10:10:19Z</time>
      </trkpt>
      <trkpt lat="45.15812" lon="5.18368">
        <ele>536</ele>
        <time>2013-09-14T10:10:23Z</time>
      </trkpt>
      <trkpt lat="45.15821" lon="5.18338">
        <ele>535</ele>
        <time>2013-09-14T10:10:26Z</time>
      </trkpt>
      <trkpt lat="45.15839" lon="5.18301">
        <ele>534</ele>
        <time>2013-09-14T10:10:30Z</time>
      </trkpt>
      <trkpt lat="45.15855" lon="5.18273">
        <ele>534</ele>
        <time>2013-09-14T10:10:33Z</time>
      </trkpt>
      <trkpt lat="45.15873" lon="5.18238">
        <ele>533</ele>
        <time>2013-09-14T10:10:37Z</time>
      </trkpt>
      <trkpt lat="45.15875" lon="5.18205">
        <ele>533</ele>
        <time>2013-09-14T10:10:40Z</time>
      </trkpt>
      <trkpt lat="45.15894" lon="5.18167">
        <ele>533</ele>
        <time>2013-09-14T10:10:44Z</time>
      </trkpt>
      <trkpt lat="45.15919" lon="5.18134">
        <ele>533</ele>
        <time>2013-09-14T10:10:48Z</time>
      </trkpt>
      <trkpt lat="45.15932" lon="5.18102">
        <ele>533</ele>
        <time>2013-09-14T10:10:51Z</time>
      </trkpt>
      <trkpt lat="45.15946" lon="5.18055">
        <ele>533</ele>
        <time>2013-09-14T10:10:55Z</time>
      </trkpt>
      <trkpt lat="45.15957" lon="5.1802">
        <ele>532</ele>
        <time>2013-09-14T10:10:58Z</time>
      </trkpt>
      <trkpt lat="45.15966" lon="5.17972">
        <ele>531</ele>
        <time>2013-09-14T10:11:02Z</time>
      </trkpt>
      <trkpt lat="45.15969" lon="5.17935">
        <ele>531</ele>
        <time>2013-09-14T10:11:05Z</time>
      </trkpt>
      <trkpt lat="45.15974" lon="5.17886">
        <ele>531</ele>
        <time>2013-09-14T10:11:09Z</time>
      </trkpt>
      <trkpt lat="45.15983" lon="5.17852">
        <ele>530</ele>
        <time>2013-09-14T10:11:12Z</time>
      </trkpt>
      <trkpt lat="45.15994" lon="5.17804">
        <ele>529</ele>
        <time>2013-09-14T10:11:16Z</time>
      </trkpt>
      <trkpt lat="45.16" lon="5.17766">
        <ele>528</ele>
        <time>2013-09-14T10:11:19Z</time>
      </trkpt>
      <trkpt lat="45.16003" lon="5.17714">
        <ele>529</ele>
        <time>2013-09-14T10:11:23Z</time>
      </trkpt>
      <trkpt lat="45.15994" lon="5.17676">
        <ele>527</ele>
        <time>2013-09-14T10:11:26Z</time>
      </trkpt>
      <trkpt lat="45.15974" lon="5.17627">
        <ele>526</ele>
        <time>2013-09-14T10:11:30Z</time>
      </trkpt>
      <trkpt lat="45.1596" lon="5.17591">
        <ele>526</ele>
        <time>2013-09-14T10:11:33Z</time>
      </trkpt>
      <trkpt lat="45.15948" lon="5.17539">
        <ele>526</ele>
        <time>2013-09-14T10:11:37Z</time>
      </trkpt>
      <trkpt lat="45.15942" lon="5.17499">
        <ele>525</ele>
        <time>2013-09-14T10:11:40Z</time>
      </trkpt>
      <trkpt lat="45.15933" lon="5.17444">
        <ele>523</ele>
        <time>2013-09-14T10:11:44Z</time>
      </trkpt>
      <trkpt lat="45.15924" lon="5.17402">
        <ele>522</ele>
        <time>2013-09-14T10:11:47Z</time>
      </trkpt>
      <trkpt lat="45.15911" lon="5.17347">
        <ele>521</ele>
        <time>2013-09-14T10:11:51Z</time>
      </trkpt>
      <trkpt lat="45.15903" lon="5.17303">
        <ele>520</ele>
        <time>2013-09-14T10:11:54Z</time>
      </trkpt>
      <trkpt lat="45.15903" lon="5.17243">
        <ele>519</ele>
        <time>2013-09-14T10:11:58Z</time>
      </trkpt>
      <trkpt lat="45.15904" lon="5.17195">
        <ele>518</ele>
        <time>2013-09-14T10:12:01Z</time>
      </trkpt>
      <trkpt lat="45.15901" lon="5.17128">
        <ele>518</ele>
        <time>2013-09-14T10:12:05Z</time>
      </trkpt>
      <trkpt lat="45.15895" lon="5.17078">
        <ele>517</ele>
        <time>2013-09-14T10:12:08Z</time>
      </trkpt>
      <trkpt lat="45.15885" lon="5.17015">
        <ele>516</ele>
        <time>2013-09-14T10:12:12Z</time>
      </trkpt>
      <trkpt lat="45.15877" lon="5.1697">
        <ele>514</ele>
        <time>2013-09-14T10:12:15Z</time>
      </trkpt>
      <trkpt lat="45.15865" lon="5.16909">
        <ele>513</ele>
        <time>2013-09-14T10:12:19Z</time>
      </trkpt>
      <trkpt lat="45.15856" lon="5.16862">
        <ele>512</ele>
        <time>2013-09-14T10:12:22Z</time>
      </trkpt>
      <trkpt lat="45.15842" lon="5.16796">
        <ele>511</ele>
        <time>2013-09-14T10:12:26Z</time>
      </trkpt>
      <trkpt lat="45.15826" lon="5.16731">
        <ele>509</ele>
        <time>2013-09-14T10:12:30Z</time>
      </trkpt>
      <trkpt lat="45.15815" lon="5.16683">
        <ele>508</ele>
        <time>2013-09-14T10:12:33Z</time>
      </trkpt>
      <trkpt lat="45.15815" lon="5.16615">
        <ele>506</ele>
        <time>2013-09-14T10:12:37Z</time>
      </trkpt>
      <trkpt lat="45.15822" lon="5.16568">
        <ele>506</ele>
        <time>2013-09-14T10:12:40Z</time>
      </trkpt>
      <trkpt lat="45.15826" lon="5.16505">
        <ele>503</ele>
        <time>2013-09-14T10:12:44Z</time>
      </trkpt>
      <trkpt lat="45.15821" lon="5.1646">
        <ele>503</ele>
        <time>2013-09-14T10:12:47Z</time>
      </trkpt>
      <trkpt lat="45.15813" lon="5.16397">
        <ele>501</ele>
        <time>2013-09-14T10:12:51Z</time>
      </trkpt>
      <trkpt lat="45.15809" lon="5.1635">
        <ele>500</ele>
        <time>2013-09-14T10:12:54Z</time>
      </trkpt>
      <trkpt lat="45.15808" lon="5.16287">
        <ele>499</ele>
        <time>2013-09-14T10:12:58Z</time>
      </trkpt>
      <trkpt lat="45.15809" lon="5.16241">
        <ele>498</ele>
        <time>2013-09-14T10:13:01Z</time>
      </trkpt>
      <trkpt lat="45.15811" lon="5.16181">
        <ele>498</ele>
        <time>2013-09-14T10:13:05Z</time>
      </trkpt>
      <trkpt lat="45.15812" lon="5.16137">
        <ele>496</ele>
        <time>2013-09-14T10:13:08Z</time>
      </trkpt>
      <trkpt lat="45.15809" lon="5.16077">
        <ele>495</ele>
        <time>2013-09-14T10:13:12Z</time>
      </trkpt>
      <trkpt lat="45.15802" lon="5.16031">
        <ele>494</ele>
        <time>2013-09-14T10:13:15Z</time>
      </trkpt>
      <trkpt lat="45.15791" lon="5.15969">
        <ele>493</ele>
        <time>2013-09-14T10:13:19Z</time>
      </trkpt>
      <trkpt lat="45.15777" lon="5.15925">
        <ele>493</ele>
        <time>2013-09-14T10:13:22Z</time>
      </trkpt>
      <trkpt lat="45.15748" lon="5.15874">
        <ele>492</ele>
        <time>2013-09-14T10:13:26Z</time>
      </trkpt>
      <trkpt lat="45.15726" lon="5.15834">
        <ele>491</ele>
        <time>2013-09-14T10:13:29Z</time>
      </trkpt>
      <trkpt lat="45.15705" lon="5.15774">
        <ele>489</ele>
        <time>2013-09-14T10:13:33Z</time>
      </trkpt>
      <trkpt lat="45.15693" lon="5.15727">
        <ele>488</ele>
        <time>2013-09-14T10:13:36Z</time>
      </trkpt>
      <trkpt lat="45.15679" lon="5.15661">
        <ele>486</ele>
        <time>2013-09-14T10:13:40Z</time>
      </trkpt>
      <trkpt lat="45.1567" lon="5.15612">
        <ele>484</ele>
        <time>2013-09-14T10:13:43Z</time>
      </trkpt>
      <trkpt lat="45.15664" lon="5.15545">
        <ele>484</ele>
        <time>2013-09-14T10:13:47Z</time>
      </trkpt>
      <trkpt lat="45.15664" lon="5.15493">
        <ele>482</ele>
        <time>2013-09-14T10:13:50Z</time>
      </trkpt>
      <trkpt lat="45.1566" lon="5.15424">
        <ele>482</ele>
        <time>2013-09-14T10:13:54Z</time>
      </trkpt>
      <trkpt lat="45.1565" lon="5.15374">
        <ele>480</ele>
        <time>2013-09-14T10:13:57Z</time>
      </trkpt>
      <trkpt lat="45.15638" lon="5.15307">
        <ele>477</ele>
        <time>2013-09-14T10:14:01Z</time>
      </trkpt>
      <trkpt lat="45.15629" lon="5.15236">
        <ele>476</ele>
        <time>2013-09-14T10:14:05Z</time>
      </trkpt>
      <trkpt lat="45.15625" lon="5.15181">
        <ele>474</ele>
        <time>2013-09-14T10:14:08Z</time>
      </trkpt>
      <trkpt lat="45.15623" lon="5.15106">
        <ele>471</ele>
        <time>2013-09-14T10:14:12Z</time>
      </trkpt>
      <trkpt lat="45.15618" lon="5.15053">
        <ele>469</ele>
        <time>2013-09-14T10:14:15Z</time>
      </trkpt>
      <trkpt lat="45.15601" lon="5.14984">
        <ele>467</ele>
        <time>2013-09-14T10:14:19Z</time>
      </trkpt>
      <trkpt lat="45.15582" lon="5.14933">
        <ele>464</ele>
        <time>2013-09-14T10:14:22Z</time>
      </trkpt>
      <trkpt lat="45.15552" lon="5.14866">
        <ele>461</ele>
        <time>2013-09-14T10:14:26Z</time>
      </trkpt>
      <trkpt lat="45.15527" lon="5.14819">
        <ele>459</ele>
        <time>2013-09-14T10:14:29Z</time>
      </trkpt>
      <trkpt lat="45.15493" lon="5.1476">
        <ele>457</ele>
        <time>2013-09-14T10:14:33Z</time>
      </trkpt>
      <trkpt lat="45.15468" lon="5.14719">
        <ele>456</ele>
        <time>2013-09-14T10:14:36Z</time>
      </trkpt>
      <trkpt lat="45.15433" lon="5.14669">
        <ele>454</ele>
        <time>2013-09-14T10:14:40Z</time>
      </trkpt>
      <trkpt lat="45.15406" lon="5.14632">
        <ele>452</ele>
        <time>2013-09-14T10:14:43Z</time>
      </trkpt>
      <trkpt lat="45.15372" lon="5.14582">
        <ele>450</ele>
        <time>2013-09-14T10:14:47Z</time>
      </trkpt>
      <trkpt lat="45.15352" lon="5.14539">
        <ele>449</ele>
        <time>2013-09-14T10:14:50Z</time>
      </trkpt>
      <trkpt lat="45.15337" lon="5.14479">
        <ele>448</ele>
        <time>2013-09-14T10:14:54Z</time>
      </trkpt>
      <trkpt lat="45.15332" lon="5.14431">
        <ele>448</ele>
        <time>2013-09-14T10:14:57Z</time>
      </trkpt>
      <trkpt lat="45.15335" lon="5.14368">
        <ele>447</ele>
        <time>2013-09-14T10:15:01Z</time>
      </trkpt>
      <trkpt lat="45.15342" lon="5.1432">
        <ele>446</ele>
        <time>2013-09-14T10:15:04Z</time>
      </trkpt>
      <trkpt lat="45.15352" lon="5.14255">
        <ele>444</ele>
        <time>2013-09-14T10:15:08Z</time>
      </trkpt>
      <trkpt lat="45.15361" lon="5.14206">
        <ele>443</ele>
        <time>2013-09-14T10:15:11Z</time>
      </trkpt>
      <trkpt lat="45.15383" lon="5.14147">
        <ele>441</ele>
        <time>2013-09-14T10:15:15Z</time>
      </trkpt>
      <trkpt lat="45.15402" lon="5.14108">
        <ele>441</ele>
        <time>2013-09-14T10:15:18Z</time>
      </trkpt>
      <trkpt lat="45.1541" lon="5.14047">
        <ele>439</ele>
        <time>2013-09-14T10:15:22Z</time>
      </trkpt>
      <trkpt lat="45.15404" lon="5.14002">
        <ele>439</ele>
        <time>2013-09-14T10:15:25Z</time>
      </trkpt>
      <trkpt lat="45.15391" lon="5.13939">
        <ele>439</ele>
        <time>2013-09-14T10:15:29Z</time>
      </trkpt>
      <trkpt lat="45.15383" lon="5.1389">
        <ele>438</ele>
        <time>2013-09-14T10:15:32Z</time>
      </trkpt>
      <trkpt lat="45.15374" lon="5.13823">
        <ele>437</ele>
        <time>2013-09-14T10:15:36Z</time>
      </trkpt>
      <trkpt lat="45.15367" lon="5.13772">
        <ele>435</ele>
        <time>2013-09-14T10:15:39Z</time>
      </trkpt>
      <trkpt lat="45.15357" lon="5.13702">
        <ele>434</ele>
        <time>2013-09-14T10:15:43Z</time>
      </trkpt>
      <trkpt lat="45.15345" lon="5.1363">
        <ele>433</ele>
        <time>2013-09-14T10:15:47Z</time>
      </trkpt>
      <trkpt lat="45.15334" lon="5.13577">
        <ele>433</ele>
        <time>2013-09-14T10:15:50Z</time>
      </trkpt>
      <trkpt lat="45.15313" lon="5.13509">
        <ele>431</ele>
        <time>2013-09-14T10:15:54Z</time>
      </trkpt>
      <trkpt lat="45.15295" lon="5.1346">
        <ele>429</ele>
        <time>2013-09-14T10:15:57Z</time>
      </trkpt>
      <trkpt lat="45.15266" lon="5.13403">
        <ele>428</ele>
        <time>2013-09-14T10:16:01Z</time>
      </trkpt>
      <trkpt lat="45.15246" lon="5.13361">
        <ele>427</ele>
        <time>2013-09-14T10:16:04Z</time>
      </trkpt>
      <trkpt lat="45.15216" lon="5.13304">
        <ele>425</ele>
        <time>2013-09-14T10:16:08Z</time>
      </trkpt>
      <trkpt lat="45.15195" lon="5.13261">
        <ele>424</ele>
        <time>2013-09-14T10:16:11Z</time>
      </trkpt>
      <trkpt lat="45.15167" lon="5.13205">
        <ele>424</ele>
        <time>2013-09-14T10:16:15Z</time>
      </trkpt>
      <trkpt lat="45.15146" lon="5.13164">
        <ele>422</ele>
        <time>2013-09-14T10:16:18Z</time>
      </trkpt>
      <trkpt lat="45.15119" lon="5.13111">
        <ele>423</ele>
        <time>2013-09-14T10:16:22Z</time>
      </trkpt>
      <trkpt lat="45.151" lon="5.13073">
        <ele>423</ele>
        <time>2013-09-14T10:16:25Z</time>
      </trkpt>
      <trkpt lat="45.15075" lon="5.13023">
        <ele>421</ele>
        <time>2013-09-14T10:16:29Z</time>
      </trkpt>
      <trkpt lat="45.15056" lon="5.12985">
        <ele>422</ele>
        <time>2013-09-14T10:16:32Z</time>
      </trkpt>
      <trkpt lat="45.1503" lon="5.12934">
        <ele>420</ele>
        <time>2013-09-14T10:16:36Z</time>
      </trkpt>
      <trkpt lat="45.15012" lon="5.12896">
        <ele>420</ele>
        <time>2013-09-14T10:16:39Z</time>
      </trkpt>
      <trkpt lat="45.14986" lon="5.12846">
        <ele>418</ele>
        <time>2013-09-14T10:16:43Z</time>
      </trkpt>
      <trkpt lat="45.14967" lon="5.12807">
        <ele>417</ele>
        <time>2013-09-14T10:16:46Z</time>
      </trkpt>
      <trkpt lat="45.1494" lon="5.12756">
        <ele>416</ele>
        <time>2013-09-14T10:16:50Z</time>
      </trkpt>
      <trkpt lat="45.14921" lon="5.12718">
        <ele>415</ele>
        <time>2013-09-14T10:16:53Z</time>
      </trkpt>
      <trkpt lat="45.14895" lon="5.12667">
        <ele>412</ele>
        <time>2013-09-14T10:16:57Z</time>
      </trkpt>
      <trkpt lat="45.14876" lon="5.12628">
        <ele>411</ele>
        <time>2013-09-14T10:17:00Z</time>
      </trkpt>
      <trkpt lat="45.14849" lon="5.12575">
        <ele>409</ele>
        <time>2013-09-14T10:17:04Z</time>
      </trkpt>
      <trkpt lat="45.14828" lon="5.12535">
        <ele>409</ele>
        <time>2013-09-14T10:17:07Z</time>
      </trkpt>
      <trkpt lat="45.14794" lon="5.12488">
        <ele>407</ele>
        <time>2013-09-14T10:17:11Z</time>
      </trkpt>
      <trkpt lat="45.14766" lon="5.12457">
        <ele>406</ele>
        <time>2013-09-14T10:17:14Z</time>
      </trkpt>
      <trkpt lat="45.1473" lon="5.12415">
        <ele>405</ele>
        <time>2013-09-14T10:17:18Z</time>
      </trkpt>
      <trkpt lat="45.14694" lon="5.12374">
        <ele>403</ele>
        <time>2013-09-14T10:17:22Z</time>
      </trkpt>
      <trkpt lat="45.14667" lon="5.12345">
        <ele>403</ele>
        <time>2013-09-14T10:17:25Z</time>
      </trkpt>
      <trkpt lat="45.14633" lon="5.1231">
        <ele>402</ele>
        <time>2013-09-14T10:17:29Z</time>
      </trkpt>
      <trkpt lat="45.14609" lon="5.12291">
        <ele>403</ele>
        <time>2013-09-14T10:17:32Z</time>
      </trkpt>
      <trkpt lat="45.14579" lon="5.12272">
        <ele>402</ele>
        <time>2013-09-14T10:17:36Z</time>
      </trkpt>
      <trkpt lat="45.1456" lon="5.12256">
        <ele>403</ele>
        <time>2013-09-14T10:17:39Z</time>
      </trkpt>
      <trkpt lat="45.14537" lon="5.12233">
        <ele>402</ele>
        <time>2013-09-14T10:17:43Z</time>
      </trkpt>
      <trkpt lat="45.14521" lon="5.12213">
        <ele>402</ele>
        <time>2013-09-14T10:17:46Z</time>
      </trkpt>
      <trkpt lat="45.14502" lon="5.12189">
        <ele>403</ele>
        <time>2013-09-14T10:17:50Z</time>
      </trkpt>
      <trkpt lat="45.14488" lon="5.12169">
        <ele>403</ele>
        <time>2013-09-14T10:17:53Z</time>
      </trkpt>
      <trkpt lat="45.1447" lon="5.1214">
        <ele>403</ele>
        <time>2013-09-14T10:17:57Z</time>
      </trkpt>
      <trkpt lat="45.14457" lon="5.12121">
        <ele>402</ele>
        <time>2013-09-14T10:18:00Z</time>
      </trkpt>
      <trkpt lat="45.14441" lon="5.12098">
        <ele>402</ele>
        <time>2013-09-14T10:18:04Z</time>
      </trkpt>
      <trkpt lat="45.14434" lon="5.12087">
        <ele>402</ele>
        <time>2013-09-14T10:18:07Z</time>
      </trkpt>
      <trkpt lat="45.1443" lon="5.12081">
        <ele>402</ele>
        <time>2013-09-14T10:18:11Z</time>
      </trkpt>
      <trkpt lat="45.14429" lon="5.12081">
        <ele>401</ele>
        <time>2013-09-14T10:18:14Z</time>
      </trkpt>
      <trkpt lat="45.14429" lon="5.12081">
        <ele>401</ele>
        <time>2013-09-14T10:18:18Z</time>
      </trkpt>
      <trkpt lat="45.14429" lon="5.12081">
        <ele>402</ele>
        <time>2013-09-14T10:18:21Z</time>
      </trkpt>
      <trkpt lat="45.14429" lon="5.12081">
        <ele>402</ele>
        <time>2013-09-14T10:18:25Z</time>
      </trkpt>
      <trkpt lat="45.14429" lon="5.12081">
        <ele>401</ele>
        <time>2013-09-14T10:18:28Z</time>
      </trkpt>
      <trkpt lat="45.14429" lon="5.12081">
        <ele>402</ele>
        <time>2013-09-14T10:18:32Z</time>
      </trkpt>
      <trkpt lat="45.14429" lon="5.12081">
        <ele>402</ele>
        <time>2013-09-14T10:18:35Z</time>
      </trkpt>
      <trkpt lat="45.14429" lon="5.12081">
        <ele>402</ele>
        <time>2013-09-14T10:18:39Z</time>
      </trkpt>
      <trkpt lat="45.14429" lon="5.12081">
        <ele>402</ele>
        <time>2013-09-14T10:18:42Z</time>
      </trkpt>
      <trkpt lat="45.14429" lon="5.12081">
        <ele>402</ele>
        <time>2013-09-14T10:18:46Z</time>
      </trkpt>
      <trkpt lat="45.14429" lon="5.12081">
        <ele>402</ele>
        <time>2013-09-14T10:18:49Z</time>
      </trkpt>
      <trkpt lat="45.14429" lon="5.12081">
        <ele>401</ele>
        <time>2013-09-14T10:18:53Z</time>
      </trkpt>
      <trkpt lat="45.14429" lon="5.12081">
        <ele>402</ele>
        <time>2013-09-14T10:18:57Z</time>
      </trkpt>
      <trkpt lat="45.14429" lon="5.12081">
        <ele>402</ele>
        <time>2013-09-14T10:19:00Z</time>
      </trkpt>
      <trkpt lat="45.14429" lon="5.12081">
        <ele>402</ele>
        <time>2013-09-14T10:19:04Z</time>
      </trkpt>
      <trkpt lat="45.14429" lon="5.12081">
        <ele>402</ele>
        <time>2013-09-14T10:19:07Z</time>
      </trkpt>
      <trkpt lat="45.14429" lon="5.12081">
        <ele>402</ele>
        <time>2013-09-14T10:19:11Z</time>
      </trkpt>
      <trkpt lat="45.14429" lon="5.12081">
        <ele>402</ele>
        <time>2013-09-14T10:19:14Z</time>
      </trkpt>
      <trkpt lat="45.14429" lon="5.12081">
        <ele>402</ele>
        <time>2013-09-14T10:19:18Z</time>
      </trkpt>
      <trkpt lat="45.14429" lon="5.12081">
        <ele>401</ele>
        <time>2013-09-14T10:19:21Z</time>
      </trkpt>
      <trkpt lat="45.14429" lon="5.12081">
        <ele>401</ele>
        <time>2013-09-14T10:19:25Z</time>
      </trkpt>
      <trkpt lat="45.14429" lon="5.12081">
        <ele>401</ele>
        <time>2013-09-14T10:19:28Z</time>
      </trkpt>
      <trkpt lat="45.14429" lon="5.12081">
        <ele>402</ele>
        <time>2013-09-14T10:19:32Z</time>
      </trkpt>
      <trkpt lat="45.14429" lon="5.1208">
        <ele>401</ele>
        <time>2013-09-14T10:19:35Z</time>
      </trkpt>
      <trkpt lat="45.14429" lon="5.1208">
        <ele>402</ele>
        <time>2013-09-14T10:19:39Z</time>
      </trkpt>
      <trkpt lat="45.14429" lon="5.1208">
        <ele>402</ele>
        <time>2013-09-14T10:19:42Z</time>
      </trkpt>
      <trkpt lat="45.14429" lon="5.1208">
        <ele>402</ele>
        <time>2013-09-14T10:19:46Z</time>
      </trkpt>
      <trkpt lat="45.14429" lon="5.1208">
        <ele>403</ele>
        <time>2013-09-14T10:19:49Z</time>
      </trkpt>
      <trkpt lat="45.14429" lon="5.1208">
        <ele>402</ele>
        <time>2013-09-14T10:19:53Z</time>
      </trkpt>
      <trkpt lat="45.14429" lon="5.1208">
        <ele>402</ele>
        <time>2013-09-14T10:19:56Z</time>
      </trkpt>
      <trkpt lat="45.14429" lon="5.1208">
        <ele>402</ele>
        <time>2013-09-14T10:20:00Z</time>
      </trkpt>
      <trkpt lat="45.14429" lon="5.1208">
        <ele>402</ele>
        <time>2013-09-14T10:20:03Z</time>
      </trkpt>
      <trkpt lat="45.14429" lon="5.1208">
        <ele>402</ele>
        <time>2013-09-14T10:20:07Z</time>
      </trkpt>
      <trkpt lat="45.14429" lon="5.1208">
        <ele>402</ele>
        <time>2013-09-14T10:20:10Z</time>
      </trkpt>
      <trkpt lat="45.14428" lon="5.1208">
        <ele>402</ele>
        <time>2013-09-14T10:20:14Z</time>
      </trkpt>
      <trkpt lat="45.14428" lon="5.1208">
        <ele>402</ele>
        <time>2013-09-14T10:20:17Z</time>
      </trkpt>
      <trkpt lat="45.14428" lon="5.1208">
        <ele>402</ele>
        <time>2013-09-14T10:20:21Z</time>
      </trkpt>
      <trkpt lat="45.14428" lon="5.1208">
        <ele>402</ele>
        <time>2013-09-14T10:20:24Z</time>
      </trkpt>
      <trkpt lat="45.14428" lon="5.1208">
        <ele>402</ele>
        <time>2013-09-14T10:20:28Z</time>
      </trkpt>
      <trkpt lat="45.14428" lon="5.1208">
        <ele>402</ele>
        <time>2013-09-14T10:20:31Z</time>
      </trkpt>
      <trkpt lat="45.14428" lon="5.1208">
        <ele>402</ele>
        <time>2013-09-14T10:20:35Z</time>
      </trkpt>
      <trkpt lat="45.14428" lon="5.1208">
        <ele>402</ele>
        <time>2013-09-14T10:20:39Z</time>
      </trkpt>
      <trkpt lat="45.14428" lon="5.1208">
        <ele>402</ele>
        <time>2013-09-14T10:20:42Z</time>
      </trkpt>
      <trkpt lat="45.14428" lon="5.1208">
        <ele>402</ele>
        <time>2013-09-14T10:20:46Z</time>
      </trkpt>
      <trkpt lat="45.14428" lon="5.1208">
        <ele>402</ele>
        <time>2013-09-14T10:20:49Z</time>
      </trkpt>
      <trkpt lat="45.14429" lon="5.1208">
        <ele>403</ele>
        <time>2013-09-14T10:20:53Z</time>
      </trkpt>
      <trkpt lat="45.14429" lon="5.1208">
        <ele>403</ele>
        <time>2013-09-14T10:20:56Z</time>
      </trkpt>
      <trkpt lat="45.14429" lon="5.1208">
        <ele>402</ele>
        <time>2013-09-14T10:21:00Z</time>
      </trkpt>
      <trkpt lat="45.14429" lon="5.1208">
        <ele>403</ele>
        <time>2013-09-14T10:21:03Z</time>
      </trkpt>
      <trkpt lat="45.14429" lon="5.1208">
        <ele>402</ele>
        <time>2013-09-14T10:21:07Z</time>
      </trkpt>
      <trkpt lat="45.14429" lon="5.1208">
        <ele>402</ele>
        <time>2013-09-14T10:21:10Z</time>
      </trkpt>
      <trkpt lat="45.14429" lon="5.1208">
        <ele>402</ele>
        <time>2013-09-14T10:21:14Z</time>
      </trkpt>
      <trkpt lat="45.14429" lon="5.1208">
        <ele>402</ele>
        <time>2013-09-14T10:21:17Z</time>
      </trkpt>
      <trkpt lat="45.14429" lon="5.1208">
        <ele>402</ele>
        <time>2013-09-14T10:21:21Z</time>
      </trkpt>
      <trkpt lat="45.14429" lon="5.1208">
        <ele>402</ele>
        <time>2013-09-14T10:21:24Z</time>
      </trkpt>
      <trkpt lat="45.14429" lon="5.1208">
        <ele>402</ele>
        <time>2013-09-14T10:21:28Z</time>
      </trkpt>
      <trkpt lat="45.14429" lon="5.1208">
        <ele>402</ele>
        <time>2013-09-14T10:21:31Z</time>
      </trkpt>
      <trkpt lat="45.14428" lon="5.1208">
        <ele>402</ele>
        <time>2013-09-14T10:21:35Z</time>
      </trkpt>
      <trkpt lat="45.14428" lon="5.1208">
        <ele>402</ele>
        <time>2013-09-14T10:21:38Z</time>
      </trkpt>
      <trkpt lat="45.14428" lon="5.1208">
        <ele>402</ele>
        <time>2013-09-14T10:21:42Z</time>
      </trkpt>
      <trkpt lat="45.14429" lon="5.12077">
        <ele>402</ele>
        <time>2013-09-14T10:21:45Z</time>
      </trkpt>
      <trkpt lat="45.1443" lon="5.12074">
        <ele>403</ele>
        <time>2013-09-14T10:21:49Z</time>
      </trkpt>
      <trkpt lat="45.14431" lon="5.12072">
        <ele>403</ele>
        <time>2013-09-14T10:21:52Z</time>
      </trkpt>
      <trkpt lat="45.14431" lon="5.12067">
        <ele>402</ele>
        <time>2013-09-14T10:21:56Z</time>
      </trkpt>
      <trkpt lat="45.14431" lon="5.12064">
        <ele>403</ele>
        <time>2013-09-14T10:21:59Z</time>
      </trkpt>
      <trkpt lat="45.14431" lon="5.12064">
        <ele>403</ele>
        <time>2013-09-14T10:22:03Z</time>
      </trkpt>
      <trkpt lat="45.14431" lon="5.12064">
        <ele>403</ele>
        <time>2013-09-14T10:22:06Z</time>
      </trkpt>
      <trkpt lat="45.14431" lon="5.12064">
        <ele>403</ele>
        <time>2013-09-14T10:22:10Z</time>
      </trkpt>
      <trkpt lat="45.14431" lon="5.12064">
        <ele>403</ele>
        <time>2013-09-14T10:22:14Z</time>
      </trkpt>
      <trkpt lat="45.14431" lon="5.12064">
        <ele>403</ele>
        <time>2013-09-14T10:22:17Z</time>
      </trkpt>
      <trkpt lat="45.14431" lon="5.12064">
        <ele>403</ele>
        <time>2013-09-14T10:22:21Z</time>
      </trkpt>
      <trkpt lat="45.14431" lon="5.12064">
        <ele>402</ele>
        <time>2013-09-14T10:22:24Z</time>
      </trkpt>
      <trkpt lat="45.14431" lon="5.12064">
        <ele>403</ele>
        <time>2013-09-14T10:22:28Z</time>
      </trkpt>
      <trkpt lat="45.14431" lon="5.12064">
        <ele>403</ele>
        <time>2013-09-14T10:22:31Z</time>
      </trkpt>
      <trkpt lat="45.14431" lon="5.12064">
        <ele>403</ele>
        <time>2013-09-14T10:22:35Z</time>
      </trkpt>
      <trkpt lat="45.14431" lon="5.12064">
        <ele>402</ele>
        <time>2013-09-14T10:22:38Z</time>
      </trkpt>
      <trkpt lat="45.14431" lon="5.12066">
        <ele>402</ele>
        <time>2013-09-14T10:22:42Z</time>
      </trkpt>
      <trkpt lat="45.14431" lon="5.12066">
        <ele>402</ele>
        <time>2013-09-14T10:22:45Z</time>
      </trkpt>
      <trkpt lat="45.14431" lon="5.12066">
        <ele>402</ele>
        <time>2013-09-14T10:22:49Z</time>
      </trkpt>
      <trkpt lat="45.14431" lon="5.12066">
        <ele>403</ele>
        <time>2013-09-14T10:22:52Z</time>
      </trkpt>
      <trkpt lat="45.14431" lon="5.12066">
        <ele>402</ele>
        <time>2013-09-14T10:22:56Z</time>
      </trkpt>
      <trkpt lat="45.14431" lon="5.12066">
        <ele>403</ele>
        <time>2013-09-14T10:22:59Z</time>
      </trkpt>
      <trkpt lat="45.14431" lon="5.12066">
        <ele>403</ele>
        <time>2013-09-14T10:23:03Z</time>
      </trkpt>
      <trkpt lat="45.14431" lon="5.12066">
        <ele>403</ele>
        <time>2013-09-14T10:23:06Z</time>
      </trkpt>
      <trkpt lat="45.14431" lon="5.12066">
        <ele>402</ele>
        <time>2013-09-14T10:23:10Z</time>
      </trkpt>
      <trkpt lat="45.14431" lon="5.12066">
        <ele>403</ele>
        <time>2013-09-14T10:23:13Z</time>
      </trkpt>
      <trkpt lat="45.14431" lon="5.12066">
        <ele>403</ele>
        <time>2013-09-14T10:23:17Z</time>
      </trkpt>
      <trkpt lat="45.14431" lon="5.12066">
        <ele>402</ele>
        <time>2013-09-14T10:23:20Z</time>
      </trkpt>
      <trkpt lat="45.14431" lon="5.12066">
        <ele>402</ele>
        <time>2013-09-14T10:23:24Z</time>
      </trkpt>
      <trkpt lat="45.14431" lon="5.12066">
        <ele>402</ele>
        <time>2013-09-14T10:23:27Z</time>
      </trkpt>
      <trkpt lat="45.14431" lon="5.12066">
        <ele>402</ele>
        <time>2013-09-14T10:23:31Z</time>
      </trkpt>
      <trkpt lat="45.14431" lon="5.12066">
        <ele>402</ele>
        <time>2013-09-14T10:23:34Z</time>
      </trkpt>
      <trkpt lat="45.14431" lon="5.12066">
        <ele>402</ele>
        <time>2013-09-14T10:23:38Z</time>
      </trkpt>
      <trkpt lat="45.14431" lon="5.12066">
        <ele>402</ele>
        <time>2013-09-14T10:23:41Z</time>
      </trkpt>
      <trkpt lat="45.14431" lon="5.12066">
        <ele>402</ele>
        <time>2013-09-14T10:23:45Z</time>
      </trkpt>
      <trkpt lat="45.14431" lon="5.12069">
        <ele>402</ele>
        <time>2013-09-14T10:23:48Z</time>
      </trkpt>
      <trkpt lat="45.14431" lon="5.12074">
        <ele>402</ele>
        <time>2013-09-14T10:23:52Z</time>
      </trkpt>
      <trkpt lat="45.1443" lon="5.1208">
        <ele>402</ele>
        <time>2013-09-14T10:23:56Z</time>
      </trkpt>
      <trkpt lat="45.14429" lon="5.12081">
        <ele>402</ele>
        <time>2013-09-14T10:23:59Z</time>
      </trkpt>
      <trkpt lat="45.14429" lon="5.12081">
        <ele>402</ele>
        <time>2013-09-14T10:24:03Z</time>
      </trkpt>
      <trkpt lat="45.14429" lon="5.12081">
        <ele>402</ele>
        <time>2013-09-14T10:24:06Z</time>
      </trkpt>
      <trkpt lat="45.14429" lon="5.12081">
        <ele>401</ele>
        <time>2013-09-14T10:24:10Z</time>
      </trkpt>
      <trkpt lat="45.14429" lon="5.12081">
        <ele>402</ele>
        <time>2013-09-14T10:24:13Z</time>
      </trkpt>
      <trkpt lat="45.14429" lon="5.12081">
        <ele>402</ele>
        <time>2013-09-14T10:24:17Z</time>
      </trkpt>
      <trkpt lat="45.14429" lon="5.12081">
        <ele>402</ele>
        <time>2013-09-14T10:24:20Z</time>
      </trkpt>
      <trkpt lat="45.14429" lon="5.12081">
        <ele>402</ele>
        <time>2013-09-14T10:24:24Z</time>
      </trkpt>
      <trkpt lat="45.14429" lon="5.12081">
        <ele>401</ele>
        <time>2013-09-14T10:24:27Z</time>
      </trkpt>
      <trkpt lat="45.14429" lon="5.12081">
        <ele>402</ele>
        <time>2013-09-14T10:24:31Z</time>
      </trkpt>
      <trkpt lat="45.14429" lon="5.12081">
        <ele>402</ele>
        <time>2013-09-14T10:24:34Z</time>
      </trkpt>
      <trkpt lat="45.14429" lon="5.12081">
        <ele>402</ele>
        <time>2013-09-14T10:24:38Z</time>
      </trkpt>
      <trkpt lat="45.14429" lon="5.12081">
        <ele>402</ele>
        <time>2013-09-14T10:24:41Z</time>
      </trkpt>
      <trkpt lat="45.14428" lon="5.12081">
        <ele>402</ele>
        <time>2013-09-14T10:24:45Z</time>
      </trkpt>
      <trkpt lat="45.14428" lon="5.12081">
        <ele>402</ele>
        <time>2013-09-14T10:24:48Z</time>
      </trkpt>
      <trkpt lat="45.14428" lon="5.12081">
        <ele>401</ele>
        <time>2013-09-14T10:24:52Z</time>
      </trkpt>
      <trkpt lat="45.14428" lon="5.12081">
        <ele>402</ele>
        <time>2013-09-14T10:24:55Z</time>
      </trkpt>
      <trkpt lat="45.14428" lon="5.12081">
        <ele>402</ele>
        <time>2013-09-14T10:24:59Z</time>
      </trkpt>
      <trkpt lat="45.14428" lon="5.12081">
        <ele>402</ele>
        <time>2013-09-14T10:25:02Z</time>
      </trkpt>
      <trkpt lat="45.14428" lon="5.12081">
        <ele>402</ele>
        <time>2013-09-14T10:25:06Z</time>
      </trkpt>
      <trkpt lat="45.14428" lon="5.12081">
        <ele>401</ele>
        <time>2013-09-14T10:25:09Z</time>
      </trkpt>
      <trkpt lat="45.14428" lon="5.12081">
        <ele>402</ele>
        <time>2013-09-14T10:25:13Z</time>
      </trkpt>
      <trkpt lat="45.14428" lon="5.12081">
        <ele>402</ele>
        <time>2013-09-14T10:25:16Z</time>
      </trkpt>
      <trkpt lat="45.14428" lon="5.12081">
        <ele>402</ele>
        <time>2013-09-14T10:25:20Z</time>
      </trkpt>
      <trkpt lat="45.14428" lon="5.12081">
        <ele>402</ele>
        <time>2013-09-14T10:25:23Z</time>
      </trkpt>
      <trkpt lat="45.14428" lon="5.12081">
        <ele>402</ele>
        <time>2013-09-14T10:25:27Z</time>
      </trkpt>
      <trkpt lat="45.14428" lon="5.12081">
        <ele>402</ele>
        <time>2013-09-14T10:25:31Z</time>
      </trkpt>
      <trkpt lat="45.14428" lon="5.12081">
        <ele>402</ele>
        <time>2013-09-14T10:25:34Z</time>
      </trkpt>
      <trkpt lat="45.14428" lon="5.12081">
        <ele>402</ele>
        <time>2013-09-14T10:25:38Z</time>
      </trkpt>
      <trkpt lat="45.14428" lon="5.12081">
        <ele>402</ele>
        <time>2013-09-14T10:25:41Z</time>
      </trkpt>
      <trkpt lat="45.14428" lon="5.12081">
        <ele>403</ele>
        <time>2013-09-14T10:25:45Z</time>
      </trkpt>
      <trkpt lat="45.14428" lon="5.12081">
        <ele>402</ele>
        <time>2013-09-14T10:25:48Z</time>
      </trkpt>
      <trkpt lat="45.14428" lon="5.12081">
        <ele>402</ele>
        <time>2013-09-14T10:25:52Z</time>
      </trkpt>
      <trkpt lat="45.14428" lon="5.12081">
        <ele>403</ele>
        <time>2013-09-14T10:25:55Z</time>
      </trkpt>
      <trkpt lat="45.14428" lon="5.12081">
        <ele>402</ele>
        <time>2013-09-14T10:25:59Z</time>
      </trkpt>
      <trkpt lat="45.14428" lon="5.12082">
        <ele>403</ele>
        <time>2013-09-14T10:26:02Z</time>
      </trkpt>
      <trkpt lat="45.14428" lon="5.12082">
        <ele>403</ele>
        <time>2013-09-14T10:26:06Z</time>
      </trkpt>
      <trkpt lat="45.14428" lon="5.12082">
        <ele>402</ele>
        <time>2013-09-14T10:26:09Z</time>
      </trkpt>
      <trkpt lat="45.14428" lon="5.12082">
        <ele>403</ele>
        <time>2013-09-14T10:26:13Z</time>
      </trkpt>
      <trkpt lat="45.14428" lon="5.12082">
        <ele>402</ele>
        <time>2013-09-14T10:26:16Z</time>
      </trkpt>
      <trkpt lat="45.14428" lon="5.12082">
        <ele>402</ele>
        <time>2013-09-14T10:26:20Z</time>
      </trkpt>
      <trkpt lat="45.14428" lon="5.12082">
        <ele>403</ele>
        <time>2013-09-14T10:26:23Z</time>
      </trkpt>
      <trkpt lat="45.14428" lon="5.12082">
        <ele>403</ele>
        <time>2013-09-14T10:26:27Z</time>
      </trkpt>
      <trkpt lat="45.14428" lon="5.12082">
        <ele>402</ele>
        <time>2013-09-14T10:26:30Z</time>
      </trkpt>
      <trkpt lat="45.14428" lon="5.12082">
        <ele>402</ele>
        <time>2013-09-14T10:26:34Z</time>
      </trkpt>
      <trkpt lat="45.14428" lon="5.12082">
        <ele>403</ele>
        <time>2013-09-14T10:26:37Z</time>
      </trkpt>
      <trkpt lat="45.14428" lon="5.12082">
        <ele>403</ele>
        <time>2013-09-14T10:26:41Z</time>
      </trkpt>
      <trkpt lat="45.14428" lon="5.12082">
        <ele>402</ele>
        <time>2013-09-14T10:26:44Z</time>
      </trkpt>
      <trkpt lat="45.14428" lon="5.12082">
        <ele>402</ele>
        <time>2013-09-14T10:26:48Z</time>
      </trkpt>
      <trkpt lat="45.14428" lon="5.12082">
        <ele>402</ele>
        <time>2013-09-14T10:26:51Z</time>
      </trkpt>
      <trkpt lat="45.14428" lon="5.12082">
        <ele>402</ele>
        <time>2013-09-14T10:26:55Z</time>
      </trkpt>
      <trkpt lat="45.14428" lon="5.12083">
        <ele>403</ele>
        <time>2013-09-14T10:26:58Z</time>
      </trkpt>
      <trkpt lat="45.14428" lon="5.12083">
        <ele>402</ele>
        <time>2013-09-14T10:27:02Z</time>
      </trkpt>
      <trkpt lat="45.14428" lon="5.12083">
        <ele>403</ele>
        <time>2013-09-14T10:27:06Z</time>
      </trkpt>
      <trkpt lat="45.14428" lon="5.12083">
        <ele>402</ele>
        <time>2013-09-14T10:27:09Z</time>
      </trkpt>
      <trkpt lat="45.14428" lon="5.12082">
        <ele>402</ele>
        <time>2013-09-14T10:27:13Z</time>
      </trkpt>
      <trkpt lat="45.14428" lon="5.12082">
        <ele>403</ele>
        <time>2013-09-14T10:27:16Z</time>
      </trkpt>
      <trkpt lat="45.14428" lon="5.12082">
        <ele>403</ele>
        <time>2013-09-14T10:27:20Z</time>
      </trkpt>
      <trkpt lat="45.14428" lon="5.12082">
        <ele>403</ele>
        <time>2013-09-14T10:27:23Z</time>
      </trkpt>
      <trkpt lat="45.14428" lon="5.12082">
        <ele>403</ele>
        <time>2013-09-14T10:27:27Z</time>
      </trkpt>
      <trkpt lat="45.14428" lon="5.12082">
        <ele>403</ele>
        <time>2013-09-14T10:27:30Z</time>
      </trkpt>
      <trkpt lat="45.14428" lon="5.12082">
        <ele>403</ele>
        <time>2013-09-14T10:27:34Z</time>
      </trkpt>
      <trkpt lat="45.14428" lon="5.12082">
        <ele>402</ele>
        <time>2013-09-14T10:27:37Z</time>
      </trkpt>
      <trkpt lat="45.14428" lon="5.12082">
        <ele>402</ele>
        <time>2013-09-14T10:27:41Z</time>
      </trkpt>
      <trkpt lat="45.14428" lon="5.12082">
        <ele>402</ele>
        <time>2013-09-14T10:27:44Z</time>
      </trkpt>
      <trkpt lat="45.14428" lon="5.12082">
        <ele>402</ele>
        <time>2013-09-14T10:27:48Z</time>
      </trkpt>
      <trkpt lat="45.14428" lon="5.12082">
        <ele>402</ele>
        <time>2013-09-14T10:27:51Z</time>
      </trkpt>
      <trkpt lat="45.14427" lon="5.12084">
        <ele>403</ele>
        <time>2013-09-14T10:27:55Z</time>
      </trkpt>
      <trkpt lat="45.14427" lon="5.12084">
        <ele>402</ele>
        <time>2013-09-14T10:27:58Z</time>
      </trkpt>
      <trkpt lat="45.14427" lon="5.12084">
        <ele>402</ele>
        <time>2013-09-14T10:28:02Z</time>
      </trkpt>
      <trkpt lat="45.14427" lon="5.12084">
        <ele>402</ele>
        <time>2013-09-14T10:28:05Z</time>
      </trkpt>
      <trkpt lat="45.14425" lon="5.12084">
        <ele>402</ele>
        <time>2013-09-14T10:28:09Z</time>
      </trkpt>
      <trkpt lat="45.14422" lon="5.12079">
        <ele>402</ele>
        <time>2013-09-14T10:28:12Z</time>
      </trkpt>
      <trkpt lat="45.14413" lon="5.12068">
        <ele>403</ele>
        <time>2013-09-14T10:28:16Z</time>
      </trkpt>
      <trkpt lat="45.14405" lon="5.12055">
        <ele>403</ele>
        <time>2013-09-14T10:28:19Z</time>
      </trkpt>
      <trkpt lat="45.14393" lon="5.12037">
        <ele>404</ele>
        <time>2013-09-14T10:28:23Z</time>
      </trkpt>
      <trkpt lat="45.14383" lon="5.12025">
        <ele>403</ele>
        <time>2013-09-14T10:28:26Z</time>
      </trkpt>
      <trkpt lat="45.14371" lon="5.12009">
        <ele>403</ele>
        <time>2013-09-14T10:28:30Z</time>
      </trkpt>
      <trkpt lat="45.14362" lon="5.12">
        <ele>404</ele>
        <time>2013-09-14T10:28:33Z</time>
      </trkpt>
      <trkpt lat="45.14347" lon="5.11988">
        <ele>404</ele>
        <time>2013-09-14T10:28:37Z</time>
      </trkpt>
      <trkpt lat="45.14337" lon="5.11979">
        <ele>404</ele>
        <time>2013-09-14T10:28:40Z</time>
      </trkpt>
      <trkpt lat="45.14322" lon="5.11966">
        <ele>403</ele>
        <time>2013-09-14T10:28:44Z</time>
      </trkpt>
      <trkpt lat="45.14304" lon="5.11953">
        <ele>404</ele>
        <time>2013-09-14T10:28:48Z</time>
      </trkpt>
      <trkpt lat="45.14289" lon="5.11941">
        <ele>402</ele>
        <time>2013-09-14T10:28:51Z</time>
      </trkpt>
      <trkpt lat="45.14267" lon="5.11924">
        <ele>402</ele>
        <time>2013-09-14T10:28:55Z</time>
      </trkpt>
      <trkpt lat="45.1425" lon="5.11911">
        <ele>402</ele>
        <time>2013-09-14T10:28:58Z</time>
      </trkpt>
      <trkpt lat="45.14227" lon="5.11894">
        <ele>402</ele>
        <time>2013-09-14T10:29:02Z</time>
      </trkpt>
      <trkpt lat="45.14209" lon="5.1188">
        <ele>401</ele>
        <time>2013-09-14T10:29:05Z</time>
      </trkpt>
      <trkpt lat="45.14185" lon="5.1186">
        <ele>401</ele>
        <time>2013-09-14T10:29:09Z</time>
      </trkpt>
      <trkpt lat="45.14166" lon="5.11845">
        <ele>401</ele>
        <time>2013-09-14T10:29:12Z</time>
      </trkpt>
      <trkpt lat="45.14141" lon="5.11822">
        <ele>400</ele>
        <time>2013-09-14T10:29:16Z</time>
      </trkpt>
      <trkpt lat="45.14121" lon="5.11807">
        <ele>400</ele>
        <time>2013-09-14T10:29:19Z</time>
      </trkpt>
      <trkpt lat="45.14093" lon="5.11784">
        <ele>399</ele>
        <time>2013-09-14T10:29:23Z</time>
      </trkpt>
      <trkpt lat="45.14072" lon="5.11766">
        <ele>399</ele>
        <time>2013-09-14T10:29:26Z</time>
      </trkpt>
      <trkpt lat="45.14045" lon="5.11745">
        <ele>399</ele>
        <time>2013-09-14T10:29:30Z</time>
      </trkpt>
      <trkpt lat="45.14025" lon="5.11728">
        <ele>399</ele>
        <time>2013-09-14T10:29:33Z</time>
      </trkpt>
      <trkpt lat="45.13999" lon="5.11707">
        <ele>399</ele>
        <time>2013-09-14T10:29:37Z</time>
      </trkpt>
      <trkpt lat="45.13978" lon="5.11692">
        <ele>399</ele>
        <time>2013-09-14T10:29:40Z</time>
      </trkpt>
      <trkpt lat="45.1395" lon="5.11669">
        <ele>398</ele>
        <time>2013-09-14T10:29:44Z</time>
      </trkpt>
      <trkpt lat="45.13928" lon="5.11651">
        <ele>397</ele>
        <time>2013-09-14T10:29:47Z</time>
      </trkpt>
      <trkpt lat="45.13896" lon="5.11626">
        <ele>395</ele>
        <time>2013-09-14T10:29:51Z</time>
      </trkpt>
      <trkpt lat="45.13872" lon="5.11607">
        <ele>395</ele>
        <time>2013-09-14T10:29:54Z</time>
      </trkpt>
      <trkpt lat="45.13838" lon="5.11579">
        <ele>392</ele>
        <time>2013-09-14T10:29:58Z</time>
      </trkpt>
      <trkpt lat="45.13813" lon="5.11559">
        <ele>392</ele>
        <time>2013-09-14T10:30:01Z</time>
      </trkpt>
      <trkpt lat="45.13779" lon="5.11532">
        <ele>392</ele>
        <time>2013-09-14T10:30:05Z</time>
      </trkpt>
      <trkpt lat="45.13753" lon="5.11511">
        <ele>391</ele>
        <time>2013-09-14T10:30:08Z</time>
      </trkpt>
      <trkpt lat="45.13721" lon="5.11485">
        <ele>390</ele>
        <time>2013-09-14T10:30:12Z</time>
      </trkpt>
      <trkpt lat="45.13697" lon="5.11465">
        <ele>389</ele>
        <time>2013-09-14T10:30:15Z</time>
      </trkpt>
      <trkpt lat="45.13664" lon="5.11438">
        <ele>388</ele>
        <time>2013-09-14T10:30:19Z</time>
      </trkpt>
      <trkpt lat="45.13631" lon="5.11413">
        <ele>387</ele>
        <time>2013-09-14T10:30:23Z</time>
      </trkpt>
      <trkpt lat="45.13606" lon="5.11393">
        <ele>387</ele>
        <time>2013-09-14T10:30:26Z</time>
      </trkpt>
      <trkpt lat="45.13573" lon="5.11367">
        <ele>385</ele>
        <time>2013-09-14T10:30:30Z</time>
      </trkpt>
      <trkpt lat="45.13549" lon="5.11349">
        <ele>385</ele>
        <time>2013-09-14T10:30:33Z</time>
      </trkpt>
      <trkpt lat="45.13517" lon="5.11324">
        <ele>384</ele>
        <time>2013-09-14T10:30:37Z</time>
      </trkpt>
      <trkpt lat="45.13493" lon="5.11305">
        <ele>384</ele>
        <time>2013-09-14T10:30:40Z</time>
      </trkpt>
      <trkpt lat="45.1346" lon="5.11279">
        <ele>383</ele>
        <time>2013-09-14T10:30:44Z</time>
      </trkpt>
      <trkpt lat="45.13436" lon="5.11259">
        <ele>383</ele>
        <time>2013-09-14T10:30:47Z</time>
      </trkpt>
      <trkpt lat="45.13404" lon="5.11232">
        <ele>382</ele>
        <time>2013-09-14T10:30:51Z</time>
      </trkpt>
      <trkpt lat="45.13382" lon="5.11212">
        <ele>382</ele>
        <time>2013-09-14T10:30:54Z</time>
      </trkpt>
      <trkpt lat="45.13352" lon="5.11187">
        <ele>381</ele>
        <time>2013-09-14T10:30:58Z</time>
      </trkpt>
      <trkpt lat="45.1333" lon="5.11167">
        <ele>380</ele>
        <time>2013-09-14T10:31:01Z</time>
      </trkpt>
      <trkpt lat="45.13301" lon="5.11141">
        <ele>380</ele>
        <time>2013-09-14T10:31:05Z</time>
      </trkpt>
      <trkpt lat="45.13279" lon="5.1112">
        <ele>379</ele>
        <time>2013-09-14T10:31:08Z</time>
      </trkpt>
      <trkpt lat="45.1325" lon="5.11092">
        <ele>379</ele>
        <time>2013-09-14T10:31:12Z</time>
      </trkpt>
      <trkpt lat="45.13227" lon="5.11069">
        <ele>377</ele>
        <time>2013-09-14T10:31:15Z</time>
      </trkpt>
      <trkpt lat="45.13195" lon="5.11037">
        <ele>376</ele>
        <time>2013-09-14T10:31:19Z</time>
      </trkpt>
      <trkpt lat="45.1317" lon="5.11013">
        <ele>375</ele>
        <time>2013-09-14T10:31:22Z</time>
      </trkpt>
      <trkpt lat="45.13136" lon="5.10981">
        <ele>373</ele>
        <time>2013-09-14T10:31:26Z</time>
      </trkpt>
      <trkpt lat="45.13111" lon="5.10956">
        <ele>372</ele>
        <time>2013-09-14T10:31:29Z</time>
      </trkpt>
      <trkpt lat="45.13076" lon="5.10922">
        <ele>372</ele>
        <time>2013-09-14T10:31:33Z</time>
      </trkpt>
      <trkpt lat="45.1305" lon="5.10898">
        <ele>370</ele>
        <time>2013-09-14T10:31:36Z</time>
      </trkpt>
      <trkpt lat="45.13017" lon="5.10865">
        <ele>369</ele>
        <time>2013-09-14T10:31:40Z</time>
      </trkpt>
      <trkpt lat="45.12992" lon="5.10841">
        <ele>368</ele>
        <time>2013-09-14T10:31:43Z</time>
      </trkpt>
      <trkpt lat="45.12959" lon="5.10809">
        <ele>368</ele>
        <time>2013-09-14T10:31:47Z</time>
      </trkpt>
      <trkpt lat="45.12935" lon="5.10786">
        <ele>367</ele>
        <time>2013-09-14T10:31:50Z</time>
      </trkpt>
      <trkpt lat="45.12903" lon="5.10758">
        <ele>366</ele>
        <time>2013-09-14T10:31:54Z</time>
      </trkpt>
      <trkpt lat="45.12871" lon="5.10736">
        <ele>365</ele>
        <time>2013-09-14T10:31:58Z</time>
      </trkpt>
      <trkpt lat="45.12846" lon="5.10723">
        <ele>365</ele>
        <time>2013-09-14T10:32:01Z</time>
      </trkpt>
      <trkpt lat="45.12811" lon="5.10713">
        <ele>364</ele>
        <time>2013-09-14T10:32:05Z</time>
      </trkpt>
      <trkpt lat="45.12784" lon="5.10709">
        <ele>364</ele>
        <time>2013-09-14T10:32:08Z</time>
      </trkpt>
      <trkpt lat="45.12748" lon="5.10705">
        <ele>363</ele>
        <time>2013-09-14T10:32:12Z</time>
      </trkpt>
      <trkpt lat="45.1272" lon="5.10705">
        <ele>363</ele>
        <time>2013-09-14T10:32:15Z</time>
      </trkpt>
      <trkpt lat="45.12683" lon="5.10703">
        <ele>362</ele>
        <time>2013-09-14T10:32:19Z</time>
      </trkpt>
      <trkpt lat="45.12654" lon="5.10702">
        <ele>361</ele>
        <time>2013-09-14T10:32:22Z</time>
      </trkpt>
      <trkpt lat="45.12615" lon="5.107">
        <ele>359</ele>
        <time>2013-09-14T10:32:26Z</time>
      </trkpt>
      <trkpt lat="45.12586" lon="5.10703">
        <ele>360</ele>
        <time>2013-09-14T10:32:29Z</time>
      </trkpt>
      <trkpt lat="45.12547" lon="5.10708">
        <ele>359</ele>
        <time>2013-09-14T10:32:33Z</time>
      </trkpt>
      <trkpt lat="45.12518" lon="5.10713">
        <ele>357</ele>
        <time>2013-09-14T10:32:36Z</time>
      </trkpt>
      <trkpt lat="45.1248" lon="5.10718">
        <ele>357</ele>
        <time>2013-09-14T10:32:40Z</time>
      </trkpt>
      <trkpt lat="45.12452" lon="5.10722">
        <ele>357</ele>
        <time>2013-09-14T10:32:43Z</time>
      </trkpt>
      <trkpt lat="45.12414" lon="5.10727">
        <ele>356</ele>
        <time>2013-09-14T10:32:47Z</time>
      </trkpt>
      <trkpt lat="45.12386" lon="5.10731">
        <ele>356</ele>
        <time>2013-09-14T10:32:50Z</time>
      </trkpt>
      <trkpt lat="45.12351" lon="5.10737">
        <ele>354</ele>
        <time>2013-09-14T10:32:54Z</time>
      </trkpt>
      <trkpt lat="45.12325" lon="5.10746">
        <ele>354</ele>
        <time>2013-09-14T10:32:57Z</time>
      </trkpt>
      <trkpt lat="45.12293" lon="5.10761">
        <ele>354</ele>
        <time>2013-09-14T10:33:01Z</time>
      </trkpt>
      <trkpt lat="45.12269" lon="5.10772">
        <ele>354</ele>
        <time>2013-09-14T10:33:04Z</time>
      </trkpt>
      <trkpt lat="45.12236" lon="5.10776">
        <ele>354</ele>
        <time>2013-09-14T10:33:08Z</time>
      </trkpt>
      <trkpt lat="45.12212" lon="5.10773">
        <ele>354</ele>
        <time>2013-09-14T10:33:11Z</time>
      </trkpt>
      <trkpt lat="45.12182" lon="5.10757">
        <ele>353</ele>
        <time>2013-09-14T10:33:15Z</time>
      </trkpt>
      <trkpt lat="45.12161" lon="5.10741">
        <ele>353</ele>
        <time>2013-09-14T10:33:18Z</time>
      </trkpt>
      <trkpt lat="45.12133" lon="5.1072">
        <ele>354</ele>
        <time>2013-09-14T10:33:22Z</time>
      </trkpt>
      <trkpt lat="45.12112" lon="5.10704">
        <ele>353</ele>
        <time>2013-09-14T10:33:25Z</time>
      </trkpt>
      <trkpt lat="45.12086" lon="5.10684">
        <ele>353</ele>
        <time>2013-09-14T10:33:29Z</time>
      </trkpt>
      <trkpt lat="45.12066" lon="5.1067">
        <ele>353</ele>
        <time>2013-09-14T10:33:32Z</time>
      </trkpt>
      <trkpt lat="45.1204" lon="5.10652">
        <ele>353</ele>
        <time>2013-09-14T10:33:36Z</time>
      </trkpt>
      <trkpt lat="45.12015" lon="5.10632">
        <ele>353</ele>
        <time>2013-09-14T10:33:40Z</time>
      </trkpt>
      <trkpt lat="45.11997" lon="5.10615">
        <ele>354</ele>
        <time>2013-09-14T10:33:43Z</time>
      </trkpt>
      <trkpt lat="45.11975" lon="5.10588">
        <ele>354</ele>
        <time>2013-09-14T10:33:47Z</time>
      </trkpt>
      <trkpt lat="45.11961" lon="5.10562">
        <ele>353</ele>
        <time>2013-09-14T10:33:50Z</time>
      </trkpt>
      <trkpt lat="45.11944" lon="5.10523">
        <ele>353</ele>
        <time>2013-09-14T10:33:54Z</time>
      </trkpt>
      <trkpt lat="45.11932" lon="5.10493">
        <ele>352</ele>
        <time>2013-09-14T10:33:57Z</time>
      </trkpt>
      <trkpt lat="45.11913" lon="5.10456">
        <ele>352</ele>
        <time>2013-09-14T10:34:01Z</time>
      </trkpt>
      <trkpt lat="45.11897" lon="5.10431">
        <ele>351</ele>
        <time>2013-09-14T10:34:04Z</time>
      </trkpt>
      <trkpt lat="45.11875" lon="5.10398">
        <ele>351</ele>
        <time>2013-09-14T10:34:08Z</time>
      </trkpt>
      <trkpt lat="45.11859" lon="5.10374">
        <ele>351</ele>
        <time>2013-09-14T10:34:11Z</time>
      </trkpt>
      <trkpt lat="45.11837" lon="5.10342">
        <ele>351</ele>
        <time>2013-09-14T10:34:15Z</time>
      </trkpt>
      <trkpt lat="45.11822" lon="5.10317">
        <ele>351</ele>
        <time>2013-09-14T10:34:18Z</time>
      </trkpt>
      <trkpt lat="45.11802" lon="5.10283">
        <ele>351</ele>
        <time>2013-09-14T10:34:22Z</time>
      </trkpt>
      <trkpt lat="45.11788" lon="5.10257">
        <ele>351</ele>
        <time>2013-09-14T10:34:25Z</time>
      </trkpt>
      <trkpt lat="45.1177" lon="5.10218">
        <ele>350</ele>
        <time>2013-09-14T10:34:29Z</time>
      </trkpt>
      <trkpt lat="45.11756" lon="5.10189">
        <ele>350</ele>
        <time>2013-09-14T10:34:32Z</time>
      </trkpt>
      <trkpt lat="45.11739" lon="5.10149">
        <ele>350</ele>
        <time>2013-09-14T10:34:36Z</time>
      </trkpt>
      <trkpt lat="45.11727" lon="5.10118">
        <ele>350</ele>
        <time>2013-09-14T10:34:39Z</time>
      </trkpt>
      <trkpt lat="45.11711" lon="5.10077">
        <ele>349</ele>
        <time>2013-09-14T10:34:43Z</time>
      </trkpt>
      <trkpt lat="45.11699" lon="5.10046">
        <ele>348</ele>
        <time>2013-09-14T10:34:46Z</time>
      </trkpt>
      <trkpt lat="45.11682" lon="5.10005">
        <ele>347</ele>
        <time>2013-09-14T10:34:50Z</time>
      </trkpt>
      <trkpt lat="45.11667" lon="5.09976">
        <ele>346</ele>
        <time>2013-09-14T10:34:53Z</time>
      </trkpt>
      <trkpt lat="45.11644" lon="5.09941">
        <ele>345</ele>
        <time>2013-09-14T10:34:57Z</time>
      </trkpt>
      <trkpt lat="45.11626" lon="5.09917">
        <ele>346</ele>
        <time>2013-09-14T10:35:00Z</time>
      </trkpt>
      <trkpt lat="45.11602" lon="5.09883">
        <ele>345</ele>
        <time>2013-09-14T10:35:04Z</time>
      </trkpt>
      <trkpt lat="45.11585" lon="5.09858">
        <ele>344</ele>
        <time>2013-09-14T10:35:07Z</time>
      </trkpt>
      <trkpt lat="45.11561" lon="5.09825">
        <ele>345</ele>
        <time>2013-09-14T10:35:11Z</time>
      </trkpt>
      <trkpt lat="45.11537" lon="5.09796">
        <ele>344</ele>
        <time>2013-09-14T10:35:15Z</time>
      </trkpt>
      <trkpt lat="45.11517" lon="5.09779">
        <ele>344</ele>
        <time>2013-09-14T10:35:18Z</time>
      </trkpt>
      <trkpt lat="45.11487" lon="5.0976">
        <ele>344</ele>
        <time>2013-09-14T10:35:22Z</time>
      </trkpt>
      <trkpt lat="45.11464" lon="5.09746">
        <ele>343</ele>
        <time>2013-09-14T10:35:25Z</time>
      </trkpt>
      <trkpt lat="45.11432" lon="5.09727">
        <ele>342</ele>
        <time>2013-09-14T10:35:29Z</time>
      </trkpt>
      <trkpt lat="45.11409" lon="5.09712">
        <ele>341</ele>
        <time>2013-09-14T10:35:32Z</time>
      </trkpt>
      <trkpt lat="45.11377" lon="5.09693">
        <ele>341</ele>
        <time>2013-09-14T10:35:36Z</time>
      </trkpt>
      <trkpt lat="45.11353" lon="5.09678">
        <ele>341</ele>
        <time>2013-09-14T10:35:39Z</time>
      </trkpt>
      <trkpt lat="45.11321" lon="5.09658">
        <ele>339</ele>
        <time>2013-09-14T10:35:43Z</time>
      </trkpt>
      <trkpt lat="45.11296" lon="5.09644">
        <ele>339</ele>
        <time>2013-09-14T10:35:46Z</time>
      </trkpt>
      <trkpt lat="45.11263" lon="5.09624">
        <ele>338</ele>
        <time>2013-09-14T10:35:50Z</time>
      </trkpt>
      <trkpt lat="45.11237" lon="5.09611">
        <ele>336</ele>
        <time>2013-09-14T10:35:53Z</time>
      </trkpt>
      <trkpt lat="45.11202" lon="5.09596">
        <ele>335</ele>
        <time>2013-09-14T10:35:57Z</time>
      </trkpt>
      <trkpt lat="45.11174" lon="5.09587">
        <ele>335</ele>
        <time>2013-09-14T10:36:00Z</time>
      </trkpt>
      <trkpt lat="45.11138" lon="5.09576">
        <ele>335</ele>
        <time>2013-09-14T10:36:04Z</time>
      </trkpt>
      <trkpt lat="45.11111" lon="5.09567">
        <ele>334</ele>
        <time>2013-09-14T10:36:07Z</time>
      </trkpt>
      <trkpt lat="45.11075" lon="5.09556">
        <ele>332</ele>
        <time>2013-09-14T10:36:11Z</time>
      </trkpt>
      <trkpt lat="45.11049" lon="5.0955">
        <ele>332</ele>
        <time>2013-09-14T10:36:14Z</time>
      </trkpt>
      <trkpt lat="45.11013" lon="5.09545">
        <ele>331</ele>
        <time>2013-09-14T10:36:18Z</time>
      </trkpt>
      <trkpt lat="45.10986" lon="5.0954">
        <ele>330</ele>
        <time>2013-09-14T10:36:21Z</time>
      </trkpt>
      <trkpt lat="45.1095" lon="5.09538">
        <ele>330</ele>
        <time>2013-09-14T10:36:25Z</time>
      </trkpt>
      <trkpt lat="45.10923" lon="5.0954">
        <ele>329</ele>
        <time>2013-09-14T10:36:28Z</time>
      </trkpt>
      <trkpt lat="45.10888" lon="5.09548">
        <ele>328</ele>
        <time>2013-09-14T10:36:32Z</time>
      </trkpt>
      <trkpt lat="45.10864" lon="5.0956">
        <ele>327</ele>
        <time>2013-09-14T10:36:35Z</time>
      </trkpt>
      <trkpt lat="45.10834" lon="5.0958">
        <ele>327</ele>
        <time>2013-09-14T10:36:39Z</time>
      </trkpt>
      <trkpt lat="45.10815" lon="5.09597">
        <ele>327</ele>
        <time>2013-09-14T10:36:42Z</time>
      </trkpt>
      <trkpt lat="45.10792" lon="5.09622">
        <ele>328</ele>
        <time>2013-09-14T10:36:46Z</time>
      </trkpt>
      <trkpt lat="45.10774" lon="5.09639">
        <ele>327</ele>
        <time>2013-09-14T10:36:49Z</time>
      </trkpt>
      <trkpt lat="45.10747" lon="5.09661">
        <ele>326</ele>
        <time>2013-09-14T10:36:53Z</time>
      </trkpt>
      <trkpt lat="45.10717" lon="5.09677">
        <ele>325</ele>
        <time>2013-09-14T10:36:57Z</time>
      </trkpt>
      <trkpt lat="45.10693" lon="5.09684">
        <ele>325</ele>
        <time>2013-09-14T10:37:00Z</time>
      </trkpt>
      <trkpt lat="45.10661" lon="5.09687">
        <ele>324</ele>
        <time>2013-09-14T10:37:04Z</time>
      </trkpt>
      <trkpt lat="45.10637" lon="5.09685">
        <ele>324</ele>
        <time>2013-09-14T10:37:07Z</time>
      </trkpt>
      <trkpt lat="45.10606" lon="5.09684">
        <ele>324</ele>
        <time>2013-09-14T10:37:11Z</time>
      </trkpt>
      <trkpt lat="45.10583" lon="5.09682">
        <ele>324</ele>
        <time>2013-09-14T10:37:14Z</time>
      </trkpt>
      <trkpt lat="45.10552" lon="5.09679">
        <ele>323</ele>
        <time>2013-09-14T10:37:18Z</time>
      </trkpt>
      <trkpt lat="45.1053" lon="5.09679">
        <ele>323</ele>
        <time>2013-09-14T10:37:21Z</time>
      </trkpt>
      <trkpt lat="45.10499" lon="5.09678">
        <ele>324</ele>
        <time>2013-09-14T10:37:25Z</time>
      </trkpt>
      <trkpt lat="45.10477" lon="5.09677">
        <ele>323</ele>
        <time>2013-09-14T10:37:28Z</time>
      </trkpt>
      <trkpt lat="45.10448" lon="5.09676">
        <ele>323</ele>
        <time>2013-09-14T10:37:32Z</time>
      </trkpt>
      <trkpt lat="45.10427" lon="5.09675">
        <ele>324</ele>
        <time>2013-09-14T10:37:35Z</time>
      </trkpt>
      <trkpt lat="45.10401" lon="5.09673">
        <ele>325</ele>
        <time>2013-09-14T10:37:39Z</time>
      </trkpt>
      <trkpt lat="45.10383" lon="5.09673">
        <ele>325</ele>
        <time>2013-09-14T10:37:42Z</time>
      </trkpt>
      <trkpt lat="45.10361" lon="5.09672">
        <ele>325</ele>
        <time>2013-09-14T10:37:46Z</time>
      </trkpt>
      <trkpt lat="45.10346" lon="5.09671">
        <ele>326</ele>
        <time>2013-09-14T10:37:49Z</time>
      </trkpt>
      <trkpt lat="45.10328" lon="5.09664">
        <ele>327</ele>
        <time>2013-09-14T10:37:53Z</time>
      </trkpt>
      <trkpt lat="45.10315" lon="5.09657">
        <ele>328</ele>
        <time>2013-09-14T10:37:56Z</time>
      </trkpt>
      <trkpt lat="45.103" lon="5.09645">
        <ele>329</ele>
        <time>2013-09-14T10:38:00Z</time>
      </trkpt>
      <trkpt lat="45.1029" lon="5.09636">
        <ele>329</ele>
        <time>2013-09-14T10:38:03Z</time>
      </trkpt>
      <trkpt lat="45.10279" lon="5.09623">
        <ele>331</ele>
        <time>2013-09-14T10:38:07Z</time>
      </trkpt>
      <trkpt lat="45.1027" lon="5.09612">
        <ele>331</ele>
        <time>2013-09-14T10:38:10Z</time>
      </trkpt>
      <trkpt lat="45.10259" lon="5.096">
        <ele>332</ele>
        <time>2013-09-14T10:38:14Z</time>
      </trkpt>
      <trkpt lat="45.10251" lon="5.0959">
        <ele>333</ele>
        <time>2013-09-14T10:38:17Z</time>
      </trkpt>
      <trkpt lat="45.10239" lon="5.09577">
        <ele>334</ele>
        <time>2013-09-14T10:38:21Z</time>
      </trkpt>
      <trkpt lat="45.10232" lon="5.09569">
        <ele>334</ele>
        <time>2013-09-14T10:38:24Z</time>
      </trkpt>
      <trkpt lat="45.10221" lon="5.09558">
        <ele>335</ele>
        <time>2013-09-14T10:38:28Z</time>
      </trkpt>
      <trkpt lat="45.1021" lon="5.09547">
        <ele>335</ele>
        <time>2013-09-14T10:38:32Z</time>
      </trkpt>
      <trkpt lat="45.10201" lon="5.09538">
        <ele>336</ele>
        <time>2013-09-14T10:38:35Z</time>
      </trkpt>
      <trkpt lat="45.10188" lon="5.09526">
        <ele>337</ele>
        <time>2013-09-14T10:38:39Z</time>
      </trkpt>
      <trkpt lat="45.10178" lon="5.09517">
        <ele>337</ele>
        <time>2013-09-14T10:38:42Z</time>
      </trkpt>
      <trkpt lat="45.10165" lon="5.09504">
        <ele>338</ele>
        <time>2013-09-14T10:38:46Z</time>
      </trkpt>
      <trkpt lat="45.10155" lon="5.09495">
        <ele>338</ele>
        <time>2013-09-14T10:38:49Z</time>
      </trkpt>
      <trkpt lat="45.1014" lon="5.09482">
        <ele>338</ele>
        <time>2013-09-14T10:38:53Z</time>
      </trkpt>
      <trkpt lat="45.10128" lon="5.09472">
        <ele>338</ele>
        <time>2013-09-14T10:38:56Z</time>
      </trkpt>
      <trkpt lat="45.10111" lon="5.09457">
        <ele>338</ele>
        <time>2013-09-14T10:39:00Z</time>
      </trkpt>
      <trkpt lat="45.10098" lon="5.09446">
        <ele>338</ele>
        <time>2013-09-14T10:39:03Z</time>
      </trkpt>
      <trkpt lat="45.10079" lon="5.09433">
        <ele>338</ele>
        <time>2013-09-14T10:39:07Z</time>
      </trkpt>
      <trkpt lat="45.10064" lon="5.09423">
        <ele>338</ele>
        <time>2013-09-14T10:39:10Z</time>
      </trkpt>
      <trkpt lat="45.10044" lon="5.09408">
        <ele>338</ele>
        <time>2013-09-14T10:39:14Z</time>
      </trkpt>
      <trkpt lat="45.1003" lon="5.09395">
        <ele>338</ele>
        <time>2013-09-14T10:39:17Z</time>
      </trkpt>
      <trkpt lat="45.1001" lon="5.0938">
        <ele>338</ele>
        <time>2013-09-14T10:39:21Z</time>
      </trkpt>
      <trkpt lat="45.09994" lon="5.09367">
        <ele>339</ele>
        <time>2013-09-14T10:39:24Z</time>
      </trkpt>
      <trkpt lat="45.09974" lon="5.0935">
        <ele>339</ele>
        <time>2013-09-14T10:39:28Z</time>
      </trkpt>
      <trkpt lat="45.09959" lon="5.09337">
        <ele>339</ele>
        <time>2013-09-14T10:39:31Z</time>
      </trkpt>
      <trkpt lat="45.09939" lon="5.09321">
        <ele>339</ele>
        <time>2013-09-14T10:39:35Z</time>
      </trkpt>
      <trkpt lat="45.09924" lon="5.09309">
        <ele>339</ele>
        <time>2013-09-14T10:39:38Z</time>
      </trkpt>
      <trkpt lat="45.09903" lon="5.09292">
        <ele>339</ele>
        <time>2013-09-14T10:39:42Z</time>
      </trkpt>
      <trkpt lat="45.09887" lon="5.09279">
        <ele>339</ele>
        <time>2013-09-14T10:39:45Z</time>
      </trkpt>
      <trkpt lat="45.09866" lon="5.09261">
        <ele>339</ele>
        <time>2013-09-14T10:39:49Z</time>
      </trkpt>
      <trkpt lat="45.09849" lon="5.09246">
        <ele>338</ele>
        <time>2013-09-14T10:39:52Z</time>
      </trkpt>
      <trkpt lat="45.09826" lon="5.09226">
        <ele>336</ele>
        <time>2013-09-14T10:39:56Z</time>
      </trkpt>
      <trkpt lat="45.09808" lon="5.09209">
        <ele>336</ele>
        <time>2013-09-14T10:39:59Z</time>
      </trkpt>
      <trkpt lat="45.0978" lon="5.09187">
        <ele>335</ele>
        <time>2013-09-14T10:40:03Z</time>
      </trkpt>
      <trkpt lat="45.0975" lon="5.09163">
        <ele>334</ele>
        <time>2013-09-14T10:40:07Z</time>
      </trkpt>
      <trkpt lat="45.09727" lon="5.09144">
        <ele>333</ele>
        <time>2013-09-14T10:40:10Z</time>
      </trkpt>
      <trkpt lat="45.09695" lon="5.09116">
        <ele>332</ele>
        <time>2013-09-14T10:40:14Z</time>
      </trkpt>
      <trkpt lat="45.0967" lon="5.09096">
        <ele>330</ele>
        <time>2013-09-14T10:40:17Z</time>
      </trkpt>
      <trkpt lat="45.09637" lon="5.09071">
        <ele>328</ele>
        <time>2013-09-14T10:40:21Z</time>
      </trkpt>
      <trkpt lat="45.09609" lon="5.09063">
        <ele>328</ele>
        <time>2013-09-14T10:40:24Z</time>
      </trkpt>
      <trkpt lat="45.0957" lon="5.09061">
        <ele>326</ele>
        <time>2013-09-14T10:40:28Z</time>
      </trkpt>
      <trkpt lat="45.0954" lon="5.09055">
        <ele>325</ele>
        <time>2013-09-14T10:40:31Z</time>
      </trkpt>
      <trkpt lat="45.09508" lon="5.09022">
        <ele>323</ele>
        <time>2013-09-14T10:40:35Z</time>
      </trkpt>
      <trkpt lat="45.09496" lon="5.08983">
        <ele>323</ele>
        <time>2013-09-14T10:40:38Z</time>
      </trkpt>
      <trkpt lat="45.09495" lon="5.08927">
        <ele>320</ele>
        <time>2013-09-14T10:40:42Z</time>
      </trkpt>
      <trkpt lat="45.09495" lon="5.08882">
        <ele>319</ele>
        <time>2013-09-14T10:40:45Z</time>
      </trkpt>
      <trkpt lat="45.09483" lon="5.08824">
        <ele>317</ele>
        <time>2013-09-14T10:40:49Z</time>
      </trkpt>
      <trkpt lat="45.09455" lon="5.088">
        <ele>316</ele>
        <time>2013-09-14T10:40:52Z</time>
      </trkpt>
      <trkpt lat="45.09408" lon="5.08804">
        <ele>313</ele>
        <time>2013-09-14T10:40:56Z</time>
      </trkpt>
      <trkpt lat="45.09372" lon="5.08807">
        <ele>310</ele>
        <time>2013-09-14T10:40:59Z</time>
      </trkpt>
      <trkpt lat="45.09324" lon="5.08791">
        <ele>307</ele>
        <time>2013-09-14T10:41:03Z</time>
      </trkpt>
      <trkpt lat="45.09289" lon="5.08768">
        <ele>304</ele>
        <time>2013-09-14T10:41:06Z</time>
      </trkpt>
      <trkpt lat="45.0924" lon="5.08741">
        <ele>303</ele>
        <time>2013-09-14T10:41:10Z</time>
      </trkpt>
      <trkpt lat="45.09202" lon="5.08726">
        <ele>300</ele>
        <time>2013-09-14T10:41:13Z</time>
      </trkpt>
      <trkpt lat="45.09151" lon="5.08706">
        <ele>297</ele>
        <time>2013-09-14T10:41:17Z</time>
      </trkpt>
      <trkpt lat="45.09113" lon="5.08693">
        <ele>294</ele>
        <time>2013-09-14T10:41:20Z</time>
      </trkpt>
      <trkpt lat="45.09062" lon="5.0868">
        <ele>292</ele>
        <time>2013-09-14T10:41:24Z</time>
      </trkpt>
      <trkpt lat="45.09024" lon="5.08669">
        <ele>289</ele>
        <time>2013-09-14T10:41:27Z</time>
      </trkpt>
      <trkpt lat="45.08972" lon="5.08655">
        <ele>286</ele>
        <time>2013-09-14T10:41:31Z</time>
      </trkpt>
      <trkpt lat="45.08933" lon="5.08644">
        <ele>284</ele>
        <time>2013-09-14T10:41:34Z</time>
      </trkpt>
      <trkpt lat="45.08881" lon="5.08629">
        <ele>280</ele>
        <time>2013-09-14T10:41:38Z</time>
      </trkpt>
      <trkpt lat="45.08841" lon="5.08618">
        <ele>278</ele>
        <time>2013-09-14T10:41:41Z</time>
      </trkpt>
      <trkpt lat="45.08793" lon="5.08604">
        <ele>275</ele>
        <time>2013-09-14T10:41:45Z</time>
      </trkpt>
      <trkpt lat="45.0876" lon="5.08584">
        <ele>272</ele>
        <time>2013-09-14T10:41:49Z</time>
      </trkpt>
      <trkpt lat="45.08746" lon="5.08569">
        <ele>271</ele>
        <time>2013-09-14T10:41:52Z</time>
      </trkpt>
      <trkpt lat="45.08737" lon="5.0857">
        <ele>270</ele>
        <time>2013-09-14T10:41:56Z</time>
      </trkpt>
      <trkpt lat="45.08736" lon="5.0857">
        <ele>270</ele>
        <time>2013-09-14T10:41:59Z</time>
      </trkpt>
      <trkpt lat="45.08736" lon="5.0857">
        <ele>270</ele>
        <time>2013-09-14T10:42:03Z</time>
      </trkpt>
      <trkpt lat="45.08736" lon="5.0857">
        <ele>270</ele>
        <time>2013-09-14T10:42:06Z</time>
      </trkpt>
      <trkpt lat="45.08736" lon="5.0857">
        <ele>270</ele>
        <time>2013-09-14T10:42:10Z</time>
      </trkpt>
      <trkpt lat="45.08736" lon="5.0857">
        <ele>269</ele>
        <time>2013-09-14T10:42:13Z</time>
      </trkpt>
      <trkpt lat="45.08736" lon="5.0857">
        <ele>270</ele>
        <time>2013-09-14T10:42:17Z</time>
      </trkpt>
      <trkpt lat="45.08736" lon="5.0857">
        <ele>270</ele>
        <time>2013-09-14T10:42:20Z</time>
      </trkpt>
      <trkpt lat="45.08736" lon="5.0857">
        <ele>270</ele>
        <time>2013-09-14T10:42:24Z</time>
      </trkpt>
      <trkpt lat="45.08736" lon="5.0857">
        <ele>270</ele>
        <time>2013-09-14T10:42:27Z</time>
      </trkpt>
      <trkpt lat="45.08736" lon="5.0857">
        <ele>270</ele>
        <time>2013-09-14T10:42:31Z</time>
      </trkpt>
      <trkpt lat="45.08736" lon="5.0857">
        <ele>270</ele>
        <time>2013-09-14T10:42:34Z</time>
      </trkpt>
      <trkpt lat="45.08736" lon="5.0857">
        <ele>270</ele>
        <time>2013-09-14T10:42:38Z</time>
      </trkpt>
      <trkpt lat="45.08736" lon="5.0857">
        <ele>270</ele>
        <time>2013-09-14T10:42:41Z</time>
      </trkpt>
      <trkpt lat="45.08736" lon="5.0857">
        <ele>270</ele>
        <time>2013-09-14T10:42:45Z</time>
      </trkpt>
      <trkpt lat="45.08736" lon="5.0857">
        <ele>270</ele>
        <time>2013-09-14T10:42:48Z</time>
      </trkpt>
      <trkpt lat="45.08736" lon="5.0857">
        <ele>270</ele>
        <time>2013-09-14T10:42:52Z</time>
      </trkpt>
      <trkpt lat="45.08736" lon="5.0857">
        <ele>270</ele>
        <time>2013-09-14T10:42:55Z</time>
      </trkpt>
      <trkpt lat="45.08736" lon="5.0857">
        <ele>270</ele>
        <time>2013-09-14T10:42:59Z</time>
      </trkpt>
      <trkpt lat="45.08736" lon="5.0857">
        <ele>270</ele>
        <time>2013-09-14T10:43:02Z</time>
      </trkpt>
      <trkpt lat="45.08736" lon="5.0857">
        <ele>270</ele>
        <time>2013-09-14T10:43:06Z</time>
      </trkpt>
      <trkpt lat="45.08736" lon="5.0857">
        <ele>270</ele>
        <time>2013-09-14T10:43:09Z</time>
      </trkpt>
      <trkpt lat="45.08736" lon="5.0857">
        <ele>270</ele>
        <time>2013-09-14T10:43:13Z</time>
      </trkpt>
      <trkpt lat="45.08736" lon="5.0857">
        <ele>270</ele>
        <time>2013-09-14T10:43:16Z</time>
      </trkpt>
      <trkpt lat="45.08736" lon="5.08569">
        <ele>270</ele>
        <time>2013-09-14T10:43:20Z</time>
      </trkpt>
      <trkpt lat="45.08736" lon="5.08569">
        <ele>270</ele>
        <time>2013-09-14T10:43:24Z</time>
      </trkpt>
      <trkpt lat="45.08736" lon="5.08569">
        <ele>271</ele>
        <time>2013-09-14T10:43:27Z</time>
      </trkpt>
      <trkpt lat="45.08736" lon="5.08569">
        <ele>270</ele>
        <time>2013-09-14T10:43:31Z</time>
      </trkpt>
      <trkpt lat="45.08736" lon="5.08569">
        <ele>270</ele>
        <time>2013-09-14T10:43:34Z</time>
      </trkpt>
      <trkpt lat="45.08736" lon="5.08569">
        <ele>270</ele>
        <time>2013-09-14T10:43:38Z</time>
      </trkpt>
      <trkpt lat="45.08736" lon="5.08569">
        <ele>270</ele>
        <time>2013-09-14T10:43:41Z</time>
      </trkpt>
      <trkpt lat="45.08736" lon="5.08569">
        <ele>270</ele>
        <time>2013-09-14T10:43:45Z</time>
      </trkpt>
      <trkpt lat="45.08736" lon="5.08569">
        <ele>270</ele>
        <time>2013-09-14T10:43:48Z</time>
      </trkpt>
      <trkpt lat="45.08736" lon="5.08569">
        <ele>270</ele>
        <time>2013-09-14T10:43:52Z</time>
      </trkpt>
      <trkpt lat="45.08736" lon="5.08569">
        <ele>270</ele>
        <time>2013-09-14T10:43:55Z</time>
      </trkpt>
      <trkpt lat="45.08735" lon="5.08569">
        <ele>270</ele>
        <time>2013-09-14T10:43:59Z</time>
      </trkpt>
      <trkpt lat="45.08735" lon="5.08569">
        <ele>270</ele>
        <time>2013-09-14T10:44:02Z</time>
      </trkpt>
      <trkpt lat="45.08735" lon="5.08569">
        <ele>270</ele>
        <time>2013-09-14T10:44:06Z</time>
      </trkpt>
      <trkpt lat="45.08735" lon="5.08569">
        <ele>270</ele>
        <time>2013-09-14T10:44:09Z</time>
      </trkpt>
      <trkpt lat="45.08735" lon="5.08569">
        <ele>270</ele>
        <time>2013-09-14T10:44:13Z</time>
      </trkpt>
      <trkpt lat="45.08735" lon="5.08569">
        <ele>270</ele>
        <time>2013-09-14T10:44:16Z</time>
      </trkpt>
      <trkpt lat="45.08735" lon="5.08569">
        <ele>270</ele>
        <time>2013-09-14T10:44:20Z</time>
      </trkpt>
      <trkpt lat="45.08735" lon="5.08569">
        <ele>270</ele>
        <time>2013-09-14T10:44:23Z</time>
      </trkpt>
      <trkpt lat="45.08735" lon="5.08569">
        <ele>270</ele>
        <time>2013-09-14T10:44:27Z</time>
      </trkpt>
      <trkpt lat="45.08735" lon="5.08569">
        <ele>270</ele>
        <time>2013-09-14T10:44:30Z</time>
      </trkpt>
      <trkpt lat="45.08735" lon="5.08569">
        <ele>270</ele>
        <time>2013-09-14T10:44:34Z</time>
      </trkpt>
      <trkpt lat="45.08736" lon="5.08567">
        <ele>270</ele>
        <time>2013-09-14T10:44:37Z</time>
      </trkpt>
      <trkpt lat="45.08736" lon="5.08567">
        <ele>270</ele>
        <time>2013-09-14T10:44:41Z</time>
      </trkpt>
      <trkpt lat="45.08736" lon="5.08567">
        <ele>271</ele>
        <time>2013-09-14T10:44:44Z</time>
      </trkpt>
      <trkpt lat="45.08736" lon="5.08567">
        <ele>270</ele>
        <time>2013-09-14T10:44:48Z</time>
      </trkpt>
      <trkpt lat="45.08736" lon="5.08567">
        <ele>270</ele>
        <time>2013-09-14T10:44:51Z</time>
      </trkpt>
      <trkpt lat="45.08736" lon="5.08567">
        <ele>270</ele>
        <time>2013-09-14T10:44:55Z</time>
      </trkpt>
      <trkpt lat="45.08736" lon="5.08567">
        <ele>270</ele>
        <time>2013-09-14T10:44:58Z</time>
      </trkpt>
      <trkpt lat="45.08736" lon="5.08567">
        <ele>270</ele>
        <time>2013-09-14T10:45:02Z</time>
      </trkpt>
      <trkpt lat="45.08738" lon="5.08566">
        <ele>270</ele>
        <time>2013-09-14T10:45:06Z</time>
      </trkpt>
      <trkpt lat="45.08742" lon="5.08564">
        <ele>271</ele>
        <time>2013-09-14T10:45:09Z</time>
      </trkpt>
      <trkpt lat="45.08746" lon="5.08563">
        <ele>270</ele>
        <time>2013-09-14T10:45:13Z</time>
      </trkpt>
      <trkpt lat="45.0875" lon="5.08559">
        <ele>271</ele>
        <time>2013-09-14T10:45:16Z</time>
      </trkpt>
      <trkpt lat="45.0875" lon="5.08553">
        <ele>271</ele>
        <time>2013-09-14T10:45:20Z</time>
      </trkpt>
      <trkpt lat="45.0875" lon="5.08553">
        <ele>270</ele>
        <time>2013-09-14T10:45:23Z</time>
      </trkpt>
      <trkpt lat="45.0875" lon="5.08553">
        <ele>270</ele>
        <time>2013-09-14T10:45:27Z</time>
      </trkpt>
      <trkpt lat="45.08751" lon="5.08552">
        <ele>271</ele>
        <time>2013-09-14T10:45:30Z</time>
      </trkpt>
      <trkpt lat="45.08751" lon="5.08552">
        <ele>271</ele>
        <time>2013-09-14T10:45:34Z</time>
      </trkpt>
      <trkpt lat="45.08751" lon="5.08552">
        <ele>270</ele>
        <time>2013-09-14T10:45:37Z</time>
      </trkpt>
      <trkpt lat="45.08751" lon="5.08552">
        <ele>271</ele>
        <time>2013-09-14T10:45:41Z</time>
      </trkpt>
      <trkpt lat="45.08751" lon="5.08552">
        <ele>271</ele>
        <time>2013-09-14T10:45:44Z</time>
      </trkpt>
      <trkpt lat="45.08751" lon="5.08552">
        <ele>271</ele>
        <time>2013-09-14T10:45:48Z</time>
      </trkpt>
      <trkpt lat="45.08751" lon="5.08552">
        <ele>270</ele>
        <time>2013-09-14T10:45:51Z</time>
      </trkpt>
      <trkpt lat="45.08751" lon="5.08552">
        <ele>270</ele>
        <time>2013-09-14T10:45:55Z</time>
      </trkpt>
      <trkpt lat="45.08751" lon="5.08552">
        <ele>271</ele>
        <time>2013-09-14T10:45:58Z</time>
      </trkpt>
      <trkpt lat="45.08751" lon="5.08552">
        <ele>270</ele>
        <time>2013-09-14T10:46:02Z</time>
      </trkpt>
      <trkpt lat="45.08751" lon="5.08552">
        <ele>270</ele>
        <time>2013-09-14T10:46:05Z</time>
      </trkpt>
      <trkpt lat="45.08751" lon="5.08552">
        <ele>271</ele>
        <time>2013-09-14T10:46:09Z</time>
      </trkpt>
      <trkpt lat="45.0875" lon="5.08552">
        <ele>270</ele>
        <time>2013-09-14T10:46:12Z</time>
      </trkpt>
      <trkpt lat="45.0875" lon="5.08552">
        <ele>270</ele>
        <time>2013-09-14T10:46:16Z</time>
      </trkpt>
      <trkpt lat="45.0875" lon="5.08552">
        <ele>270</ele>
        <time>2013-09-14T10:46:19Z</time>
      </trkpt>
      <trkpt lat="45.0875" lon="5.0855">
        <ele>271</ele>
        <time>2013-09-14T10:46:23Z</time>
      </trkpt>
      <trkpt lat="45.08749" lon="5.08542">
        <ele>270</ele>
        <time>2013-09-14T10:46:26Z</time>
      </trkpt>
      <trkpt lat="45.08748" lon="5.08531">
        <ele>271</ele>
        <time>2013-09-14T10:46:30Z</time>
      </trkpt>
      <trkpt lat="45.08748" lon="5.08522">
        <ele>272</ele>
        <time>2013-09-14T10:46:33Z</time>
      </trkpt>
      <trkpt lat="45.08749" lon="5.08505">
        <ele>272</ele>
        <time>2013-09-14T10:46:37Z</time>
      </trkpt>
      <trkpt lat="45.08751" lon="5.08488">
        <ele>272</ele>
        <time>2013-09-14T10:46:41Z</time>
      </trkpt>
      <trkpt lat="45.08753" lon="5.08477">
        <ele>273</ele>
        <time>2013-09-14T10:46:44Z</time>
      </trkpt>
      <trkpt lat="45.08756" lon="5.08458">
        <ele>274</ele>
        <time>2013-09-14T10:46:48Z</time>
      </trkpt>
      <trkpt lat="45.08758" lon="5.08443">
        <ele>274</ele>
        <time>2013-09-14T10:46:51Z</time>
      </trkpt>
      <trkpt lat="45.08761" lon="5.08422">
        <ele>275</ele>
        <time>2013-09-14T10:46:55Z</time>
      </trkpt>
      <trkpt lat="45.08763" lon="5.08407">
        <ele>275</ele>
        <time>2013-09-14T10:46:58Z</time>
      </trkpt>
      <trkpt lat="45.08765" lon="5.08385">
        <ele>275</ele>
        <time>2013-09-14T10:47:02Z</time>
      </trkpt>
      <trkpt lat="45.08768" lon="5.08368">
        <ele>277</ele>
        <time>2013-09-14T10:47:05Z</time>
      </trkpt>
      <trkpt lat="45.0877" lon="5.08347">
        <ele>278</ele>
        <time>2013-09-14T10:47:09Z</time>
      </trkpt>
      <trkpt lat="45.08772" lon="5.0833">
        <ele>279</ele>
        <time>2013-09-14T10:47:12Z</time>
      </trkpt>
      <trkpt lat="45.08775" lon="5.08307">
        <ele>279</ele>
        <time>2013-09-14T10:47:16Z</time>
      </trkpt>
      <trkpt lat="45.08777" lon="5.08291">
        <ele>280</ele>
        <time>2013-09-14T10:47:19Z</time>
      </trkpt>
      <trkpt lat="45.0878" lon="5.08269">
        <ele>281</ele>
        <time>2013-09-14T10:47:23Z</time>
      </trkpt>
      <trkpt lat="45.08783" lon="5.08253">
        <ele>280</ele>
        <time>2013-09-14T10:47:26Z</time>
      </trkpt>
      <trkpt lat="45.08785" lon="5.08234">
        <ele>281</ele>
        <time>2013-09-14T10:47:30Z</time>
      </trkpt>
      <trkpt lat="45.08787" lon="5.08221">
        <ele>282</ele>
        <time>2013-09-14T10:47:33Z</time>
      </trkpt>
      <trkpt lat="45.08788" lon="5.08204">
        <ele>284</ele>
        <time>2013-09-14T10:47:37Z</time>
      </trkpt>
      <trkpt lat="45.08791" lon="5.08189">
        <ele>283</ele>
        <time>2013-09-14T10:47:40Z</time>
      </trkpt>
      <trkpt lat="45.08795" lon="5.08166">
        <ele>284</ele>
        <time>2013-09-14T10:47:44Z</time>
      </trkpt>
      <trkpt lat="45.08799" lon="5.0815">
        <ele>284</ele>
        <time>2013-09-14T10:47:47Z</time>
      </trkpt>
      <trkpt lat="45.08804" lon="5.08127">
        <ele>285</ele>
        <time>2013-09-14T10:47:51Z</time>
      </trkpt>
      <trkpt lat="45.08807" lon="5.0811">
        <ele>286</ele>
        <time>2013-09-14T10:47:54Z</time>
      </trkpt>
      <trkpt lat="45.08811" lon="5.08087">
        <ele>287</ele>
        <time>2013-09-14T10:47:58Z</time>
      </trkpt>
      <trkpt lat="45.08814" lon="5.08071">
        <ele>287</ele>
        <time>2013-09-14T10:48:01Z</time>
      </trkpt>
      <trkpt lat="45.08819" lon="5.08049">
        <ele>287</ele>
        <time>2013-09-14T10:48:05Z</time>
      </trkpt>
      <trkpt lat="45.08821" lon="5.08032">
        <ele>288</ele>
        <time>2013-09-14T10:48:08Z</time>
      </trkpt>
      <trkpt lat="45.08826" lon="5.08009">
        <ele>289</ele>
        <time>2013-09-14T10:48:12Z</time>
      </trkpt>
      <trkpt lat="45.0883" lon="5.07988">
        <ele>289</ele>
        <time>2013-09-14T10:48:16Z</time>
      </trkpt>
      <trkpt lat="45.08832" lon="5.07972">
        <ele>289</ele>
        <time>2013-09-14T10:48:19Z</time>
      </trkpt>
      <trkpt lat="45.08837" lon="5.0795">
        <ele>290</ele>
        <time>2013-09-14T10:48:23Z</time>
      </trkpt>
      <trkpt lat="45.0884" lon="5.07935">
        <ele>291</ele>
        <time>2013-09-14T10:48:26Z</time>
      </trkpt>
      <trkpt lat="45.08846" lon="5.07915">
        <ele>291</ele>
        <time>2013-09-14T10:48:30Z</time>
      </trkpt>
      <trkpt lat="45.08852" lon="5.07901">
        <ele>292</ele>
        <time>2013-09-14T10:48:33Z</time>
      </trkpt>
      <trkpt lat="45.08861" lon="5.07884">
        <ele>293</ele>
        <time>2013-09-14T10:48:37Z</time>
      </trkpt>
      <trkpt lat="45.08869" lon="5.07872">
        <ele>293</ele>
        <time>2013-09-14T10:48:40Z</time>
      </trkpt>
      <trkpt lat="45.08881" lon="5.07857">
        <ele>294</ele>
        <time>2013-09-14T10:48:44Z</time>
      </trkpt>
      <trkpt lat="45.0889" lon="5.07848">
        <ele>295</ele>
        <time>2013-09-14T10:48:47Z</time>
      </trkpt>
      <trkpt lat="45.08904" lon="5.07838">
        <ele>295</ele>
        <time>2013-09-14T10:48:51Z</time>
      </trkpt>
      <trkpt lat="45.08915" lon="5.07831">
        <ele>296</ele>
        <time>2013-09-14T10:48:54Z</time>
      </trkpt>
      <trkpt lat="45.0893" lon="5.07822">
        <ele>296</ele>
        <time>2013-09-14T10:48:58Z</time>
      </trkpt>
      <trkpt lat="45.08941" lon="5.07815">
        <ele>296</ele>
        <time>2013-09-14T10:49:01Z</time>
      </trkpt>
      <trkpt lat="45.08957" lon="5.07805">
        <ele>297</ele>
        <time>2013-09-14T10:49:05Z</time>
      </trkpt>
      <trkpt lat="45.08969" lon="5.07798">
        <ele>296</ele>
        <time>2013-09-14T10:49:08Z</time>
      </trkpt>
      <trkpt lat="45.08984" lon="5.07789">
        <ele>297</ele>
        <time>2013-09-14T10:49:12Z</time>
      </trkpt>
      <trkpt lat="45.08996" lon="5.07782">
        <ele>298</ele>
        <time>2013-09-14T10:49:15Z</time>
      </trkpt>
      <trkpt lat="45.09012" lon="5.0777">
        <ele>298</ele>
        <time>2013-09-14T10:49:19Z</time>
      </trkpt>
      <trkpt lat="45.09024" lon="5.0776">
        <ele>298</ele>
        <time>2013-09-14T10:49:22Z</time>
      </trkpt>
      <trkpt lat="45.09039" lon="5.07744">
        <ele>298</ele>
        <time>2013-09-14T10:49:26Z</time>
      </trkpt>
      <trkpt lat="45.09052" lon="5.07732">
        <ele>298</ele>
        <time>2013-09-14T10:49:29Z</time>
      </trkpt>
      <trkpt lat="45.09071" lon="5.07714">
        <ele>299</ele>
        <time>2013-09-14T10:49:33Z</time>
      </trkpt>
      <trkpt lat="45.09086" lon="5.07699">
        <ele>298</ele>
        <time>2013-09-14T10:49:36Z</time>
      </trkpt>
      <trkpt lat="45.09108" lon="5.07677">
        <ele>297</ele>
        <time>2013-09-14T10:49:40Z</time>
      </trkpt>
      <trkpt lat="45.09124" lon="5.07657">
        <ele>297</ele>
        <time>2013-09-14T10:49:43Z</time>
      </trkpt>
      <trkpt lat="45.09143" lon="5.07625">
        <ele>296</ele>
        <time>2013-09-14T10:49:47Z</time>
      </trkpt>
      <trkpt lat="45.09157" lon="5.07595">
        <ele>296</ele>
        <time>2013-09-14T10:49:50Z</time>
      </trkpt>
      <trkpt lat="45.09176" lon="5.07553">
        <ele>296</ele>
        <time>2013-09-14T10:49:54Z</time>
      </trkpt>
      <trkpt lat="45.09196" lon="5.0751">
        <ele>295</ele>
        <time>2013-09-14T10:49:58Z</time>
      </trkpt>
      <trkpt lat="45.09212" lon="5.07477">
        <ele>294</ele>
        <time>2013-09-14T10:50:01Z</time>
      </trkpt>
      <trkpt lat="45.09233" lon="5.07432">
        <ele>293</ele>
        <time>2013-09-14T10:50:05Z</time>
      </trkpt>
      <trkpt lat="45.09249" lon="5.07398">
        <ele>292</ele>
        <time>2013-09-14T10:50:08Z</time>
      </trkpt>
      <trkpt lat="45.0927" lon="5.07355">
        <ele>292</ele>
        <time>2013-09-14T10:50:12Z</time>
      </trkpt>
      <trkpt lat="45.09285" lon="5.07323">
        <ele>292</ele>
        <time>2013-09-14T10:50:15Z</time>
      </trkpt>
      <trkpt lat="45.09305" lon="5.07281">
        <ele>292</ele>
        <time>2013-09-14T10:50:19Z</time>
      </trkpt>
      <trkpt lat="45.09319" lon="5.07252">
        <ele>292</ele>
        <time>2013-09-14T10:50:22Z</time>
      </trkpt>
      <trkpt lat="45.09339" lon="5.07217">
        <ele>292</ele>
        <time>2013-09-14T10:50:26Z</time>
      </trkpt>
      <trkpt lat="45.09359" lon="5.072">
        <ele>292</ele>
        <time>2013-09-14T10:50:29Z</time>
      </trkpt>
      <trkpt lat="45.09382" lon="5.07176">
        <ele>293</ele>
        <time>2013-09-14T10:50:33Z</time>
      </trkpt>
      <trkpt lat="45.09387" lon="5.07145">
        <ele>292</ele>
        <time>2013-09-14T10:50:36Z</time>
      </trkpt>
      <trkpt lat="45.09386" lon="5.07096">
        <ele>291</ele>
        <time>2013-09-14T10:50:40Z</time>
      </trkpt>
      <trkpt lat="45.09383" lon="5.07058">
        <ele>290</ele>
        <time>2013-09-14T10:50:43Z</time>
      </trkpt>
      <trkpt lat="45.09379" lon="5.07001">
        <ele>289</ele>
        <time>2013-09-14T10:50:47Z</time>
      </trkpt>
      <trkpt lat="45.09377" lon="5.06958">
        <ele>289</ele>
        <time>2013-09-14T10:50:50Z</time>
      </trkpt>
      <trkpt lat="45.09374" lon="5.06903">
        <ele>287</ele>
        <time>2013-09-14T10:50:54Z</time>
      </trkpt>
      <trkpt lat="45.09372" lon="5.06862">
        <ele>288</ele>
        <time>2013-09-14T10:50:57Z</time>
      </trkpt>
      <trkpt lat="45.09369" lon="5.0681">
        <ele>286</ele>
        <time>2013-09-14T10:51:01Z</time>
      </trkpt>
      <trkpt lat="45.09368" lon="5.06772">
        <ele>285</ele>
        <time>2013-09-14T10:51:04Z</time>
      </trkpt>
      <trkpt lat="45.09368" lon="5.06722">
        <ele>286</ele>
        <time>2013-09-14T10:51:08Z</time>
      </trkpt>
      <trkpt lat="45.09371" lon="5.06685">
        <ele>285</ele>
        <time>2013-09-14T10:51:11Z</time>
      </trkpt>
      <trkpt lat="45.09377" lon="5.06636">
        <ele>285</ele>
        <time>2013-09-14T10:51:15Z</time>
      </trkpt>
      <trkpt lat="45.0938" lon="5.06598">
        <ele>284</ele>
        <time>2013-09-14T10:51:18Z</time>
      </trkpt>
      <trkpt lat="45.09381" lon="5.06548">
        <ele>283</ele>
        <time>2013-09-14T10:51:22Z</time>
      </trkpt>
      <trkpt lat="45.09379" lon="5.0651">
        <ele>283</ele>
        <time>2013-09-14T10:51:25Z</time>
      </trkpt>
      <trkpt lat="45.09376" lon="5.06462">
        <ele>282</ele>
        <time>2013-09-14T10:51:29Z</time>
      </trkpt>
      <trkpt lat="45.09374" lon="5.06412">
        <ele>283</ele>
        <time>2013-09-14T10:51:33Z</time>
      </trkpt>
      <trkpt lat="45.09373" lon="5.06374">
        <ele>283</ele>
        <time>2013-09-14T10:51:36Z</time>
      </trkpt>
      <trkpt lat="45.09372" lon="5.06326">
        <ele>282</ele>
        <time>2013-09-14T10:51:40Z</time>
      </trkpt>
      <trkpt lat="45.09371" lon="5.06292">
        <ele>281</ele>
        <time>2013-09-14T10:51:43Z</time>
      </trkpt>
      <trkpt lat="45.0937" lon="5.06243">
        <ele>281</ele>
        <time>2013-09-14T10:51:47Z</time>
      </trkpt>
      <trkpt lat="45.09369" lon="5.06206">
        <ele>281</ele>
        <time>2013-09-14T10:51:50Z</time>
      </trkpt>
      <trkpt lat="45.09367" lon="5.06156">
        <ele>280</ele>
        <time>2013-09-14T10:51:54Z</time>
      </trkpt>
      <trkpt lat="45.09366" lon="5.06119">
        <ele>280</ele>
        <time>2013-09-14T10:51:57Z</time>
      </trkpt>
      <trkpt lat="45.09367" lon="5.06069">
        <ele>280</ele>
        <time>2013-09-14T10:52:01Z</time>
      </trkpt>
      <trkpt lat="45.09368" lon="5.06033">
        <ele>279</ele>
        <time>2013-09-14T10:52:04Z</time>
      </trkpt>
      <trkpt lat="45.09372" lon="5.05984">
        <ele>279</ele>
        <time>2013-09-14T10:52:08Z</time>
      </trkpt>
      <trkpt lat="45.09375" lon="5.0595">
        <ele>280</ele>
        <time>2013-09-14T10:52:11Z</time>
      </trkpt>
      <trkpt lat="45.0938" lon="5.05902">
        <ele>279</ele>
        <time>2013-09-14T10:52:15Z</time>
      </trkpt>
      <trkpt lat="45.09386" lon="5.05868">
        <ele>280</ele>
        <time>2013-09-14T10:52:18Z</time>
      </trkpt>
      <trkpt lat="45.09397" lon="5.05826">
        <ele>279</ele>
        <time>2013-09-14T10:52:22Z</time>
      </trkpt>
      <trkpt lat="45.09406" lon="5.05795">
        <ele>279</ele>
        <time>2013-09-14T10:52:25Z</time>
      </trkpt>
      <trkpt lat="45.09417" lon="5.05754">
        <ele>280</ele>
        <time>2013-09-14T10:52:29Z</time>
      </trkpt>
      <trkpt lat="45.09421" lon="5.05723">
        <ele>280</ele>
        <time>2013-09-14T10:52:32Z</time>
      </trkpt>
      <trkpt lat="45.09427" lon="5.05684">
        <ele>280</ele>
        <time>2013-09-14T10:52:36Z</time>
      </trkpt>
      <trkpt lat="45.0943" lon="5.05656">
        <ele>280</ele>
        <time>2013-09-14T10:52:39Z</time>
      </trkpt>
      <trkpt lat="45.09434" lon="5.05616">
        <ele>280</ele>
        <time>2013-09-14T10:52:43Z</time>
      </trkpt>
      <trkpt lat="45.09434" lon="5.05587">
        <ele>281</ele>
        <time>2013-09-14T10:52:46Z</time>
      </trkpt>
      <trkpt lat="45.09432" lon="5.05547">
        <ele>281</ele>
        <time>2013-09-14T10:52:50Z</time>
      </trkpt>
      <trkpt lat="45.09429" lon="5.05516">
        <ele>281</ele>
        <time>2013-09-14T10:52:53Z</time>
      </trkpt>
      <trkpt lat="45.09425" lon="5.05477">
        <ele>280</ele>
        <time>2013-09-14T10:52:57Z</time>
      </trkpt>
      <trkpt lat="45.09423" lon="5.05449">
        <ele>281</ele>
        <time>2013-09-14T10:53:00Z</time>
      </trkpt>
      <trkpt lat="45.09417" lon="5.05409">
        <ele>281</ele>
        <time>2013-09-14T10:53:04Z</time>
      </trkpt>
      <trkpt lat="45.09409" lon="5.05378">
        <ele>280</ele>
        <time>2013-09-14T10:53:07Z</time>
      </trkpt>
      <trkpt lat="45.09393" lon="5.05337">
        <ele>280</ele>
        <time>2013-09-14T10:53:11Z</time>
      </trkpt>
      <trkpt lat="45.09375" lon="5.05301">
        <ele>279</ele>
        <time>2013-09-14T10:53:15Z</time>
      </trkpt>
      <trkpt lat="45.0936" lon="5.05276">
        <ele>279</ele>
        <time>2013-09-14T10:53:18Z</time>
      </trkpt>
      <trkpt lat="45.0934" lon="5.05243">
        <ele>279</ele>
        <time>2013-09-14T10:53:22Z</time>
      </trkpt>
      <trkpt lat="45.09325" lon="5.05217">
        <ele>280</ele>
        <time>2013-09-14T10:53:25Z</time>
      </trkpt>
      <trkpt lat="45.09306" lon="5.05184">
        <ele>281</ele>
        <time>2013-09-14T10:53:29Z</time>
      </trkpt>
      <trkpt lat="45.09293" lon="5.05161">
        <ele>280</ele>
        <time>2013-09-14T10:53:32Z</time>
      </trkpt>
      <trkpt lat="45.09276" lon="5.05128">
        <ele>279</ele>
        <time>2013-09-14T10:53:36Z</time>
      </trkpt>
      <trkpt lat="45.09265" lon="5.05103">
        <ele>279</ele>
        <time>2013-09-14T10:53:39Z</time>
      </trkpt>
      <trkpt lat="45.09251" lon="5.05066">
        <ele>278</ele>
        <time>2013-09-14T10:53:43Z</time>
      </trkpt>
      <trkpt lat="45.09242" lon="5.05034">
        <ele>277</ele>
        <time>2013-09-14T10:53:46Z</time>
      </trkpt>
      <trkpt lat="45.09243" lon="5.04987">
        <ele>276</ele>
        <time>2013-09-14T10:53:50Z</time>
      </trkpt>
      <trkpt lat="45.09258" lon="5.04958">
        <ele>276</ele>
        <time>2013-09-14T10:53:53Z</time>
      </trkpt>
      <trkpt lat="45.09279" lon="5.04926">
        <ele>275</ele>
        <time>2013-09-14T10:53:57Z</time>
      </trkpt>
      <trkpt lat="45.09291" lon="5.04905">
        <ele>275</ele>
        <time>2013-09-14T10:54:00Z</time>
      </trkpt>
      <trkpt lat="45.09301" lon="5.0487">
        <ele>274</ele>
        <time>2013-09-14T10:54:04Z</time>
      </trkpt>
      <trkpt lat="45.09302" lon="5.04837">
        <ele>273</ele>
        <time>2013-09-14T10:54:07Z</time>
      </trkpt>
      <trkpt lat="45.09304" lon="5.04809">
        <ele>273</ele>
        <time>2013-09-14T10:54:11Z</time>
      </trkpt>
      <trkpt lat="45.09305" lon="5.04794">
        <ele>272</ele>
        <time>2013-09-14T10:54:14Z</time>
      </trkpt>
      <trkpt lat="45.09306" lon="5.0478">
        <ele>272</ele>
        <time>2013-09-14T10:54:18Z</time>
      </trkpt>
      <trkpt lat="45.09307" lon="5.04772">
        <ele>273</ele>
        <time>2013-09-14T10:54:21Z</time>
      </trkpt>
      <trkpt lat="45.09306" lon="5.0477">
        <ele>272</ele>
        <time>2013-09-14T10:54:25Z</time>
      </trkpt>
      <trkpt lat="45.09306" lon="5.0477">
        <ele>273</ele>
        <time>2013-09-14T10:54:28Z</time>
      </trkpt>
      <trkpt lat="45.09306" lon="5.0477">
        <ele>272</ele>
        <time>2013-09-14T10:54:32Z</time>
      </trkpt>
      <trkpt lat="45.09306" lon="5.0477">
        <ele>272</ele>
        <time>2013-09-14T10:54:35Z</time>
      </trkpt>
      <trkpt lat="45.09306" lon="5.0477">
        <ele>272</ele>
        <time>2013-09-14T10:54:39Z</time>
      </trkpt>
      <trkpt lat="45.09306" lon="5.0477">
        <ele>272</ele>
        <time>2013-09-14T10:54:42Z</time>
      </trkpt>
      <trkpt lat="45.09306" lon="5.0477">
        <ele>272</ele>
        <time>2013-09-14T10:54:46Z</time>
      </trkpt>
      <trkpt lat="45.09306" lon="5.0477">
        <ele>273</ele>
        <time>2013-09-14T10:54:50Z</time>
      </trkpt>
      <trkpt lat="45.09306" lon="5.0477">
        <ele>273</ele>
        <time>2013-09-14T10:54:53Z</time>
      </trkpt>
      <trkpt lat="45.09307" lon="5.04768">
        <ele>273</ele>
        <time>2013-09-14T10:54:57Z</time>
      </trkpt>
      <trkpt lat="45.09307" lon="5.04765">
        <ele>273</ele>
        <time>2013-09-14T10:55:00Z</time>
      </trkpt>
      <trkpt lat="45.09307" lon="5.04765">
        <ele>272</ele>
        <time>2013-09-14T10:55:04Z</time>
      </trkpt>
      <trkpt lat="45.09307" lon="5.04765">
        <ele>273</ele>
        <time>2013-09-14T10:55:07Z</time>
      </trkpt>
      <trkpt lat="45.09307" lon="5.04765">
        <ele>272</ele>
        <time>2013-09-14T10:55:11Z</time>
      </trkpt>
      <trkpt lat="45.09307" lon="5.04765">
        <ele>272</ele>
        <time>2013-09-14T10:55:14Z</time>
      </trkpt>
      <trkpt lat="45.09307" lon="5.04765">
        <ele>272</ele>
        <time>2013-09-14T10:55:18Z</time>
      </trkpt>
      <trkpt lat="45.09307" lon="5.04765">
        <ele>273</ele>
        <time>2013-09-14T10:55:21Z</time>
      </trkpt>
      <trkpt lat="45.09307" lon="5.04765">
        <ele>273</ele>
        <time>2013-09-14T10:55:25Z</time>
      </trkpt>
      <trkpt lat="45.09308" lon="5.04763">
        <ele>272</ele>
        <time>2013-09-14T10:55:28Z</time>
      </trkpt>
      <trkpt lat="45.09308" lon="5.04763">
        <ele>272</ele>
        <time>2013-09-14T10:55:32Z</time>
      </trkpt>
      <trkpt lat="45.09308" lon="5.04763">
        <ele>272</ele>
        <time>2013-09-14T10:55:35Z</time>
      </trkpt>
      <trkpt lat="45.09308" lon="5.04763">
        <ele>272</ele>
        <time>2013-09-14T10:55:39Z</time>
      </trkpt>
      <trkpt lat="45.09308" lon="5.04763">
        <ele>272</ele>
        <time>2013-09-14T10:55:42Z</time>
      </trkpt>
      <trkpt lat="45.09308" lon="5.04763">
        <ele>272</ele>
        <time>2013-09-14T10:55:46Z</time>
      </trkpt>
      <trkpt lat="45.09308" lon="5.04763">
        <ele>272</ele>
        <time>2013-09-14T10:55:49Z</time>
      </trkpt>
      <trkpt lat="45.09308" lon="5.04763">
        <ele>272</ele>
        <time>2013-09-14T10:55:53Z</time>
      </trkpt>
      <trkpt lat="45.09308" lon="5.04763">
        <ele>272</ele>
        <time>2013-09-14T10:55:56Z</time>
      </trkpt>
      <trkpt lat="45.09308" lon="5.04763">
        <ele>272</ele>
        <time>2013-09-14T10:56:00Z</time>
      </trkpt>
      <trkpt lat="45.09308" lon="5.04763">
        <ele>272</ele>
        <time>2013-09-14T10:56:03Z</time>
      </trkpt>
      <trkpt lat="45.09308" lon="5.04763">
        <ele>273</ele>
        <time>2013-09-14T10:56:07Z</time>
      </trkpt>
      <trkpt lat="45.09309" lon="5.04763">
        <ele>273</ele>
        <time>2013-09-14T10:56:10Z</time>
      </trkpt>
      <trkpt lat="45.09309" lon="5.04763">
        <ele>273</ele>
        <time>2013-09-14T10:56:14Z</time>
      </trkpt>
      <trkpt lat="45.09309" lon="5.04763">
        <ele>273</ele>
        <time>2013-09-14T10:56:17Z</time>
      </trkpt>
      <trkpt lat="45.09309" lon="5.04763">
        <ele>272</ele>
        <time>2013-09-14T10:56:21Z</time>
      </trkpt>
      <trkpt lat="45.09309" lon="5.04763">
        <ele>273</ele>
        <time>2013-09-14T10:56:25Z</time>
      </trkpt>
      <trkpt lat="45.09309" lon="5.04763">
        <ele>273</ele>
        <time>2013-09-14T10:56:28Z</time>
      </trkpt>
      <trkpt lat="45.09309" lon="5.04763">
        <ele>272</ele>
        <time>2013-09-14T10:56:32Z</time>
      </trkpt>
      <trkpt lat="45.09309" lon="5.04763">
        <ele>273</ele>
        <time>2013-09-14T10:56:35Z</time>
      </trkpt>
      <trkpt lat="45.09309" lon="5.04763">
        <ele>273</ele>
        <time>2013-09-14T10:56:39Z</time>
      </trkpt>
      <trkpt lat="45.09309" lon="5.04763">
        <ele>273</ele>
        <time>2013-09-14T10:56:42Z</time>
      </trkpt>
      <trkpt lat="45.09309" lon="5.04763">
        <ele>274</ele>
        <time>2013-09-14T10:56:46Z</time>
      </trkpt>
      <trkpt lat="45.09309" lon="5.04763">
        <ele>274</ele>
        <time>2013-09-14T10:56:49Z</time>
      </trkpt>
      <trkpt lat="45.09309" lon="5.04763">
        <ele>273</ele>
        <time>2013-09-14T10:56:53Z</time>
      </trkpt>
      <trkpt lat="45.09309" lon="5.04763">
        <ele>274</ele>
        <time>2013-09-14T10:56:56Z</time>
      </trkpt>
      <trkpt lat="45.09309" lon="5.04763">
        <ele>273</ele>
        <time>2013-09-14T10:57:00Z</time>
      </trkpt>
      <trkpt lat="45.09309" lon="5.04763">
        <ele>274</ele>
        <time>2013-09-14T10:57:03Z</time>
      </trkpt>
      <trkpt lat="45.09309" lon="5.04763">
        <ele>273</ele>
        <time>2013-09-14T10:57:07Z</time>
      </trkpt>
      <trkpt lat="45.09309" lon="5.04763">
        <ele>273</ele>
        <time>2013-09-14T10:57:10Z</time>
      </trkpt>
      <trkpt lat="45.09309" lon="5.04763">
        <ele>273</ele>
        <time>2013-09-14T10:57:14Z</time>
      </trkpt>
      <trkpt lat="45.09309" lon="5.04763">
        <ele>273</ele>
        <time>2013-09-14T10:57:17Z</time>
      </trkpt>
      <trkpt lat="45.09309" lon="5.04763">
        <ele>273</ele>
        <time>2013-09-14T10:57:21Z</time>
      </trkpt>
      <trkpt lat="45.09309" lon="5.04763">
        <ele>273</ele>
        <time>2013-09-14T10:57:24Z</time>
      </trkpt>
      <trkpt lat="45.09309" lon="5.04763">
        <ele>274</ele>
        <time>2013-09-14T10:57:28Z</time>
      </trkpt>
      <trkpt lat="45.09309" lon="5.04763">
        <ele>273</ele>
        <time>2013-09-14T10:57:31Z</time>
      </trkpt>
      <trkpt lat="45.09309" lon="5.04763">
        <ele>273</ele>
        <time>2013-09-14T10:57:35Z</time>
      </trkpt>
      <trkpt lat="45.09309" lon="5.04763">
        <ele>273</ele>
        <time>2013-09-14T10:57:38Z</time>
      </trkpt>
      <trkpt lat="45.09309" lon="5.04763">
        <ele>273</ele>
        <time>2013-09-14T10:57:42Z</time>
      </trkpt>
      <trkpt lat="45.09309" lon="5.04763">
        <ele>273</ele>
        <time>2013-09-14T10:57:45Z</time>
      </trkpt>
      <trkpt lat="45.09309" lon="5.04763">
        <ele>273</ele>
        <time>2013-09-14T10:57:49Z</time>
      </trkpt>
      <trkpt lat="45.09309" lon="5.04763">
        <ele>273</ele>
        <time>2013-09-14T10:57:52Z</time>
      </trkpt>
      <trkpt lat="45.09309" lon="5.04763">
        <ele>273</ele>
        <time>2013-09-14T10:57:56Z</time>
      </trkpt>
      <trkpt lat="45.09309" lon="5.04763">
        <ele>273</ele>
        <time>2013-09-14T10:57:59Z</time>
      </trkpt>
      <trkpt lat="45.09309" lon="5.04763">
        <ele>274</ele>
        <time>2013-09-14T10:58:03Z</time>
      </trkpt>
      <trkpt lat="45.09309" lon="5.04763">
        <ele>274</ele>
        <time>2013-09-14T10:58:07Z</time>
      </trkpt>
      <trkpt lat="45.09309" lon="5.04763">
        <ele>274</ele>
        <time>2013-09-14T10:58:10Z</time>
      </trkpt>
      <trkpt lat="45.09309" lon="5.04763">
        <ele>274</ele>
        <time>2013-09-14T10:58:14Z</time>
      </trkpt>
      <trkpt lat="45.0931" lon="5.04758">
        <ele>274</ele>
        <time>2013-09-14T10:58:17Z</time>
      </trkpt>
      <trkpt lat="45.09312" lon="5.04755">
        <ele>274</ele>
        <time>2013-09-14T10:58:21Z</time>
      </trkpt>
      <trkpt lat="45.09314" lon="5.04751">
        <ele>274</ele>
        <time>2013-09-14T10:58:24Z</time>
      </trkpt>
      <trkpt lat="45.0932" lon="5.04745">
        <ele>274</ele>
        <time>2013-09-14T10:58:28Z</time>
      </trkpt>
      <trkpt lat="45.09325" lon="5.04739">
        <ele>274</ele>
        <time>2013-09-14T10:58:31Z</time>
      </trkpt>
      <trkpt lat="45.09333" lon="5.04731">
        <ele>274</ele>
        <time>2013-09-14T10:58:35Z</time>
      </trkpt>
      <trkpt lat="45.09339" lon="5.04725">
        <ele>274</ele>
        <time>2013-09-14T10:58:38Z</time>
      </trkpt>
      <trkpt lat="45.09349" lon="5.04716">
        <ele>275</ele>
        <time>2013-09-14T10:58:42Z</time>
      </trkpt>
      <trkpt lat="45.09359" lon="5.0471">
        <ele>275</ele>
        <time>2013-09-14T10:58:45Z</time>
      </trkpt>
      <trkpt lat="45.09373" lon="5.04698">
        <ele>276</ele>
        <time>2013-09-14T10:58:49Z</time>
      </trkpt>
      <trkpt lat="45.09385" lon="5.04692">
        <ele>277</ele>
        <time>2013-09-14T10:58:52Z</time>
      </trkpt>
      <trkpt lat="45.09394" lon="5.04685">
        <ele>276</ele>
        <time>2013-09-14T10:58:56Z</time>
      </trkpt>
      <trkpt lat="45.09399" lon="5.0468">
        <ele>276</ele>
        <time>2013-09-14T10:58:59Z</time>
      </trkpt>
      <trkpt lat="45.09408" lon="5.04678">
        <ele>278</ele>
        <time>2013-09-14T10:59:03Z</time>
      </trkpt>
      <trkpt lat="45.09417" lon="5.04674">
        <ele>278</ele>
        <time>2013-09-14T10:59:06Z</time>
      </trkpt>
      <trkpt lat="45.09432" lon="5.04669">
        <ele>278</ele>
        <time>2013-09-14T10:59:10Z</time>
      </trkpt>
      <trkpt lat="45.09445" lon="5.04663">
        <ele>278</ele>
        <time>2013-09-14T10:59:13Z</time>
      </trkpt>
      <trkpt lat="45.09464" lon="5.04655">
        <ele>279</ele>
        <time>2013-09-14T10:59:17Z</time>
      </trkpt>
      <trkpt lat="45.09479" lon="5.04647">
        <ele>279</ele>
        <time>2013-09-14T10:59:20Z</time>
      </trkpt>
      <trkpt lat="45.09499" lon="5.04638">
        <ele>280</ele>
        <time>2013-09-14T10:59:24Z</time>
      </trkpt>
      <trkpt lat="45.09514" lon="5.04631">
        <ele>280</ele>
        <time>2013-09-14T10:59:27Z</time>
      </trkpt>
      <trkpt lat="45.09533" lon="5.0462">
        <ele>281</ele>
        <time>2013-09-14T10:59:31Z</time>
      </trkpt>
      <trkpt lat="45.09546" lon="5.0461">
        <ele>281</ele>
        <time>2013-09-14T10:59:34Z</time>
      </trkpt>
      <trkpt lat="45.09564" lon="5.04596">
        <ele>281</ele>
        <time>2013-09-14T10:59:38Z</time>
      </trkpt>
      <trkpt lat="45.09579" lon="5.04577">
        <ele>281</ele>
        <time>2013-09-14T10:59:42Z</time>
      </trkpt>
      <trkpt lat="45.09588" lon="5.04561">
        <ele>282</ele>
        <time>2013-09-14T10:59:45Z</time>
      </trkpt>
      <trkpt lat="45.09602" lon="5.04541">
        <ele>283</ele>
        <time>2013-09-14T10:59:49Z</time>
      </trkpt>
      <trkpt lat="45.09615" lon="5.04534">
        <ele>283</ele>
        <time>2013-09-14T10:59:52Z</time>
      </trkpt>
      <trkpt lat="45.09637" lon="5.04529">
        <ele>284</ele>
        <time>2013-09-14T10:59:56Z</time>
      </trkpt>
      <trkpt lat="45.09653" lon="5.04524">
        <ele>284</ele>
        <time>2013-09-14T10:59:59Z</time>
      </trkpt>
      <trkpt lat="45.09676" lon="5.04517">
        <ele>284</ele>
        <time>2013-09-14T11:00:03Z</time>
      </trkpt>
      <trkpt lat="45.09696" lon="5.04511">
        <ele>284</ele>
        <time>2013-09-14T11:00:06Z</time>
      </trkpt>
      <trkpt lat="45.09721" lon="5.04504">
        <ele>284</ele>
        <time>2013-09-14T11:00:10Z</time>
      </trkpt>
      <trkpt lat="45.09741" lon="5.04498">
        <ele>285</ele>
        <time>2013-09-14T11:00:13Z</time>
      </trkpt>
      <trkpt lat="45.09767" lon="5.0449">
        <ele>285</ele>
        <time>2013-09-14T11:00:17Z</time>
      </trkpt>
      <trkpt lat="45.09786" lon="5.04484">
        <ele>284</ele>
        <time>2013-09-14T11:00:20Z</time>
      </trkpt>
      <trkpt lat="45.09813" lon="5.04476">
        <ele>285</ele>
        <time>2013-09-14T11:00:24Z</time>
      </trkpt>
      <trkpt lat="45.09833" lon="5.0447">
        <ele>285</ele>
        <time>2013-09-14T11:00:27Z</time>
      </trkpt>
      <trkpt lat="45.09859" lon="5.04461">
        <ele>286</ele>
        <time>2013-09-14T11:00:31Z</time>
      </trkpt>
      <trkpt lat="45.09878" lon="5.04455">
        <ele>285</ele>
        <time>2013-09-14T11:00:34Z</time>
      </trkpt>
      <trkpt lat="45.09905" lon="5.04446">
        <ele>286</ele>
        <time>2013-09-14T11:00:38Z</time>
      </trkpt>
      <trkpt lat="45.09924" lon="5.04437">
        <ele>286</ele>
        <time>2013-09-14T11:00:41Z</time>
      </trkpt>
      <trkpt lat="45.09948" lon="5.04423">
        <ele>287</ele>
        <time>2013-09-14T11:00:45Z</time>
      </trkpt>
      <trkpt lat="45.09965" lon="5.0441">
        <ele>288</ele>
        <time>2013-09-14T11:00:48Z</time>
      </trkpt>
      <trkpt lat="45.09985" lon="5.04391">
        <ele>288</ele>
        <time>2013-09-14T11:00:52Z</time>
      </trkpt>
      <trkpt lat="45.10001" lon="5.04376">
        <ele>288</ele>
        <time>2013-09-14T11:00:55Z</time>
      </trkpt>
      <trkpt lat="45.10022" lon="5.04356">
        <ele>289</ele>
        <time>2013-09-14T11:00:59Z</time>
      </trkpt>
      <trkpt lat="45.1004" lon="5.0434">
        <ele>289</ele>
        <time>2013-09-14T11:01:02Z</time>
      </trkpt>
      <trkpt lat="45.10063" lon="5.04322">
        <ele>290</ele>
        <time>2013-09-14T11:01:06Z</time>
      </trkpt>
      <trkpt lat="45.10082" lon="5.04311">
        <ele>290</ele>
        <time>2013-09-14T11:01:09Z</time>
      </trkpt>
      <trkpt lat="45.10107" lon="5.04299">
        <ele>289</ele>
        <time>2013-09-14T11:01:13Z</time>
      </trkpt>
      <trkpt lat="45.10132" lon="5.04289">
        <ele>290</ele>
        <time>2013-09-14T11:01:17Z</time>
      </trkpt>
      <trkpt lat="45.10151" lon="5.04284">
        <ele>290</ele>
        <time>2013-09-14T11:01:20Z</time>
      </trkpt>
      <trkpt lat="45.10176" lon="5.0428">
        <ele>290</ele>
        <time>2013-09-14T11:01:24Z</time>
      </trkpt>
      <trkpt lat="45.10193" lon="5.0428">
        <ele>290</ele>
        <time>2013-09-14T11:01:27Z</time>
      </trkpt>
      <trkpt lat="45.10214" lon="5.04283">
        <ele>291</ele>
        <time>2013-09-14T11:01:31Z</time>
      </trkpt>
      <trkpt lat="45.10229" lon="5.04287">
        <ele>292</ele>
        <time>2013-09-14T11:01:34Z</time>
      </trkpt>
      <trkpt lat="45.10249" lon="5.04295">
        <ele>292</ele>
        <time>2013-09-14T11:01:38Z</time>
      </trkpt>
      <trkpt lat="45.10264" lon="5.04301">
        <ele>292</ele>
        <time>2013-09-14T11:01:41Z</time>
      </trkpt>
      <trkpt lat="45.10283" lon="5.0431">
        <ele>293</ele>
        <time>2013-09-14T11:01:45Z</time>
      </trkpt>
      <trkpt lat="45.10296" lon="5.04318">
        <ele>294</ele>
        <time>2013-09-14T11:01:48Z</time>
      </trkpt>
      <trkpt lat="45.10314" lon="5.04329">
        <ele>294</ele>
        <time>2013-09-14T11:01:52Z</time>
      </trkpt>
      <trkpt lat="45.10329" lon="5.04334">
        <ele>295</ele>
        <time>2013-09-14T11:01:55Z</time>
      </trkpt>
      <trkpt lat="45.10349" lon="5.04342">
        <ele>295</ele>
        <time>2013-09-14T11:01:59Z</time>
      </trkpt>
      <trkpt lat="45.10363" lon="5.04348">
        <ele>295</ele>
        <time>2013-09-14T11:02:02Z</time>
      </trkpt>
      <trkpt lat="45.10381" lon="5.04355">
        <ele>296</ele>
        <time>2013-09-14T11:02:06Z</time>
      </trkpt>
      <trkpt lat="45.10396" lon="5.04358">
        <ele>296</ele>
        <time>2013-09-14T11:02:09Z</time>
      </trkpt>
      <trkpt lat="45.10414" lon="5.04365">
        <ele>297</ele>
        <time>2013-09-14T11:02:13Z</time>
      </trkpt>
      <trkpt lat="45.10428" lon="5.04371">
        <ele>297</ele>
        <time>2013-09-14T11:02:16Z</time>
      </trkpt>
      <trkpt lat="45.10445" lon="5.04379">
        <ele>297</ele>
        <time>2013-09-14T11:02:20Z</time>
      </trkpt>
      <trkpt lat="45.10459" lon="5.04385">
        <ele>298</ele>
        <time>2013-09-14T11:02:23Z</time>
      </trkpt>
      <trkpt lat="45.10478" lon="5.04392">
        <ele>298</ele>
        <time>2013-09-14T11:02:27Z</time>
      </trkpt>
      <trkpt lat="45.10493" lon="5.04398">
        <ele>298</ele>
        <time>2013-09-14T11:02:30Z</time>
      </trkpt>
      <trkpt lat="45.10514" lon="5.04406">
        <ele>299</ele>
        <time>2013-09-14T11:02:34Z</time>
      </trkpt>
      <trkpt lat="45.10531" lon="5.04411">
        <ele>300</ele>
        <time>2013-09-14T11:02:37Z</time>
      </trkpt>
      <trkpt lat="45.10553" lon="5.04419">
        <ele>301</ele>
        <time>2013-09-14T11:02:41Z</time>
      </trkpt>
      <trkpt lat="45.1057" lon="5.04424">
        <ele>301</ele>
        <time>2013-09-14T11:02:44Z</time>
      </trkpt>
      <trkpt lat="45.10591" lon="5.04432">
        <ele>301</ele>
        <time>2013-09-14T11:02:48Z</time>
      </trkpt>
      <trkpt lat="45.10606" lon="5.04437">
        <ele>302</ele>
        <time>2013-09-14T11:02:51Z</time>
      </trkpt>
      <trkpt lat="45.10627" lon="5.04441">
        <ele>302</ele>
        <time>2013-09-14T11:02:55Z</time>
      </trkpt>
      <trkpt lat="45.10648" lon="5.04449">
        <ele>303</ele>
        <time>2013-09-14T11:02:59Z</time>
      </trkpt>
      <trkpt lat="45.10663" lon="5.04456">
        <ele>304</ele>
        <time>2013-09-14T11:03:02Z</time>
      </trkpt>
      <trkpt lat="45.10683" lon="5.04466">
        <ele>305</ele>
        <time>2013-09-14T11:03:06Z</time>
      </trkpt>
      <trkpt lat="45.10696" lon="5.04473">
        <ele>305</ele>
        <time>2013-09-14T11:03:09Z</time>
      </trkpt>
      <trkpt lat="45.10713" lon="5.04484">
        <ele>306</ele>
        <time>2013-09-14T11:03:13Z</time>
      </trkpt>
      <trkpt lat="45.10724" lon="5.04492">
        <ele>307</ele>
        <time>2013-09-14T11:03:16Z</time>
      </trkpt>
      <trkpt lat="45.10738" lon="5.04504">
        <ele>308</ele>
        <time>2013-09-14T11:03:20Z</time>
      </trkpt>
      <trkpt lat="45.10748" lon="5.04512">
        <ele>308</ele>
        <time>2013-09-14T11:03:23Z</time>
      </trkpt>
      <trkpt lat="45.10761" lon="5.04523">
        <ele>309</ele>
        <time>2013-09-14T11:03:27Z</time>
      </trkpt>
      <trkpt lat="45.10771" lon="5.04531">
        <ele>310</ele>
        <time>2013-09-14T11:03:30Z</time>
      </trkpt>
      <trkpt lat="45.10785" lon="5.04542">
        <ele>310</ele>
        <time>2013-09-14T11:03:34Z</time>
      </trkpt>
      <trkpt lat="45.10795" lon="5.04549">
        <ele>312</ele>
        <time>2013-09-14T11:03:37Z</time>
      </trkpt>
      <trkpt lat="45.10808" lon="5.04561">
        <ele>312</ele>
        <time>2013-09-14T11:03:41Z</time>
      </trkpt>
      <trkpt lat="45.10817" lon="5.04568">
        <ele>313</ele>
        <time>2013-09-14T11:03:44Z</time>
      </trkpt>
      <trkpt lat="45.10831" lon="5.04579">
        <ele>313</ele>
        <time>2013-09-14T11:03:48Z</time>
      </trkpt>
      <trkpt lat="45.1084" lon="5.04587">
        <ele>314</ele>
        <time>2013-09-14T11:03:51Z</time>
      </trkpt>
      <trkpt lat="45.10853" lon="5.04597">
        <ele>315</ele>
        <time>2013-09-14T11:03:55Z</time>
      </trkpt>
      <trkpt lat="45.10861" lon="5.04604">
        <ele>315</ele>
        <time>2013-09-14T11:03:58Z</time>
      </trkpt>
      <trkpt lat="45.10873" lon="5.04613">
        <ele>315</ele>
        <time>2013-09-14T11:04:02Z</time>
      </trkpt>
      <trkpt lat="45.10881" lon="5.0462">
        <ele>317</ele>
        <time>2013-09-14T11:04:05Z</time>
      </trkpt>
      <trkpt lat="45.10893" lon="5.04629">
        <ele>318</ele>
        <time>2013-09-14T11:04:09Z</time>
      </trkpt>
      <trkpt lat="45.10902" lon="5.04637">
        <ele>318</ele>
        <time>2013-09-14T11:04:12Z</time>
      </trkpt>
      <trkpt lat="45.10914" lon="5.04645">
        <ele>319</ele>
        <time>2013-09-14T11:04:16Z</time>
      </trkpt>
      <trkpt lat="45.10923" lon="5.0465">
        <ele>320</ele>
        <time>2013-09-14T11:04:19Z</time>
      </trkpt>
      <trkpt lat="45.10936" lon="5.04656">
        <ele>320</ele>
        <time>2013-09-14T11:04:23Z</time>
      </trkpt>
      <trkpt lat="45.10947" lon="5.04661">
        <ele>320</ele>
        <time>2013-09-14T11:04:26Z</time>
      </trkpt>
      <trkpt lat="45.10962" lon="5.04664">
        <ele>321</ele>
        <time>2013-09-14T11:04:30Z</time>
      </trkpt>
      <trkpt lat="45.10978" lon="5.04667">
        <ele>322</ele>
        <time>2013-09-14T11:04:34Z</time>
      </trkpt>
      <trkpt lat="45.1099" lon="5.04668">
        <ele>322</ele>
        <time>2013-09-14T11:04:37Z</time>
      </trkpt>
      <trkpt lat="45.11006" lon="5.04668">
        <ele>323</ele>
        <time>2013-09-14T11:04:41Z</time>
      </trkpt>
      <trkpt lat="45.11017" lon="5.04669">
        <ele>323</ele>
        <time>2013-09-14T11:04:44Z</time>
      </trkpt>
      <trkpt lat="45.11032" lon="5.04667">
        <ele>325</ele>
        <time>2013-09-14T11:04:48Z</time>
      </trkpt>
      <trkpt lat="45.11043" lon="5.04665">
        <ele>325</ele>
        <time>2013-09-14T11:04:51Z</time>
      </trkpt>
      <trkpt lat="45.11058" lon="5.04663">
        <ele>326</ele>
        <time>2013-09-14T11:04:55Z</time>
      </trkpt>
      <trkpt lat="45.11069" lon="5.04662">
        <ele>327</ele>
        <time>2013-09-14T11:04:58Z</time>
      </trkpt>
      <trkpt lat="45.11083" lon="5.04661">
        <ele>327</ele>
        <time>2013-09-14T11:05:02Z</time>
      </trkpt>
      <trkpt lat="45.11095" lon="5.04661">
        <ele>327</ele>
        <time>2013-09-14T11:05:05Z</time>
      </trkpt>
      <trkpt lat="45.11111" lon="5.04663">
        <ele>328</ele>
        <time>2013-09-14T11:05:09Z</time>
      </trkpt>
      <trkpt lat="45.11123" lon="5.04665">
        <ele>329</ele>
        <time>2013-09-14T11:05:12Z</time>
      </trkpt>
      <trkpt lat="45.11138" lon="5.04667">
        <ele>330</ele>
        <time>2013-09-14T11:05:16Z</time>
      </trkpt>
      <trkpt lat="45.11149" lon="5.04669">
        <ele>330</ele>
        <time>2013-09-14T11:05:19Z</time>
      </trkpt>
      <trkpt lat="45.11165" lon="5.0467">
        <ele>330</ele>
        <time>2013-09-14T11:05:23Z</time>
      </trkpt>
      <trkpt lat="45.11177" lon="5.0467">
        <ele>331</ele>
        <time>2013-09-14T11:05:26Z</time>
      </trkpt>
      <trkpt lat="45.11192" lon="5.04668">
        <ele>332</ele>
        <time>2013-09-14T11:05:30Z</time>
      </trkpt>
      <trkpt lat="45.11203" lon="5.04665">
        <ele>332</ele>
        <time>2013-09-14T11:05:33Z</time>
      </trkpt>
      <trkpt lat="45.11217" lon="5.04661">
        <ele>333</ele>
        <time>2013-09-14T11:05:37Z</time>
      </trkpt>
      <trkpt lat="45.11227" lon="5.04658">
        <ele>333</ele>
        <time>2013-09-14T11:05:40Z</time>
      </trkpt>
      <trkpt lat="45.11241" lon="5.04653">
        <ele>335</ele>
        <time>2013-09-14T11:05:44Z</time>
      </trkpt>
      <trkpt lat="45.1125" lon="5.0465">
        <ele>334</ele>
        <time>2013-09-14T11:05:47Z</time>
      </trkpt>
      <trkpt lat="45.11263" lon="5.04645">
        <ele>335</ele>
        <time>2013-09-14T11:05:51Z</time>
      </trkpt>
      <trkpt lat="45.11273" lon="5.04641">
        <ele>336</ele>
        <time>2013-09-14T11:05:54Z</time>
      </trkpt>
      <trkpt lat="45.11286" lon="5.04636">
        <ele>336</ele>
        <time>2013-09-14T11:05:58Z</time>
      </trkpt>
      <trkpt lat="45.11296" lon="5.04633">
        <ele>337</ele>
        <time>2013-09-14T11:06:01Z</time>
      </trkpt>
      <trkpt lat="45.11308" lon="5.0463">
        <ele>337</ele>
        <time>2013-09-14T11:06:05Z</time>
      </trkpt>
      <trkpt lat="45.11318" lon="5.04628">
        <ele>338</ele>
        <time>2013-09-14T11:06:08Z</time>
      </trkpt>
      <trkpt lat="45.11331" lon="5.04623">
        <ele>338</ele>
        <time>2013-09-14T11:06:12Z</time>
      </trkpt>
      <trkpt lat="45.11344" lon="5.04619">
        <ele>338</ele>
        <time>2013-09-14T11:06:16Z</time>
      </trkpt>
      <trkpt lat="45.11354" lon="5.04615">
        <ele>340</ele>
        <time>2013-09-14T11:06:19Z</time>
      </trkpt>
      <trkpt lat="45.11369" lon="5.0461">
        <ele>340</ele>
        <time>2013-09-14T11:06:23Z</time>
      </trkpt>
      <trkpt lat="45.11379" lon="5.04606">
        <ele>340</ele>
        <time>2013-09-14T11:06:26Z</time>
      </trkpt>
      <trkpt lat="45.11393" lon="5.04601">
        <ele>340</ele>
        <time>2013-09-14T11:06:30Z</time>
      </trkpt>
      <trkpt lat="45.11405" lon="5.04598">
        <ele>341</ele>
        <time>2013-09-14T11:06:33Z</time>
      </trkpt>
      <trkpt lat="45.11419" lon="5.04595">
        <ele>342</ele>
        <time>2013-09-14T11:06:37Z</time>
      </trkpt>
      <trkpt lat="45.1143" lon="5.04594">
        <ele>342</ele>
        <time>2013-09-14T11:06:40Z</time>
      </trkpt>
      <trkpt lat="45.11444" lon="5.04593">
        <ele>343</ele>
        <time>2013-09-14T11:06:44Z</time>
      </trkpt>
      <trkpt lat="45.11455" lon="5.04594">
        <ele>344</ele>
        <time>2013-09-14T11:06:47Z</time>
      </trkpt>
      <trkpt lat="45.11468" lon="5.04595">
        <ele>345</ele>
        <time>2013-09-14T11:06:51Z</time>
      </trkpt>
      <trkpt lat="45.11478" lon="5.04595">
        <ele>345</ele>
        <time>2013-09-14T11:06:54Z</time>
      </trkpt>
      <trkpt lat="45.11491" lon="5.04597">
        <ele>345</ele>
        <time>2013-09-14T11:06:58Z</time>
      </trkpt>
      <trkpt lat="45.11502" lon="5.04599">
        <ele>346</ele>
        <time>2013-09-14T11:07:01Z</time>
      </trkpt>
      <trkpt lat="45.11515" lon="5.046">
        <ele>347</ele>
        <time>2013-09-14T11:07:05Z</time>
      </trkpt>
      <trkpt lat="45.11526" lon="5.04603">
        <ele>348</ele>
        <time>2013-09-14T11:07:08Z</time>
      </trkpt>
      <trkpt lat="45.11541" lon="5.04607">
        <ele>348</ele>
        <time>2013-09-14T11:07:12Z</time>
      </trkpt>
      <trkpt lat="45.11553" lon="5.04611">
        <ele>349</ele>
        <time>2013-09-14T11:07:15Z</time>
      </trkpt>
      <trkpt lat="45.11568" lon="5.04616">
        <ele>350</ele>
        <time>2013-09-14T11:07:19Z</time>
      </trkpt>
      <trkpt lat="45.11579" lon="5.0462">
        <ele>349</ele>
        <time>2013-09-14T11:07:22Z</time>
      </trkpt>
      <trkpt lat="45.11594" lon="5.04627">
        <ele>350</ele>
        <time>2013-09-14T11:07:26Z</time>
      </trkpt>
      <trkpt lat="45.11605" lon="5.04634">
        <ele>349</ele>
        <time>2013-09-14T11:07:29Z</time>
      </trkpt>
      <trkpt lat="45.1162" lon="5.04644">
        <ele>350</ele>
        <time>2013-09-14T11:07:33Z</time>
      </trkpt>
      <trkpt lat="45.11632" lon="5.04652">
        <ele>350</ele>
        <time>2013-09-14T11:07:36Z</time>
      </trkpt>
      <trkpt lat="45.11646" lon="5.04663">
        <ele>351</ele>
        <time>2013-09-14T11:07:40Z</time>
      </trkpt>
      <trkpt lat="45.11656" lon="5.04672">
        <ele>351</ele>
        <time>2013-09-14T11:07:43Z</time>
      </trkpt>
      <trkpt lat="45.1167" lon="5.04683">
        <ele>351</ele>
        <time>2013-09-14T11:07:47Z</time>
      </trkpt>
      <trkpt lat="45.11684" lon="5.04694">
        <ele>352</ele>
        <time>2013-09-14T11:07:51Z</time>
      </trkpt>
      <trkpt lat="45.11694" lon="5.04702">
        <ele>352</ele>
        <time>2013-09-14T11:07:54Z</time>
      </trkpt>
      <trkpt lat="45.11708" lon="5.04714">
        <ele>352</ele>
        <time>2013-09-14T11:07:58Z</time>
      </trkpt>
      <trkpt lat="45.11718" lon="5.04723">
        <ele>353</ele>
        <time>2013-09-14T11:08:01Z</time>
      </trkpt>
      <trkpt lat="45.11732" lon="5.04735">
        <ele>354</ele>
        <time>2013-09-14T11:08:05Z</time>
      </trkpt>
      <trkpt lat="45.11741" lon="5.04743">
        <ele>355</ele>
        <time>2013-09-14T11:08:08Z</time>
      </trkpt>
      <trkpt lat="45.11755" lon="5.04755">
        <ele>355</ele>
        <time>2013-09-14T11:08:12Z</time>
      </trkpt>
      <trkpt lat="45.11765" lon="5.04762">
        <ele>356</ele>
        <time>2013-09-14T11:08:15Z</time>
      </trkpt>
      <trkpt lat="45.11778" lon="5.04771">
        <ele>357</ele>
        <time>2013-09-14T11:08:19Z</time>
      </trkpt>
      <trkpt lat="45.11789" lon="5.04779">
        <ele>357</ele>
        <time>2013-09-14T11:08:22Z</time>
      </trkpt>
      <trkpt lat="45.11804" lon="5.04785">
        <ele>357</ele>
        <time>2013-09-14T11:08:26Z</time>
      </trkpt>
      <trkpt lat="45.11816" lon="5.04789">
        <ele>358</ele>
        <time>2013-09-14T11:08:29Z</time>
      </trkpt>
      <trkpt lat="45.11831" lon="5.04791">
        <ele>359</ele>
        <time>2013-09-14T11:08:33Z</time>
      </trkpt>
      <trkpt lat="45.11843" lon="5.04792">
        <ele>358</ele>
        <time>2013-09-14T11:08:36Z</time>
      </trkpt>
      <trkpt lat="45.11861" lon="5.04794">
        <ele>359</ele>
        <time>2013-09-14T11:08:40Z</time>
      </trkpt>
      <trkpt lat="45.11876" lon="5.04794">
        <ele>359</ele>
        <time>2013-09-14T11:08:43Z</time>
      </trkpt>
      <trkpt lat="45.11895" lon="5.04792">
        <ele>359</ele>
        <time>2013-09-14T11:08:47Z</time>
      </trkpt>
      <trkpt lat="45.11911" lon="5.04789">
        <ele>359</ele>
        <time>2013-09-14T11:08:50Z</time>
      </trkpt>
      <trkpt lat="45.11931" lon="5.04784">
        <ele>359</ele>
        <time>2013-09-14T11:08:54Z</time>
      </trkpt>
      <trkpt lat="45.11947" lon="5.04779">
        <ele>360</ele>
        <time>2013-09-14T11:08:57Z</time>
      </trkpt>
      <trkpt lat="45.1197" lon="5.04772">
        <ele>360</ele>
        <time>2013-09-14T11:09:01Z</time>
      </trkpt>
      <trkpt lat="45.11988" lon="5.04765">
        <ele>359</ele>
        <time>2013-09-14T11:09:04Z</time>
      </trkpt>
      <trkpt lat="45.12014" lon="5.04755">
        <ele>359</ele>
        <time>2013-09-14T11:09:08Z</time>
      </trkpt>
      <trkpt lat="45.12033" lon="5.04748">
        <ele>359</ele>
        <time>2013-09-14T11:09:11Z</time>
      </trkpt>
      <trkpt lat="45.1206" lon="5.04739">
        <ele>359</ele>
        <time>2013-09-14T11:09:15Z</time>
      </trkpt>
      <trkpt lat="45.12082" lon="5.04733">
        <ele>359</ele>
        <time>2013-09-14T11:09:18Z</time>
      </trkpt>
      <trkpt lat="45.12112" lon="5.04725">
        <ele>359</ele>
        <time>2013-09-14T11:09:22Z</time>
      </trkpt>
      <trkpt lat="45.12142" lon="5.04717">
        <ele>358</ele>
        <time>2013-09-14T11:09:26Z</time>
      </trkpt>
      <trkpt lat="45.12164" lon="5.04713">
        <ele>358</ele>
        <time>2013-09-14T11:09:29Z</time>
      </trkpt>
      <trkpt lat="45.12196" lon="5.04706">
        <ele>358</ele>
        <time>2013-09-14T11:09:33Z</time>
      </trkpt>
      <trkpt lat="45.12219" lon="5.04702">
        <ele>358</ele>
        <time>2013-09-14T11:09:36Z</time>
      </trkpt>
      <trkpt lat="45.12249" lon="5.04696">
        <ele>358</ele>
        <time>2013-09-14T11:09:40Z</time>
      </trkpt>
      <trkpt lat="45.12272" lon="5.04691">
        <ele>359</ele>
        <time>2013-09-14T11:09:43Z</time>
      </trkpt>
      <trkpt lat="45.12301" lon="5.04686">
        <ele>359</ele>
        <time>2013-09-14T11:09:47Z</time>
      </trkpt>
      <trkpt lat="45.12323" lon="5.04681">
        <ele>358</ele>
        <time>2013-09-14T11:09:50Z</time>
      </trkpt>
      <trkpt lat="45.12352" lon="5.04676">
        <ele>358</ele>
        <time>2013-09-14T11:09:54Z</time>
      </trkpt>
      <trkpt lat="45.12373" lon="5.04672">
        <ele>359</ele>
        <time>2013-09-14T11:09:57Z</time>
      </trkpt>
      <trkpt lat="45.12401" lon="5.04665">
        <ele>359</ele>
        <time>2013-09-14T11:10:01Z</time>
      </trkpt>
      <trkpt lat="45.12421" lon="5.0466">
        <ele>358</ele>
        <time>2013-09-14T11:10:04Z</time>
      </trkpt>
      <trkpt lat="45.12448" lon="5.04654">
        <ele>359</ele>
        <time>2013-09-14T11:10:08Z</time>
      </trkpt>
      <trkpt lat="45.12469" lon="5.04649">
        <ele>359</ele>
        <time>2013-09-14T11:10:11Z</time>
      </trkpt>
      <trkpt lat="45.12495" lon="5.04644">
        <ele>359</ele>
        <time>2013-09-14T11:10:15Z</time>
      </trkpt>
      <trkpt lat="45.12516" lon="5.04639">
        <ele>359</ele>
        <time>2013-09-14T11:10:18Z</time>
      </trkpt>
      <trkpt lat="45.12542" lon="5.04635">
        <ele>360</ele>
        <time>2013-09-14T11:10:22Z</time>
      </trkpt>
      <trkpt lat="45.12561" lon="5.04631">
        <ele>360</ele>
        <time>2013-09-14T11:10:25Z</time>
      </trkpt>
      <trkpt lat="45.12588" lon="5.04627">
        <ele>360</ele>
        <time>2013-09-14T11:10:29Z</time>
      </trkpt>
      <trkpt lat="45.12607" lon="5.04625">
        <ele>360</ele>
        <time>2013-09-14T11:10:32Z</time>
      </trkpt>
      <trkpt lat="45.12633" lon="5.04624">
        <ele>360</ele>
        <time>2013-09-14T11:10:36Z</time>
      </trkpt>
      <trkpt lat="45.12652" lon="5.04622">
        <ele>360</ele>
        <time>2013-09-14T11:10:39Z</time>
      </trkpt>
      <trkpt lat="45.12678" lon="5.0462">
        <ele>360</ele>
        <time>2013-09-14T11:10:43Z</time>
      </trkpt>
      <trkpt lat="45.12698" lon="5.0462">
        <ele>360</ele>
        <time>2013-09-14T11:10:46Z</time>
      </trkpt>
      <trkpt lat="45.12725" lon="5.0462">
        <ele>360</ele>
        <time>2013-09-14T11:10:50Z</time>
      </trkpt>
      <trkpt lat="45.12746" lon="5.04619">
        <ele>362</ele>
        <time>2013-09-14T11:10:53Z</time>
      </trkpt>
      <trkpt lat="45.12773" lon="5.04618">
        <ele>361</ele>
        <time>2013-09-14T11:10:57Z</time>
      </trkpt>
      <trkpt lat="45.12794" lon="5.04616">
        <ele>362</ele>
        <time>2013-09-14T11:11:00Z</time>
      </trkpt>
      <trkpt lat="45.12823" lon="5.04615">
        <ele>362</ele>
        <time>2013-09-14T11:11:04Z</time>
      </trkpt>
      <trkpt lat="45.12855" lon="5.04613">
        <ele>361</ele>
        <time>2013-09-14T11:11:08Z</time>
      </trkpt>
      <trkpt lat="45.12877" lon="5.04613">
        <ele>360</ele>
        <time>2013-09-14T11:11:11Z</time>
      </trkpt>
      <trkpt lat="45.12906" lon="5.04612">
        <ele>360</ele>
        <time>2013-09-14T11:11:15Z</time>
      </trkpt>
      <trkpt lat="45.12929" lon="5.04612">
        <ele>361</ele>
        <time>2013-09-14T11:11:18Z</time>
      </trkpt>
      <trkpt lat="45.12961" lon="5.0461">
        <ele>360</ele>
        <time>2013-09-14T11:11:22Z</time>
      </trkpt>
      <trkpt lat="45.12987" lon="5.04608">
        <ele>359</ele>
        <time>2013-09-14T11:11:25Z</time>
      </trkpt>
      <trkpt lat="45.13022" lon="5.04607">
        <ele>357</ele>
        <time>2013-09-14T11:11:29Z</time>
      </trkpt>
      <trkpt lat="45.13048" lon="5.04605">
        <ele>358</ele>
        <time>2013-09-14T11:11:32Z</time>
      </trkpt>
      <trkpt lat="45.13085" lon="5.04605">
        <ele>357</ele>
        <time>2013-09-14T11:11:36Z</time>
      </trkpt>
      <trkpt lat="45.13113" lon="5.04603">
        <ele>356</ele>
        <time>2013-09-14T11:11:39Z</time>
      </trkpt>
      <trkpt lat="45.1315" lon="5.04601">
        <ele>355</ele>
        <time>2013-09-14T11:11:43Z</time>
      </trkpt>
      <trkpt lat="45.13177" lon="5.04599">
        <ele>356</ele>
        <time>2013-09-14T11:11:46Z</time>
      </trkpt>
      <trkpt lat="45.13215" lon="5.04599">
        <ele>355</ele>
        <time>2013-09-14T11:11:50Z</time>
      </trkpt>
      <trkpt lat="45.13243" lon="5.04598">
        <ele>355</ele>
        <time>2013-09-14T11:11:53Z</time>
      </trkpt>
      <trkpt lat="45.13281" lon="5.04595">
        <ele>355</ele>
        <time>2013-09-14T11:11:57Z</time>
      </trkpt>
      <trkpt lat="45.13309" lon="5.04594">
        <ele>355</ele>
        <time>2013-09-14T11:12:00Z</time>
      </trkpt>
      <trkpt lat="45.13346" lon="5.04591">
        <ele>355</ele>
        <time>2013-09-14T11:12:04Z</time>
      </trkpt>
      <trkpt lat="45.13375" lon="5.04589">
        <ele>354</ele>
        <time>2013-09-14T11:12:07Z</time>
      </trkpt>
      <trkpt lat="45.13413" lon="5.04586">
        <ele>354</ele>
        <time>2013-09-14T11:12:11Z</time>
      </trkpt>
      <trkpt lat="45.13441" lon="5.04579">
        <ele>353</ele>
        <time>2013-09-14T11:12:14Z</time>
      </trkpt>
      <trkpt lat="45.13479" lon="5.04567">
        <ele>352</ele>
        <time>2013-09-14T11:12:18Z</time>
      </trkpt>
      <trkpt lat="45.13509" lon="5.04556">
        <ele>351</ele>
        <time>2013-09-14T11:12:21Z</time>
      </trkpt>
      <trkpt lat="45.13548" lon="5.04538">
        <ele>349</ele>
        <time>2013-09-14T11:12:25Z</time>
      </trkpt>
      <trkpt lat="45.13576" lon="5.04521">
        <ele>347</ele>
        <time>2013-09-14T11:12:28Z</time>
      </trkpt>
      <trkpt lat="45.13614" lon="5.04495">
        <ele>347</ele>
        <time>2013-09-14T11:12:32Z</time>
      </trkpt>
      <trkpt lat="45.13642" lon="5.04473">
        <ele>347</ele>
        <time>2013-09-14T11:12:35Z</time>
      </trkpt>
      <trkpt lat="45.13681" lon="5.04446">
        <ele>345</ele>
        <time>2013-09-14T11:12:39Z</time>
      </trkpt>
      <trkpt lat="45.1372" lon="5.04419">
        <ele>343</ele>
        <time>2013-09-14T11:12:43Z</time>
      </trkpt>
      <trkpt lat="45.13747" lon="5.04399">
        <ele>343</ele>
        <time>2013-09-14T11:12:46Z</time>
      </trkpt>
      <trkpt lat="45.13783" lon="5.0437">
        <ele>344</ele>
        <time>2013-09-14T11:12:50Z</time>
      </trkpt>
      <trkpt lat="45.13809" lon="5.0435">
        <ele>344</ele>
        <time>2013-09-14T11:12:53Z</time>
      </trkpt>
      <trkpt lat="45.13841" lon="5.04327">
        <ele>344</ele>
        <time>2013-09-14T11:12:57Z</time>
      </trkpt>
      <trkpt lat="45.13863" lon="5.04311">
        <ele>345</ele>
        <time>2013-09-14T11:13:00Z</time>
      </trkpt>
      <trkpt lat="45.13889" lon="5.04293">
        <ele>345</ele>
        <time>2013-09-14T11:13:04Z</time>
      </trkpt>
      <trkpt lat="45.13907" lon="5.0428">
        <ele>345</ele>
        <time>2013-09-14T11:13:07Z</time>
      </trkpt>
      <trkpt lat="45.13929" lon="5.04264">
        <ele>346</ele>
        <time>2013-09-14T11:13:11Z</time>
      </trkpt>
      <trkpt lat="45.13945" lon="5.04252">
        <ele>346</ele>
        <time>2013-09-14T11:13:14Z</time>
      </trkpt>
      <trkpt lat="45.13966" lon="5.04237">
        <ele>347</ele>
        <time>2013-09-14T11:13:18Z</time>
      </trkpt>
      <trkpt lat="45.13982" lon="5.04226">
        <ele>347</ele>
        <time>2013-09-14T11:13:21Z</time>
      </trkpt>
      <trkpt lat="45.14002" lon="5.0421">
        <ele>348</ele>
        <time>2013-09-14T11:13:25Z</time>
      </trkpt>
      <trkpt lat="45.14018" lon="5.04198">
        <ele>348</ele>
        <time>2013-09-14T11:13:28Z</time>
      </trkpt>
      <trkpt lat="45.1404" lon="5.04184">
        <ele>350</ele>
        <time>2013-09-14T11:13:32Z</time>
      </trkpt>
      <trkpt lat="45.14055" lon="5.04174">
        <ele>350</ele>
        <time>2013-09-14T11:13:35Z</time>
      </trkpt>
      <trkpt lat="45.14075" lon="5.04159">
        <ele>350</ele>
        <time>2013-09-14T11:13:39Z</time>
      </trkpt>
      <trkpt lat="45.1409" lon="5.04148">
        <ele>351</ele>
        <time>2013-09-14T11:13:42Z</time>
      </trkpt>
      <trkpt lat="45.1411" lon="5.04134">
        <ele>351</ele>
        <time>2013-09-14T11:13:46Z</time>
      </trkpt>
      <trkpt lat="45.14124" lon="5.04124">
        <ele>352</ele>
        <time>2013-09-14T11:13:49Z</time>
      </trkpt>
      <trkpt lat="45.14142" lon="5.04111">
        <ele>353</ele>
        <time>2013-09-14T11:13:53Z</time>
      </trkpt>
      <trkpt lat="45.14156" lon="5.04101">
        <ele>354</ele>
        <time>2013-09-14T11:13:56Z</time>
      </trkpt>
      <trkpt lat="45.14175" lon="5.04088">
        <ele>354</ele>
        <time>2013-09-14T11:14:00Z</time>
      </trkpt>
      <trkpt lat="45.14188" lon="5.04078">
        <ele>355</ele>
        <time>2013-09-14T11:14:03Z</time>
      </trkpt>
      <trkpt lat="45.14207" lon="5.04064">
        <ele>356</ele>
        <time>2013-09-14T11:14:07Z</time>
      </trkpt>
      <trkpt lat="45.14221" lon="5.04055">
        <ele>356</ele>
        <time>2013-09-14T11:14:10Z</time>
      </trkpt>
      <trkpt lat="45.14238" lon="5.04042">
        <ele>356</ele>
        <time>2013-09-14T11:14:14Z</time>
      </trkpt>
      <trkpt lat="45.14252" lon="5.04034">
        <ele>357</ele>
        <time>2013-09-14T11:14:17Z</time>
      </trkpt>
      <trkpt lat="45.1427" lon="5.04021">
        <ele>356</ele>
        <time>2013-09-14T11:14:21Z</time>
      </trkpt>
      <trkpt lat="45.14287" lon="5.04008">
        <ele>357</ele>
        <time>2013-09-14T11:14:25Z</time>
      </trkpt>
      <trkpt lat="45.14299" lon="5.03999">
        <ele>358</ele>
        <time>2013-09-14T11:14:28Z</time>
      </trkpt>
      <trkpt lat="45.14316" lon="5.03987">
        <ele>359</ele>
        <time>2013-09-14T11:14:32Z</time>
      </trkpt>
      <trkpt lat="45.14328" lon="5.03978">
        <ele>358</ele>
        <time>2013-09-14T11:14:35Z</time>
      </trkpt>
      <trkpt lat="45.14344" lon="5.03966">
        <ele>360</ele>
        <time>2013-09-14T11:14:39Z</time>
      </trkpt>
      <trkpt lat="45.14356" lon="5.03957">
        <ele>360</ele>
        <time>2013-09-14T11:14:42Z</time>
      </trkpt>
      <trkpt lat="45.14373" lon="5.03945">
        <ele>360</ele>
        <time>2013-09-14T11:14:46Z</time>
      </trkpt>
      <trkpt lat="45.14386" lon="5.03936">
        <ele>360</ele>
        <time>2013-09-14T11:14:49Z</time>
      </trkpt>
      <trkpt lat="45.14405" lon="5.03923">
        <ele>360</ele>
        <time>2013-09-14T11:14:53Z</time>
      </trkpt>
      <trkpt lat="45.1442" lon="5.03913">
        <ele>360</ele>
        <time>2013-09-14T11:14:56Z</time>
      </trkpt>
      <trkpt lat="45.1444" lon="5.03898">
        <ele>359</ele>
        <time>2013-09-14T11:15:00Z</time>
      </trkpt>
      <trkpt lat="45.14455" lon="5.03886">
        <ele>358</ele>
        <time>2013-09-14T11:15:03Z</time>
      </trkpt>
      <trkpt lat="45.14472" lon="5.03867">
        <ele>358</ele>
        <time>2013-09-14T11:15:07Z</time>
      </trkpt>
      <trkpt lat="45.14489" lon="5.03857">
        <ele>357</ele>
        <time>2013-09-14T11:15:10Z</time>
      </trkpt>
      <trkpt lat="45.14509" lon="5.0385">
        <ele>358</ele>
        <time>2013-09-14T11:15:14Z</time>
      </trkpt>
      <trkpt lat="45.14526" lon="5.03837">
        <ele>358</ele>
        <time>2013-09-14T11:15:17Z</time>
      </trkpt>
      <trkpt lat="45.1455" lon="5.03819">
        <ele>358</ele>
        <time>2013-09-14T11:15:21Z</time>
      </trkpt>
      <trkpt lat="45.14569" lon="5.03806">
        <ele>357</ele>
        <time>2013-09-14T11:15:24Z</time>
      </trkpt>
      <trkpt lat="45.14595" lon="5.03787">
        <ele>357</ele>
        <time>2013-09-14T11:15:28Z</time>
      </trkpt>
      <trkpt lat="45.14615" lon="5.03773">
        <ele>357</ele>
        <time>2013-09-14T11:15:31Z</time>
      </trkpt>
      <trkpt lat="45.14644" lon="5.03752">
        <ele>356</ele>
        <time>2013-09-14T11:15:35Z</time>
      </trkpt>
      <trkpt lat="45.14667" lon="5.03739">
        <ele>357</ele>
        <time>2013-09-14T11:15:38Z</time>
      </trkpt>
      <trkpt lat="45.14697" lon="5.03723">
        <ele>355</ele>
        <time>2013-09-14T11:15:42Z</time>
      </trkpt>
      <trkpt lat="45.14718" lon="5.03711">
        <ele>356</ele>
        <time>2013-09-14T11:15:45Z</time>
      </trkpt>
      <trkpt lat="45.14746" lon="5.03697">
        <ele>356</ele>
        <time>2013-09-14T11:15:49Z</time>
      </trkpt>
      <trkpt lat="45.14766" lon="5.03694">
        <ele>356</ele>
        <time>2013-09-14T11:15:52Z</time>
      </trkpt>
      <trkpt lat="45.14792" lon="5.03689">
        <ele>355</ele>
        <time>2013-09-14T11:15:56Z</time>
      </trkpt>
      <trkpt lat="45.14819" lon="5.03687">
        <ele>355</ele>
        <time>2013-09-14T11:16:00Z</time>
      </trkpt>
      <trkpt lat="45.14838" lon="5.0369">
        <ele>356</ele>
        <time>2013-09-14T11:16:03Z</time>
      </trkpt>
      <trkpt lat="45.14867" lon="5.03688">
        <ele>355</ele>
        <time>2013-09-14T11:16:07Z</time>
      </trkpt>
      <trkpt lat="45.14889" lon="5.03693">
        <ele>355</ele>
        <time>2013-09-14T11:16:10Z</time>
      </trkpt>
      <trkpt lat="45.1492" lon="5.03702">
        <ele>354</ele>
        <time>2013-09-14T11:16:14Z</time>
      </trkpt>
      <trkpt lat="45.14943" lon="5.03712">
        <ele>353</ele>
        <time>2013-09-14T11:16:17Z</time>
      </trkpt>
      <trkpt lat="45.14975" lon="5.03726">
        <ele>352</ele>
        <time>2013-09-14T11:16:21Z</time>
      </trkpt>
      <trkpt lat="45.14999" lon="5.0374">
        <ele>351</ele>
        <time>2013-09-14T11:16:24Z</time>
      </trkpt>
      <trkpt lat="45.15029" lon="5.03762">
        <ele>351</ele>
        <time>2013-09-14T11:16:28Z</time>
      </trkpt>
      <trkpt lat="45.15053" lon="5.03779">
        <ele>349</ele>
        <time>2013-09-14T11:16:31Z</time>
      </trkpt>
      <trkpt lat="45.15088" lon="5.03804">
        <ele>349</ele>
        <time>2013-09-14T11:16:35Z</time>
      </trkpt>
      <trkpt lat="45.15117" lon="5.03824">
        <ele>348</ele>
        <time>2013-09-14T11:16:38Z</time>
      </trkpt>
      <trkpt lat="45.15155" lon="5.03852">
        <ele>346</ele>
        <time>2013-09-14T11:16:42Z</time>
      </trkpt>
      <trkpt lat="45.15184" lon="5.03872">
        <ele>345</ele>
        <time>2013-09-14T11:16:45Z</time>
      </trkpt>
      <trkpt lat="45.15223" lon="5.039">
        <ele>344</ele>
        <time>2013-09-14T11:16:49Z</time>
      </trkpt>
      <trkpt lat="45.15252" lon="5.03921">
        <ele>343</ele>
        <time>2013-09-14T11:16:52Z</time>
      </trkpt>
      <trkpt lat="45.15292" lon="5.03949">
        <ele>341</ele>
        <time>2013-09-14T11:16:56Z</time>
      </trkpt>
      <trkpt lat="45.15321" lon="5.0397">
        <ele>340</ele>
        <time>2013-09-14T11:16:59Z</time>
      </trkpt>
      <trkpt lat="45.15362" lon="5.03994">
        <ele>339</ele>
        <time>2013-09-14T11:17:03Z</time>
      </trkpt>
      <trkpt lat="45.15395" lon="5.04003">
        <ele>338</ele>
        <time>2013-09-14T11:17:06Z</time>
      </trkpt>
      <trkpt lat="45.15437" lon="5.04008">
        <ele>336</ele>
        <time>2013-09-14T11:17:10Z</time>
      </trkpt>
      <trkpt lat="45.15468" lon="5.04009">
        <ele>336</ele>
        <time>2013-09-14T11:17:13Z</time>
      </trkpt>
      <trkpt lat="45.15508" lon="5.04009">
        <ele>336</ele>
        <time>2013-09-14T11:17:17Z</time>
      </trkpt>
      <trkpt lat="45.15537" lon="5.04009">
        <ele>336</ele>
        <time>2013-09-14T11:17:20Z</time>
      </trkpt>
      <trkpt lat="45.15574" lon="5.04009">
        <ele>336</ele>
        <time>2013-09-14T11:17:24Z</time>
      </trkpt>
      <trkpt lat="45.15601" lon="5.0401">
        <ele>335</ele>
        <time>2013-09-14T11:17:27Z</time>
      </trkpt>
      <trkpt lat="45.15637" lon="5.04009">
        <ele>336</ele>
        <time>2013-09-14T11:17:31Z</time>
      </trkpt>
      <trkpt lat="45.15673" lon="5.04009">
        <ele>335</ele>
        <time>2013-09-14T11:17:35Z</time>
      </trkpt>
      <trkpt lat="45.15701" lon="5.04009">
        <ele>335</ele>
        <time>2013-09-14T11:17:38Z</time>
      </trkpt>
      <trkpt lat="45.15737" lon="5.0401">
        <ele>334</ele>
        <time>2013-09-14T11:17:42Z</time>
      </trkpt>
      <trkpt lat="45.15764" lon="5.0401">
        <ele>334</ele>
        <time>2013-09-14T11:17:45Z</time>
      </trkpt>
      <trkpt lat="45.15799" lon="5.04011">
        <ele>334</ele>
        <time>2013-09-14T11:17:49Z</time>
      </trkpt>
      <trkpt lat="45.15824" lon="5.04011">
        <ele>334</ele>
        <time>2013-09-14T11:17:52Z</time>
      </trkpt>
      <trkpt lat="45.15855" lon="5.04011">
        <ele>334</ele>
        <time>2013-09-14T11:17:56Z</time>
      </trkpt>
      <trkpt lat="45.15877" lon="5.04011">
        <ele>333</ele>
        <time>2013-09-14T11:17:59Z</time>
      </trkpt>
      <trkpt lat="45.15907" lon="5.04011">
        <ele>333</ele>
        <time>2013-09-14T11:18:03Z</time>
      </trkpt>
      <trkpt lat="45.1593" lon="5.04011">
        <ele>334</ele>
        <time>2013-09-14T11:18:06Z</time>
      </trkpt>
      <trkpt lat="45.15961" lon="5.04012">
        <ele>333</ele>
        <time>2013-09-14T11:18:10Z</time>
      </trkpt>
      <trkpt lat="45.15983" lon="5.04013">
        <ele>334</ele>
        <time>2013-09-14T11:18:13Z</time>
      </trkpt>
      <trkpt lat="45.16014" lon="5.04013">
        <ele>335</ele>
        <time>2013-09-14T11:18:17Z</time>
      </trkpt>
      <trkpt lat="45.16037" lon="5.04013">
        <ele>334</ele>
        <time>2013-09-14T11:18:20Z</time>
      </trkpt>
      <trkpt lat="45.16066" lon="5.04013">
        <ele>335</ele>
        <time>2013-09-14T11:18:24Z</time>
      </trkpt>
      <trkpt lat="45.16087" lon="5.04013">
        <ele>335</ele>
        <time>2013-09-14T11:18:27Z</time>
      </trkpt>
      <trkpt lat="45.16112" lon="5.04006">
        <ele>335</ele>
        <time>2013-09-14T11:18:31Z</time>
      </trkpt>
      <trkpt lat="45.16128" lon="5.03996">
        <ele>336</ele>
        <time>2013-09-14T11:18:34Z</time>
      </trkpt>
      <trkpt lat="45.16147" lon="5.03975">
        <ele>336</ele>
        <time>2013-09-14T11:18:38Z</time>
      </trkpt>
      <trkpt lat="45.16158" lon="5.03956">
        <ele>337</ele>
        <time>2013-09-14T11:18:41Z</time>
      </trkpt>
      <trkpt lat="45.1617" lon="5.03929">
        <ele>337</ele>
        <time>2013-09-14T11:18:45Z</time>
      </trkpt>
      <trkpt lat="45.16178" lon="5.03911">
        <ele>338</ele>
        <time>2013-09-14T11:18:48Z</time>
      </trkpt>
      <trkpt lat="45.16189" lon="5.03885">
        <ele>338</ele>
        <time>2013-09-14T11:18:52Z</time>
      </trkpt>
      <trkpt lat="45.16199" lon="5.03865">
        <ele>337</ele>
        <time>2013-09-14T11:18:55Z</time>
      </trkpt>
      <trkpt lat="45.16216" lon="5.03838">
        <ele>337</ele>
        <time>2013-09-14T11:18:59Z</time>
      </trkpt>
      <trkpt lat="45.16232" lon="5.0382">
        <ele>338</ele>
        <time>2013-09-14T11:19:02Z</time>
      </trkpt>
      <trkpt lat="45.16257" lon="5.03799">
        <ele>338</ele>
        <time>2013-09-14T11:19:06Z</time>
      </trkpt>
      <trkpt lat="45.16277" lon="5.03789">
        <ele>338</ele>
        <time>2013-09-14T11:19:09Z</time>
      </trkpt>
      <trkpt lat="45.16304" lon="5.03783">
        <ele>337</ele>
        <time>2013-09-14T11:19:13Z</time>
      </trkpt>
      <trkpt lat="45.1633" lon="5.0378">
        <ele>338</ele>
        <time>2013-09-14T11:19:17Z</time>
      </trkpt>
      <trkpt lat="45.16349" lon="5.03779">
        <ele>338</ele>
        <time>2013-09-14T11:19:20Z</time>
      </trkpt>
      <trkpt lat="45.16373" lon="5.03776">
        <ele>339</ele>
        <time>2013-09-14T11:19:24Z</time>
      </trkpt>
      <trkpt lat="45.16389" lon="5.03774">
        <ele>339</ele>
        <time>2013-09-14T11:19:27Z</time>
      </trkpt>
      <trkpt lat="45.16411" lon="5.03772">
        <ele>340</ele>
        <time>2013-09-14T11:19:31Z</time>
      </trkpt>
      <trkpt lat="45.16427" lon="5.03771">
        <ele>340</ele>
        <time>2013-09-14T11:19:34Z</time>
      </trkpt>
      <trkpt lat="45.16447" lon="5.03769">
        <ele>341</ele>
        <time>2013-09-14T11:19:38Z</time>
      </trkpt>
      <trkpt lat="45.16462" lon="5.03769">
        <ele>341</ele>
        <time>2013-09-14T11:19:41Z</time>
      </trkpt>
      <trkpt lat="45.16482" lon="5.03768">
        <ele>341</ele>
        <time>2013-09-14T11:19:45Z</time>
      </trkpt>
      <trkpt lat="45.16498" lon="5.03767">
        <ele>341</ele>
        <time>2013-09-14T11:19:48Z</time>
      </trkpt>
      <trkpt lat="45.16519" lon="5.03766">
        <ele>342</ele>
        <time>2013-09-14T11:19:52Z</time>
      </trkpt>
      <trkpt lat="45.16536" lon="5.03765">
        <ele>341</ele>
        <time>2013-09-14T11:19:55Z</time>
      </trkpt>
      <trkpt lat="45.16558" lon="5.03766">
        <ele>342</ele>
        <time>2013-09-14T11:19:59Z</time>
      </trkpt>
      <trkpt lat="45.16573" lon="5.03768">
        <ele>343</ele>
        <time>2013-09-14T11:20:02Z</time>
      </trkpt>
      <trkpt lat="45.16591" lon="5.03775">
        <ele>343</ele>
        <time>2013-09-14T11:20:06Z</time>
      </trkpt>
      <trkpt lat="45.16605" lon="5.0378">
        <ele>344</ele>
        <time>2013-09-14T11:20:09Z</time>
      </trkpt>
      <trkpt lat="45.16622" lon="5.03789">
        <ele>345</ele>
        <time>2013-09-14T11:20:13Z</time>
      </trkpt>
      <trkpt lat="45.16635" lon="5.03794">
        <ele>345</ele>
        <time>2013-09-14T11:20:16Z</time>
      </trkpt>
      <trkpt lat="45.16652" lon="5.03801">
        <ele>346</ele>
        <time>2013-09-14T11:20:20Z</time>
      </trkpt>
      <trkpt lat="45.16665" lon="5.03806">
        <ele>346</ele>
        <time>2013-09-14T11:20:23Z</time>
      </trkpt>
      <trkpt lat="45.16683" lon="5.03813">
        <ele>347</ele>
        <time>2013-09-14T11:20:27Z</time>
      </trkpt>
      <trkpt lat="45.16697" lon="5.03819">
        <ele>347</ele>
        <time>2013-09-14T11:20:30Z</time>
      </trkpt>
      <trkpt lat="45.16716" lon="5.03826">
        <ele>347</ele>
        <time>2013-09-14T11:20:34Z</time>
      </trkpt>
      <trkpt lat="45.16731" lon="5.03832">
        <ele>347</ele>
        <time>2013-09-14T11:20:37Z</time>
      </trkpt>
      <trkpt lat="45.16751" lon="5.0384">
        <ele>348</ele>
        <time>2013-09-14T11:20:41Z</time>
      </trkpt>
      <trkpt lat="45.16766" lon="5.03845">
        <ele>348</ele>
        <time>2013-09-14T11:20:44Z</time>
      </trkpt>
      <trkpt lat="45.16786" lon="5.03855">
        <ele>348</ele>
        <time>2013-09-14T11:20:48Z</time>
      </trkpt>
      <trkpt lat="45.16806" lon="5.03862">
        <ele>348</ele>
        <time>2013-09-14T11:20:52Z</time>
      </trkpt>
      <trkpt lat="45.16822" lon="5.03868">
        <ele>348</ele>
        <time>2013-09-14T11:20:55Z</time>
      </trkpt>
      <trkpt lat="45.16845" lon="5.03877">
        <ele>348</ele>
        <time>2013-09-14T11:20:59Z</time>
      </trkpt>
      <trkpt lat="45.1686" lon="5.03883">
        <ele>349</ele>
        <time>2013-09-14T11:21:02Z</time>
      </trkpt>
      <trkpt lat="45.16882" lon="5.03892">
        <ele>349</ele>
        <time>2013-09-14T11:21:06Z</time>
      </trkpt>
      <trkpt lat="45.169" lon="5.03899">
        <ele>349</ele>
        <time>2013-09-14T11:21:09Z</time>
      </trkpt>
      <trkpt lat="45.16924" lon="5.03908">
        <ele>349</ele>
        <time>2013-09-14T11:21:13Z</time>
      </trkpt>
      <trkpt lat="45.16942" lon="5.03917">
        <ele>350</ele>
        <time>2013-09-14T11:21:16Z</time>
      </trkpt>
      <trkpt lat="45.16966" lon="5.03927">
        <ele>348</ele>
        <time>2013-09-14T11:21:20Z</time>
      </trkpt>
      <trkpt lat="45.16985" lon="5.03933">
        <ele>349</ele>
        <time>2013-09-14T11:21:23Z</time>
      </trkpt>
      <trkpt lat="45.17009" lon="5.03943">
        <ele>349</ele>
        <time>2013-09-14T11:21:27Z</time>
      </trkpt>
      <trkpt lat="45.17027" lon="5.0395">
        <ele>349</ele>
        <time>2013-09-14T11:21:30Z</time>
      </trkpt>
      <trkpt lat="45.17051" lon="5.0396">
        <ele>349</ele>
        <time>2013-09-14T11:21:34Z</time>
      </trkpt>
      <trkpt lat="45.17069" lon="5.03967">
        <ele>350</ele>
        <time>2013-09-14T11:21:37Z</time>
      </trkpt>
      <trkpt lat="45.17092" lon="5.03976">
        <ele>349</ele>
        <time>2013-09-14T11:21:41Z</time>
      </trkpt>
      <trkpt lat="45.17108" lon="5.03983">
        <ele>350</ele>
        <time>2013-09-14T11:21:44Z</time>
      </trkpt>
      <trkpt lat="45.1713" lon="5.03991">
        <ele>350</ele>
        <time>2013-09-14T11:21:48Z</time>
      </trkpt>
      <trkpt lat="45.17147" lon="5.03998">
        <ele>351</ele>
        <time>2013-09-14T11:21:51Z</time>
      </trkpt>
      <trkpt lat="45.1717" lon="5.04007">
        <ele>351</ele>
        <time>2013-09-14T11:21:55Z</time>
      </trkpt>
      <trkpt lat="45.17186" lon="5.04014">
        <ele>351</ele>
        <time>2013-09-14T11:21:58Z</time>
      </trkpt>
      <trkpt lat="45.17209" lon="5.04022">
        <ele>351</ele>
        <time>2013-09-14T11:22:02Z</time>
      </trkpt>
      <trkpt lat="45.17226" lon="5.04029">
        <ele>351</ele>
        <time>2013-09-14T11:22:05Z</time>
      </trkpt>
      <trkpt lat="45.17249" lon="5.04039">
        <ele>352</ele>
        <time>2013-09-14T11:22:09Z</time>
      </trkpt>
      <trkpt lat="45.17266" lon="5.04046">
        <ele>351</ele>
        <time>2013-09-14T11:22:12Z</time>
      </trkpt>
      <trkpt lat="45.1729" lon="5.04054">
        <ele>352</ele>
        <time>2013-09-14T11:22:16Z</time>
      </trkpt>
      <trkpt lat="45.17307" lon="5.04061">
        <ele>353</ele>
        <time>2013-09-14T11:22:19Z</time>
      </trkpt>
      <trkpt lat="45.17331" lon="5.04069">
        <ele>352</ele>
        <time>2013-09-14T11:22:23Z</time>
      </trkpt>
      <trkpt lat="45.17348" lon="5.04076">
        <ele>353</ele>
        <time>2013-09-14T11:22:26Z</time>
      </trkpt>
      <trkpt lat="45.17371" lon="5.04085">
        <ele>353</ele>
        <time>2013-09-14T11:22:30Z</time>
      </trkpt>
      <trkpt lat="45.17393" lon="5.04094">
        <ele>354</ele>
        <time>2013-09-14T11:22:34Z</time>
      </trkpt>
      <trkpt lat="45.1741" lon="5.041">
        <ele>354</ele>
        <time>2013-09-14T11:22:37Z</time>
      </trkpt>
      <trkpt lat="45.17433" lon="5.04109">
        <ele>355</ele>
        <time>2013-09-14T11:22:41Z</time>
      </trkpt>
      <trkpt lat="45.1745" lon="5.04116">
        <ele>354</ele>
        <time>2013-09-14T11:22:44Z</time>
      </trkpt>
      <trkpt lat="45.17472" lon="5.04125">
        <ele>355</ele>
        <time>2013-09-14T11:22:48Z</time>
      </trkpt>
      <trkpt lat="45.17489" lon="5.04131">
        <ele>355</ele>
        <time>2013-09-14T11:22:51Z</time>
      </trkpt>
      <trkpt lat="45.17511" lon="5.0414">
        <ele>355</ele>
        <time>2013-09-14T11:22:55Z</time>
      </trkpt>
      <trkpt lat="45.17528" lon="5.04147">
        <ele>355</ele>
        <time>2013-09-14T11:22:58Z</time>
      </trkpt>
      <trkpt lat="45.17551" lon="5.04156">
        <ele>356</ele>
        <time>2013-09-14T11:23:02Z</time>
      </trkpt>
      <trkpt lat="45.17567" lon="5.04162">
        <ele>356</ele>
        <time>2013-09-14T11:23:05Z</time>
      </trkpt>
      <trkpt lat="45.17589" lon="5.04171">
        <ele>356</ele>
        <time>2013-09-14T11:23:09Z</time>
      </trkpt>
      <trkpt lat="45.17606" lon="5.04179">
        <ele>357</ele>
        <time>2013-09-14T11:23:12Z</time>
      </trkpt>
      <trkpt lat="45.17628" lon="5.04194">
        <ele>358</ele>
        <time>2013-09-14T11:23:16Z</time>
      </trkpt>
      <trkpt lat="45.17643" lon="5.04206">
        <ele>357</ele>
        <time>2013-09-14T11:23:19Z</time>
      </trkpt>
      <trkpt lat="45.17662" lon="5.04222">
        <ele>358</ele>
        <time>2013-09-14T11:23:23Z</time>
      </trkpt>
      <trkpt lat="45.17677" lon="5.04231">
        <ele>358</ele>
        <time>2013-09-14T11:23:26Z</time>
      </trkpt>
      <trkpt lat="45.17699" lon="5.04241">
        <ele>358</ele>
        <time>2013-09-14T11:23:30Z</time>
      </trkpt>
      <trkpt lat="45.17715" lon="5.04248">
        <ele>359</ele>
        <time>2013-09-14T11:23:33Z</time>
      </trkpt>
      <trkpt lat="45.17736" lon="5.04257">
        <ele>359</ele>
        <time>2013-09-14T11:23:37Z</time>
      </trkpt>
      <trkpt lat="45.17752" lon="5.04263">
        <ele>358</ele>
        <time>2013-09-14T11:23:40Z</time>
      </trkpt>
      <trkpt lat="45.17774" lon="5.0427">
        <ele>359</ele>
        <time>2013-09-14T11:23:44Z</time>
      </trkpt>
      <trkpt lat="45.17791" lon="5.04274">
        <ele>360</ele>
        <time>2013-09-14T11:23:47Z</time>
      </trkpt>
      <trkpt lat="45.17814" lon="5.04281">
        <ele>360</ele>
        <time>2013-09-14T11:23:51Z</time>
      </trkpt>
      <trkpt lat="45.1783" lon="5.04286">
        <ele>359</ele>
        <time>2013-09-14T11:23:54Z</time>
      </trkpt>
      <trkpt lat="45.17852" lon="5.04293">
        <ele>360</ele>
        <time>2013-09-14T11:23:58Z</time>
      </trkpt>
      <trkpt lat="45.17869" lon="5.04298">
        <ele>361</ele>
        <time>2013-09-14T11:24:01Z</time>
      </trkpt>
      <trkpt lat="45.17891" lon="5.04306">
        <ele>361</ele>
        <time>2013-09-14T11:24:05Z</time>
      </trkpt>
      <trkpt lat="45.17913" lon="5.04313">
        <ele>361</ele>
        <time>2013-09-14T11:24:09Z</time>
      </trkpt>
      <trkpt lat="45.17929" lon="5.04319">
        <ele>361</ele>
        <time>2013-09-14T11:24:12Z</time>
      </trkpt>
      <trkpt lat="45.17952" lon="5.04326">
        <ele>362</ele>
        <time>2013-09-14T11:24:16Z</time>
      </trkpt>
      <trkpt lat="45.17968" lon="5.04331">
        <ele>362</ele>
        <time>2013-09-14T11:24:19Z</time>
      </trkpt>
      <trkpt lat="45.17991" lon="5.04338">
        <ele>362</ele>
        <time>2013-09-14T11:24:23Z</time>
      </trkpt>
      <trkpt lat="45.18007" lon="5.04343">
        <ele>363</ele>
        <time>2013-09-14T11:24:26Z</time>
      </trkpt>
      <trkpt lat="45.18031" lon="5.04346">
        <ele>363</ele>
        <time>2013-09-14T11:24:30Z</time>
      </trkpt>
      <trkpt lat="45.18048" lon="5.04345">
        <ele>363</ele>
        <time>2013-09-14T11:24:33Z</time>
      </trkpt>
      <trkpt lat="45.1807" lon="5.04343">
        <ele>364</ele>
        <time>2013-09-14T11:24:37Z</time>
      </trkpt>
      <trkpt lat="45.18086" lon="5.04341">
        <ele>364</ele>
        <time>2013-09-14T11:24:40Z</time>
      </trkpt>
      <trkpt lat="45.18108" lon="5.04341">
        <ele>364</ele>
        <time>2013-09-14T11:24:44Z</time>
      </trkpt>
      <trkpt lat="45.18124" lon="5.04346">
        <ele>364</ele>
        <time>2013-09-14T11:24:47Z</time>
      </trkpt>
      <trkpt lat="45.18146" lon="5.04356">
        <ele>366</ele>
        <time>2013-09-14T11:24:51Z</time>
      </trkpt>
      <trkpt lat="45.18163" lon="5.04365">
        <ele>364</ele>
        <time>2013-09-14T11:24:54Z</time>
      </trkpt>
      <trkpt lat="45.18186" lon="5.04376">
        <ele>366</ele>
        <time>2013-09-14T11:24:58Z</time>
      </trkpt>
      <trkpt lat="45.18202" lon="5.04384">
        <ele>366</ele>
        <time>2013-09-14T11:25:01Z</time>
      </trkpt>
      <trkpt lat="45.18224" lon="5.04395">
        <ele>366</ele>
        <time>2013-09-14T11:25:05Z</time>
      </trkpt>
      <trkpt lat="45.1824" lon="5.04404">
        <ele>366</ele>
        <time>2013-09-14T11:25:08Z</time>
      </trkpt>
      <trkpt lat="45.18262" lon="5.04414">
        <ele>366</ele>
        <time>2013-09-14T11:25:12Z</time>
      </trkpt>
      <trkpt lat="45.18278" lon="5.04422">
        <ele>367</ele>
        <time>2013-09-14T11:25:15Z</time>
      </trkpt>
      <trkpt lat="45.18299" lon="5.04432">
        <ele>367</ele>
        <time>2013-09-14T11:25:19Z</time>
      </trkpt>
      <trkpt lat="45.18315" lon="5.0444">
        <ele>367</ele>
        <time>2013-09-14T11:25:22Z</time>
      </trkpt>
      <trkpt lat="45.18337" lon="5.04451">
        <ele>368</ele>
        <time>2013-09-14T11:25:26Z</time>
      </trkpt>
      <trkpt lat="45.18353" lon="5.04459">
        <ele>368</ele>
        <time>2013-09-14T11:25:29Z</time>
      </trkpt>
      <trkpt lat="45.18374" lon="5.0447">
        <ele>368</ele>
        <time>2013-09-14T11:25:33Z</time>
      </trkpt>
      <trkpt lat="45.1839" lon="5.04478">
        <ele>369</ele>
        <time>2013-09-14T11:25:36Z</time>
      </trkpt>
      <trkpt lat="45.18411" lon="5.04488">
        <ele>368</ele>
        <time>2013-09-14T11:25:40Z</time>
      </trkpt>
      <trkpt lat="45.18432" lon="5.04498">
        <ele>369</ele>
        <time>2013-09-14T11:25:44Z</time>
      </trkpt>
      <trkpt lat="45.18448" lon="5.04506">
        <ele>370</ele>
        <time>2013-09-14T11:25:47Z</time>
      </trkpt>
      <trkpt lat="45.1847" lon="5.04517">
        <ele>370</ele>
        <time>2013-09-14T11:25:51Z</time>
      </trkpt>
      <trkpt lat="45.18487" lon="5.04525">
        <ele>369</ele>
        <time>2013-09-14T11:25:54Z</time>
      </trkpt>
      <trkpt lat="45.18508" lon="5.04535">
        <ele>370</ele>
        <time>2013-09-14T11:25:58Z</time>
      </trkpt>
      <trkpt lat="45.18524" lon="5.04542">
        <ele>370</ele>
        <time>2013-09-14T11:26:01Z</time>
      </trkpt>
      <trkpt lat="45.18544" lon="5.04552">
        <ele>371</ele>
        <time>2013-09-14T11:26:05Z</time>
      </trkpt>
      <trkpt lat="45.18561" lon="5.04561">
        <ele>371</ele>
        <time>2013-09-14T11:26:08Z</time>
      </trkpt>
      <trkpt lat="45.18582" lon="5.04571">
        <ele>371</ele>
        <time>2013-09-14T11:26:12Z</time>
      </trkpt>
      <trkpt lat="45.18597" lon="5.04578">
        <ele>371</ele>
        <time>2013-09-14T11:26:15Z</time>
      </trkpt>
      <trkpt lat="45.18618" lon="5.04589">
        <ele>372</ele>
        <time>2013-09-14T11:26:19Z</time>
      </trkpt>
      <trkpt lat="45.18633" lon="5.04596">
        <ele>372</ele>
        <time>2013-09-14T11:26:22Z</time>
      </trkpt>
      <trkpt lat="45.18654" lon="5.04607">
        <ele>372</ele>
        <time>2013-09-14T11:26:26Z</time>
      </trkpt>
      <trkpt lat="45.18669" lon="5.04614">
        <ele>373</ele>
        <time>2013-09-14T11:26:29Z</time>
      </trkpt>
      <trkpt lat="45.1869" lon="5.04624">
        <ele>373</ele>
        <time>2013-09-14T11:26:33Z</time>
      </trkpt>
      <trkpt lat="45.18706" lon="5.04631">
        <ele>374</ele>
        <time>2013-09-14T11:26:36Z</time>
      </trkpt>
      <trkpt lat="45.18728" lon="5.04639">
        <ele>374</ele>
        <time>2013-09-14T11:26:40Z</time>
      </trkpt>
      <trkpt lat="45.18744" lon="5.04643">
        <ele>374</ele>
        <time>2013-09-14T11:26:43Z</time>
      </trkpt>
      <trkpt lat="45.18766" lon="5.04648">
        <ele>374</ele>
        <time>2013-09-14T11:26:47Z</time>
      </trkpt>
      <trkpt lat="45.18782" lon="5.04652">
        <ele>375</ele>
        <time>2013-09-14T11:26:50Z</time>
      </trkpt>
      <trkpt lat="45.18804" lon="5.04654">
        <ele>375</ele>
        <time>2013-09-14T11:26:54Z</time>
      </trkpt>
      <trkpt lat="45.1882" lon="5.04654">
        <ele>375</ele>
        <time>2013-09-14T11:26:57Z</time>
      </trkpt>
      <trkpt lat="45.18842" lon="5.04653">
        <ele>375</ele>
        <time>2013-09-14T11:27:01Z</time>
      </trkpt>
      <trkpt lat="45.18859" lon="5.04651">
        <ele>376</ele>
        <time>2013-09-14T11:27:04Z</time>
      </trkpt>
      <trkpt lat="45.1888" lon="5.04647">
        <ele>377</ele>
        <time>2013-09-14T11:27:08Z</time>
      </trkpt>
      <trkpt lat="45.18895" lon="5.04642">
        <ele>377</ele>
        <time>2013-09-14T11:27:11Z</time>
      </trkpt>
      <trkpt lat="45.18914" lon="5.04638">
        <ele>378</ele>
        <time>2013-09-14T11:27:15Z</time>
      </trkpt>
      <trkpt lat="45.18928" lon="5.04635">
        <ele>378</ele>
        <time>2013-09-14T11:27:18Z</time>
      </trkpt>
      <trkpt lat="45.18946" lon="5.04631">
        <ele>378</ele>
        <time>2013-09-14T11:27:22Z</time>
      </trkpt>
      <trkpt lat="45.18963" lon="5.04628">
        <ele>379</ele>
        <time>2013-09-14T11:27:26Z</time>
      </trkpt>
      <trkpt lat="45.18976" lon="5.04628">
        <ele>380</ele>
        <time>2013-09-14T11:27:29Z</time>
      </trkpt>
      <trkpt lat="45.18991" lon="5.04633">
        <ele>380</ele>
        <time>2013-09-14T11:27:33Z</time>
      </trkpt>
      <trkpt lat="45.19002" lon="5.0464">
        <ele>381</ele>
        <time>2013-09-14T11:27:36Z</time>
      </trkpt>
      <trkpt lat="45.19014" lon="5.04651">
        <ele>382</ele>
        <time>2013-09-14T11:27:40Z</time>
      </trkpt>
      <trkpt lat="45.19023" lon="5.04661">
        <ele>382</ele>
        <time>2013-09-14T11:27:43Z</time>
      </trkpt>
      <trkpt lat="45.19033" lon="5.04676">
        <ele>383</ele>
        <time>2013-09-14T11:27:47Z</time>
      </trkpt>
      <trkpt lat="45.19039" lon="5.04688">
        <ele>383</ele>
        <time>2013-09-14T11:27:50Z</time>
      </trkpt>
      <trkpt lat="45.19046" lon="5.04704">
        <ele>384</ele>
        <time>2013-09-14T11:27:54Z</time>
      </trkpt>
      <trkpt lat="45.1905" lon="5.04717">
        <ele>385</ele>
        <time>2013-09-14T11:27:57Z</time>
      </trkpt>
      <trkpt lat="45.19056" lon="5.04735">
        <ele>386</ele>
        <time>2013-09-14T11:28:01Z</time>
      </trkpt>
      <trkpt lat="45.1906" lon="5.04747">
        <ele>386</ele>
        <time>2013-09-14T11:28:04Z</time>
      </trkpt>
      <trkpt lat="45.19065" lon="5.04764">
        <ele>387</ele>
        <time>2013-09-14T11:28:08Z</time>
      </trkpt>
      <trkpt lat="45.19069" lon="5.04776">
        <ele>387</ele>
        <time>2013-09-14T11:28:11Z</time>
      </trkpt>
      <trkpt lat="45.19074" lon="5.04791">
        <ele>388</ele>
        <time>2013-09-14T11:28:15Z</time>
      </trkpt>
      <trkpt lat="45.19079" lon="5.04803">
        <ele>389</ele>
        <time>2013-09-14T11:28:18Z</time>
      </trkpt>
      <trkpt lat="45.19089" lon="5.04816">
        <ele>389</ele>
        <time>2013-09-14T11:28:22Z</time>
      </trkpt>
      <trkpt lat="45.19097" lon="5.04824">
        <ele>389</ele>
        <time>2013-09-14T11:28:25Z</time>
      </trkpt>
      <trkpt lat="45.19108" lon="5.04833">
        <ele>390</ele>
        <time>2013-09-14T11:28:29Z</time>
      </trkpt>
      <trkpt lat="45.19116" lon="5.04838">
        <ele>389</ele>
        <time>2013-09-14T11:28:32Z</time>
      </trkpt>
      <trkpt lat="45.19128" lon="5.04844">
        <ele>392</ele>
        <time>2013-09-14T11:28:36Z</time>
      </trkpt>
      <trkpt lat="45.19138" lon="5.04846">
        <ele>392</ele>
        <time>2013-09-14T11:28:39Z</time>
      </trkpt>
      <trkpt lat="45.1915" lon="5.04848">
        <ele>393</ele>
        <time>2013-09-14T11:28:43Z</time>
      </trkpt>
      <trkpt lat="45.19158" lon="5.04847">
        <ele>393</ele>
        <time>2013-09-14T11:28:46Z</time>
      </trkpt>
      <trkpt lat="45.1917" lon="5.04844">
        <ele>393</ele>
        <time>2013-09-14T11:28:50Z</time>
      </trkpt>
      <trkpt lat="45.1918" lon="5.04841">
        <ele>394</ele>
        <time>2013-09-14T11:28:53Z</time>
      </trkpt>
      <trkpt lat="45.19192" lon="5.04834">
        <ele>394</ele>
        <time>2013-09-14T11:28:57Z</time>
      </trkpt>
      <trkpt lat="45.19202" lon="5.04826">
        <ele>395</ele>
        <time>2013-09-14T11:29:01Z</time>
      </trkpt>
      <trkpt lat="45.19208" lon="5.04817">
        <ele>395</ele>
        <time>2013-09-14T11:29:04Z</time>
      </trkpt>
      <trkpt lat="45.19215" lon="5.04805">
        <ele>396</ele>
        <time>2013-09-14T11:29:08Z</time>
      </trkpt>
      <trkpt lat="45.19221" lon="5.04793">
        <ele>396</ele>
        <time>2013-09-14T11:29:11Z</time>
      </trkpt>
      <trkpt lat="45.19229" lon="5.04776">
        <ele>397</ele>
        <time>2013-09-14T11:29:15Z</time>
      </trkpt>
      <trkpt lat="45.19234" lon="5.04763">
        <ele>397</ele>
        <time>2013-09-14T11:29:18Z</time>
      </trkpt>
      <trkpt lat="45.19242" lon="5.04746">
        <ele>398</ele>
        <time>2013-09-14T11:29:22Z</time>
      </trkpt>
      <trkpt lat="45.19248" lon="5.04733">
        <ele>398</ele>
        <time>2013-09-14T11:29:25Z</time>
      </trkpt>
      <trkpt lat="45.19256" lon="5.04716">
        <ele>398</ele>
        <time>2013-09-14T11:29:29Z</time>
      </trkpt>
      <trkpt lat="45.19262" lon="5.04703">
        <ele>399</ele>
        <time>2013-09-14T11:29:32Z</time>
      </trkpt>
      <trkpt lat="45.1927" lon="5.04686">
        <ele>399</ele>
        <time>2013-09-14T11:29:36Z</time>
      </trkpt>
      <trkpt lat="45.19276" lon="5.04674">
        <ele>400</ele>
        <time>2013-09-14T11:29:39Z</time>
      </trkpt>
      <trkpt lat="45.19285" lon="5.04657">
        <ele>400</ele>
        <time>2013-09-14T11:29:43Z</time>
      </trkpt>
      <trkpt lat="45.19291" lon="5.04645">
        <ele>401</ele>
        <time>2013-09-14T11:29:46Z</time>
      </trkpt>
      <trkpt lat="45.19299" lon="5.04627">
        <ele>401</ele>
        <time>2013-09-14T11:29:50Z</time>
      </trkpt>
      <trkpt lat="45.19305" lon="5.04615">
        <ele>402</ele>
        <time>2013-09-14T11:29:53Z</time>
      </trkpt>
      <trkpt lat="45.19313" lon="5.04598">
        <ele>402</ele>
        <time>2013-09-14T11:29:57Z</time>
      </trkpt>
      <trkpt lat="45.19319" lon="5.04585">
        <ele>402</ele>
        <time>2013-09-14T11:30:00Z</time>
      </trkpt>
      <trkpt lat="45.19327" lon="5.04569">
        <ele>403</ele>
        <time>2013-09-14T11:30:04Z</time>
      </trkpt>
      <trkpt lat="45.19333" lon="5.04556">
        <ele>403</ele>
        <time>2013-09-14T11:30:07Z</time>
      </trkpt>
      <trkpt lat="45.19341" lon="5.04539">
        <ele>404</ele>
        <time>2013-09-14T11:30:11Z</time>
      </trkpt>
      <trkpt lat="45.19347" lon="5.04526">
        <ele>404</ele>
        <time>2013-09-14T11:30:14Z</time>
      </trkpt>
      <trkpt lat="45.19356" lon="5.04509">
        <ele>405</ele>
        <time>2013-09-14T11:30:18Z</time>
      </trkpt>
      <trkpt lat="45.19362" lon="5.04496">
        <ele>405</ele>
        <time>2013-09-14T11:30:21Z</time>
      </trkpt>
      <trkpt lat="45.1937" lon="5.0448">
        <ele>406</ele>
        <time>2013-09-14T11:30:25Z</time>
      </trkpt>
      <trkpt lat="45.19378" lon="5.04469">
        <ele>406</ele>
        <time>2013-09-14T11:30:28Z</time>
      </trkpt>
      <trkpt lat="45.19392" lon="5.04459">
        <ele>407</ele>
        <time>2013-09-14T11:30:32Z</time>
      </trkpt>
      <trkpt lat="45.19407" lon="5.04452">
        <ele>408</ele>
        <time>2013-09-14T11:30:36Z</time>
      </trkpt>
      <trkpt lat="45.19418" lon="5.04451">
        <ele>408</ele>
        <time>2013-09-14T11:30:39Z</time>
      </trkpt>
      <trkpt lat="45.19431" lon="5.04453">
        <ele>409</ele>
        <time>2013-09-14T11:30:43Z</time>
      </trkpt>
      <trkpt lat="45.19441" lon="5.04456">
        <ele>409</ele>
        <time>2013-09-14T11:30:46Z</time>
      </trkpt>
      <trkpt lat="45.19456" lon="5.04462">
        <ele>410</ele>
        <time>2013-09-14T11:30:50Z</time>
      </trkpt>
      <trkpt lat="45.19465" lon="5.04466">
        <ele>410</ele>
        <time>2013-09-14T11:30:53Z</time>
      </trkpt>
      <trkpt lat="45.19478" lon="5.04471">
        <ele>411</ele>
        <time>2013-09-14T11:30:57Z</time>
      </trkpt>
      <trkpt lat="45.19488" lon="5.04475">
        <ele>411</ele>
        <time>2013-09-14T11:31:00Z</time>
      </trkpt>
      <trkpt lat="45.19501" lon="5.04479">
        <ele>412</ele>
        <time>2013-09-14T11:31:04Z</time>
      </trkpt>
      <trkpt lat="45.1951" lon="5.04482">
        <ele>413</ele>
        <time>2013-09-14T11:31:07Z</time>
      </trkpt>
      <trkpt lat="45.19522" lon="5.04486">
        <ele>413</ele>
        <time>2013-09-14T11:31:11Z</time>
      </trkpt>
      <trkpt lat="45.19532" lon="5.0449">
        <ele>414</ele>
        <time>2013-09-14T11:31:14Z</time>
      </trkpt>
      <trkpt lat="45.19543" lon="5.04491">
        <ele>414</ele>
        <time>2013-09-14T11:31:18Z</time>
      </trkpt>
      <trkpt lat="45.19552" lon="5.04491">
        <ele>415</ele>
        <time>2013-09-14T11:31:21Z</time>
      </trkpt>
      <trkpt lat="45.19565" lon="5.04487">
        <ele>416</ele>
        <time>2013-09-14T11:31:25Z</time>
      </trkpt>
      <trkpt lat="45.19572" lon="5.0448">
        <ele>417</ele>
        <time>2013-09-14T11:31:28Z</time>
      </trkpt>
      <trkpt lat="45.19578" lon="5.04466">
        <ele>416</ele>
        <time>2013-09-14T11:31:32Z</time>
      </trkpt>
      <trkpt lat="45.19582" lon="5.04455">
        <ele>417</ele>
        <time>2013-09-14T11:31:35Z</time>
      </trkpt>
      <trkpt lat="45.19585" lon="5.0444">
        <ele>418</ele>
        <time>2013-09-14T11:31:39Z</time>
      </trkpt>
      <trkpt lat="45.19585" lon="5.04427">
        <ele>418</ele>
        <time>2013-09-14T11:31:42Z</time>
      </trkpt>
      <trkpt lat="45.19585" lon="5.0441">
        <ele>419</ele>
        <time>2013-09-14T11:31:46Z</time>
      </trkpt>
      <trkpt lat="45.19584" lon="5.04396">
        <ele>419</ele>
        <time>2013-09-14T11:31:49Z</time>
      </trkpt>
      <trkpt lat="45.19583" lon="5.04378">
        <ele>419</ele>
        <time>2013-09-14T11:31:53Z</time>
      </trkpt>
      <trkpt lat="45.19581" lon="5.04364">
        <ele>420</ele>
        <time>2013-09-14T11:31:56Z</time>
      </trkpt>
      <trkpt lat="45.1958" lon="5.04347">
        <ele>421</ele>
        <time>2013-09-14T11:32:00Z</time>
      </trkpt>
      <trkpt lat="45.19579" lon="5.04335">
        <ele>422</ele>
        <time>2013-09-14T11:32:03Z</time>
      </trkpt>
      <trkpt lat="45.19578" lon="5.04319">
        <ele>422</ele>
        <time>2013-09-14T11:32:07Z</time>
      </trkpt>
      <trkpt lat="45.19578" lon="5.04307">
        <ele>422</ele>
        <time>2013-09-14T11:32:10Z</time>
      </trkpt>
      <trkpt lat="45.19579" lon="5.04291">
        <ele>423</ele>
        <time>2013-09-14T11:32:14Z</time>
      </trkpt>
      <trkpt lat="45.1958" lon="5.04276">
        <ele>424</ele>
        <time>2013-09-14T11:32:18Z</time>
      </trkpt>
      <trkpt lat="45.19579" lon="5.04265">
        <ele>425</ele>
        <time>2013-09-14T11:32:21Z</time>
      </trkpt>
      <trkpt lat="45.1958" lon="5.0425">
        <ele>425</ele>
        <time>2013-09-14T11:32:25Z</time>
      </trkpt>
      <trkpt lat="45.1958" lon="5.04239">
        <ele>425</ele>
        <time>2013-09-14T11:32:28Z</time>
      </trkpt>
      <trkpt lat="45.19579" lon="5.04223">
        <ele>425</ele>
        <time>2013-09-14T11:32:32Z</time>
      </trkpt>
      <trkpt lat="45.19579" lon="5.0421">
        <ele>426</ele>
        <time>2013-09-14T11:32:35Z</time>
      </trkpt>
      <trkpt lat="45.19578" lon="5.04194">
        <ele>426</ele>
        <time>2013-09-14T11:32:39Z</time>
      </trkpt>
      <trkpt lat="45.19579" lon="5.04182">
        <ele>427</ele>
        <time>2013-09-14T11:32:42Z</time>
      </trkpt>
      <trkpt lat="45.1958" lon="5.04168">
        <ele>428</ele>
        <time>2013-09-14T11:32:46Z</time>
      </trkpt>
      <trkpt lat="45.19581" lon="5.04157">
        <ele>428</ele>
        <time>2013-09-14T11:32:49Z</time>
      </trkpt>
      <trkpt lat="45.19584" lon="5.04143">
        <ele>428</ele>
        <time>2013-09-14T11:32:53Z</time>
      </trkpt>
      <trkpt lat="45.19587" lon="5.04132">
        <ele>429</ele>
        <time>2013-09-14T11:32:56Z</time>
      </trkpt>
      <trkpt lat="45.19591" lon="5.04118">
        <ele>430</ele>
        <time>2013-09-14T11:33:00Z</time>
      </trkpt>
      <trkpt lat="45.19596" lon="5.04109">
        <ele>430</ele>
        <time>2013-09-14T11:33:03Z</time>
      </trkpt>
      <trkpt lat="45.19602" lon="5.04096">
        <ele>431</ele>
        <time>2013-09-14T11:33:07Z</time>
      </trkpt>
      <trkpt lat="45.19607" lon="5.04088">
        <ele>432</ele>
        <time>2013-09-14T11:33:10Z</time>
      </trkpt>
      <trkpt lat="45.19616" lon="5.04078">
        <ele>432</ele>
        <time>2013-09-14T11:33:14Z</time>
      </trkpt>
      <trkpt lat="45.19623" lon="5.04073">
        <ele>433</ele>
        <time>2013-09-14T11:33:17Z</time>
      </trkpt>
      <trkpt lat="45.19633" lon="5.04067">
        <ele>433</ele>
        <time>2013-09-14T11:33:21Z</time>
      </trkpt>
      <trkpt lat="45.19641" lon="5.04063">
        <ele>433</ele>
        <time>2013-09-14T11:33:24Z</time>
      </trkpt>
      <trkpt lat="45.19652" lon="5.04059">
        <ele>434</ele>
        <time>2013-09-14T11:33:28Z</time>
      </trkpt>
      <trkpt lat="45.19658" lon="5.04056">
        <ele>435</ele>
        <time>2013-09-14T11:33:31Z</time>
      </trkpt>
      <trkpt lat="45.19668" lon="5.04053">
        <ele>435</ele>
        <time>2013-09-14T11:33:35Z</time>
      </trkpt>
      <trkpt lat="45.19674" lon="5.04052">
        <ele>436</ele>
        <time>2013-09-14T11:33:38Z</time>
      </trkpt>
      <trkpt lat="45.19684" lon="5.04049">
        <ele>437</ele>
        <time>2013-09-14T11:33:42Z</time>
      </trkpt>
      <trkpt lat="45.19691" lon="5.04049">
        <ele>437</ele>
        <time>2013-09-14T11:33:45Z</time>
      </trkpt>
      <trkpt lat="45.19702" lon="5.04048">
        <ele>438</ele>
        <time>2013-09-14T11:33:49Z</time>
      </trkpt>
      <trkpt lat="45.19711" lon="5.04048">
        <ele>438</ele>
        <time>2013-09-14T11:33:53Z</time>
      </trkpt>
      <trkpt lat="45.19718" lon="5.04047">
        <ele>438</ele>
        <time>2013-09-14T11:33:56Z</time>
      </trkpt>
      <trkpt lat="45.19726" lon="5.04047">
        <ele>439</ele>
        <time>2013-09-14T11:34:00Z</time>
      </trkpt>
      <trkpt lat="45.19732" lon="5.04046">
        <ele>440</ele>
        <time>2013-09-14T11:34:03Z</time>
      </trkpt>
      <trkpt lat="45.1974" lon="5.04047">
        <ele>440</ele>
        <time>2013-09-14T11:34:07Z</time>
      </trkpt>
      <trkpt lat="45.19746" lon="5.04047">
        <ele>441</ele>
        <time>2013-09-14T11:34:10Z</time>
      </trkpt>
      <trkpt lat="45.19754" lon="5.04047">
        <ele>441</ele>
        <time>2013-09-14T11:34:14Z</time>
      </trkpt>
      <trkpt lat="45.1976" lon="5.04048">
        <ele>442</ele>
        <time>2013-09-14T11:34:17Z</time>
      </trkpt>
      <trkpt lat="45.19767" lon="5.04048">
        <ele>442</ele>
        <time>2013-09-14T11:34:21Z</time>
      </trkpt>
      <trkpt lat="45.19773" lon="5.04049">
        <ele>442</ele>
        <time>2013-09-14T11:34:24Z</time>
      </trkpt>
      <trkpt lat="45.19781" lon="5.04049">
        <ele>443</ele>
        <time>2013-09-14T11:34:28Z</time>
      </trkpt>
      <trkpt lat="45.19786" lon="5.0405">
        <ele>443</ele>
        <time>2013-09-14T11:34:31Z</time>
      </trkpt>
      <trkpt lat="45.19794" lon="5.04052">
        <ele>444</ele>
        <time>2013-09-14T11:34:35Z</time>
      </trkpt>
      <trkpt lat="45.19799" lon="5.04054">
        <ele>444</ele>
        <time>2013-09-14T11:34:38Z</time>
      </trkpt>
      <trkpt lat="45.19807" lon="5.04057">
        <ele>445</ele>
        <time>2013-09-14T11:34:42Z</time>
      </trkpt>
      <trkpt lat="45.19813" lon="5.0406">
        <ele>445</ele>
        <time>2013-09-14T11:34:45Z</time>
      </trkpt>
      <trkpt lat="45.19821" lon="5.04065">
        <ele>446</ele>
        <time>2013-09-14T11:34:49Z</time>
      </trkpt>
      <trkpt lat="45.19828" lon="5.04069">
        <ele>446</ele>
        <time>2013-09-14T11:34:52Z</time>
      </trkpt>
      <trkpt lat="45.19835" lon="5.04075">
        <ele>447</ele>
        <time>2013-09-14T11:34:56Z</time>
      </trkpt>
      <trkpt lat="45.19841" lon="5.0408">
        <ele>447</ele>
        <time>2013-09-14T11:34:59Z</time>
      </trkpt>
      <trkpt lat="45.19849" lon="5.04086">
        <ele>448</ele>
        <time>2013-09-14T11:35:03Z</time>
      </trkpt>
      <trkpt lat="45.19854" lon="5.04092">
        <ele>448</ele>
        <time>2013-09-14T11:35:06Z</time>
      </trkpt>
      <trkpt lat="45.19861" lon="5.04099">
        <ele>449</ele>
        <time>2013-09-14T11:35:10Z</time>
      </trkpt>
      <trkpt lat="45.19867" lon="5.04104">
        <ele>449</ele>
        <time>2013-09-14T11:35:13Z</time>
      </trkpt>
      <trkpt lat="45.19873" lon="5.04112">
        <ele>449</ele>
        <time>2013-09-14T11:35:17Z</time>
      </trkpt>
      <trkpt lat="45.19878" lon="5.04117">
        <ele>450</ele>
        <time>2013-09-14T11:35:20Z</time>
      </trkpt>
      <trkpt lat="45.19884" lon="5.04125">
        <ele>450</ele>
        <time>2013-09-14T11:35:24Z</time>
      </trkpt>
      <trkpt lat="45.19889" lon="5.04131">
        <ele>451</ele>
        <time>2013-09-14T11:35:27Z</time>
      </trkpt>
      <trkpt lat="45.19895" lon="5.04138">
        <ele>451</ele>
        <time>2013-09-14T11:35:31Z</time>
      </trkpt>
      <trkpt lat="45.19901" lon="5.04146">
        <ele>452</ele>
        <time>2013-09-14T11:35:35Z</time>
      </trkpt>
      <trkpt lat="45.19905" lon="5.04152">
        <ele>453</ele>
        <time>2013-09-14T11:35:38Z</time>
      </trkpt>
      <trkpt lat="45.19912" lon="5.04158">
        <ele>453</ele>
        <time>2013-09-14T11:35:42Z</time>
      </trkpt>
      <trkpt lat="45.19917" lon="5.04164">
        <ele>454</ele>
        <time>2013-09-14T11:35:45Z</time>
      </trkpt>
      <trkpt lat="45.19924" lon="5.04172">
        <ele>454</ele>
        <time>2013-09-14T11:35:49Z</time>
      </trkpt>
      <trkpt lat="45.19929" lon="5.04178">
        <ele>454</ele>
        <time>2013-09-14T11:35:52Z</time>
      </trkpt>
      <trkpt lat="45.19935" lon="5.04186">
        <ele>455</ele>
        <time>2013-09-14T11:35:56Z</time>
      </trkpt>
      <trkpt lat="45.19941" lon="5.04192">
        <ele>455</ele>
        <time>2013-09-14T11:35:59Z</time>
      </trkpt>
      <trkpt lat="45.19947" lon="5.04201">
        <ele>455</ele>
        <time>2013-09-14T11:36:03Z</time>
      </trkpt>
      <trkpt lat="45.19952" lon="5.04207">
        <ele>456</ele>
        <time>2013-09-14T11:36:06Z</time>
      </trkpt>
      <trkpt lat="45.19959" lon="5.04214">
        <ele>457</ele>
        <time>2013-09-14T11:36:10Z</time>
      </trkpt>
      <trkpt lat="45.19963" lon="5.04219">
        <ele>457</ele>
        <time>2013-09-14T11:36:13Z</time>
      </trkpt>
      <trkpt lat="45.1997" lon="5.04226">
        <ele>457</ele>
        <time>2013-09-14T11:36:17Z</time>
      </trkpt>
      <trkpt lat="45.19975" lon="5.0423">
        <ele>458</ele>
        <time>2013-09-14T11:36:20Z</time>
      </trkpt>
      <trkpt lat="45.19982" lon="5.04236">
        <ele>459</ele>
        <time>2013-09-14T11:36:24Z</time>
      </trkpt>
      <trkpt lat="45.19987" lon="5.04238">
        <ele>459</ele>
        <time>2013-09-14T11:36:27Z</time>
      </trkpt>
      <trkpt lat="45.19995" lon="5.04239">
        <ele>460</ele>
        <time>2013-09-14T11:36:31Z</time>
      </trkpt>
      <trkpt lat="45.2" lon="5.04239">
        <ele>460</ele>
        <time>2013-09-14T11:36:34Z</time>
      </trkpt>
      <trkpt lat="45.20008" lon="5.04238">
        <ele>460</ele>
        <time>2013-09-14T11:36:38Z</time>
      </trkpt>
      <trkpt lat="45.20015" lon="5.04237">
        <ele>461</ele>
        <time>2013-09-14T11:36:41Z</time>
      </trkpt>
      <trkpt lat="45.20023" lon="5.04233">
        <ele>462</ele>
        <time>2013-09-14T11:36:45Z</time>
      </trkpt>
      <trkpt lat="45.20029" lon="5.04229">
        <ele>462</ele>
        <time>2013-09-14T11:36:48Z</time>
      </trkpt>
      <trkpt lat="45.20036" lon="5.04222">
        <ele>463</ele>
        <time>2013-09-14T11:36:52Z</time>
      </trkpt>
      <trkpt lat="45.20041" lon="5.04216">
        <ele>463</ele>
        <time>2013-09-14T11:36:55Z</time>
      </trkpt>
      <trkpt lat="45.20046" lon="5.04207">
        <ele>463</ele>
        <time>2013-09-14T11:36:59Z</time>
      </trkpt>
      <trkpt lat="45.2005" lon="5.042">
        <ele>464</ele>
        <time>2013-09-14T11:37:02Z</time>
      </trkpt>
      <trkpt lat="45.20053" lon="5.0419">
        <ele>464</ele>
        <time>2013-09-14T11:37:06Z</time>
      </trkpt>
      <trkpt lat="45.20057" lon="5.0418">
        <ele>465</ele>
        <time>2013-09-14T11:37:10Z</time>
      </trkpt>
      <trkpt lat="45.20058" lon="5.04172">
        <ele>466</ele>
        <time>2013-09-14T11:37:13Z</time>
      </trkpt>
      <trkpt lat="45.20058" lon="5.0416">
        <ele>466</ele>
        <time>2013-09-14T11:37:17Z</time>
      </trkpt>
      <trkpt lat="45.20057" lon="5.04151">
        <ele>467</ele>
        <time>2013-09-14T11:37:20Z</time>
      </trkpt>
      <trkpt lat="45.20054" lon="5.0414">
        <ele>467</ele>
        <time>2013-09-14T11:37:24Z</time>
      </trkpt>
      <trkpt lat="45.20051" lon="5.04132">
        <ele>468</ele>
        <time>2013-09-14T11:37:27Z</time>
      </trkpt>
      <trkpt lat="45.20046" lon="5.04125">
        <ele>468</ele>
        <time>2013-09-14T11:37:31Z</time>
      </trkpt>
      <trkpt lat="45.20042" lon="5.04117">
        <ele>468</ele>
        <time>2013-09-14T11:37:34Z</time>
      </trkpt>
      <trkpt lat="45.20038" lon="5.04109">
        <ele>468</ele>
        <time>2013-09-14T11:37:38Z</time>
      </trkpt>
      <trkpt lat="45.20038" lon="5.04108">
        <ele>468</ele>
        <time>2013-09-14T11:37:41Z</time>
      </trkpt>
      <trkpt lat="45.20038" lon="5.04108">
        <ele>468</ele>
        <time>2013-09-14T11:37:45Z</time>
      </trkpt>
      <trkpt lat="45.20038" lon="5.04108">
        <ele>468</ele>
        <time>2013-09-14T11:37:48Z</time>
      </trkpt>
      <trkpt lat="45.20038" lon="5.04108">
        <ele>469</ele>
        <time>2013-09-14T11:37:52Z</time>
      </trkpt>
      <trkpt lat="45.20038" lon="5.04108">
        <ele>469</ele>
        <time>2013-09-14T11:37:55Z</time>
      </trkpt>
      <trkpt lat="45.20038" lon="5.04108">
        <ele>468</ele>
        <time>2013-09-14T11:37:59Z</time>
      </trkpt>
      <trkpt lat="45.20038" lon="5.04108">
        <ele>468</ele>
        <time>2013-09-14T11:38:02Z</time>
      </trkpt>
      <trkpt lat="45.20038" lon="5.04108">
        <ele>468</ele>
        <time>2013-09-14T11:38:06Z</time>
      </trkpt>
      <trkpt lat="45.20038" lon="5.04108">
        <ele>468</ele>
        <time>2013-09-14T11:38:09Z</time>
      </trkpt>
      <trkpt lat="45.20038" lon="5.04108">
        <ele>468</ele>
        <time>2013-09-14T11:38:13Z</time>
      </trkpt>
      <trkpt lat="45.20036" lon="5.04104">
        <ele>468</ele>
        <time>2013-09-14T11:38:16Z</time>
      </trkpt>
      <trkpt lat="45.20031" lon="5.04097">
        <ele>468</ele>
        <time>2013-09-14T11:38:20Z</time>
      </trkpt>
      <trkpt lat="45.20026" lon="5.04089">
        <ele>469</ele>
        <time>2013-09-14T11:38:23Z</time>
      </trkpt>
      <trkpt lat="45.2002" lon="5.04079">
        <ele>469</ele>
        <time>2013-09-14T11:38:27Z</time>
      </trkpt>
      <trkpt lat="45.20016" lon="5.0407">
        <ele>469</ele>
        <time>2013-09-14T11:38:30Z</time>
      </trkpt>
      <trkpt lat="45.20011" lon="5.04057">
        <ele>469</ele>
        <time>2013-09-14T11:38:34Z</time>
      </trkpt>
      <trkpt lat="45.20008" lon="5.04045">
        <ele>469</ele>
        <time>2013-09-14T11:38:37Z</time>
      </trkpt>
      <trkpt lat="45.20005" lon="5.04029">
        <ele>470</ele>
        <time>2013-09-14T11:38:41Z</time>
      </trkpt>
      <trkpt lat="45.20005" lon="5.04017">
        <ele>470</ele>
        <time>2013-09-14T11:38:45Z</time>
      </trkpt>
      <trkpt lat="45.20008" lon="5.04007">
        <ele>471</ele>
        <time>2013-09-14T11:38:48Z</time>
      </trkpt>
      <trkpt lat="45.20012" lon="5.03992">
        <ele>471</ele>
        <time>2013-09-14T11:38:52Z</time>
      </trkpt>
      <trkpt lat="45.20015" lon="5.03982">
        <ele>471</ele>
        <time>2013-09-14T11:38:55Z</time>
      </trkpt>
      <trkpt lat="45.20021" lon="5.03971">
        <ele>473</ele>
        <time>2013-09-14T11:38:59Z</time>
      </trkpt>
      <trkpt lat="45.20025" lon="5.03963">
        <ele>472</ele>
        <time>2013-09-14T11:39:02Z</time>
      </trkpt>
      <trkpt lat="45.20033" lon="5.03955">
        <ele>474</ele>
        <time>2013-09-14T11:39:06Z</time>
      </trkpt>
      <trkpt lat="45.20039" lon="5.03949">
        <ele>474</ele>
        <time>2013-09-14T11:39:09Z</time>
      </trkpt>
      <trkpt lat="45.20047" lon="5.03941">
        <ele>474</ele>
        <time>2013-09-14T11:39:13Z</time>
      </trkpt>
      <trkpt lat="45.20054" lon="5.03936">
        <ele>474</ele>
        <time>2013-09-14T11:39:16Z</time>
      </trkpt>
      <trkpt lat="45.20062" lon="5.03928">
        <ele>475</ele>
        <time>2013-09-14T11:39:20Z</time>
      </trkpt>
      <trkpt lat="45.20068" lon="5.03922">
        <ele>476</ele>
        <time>2013-09-14T11:39:23Z</time>
      </trkpt>
      <trkpt lat="45.20077" lon="5.03913">
        <ele>477</ele>
        <time>2013-09-14T11:39:27Z</time>
      </trkpt>
      <trkpt lat="45.20083" lon="5.03906">
        <ele>477</ele>
        <time>2013-09-14T11:39:30Z</time>
      </trkpt>
      <trkpt lat="45.20092" lon="5.03897">
        <ele>477</ele>
        <time>2013-09-14T11:39:34Z</time>
      </trkpt>
      <trkpt lat="45.20099" lon="5.03891">
        <ele>477</ele>
        <time>2013-09-14T11:39:37Z</time>
      </trkpt>
      <trkpt lat="45.20108" lon="5.03882">
        <ele>478</ele>
        <time>2013-09-14T11:39:41Z</time>
      </trkpt>
      <trkpt lat="45.20115" lon="5.03875">
        <ele>478</ele>
        <time>2013-09-14T11:39:44Z</time>
      </trkpt>
      <trkpt lat="45.20123" lon="5.03866">
        <ele>478</ele>
        <time>2013-09-14T11:39:48Z</time>
      </trkpt>
      <trkpt lat="45.2013" lon="5.0386">
        <ele>479</ele>
        <time>2013-09-14T11:39:51Z</time>
      </trkpt>
      <trkpt lat="45.20138" lon="5.03851">
        <ele>479</ele>
        <time>2013-09-14T11:39:55Z</time>
      </trkpt>
      <trkpt lat="45.20145" lon="5.03844">
        <ele>479</ele>
        <time>2013-09-14T11:39:58Z</time>
      </trkpt>
      <trkpt lat="45.20155" lon="5.03835">
        <ele>480</ele>
        <time>2013-09-14T11:40:02Z</time>
      </trkpt>
      <trkpt lat="45.20162" lon="5.03829">
        <ele>481</ele>
        <time>2013-09-14T11:40:05Z</time>
      </trkpt>
      <trkpt lat="45.20171" lon="5.03821">
        <ele>481</ele>
        <time>2013-09-14T11:40:09Z</time>
      </trkpt>
      <trkpt lat="45.20178" lon="5.03814">
        <ele>482</ele>
        <time>2013-09-14T11:40:12Z</time>
      </trkpt>
      <trkpt lat="45.20187" lon="5.03804">
        <ele>482</ele>
        <time>2013-09-14T11:40:16Z</time>
      </trkpt>
      <trkpt lat="45.20193" lon="5.03798">
        <ele>482</ele>
        <time>2013-09-14T11:40:19Z</time>
      </trkpt>
      <trkpt lat="45.20202" lon="5.0379">
        <ele>483</ele>
        <time>2013-09-14T11:40:23Z</time>
      </trkpt>
      <trkpt lat="45.20211" lon="5.03781">
        <ele>483</ele>
        <time>2013-09-14T11:40:27Z</time>
      </trkpt>
      <trkpt lat="45.20217" lon="5.03774">
        <ele>484</ele>
        <time>2013-09-14T11:40:30Z</time>
      </trkpt>
      <trkpt lat="45.20226" lon="5.03764">
        <ele>484</ele>
        <time>2013-09-14T11:40:34Z</time>
      </trkpt>
      <trkpt lat="45.20232" lon="5.03757">
        <ele>485</ele>
        <time>2013-09-14T11:40:37Z</time>
      </trkpt>
      <trkpt lat="45.20242" lon="5.03749">
        <ele>485</ele>
        <time>2013-09-14T11:40:41Z</time>
      </trkpt>
      <trkpt lat="45.20249" lon="5.03742">
        <ele>486</ele>
        <time>2013-09-14T11:40:44Z</time>
      </trkpt>
      <trkpt lat="45.2026" lon="5.03733">
        <ele>485</ele>
        <time>2013-09-14T11:40:48Z</time>
      </trkpt>
      <trkpt lat="45.20267" lon="5.03725">
        <ele>486</ele>
        <time>2013-09-14T11:40:51Z</time>
      </trkpt>
      <trkpt lat="45.20277" lon="5.03715">
        <ele>486</ele>
        <time>2013-09-14T11:40:55Z</time>
      </trkpt>
      <trkpt lat="45.20285" lon="5.03707">
        <ele>486</ele>
        <time>2013-09-14T11:40:58Z</time>
      </trkpt>
      <trkpt lat="45.20296" lon="5.03698">
        <ele>487</ele>
        <time>2013-09-14T11:41:02Z</time>
      </trkpt>
      <trkpt lat="45.20304" lon="5.0369">
        <ele>487</ele>
        <time>2013-09-14T11:41:05Z</time>
      </trkpt>
      <trkpt lat="45.20315" lon="5.0368">
        <ele>487</ele>
        <time>2013-09-14T11:41:09Z</time>
      </trkpt>
      <trkpt lat="45.20322" lon="5.03672">
        <ele>487</ele>
        <time>2013-09-14T11:41:12Z</time>
      </trkpt>
      <trkpt lat="45.20333" lon="5.03662">
        <ele>487</ele>
        <time>2013-09-14T11:41:16Z</time>
      </trkpt>
      <trkpt lat="45.2034" lon="5.03654">
        <ele>487</ele>
        <time>2013-09-14T11:41:19Z</time>
      </trkpt>
      <trkpt lat="45.2035" lon="5.03645">
        <ele>488</ele>
        <time>2013-09-14T11:41:23Z</time>
      </trkpt>
      <trkpt lat="45.20357" lon="5.03638">
        <ele>489</ele>
        <time>2013-09-14T11:41:26Z</time>
      </trkpt>
      <trkpt lat="45.20367" lon="5.03628">
        <ele>489</ele>
        <time>2013-09-14T11:41:30Z</time>
      </trkpt>
      <trkpt lat="45.20376" lon="5.0362">
        <ele>489</ele>
        <time>2013-09-14T11:41:33Z</time>
      </trkpt>
      <trkpt lat="45.20388" lon="5.0361">
        <ele>490</ele>
        <time>2013-09-14T11:41:37Z</time>
      </trkpt>
      <trkpt lat="45.20397" lon="5.03604">
        <ele>490</ele>
        <time>2013-09-14T11:41:40Z</time>
      </trkpt>
      <trkpt lat="45.2041" lon="5.03599">
        <ele>490</ele>
        <time>2013-09-14T11:41:44Z</time>
      </trkpt>
      <trkpt lat="45.20421" lon="5.03597">
        <ele>491</ele>
        <time>2013-09-14T11:41:47Z</time>
      </trkpt>
      <trkpt lat="45.20434" lon="5.03596">
        <ele>491</ele>
        <time>2013-09-14T11:41:51Z</time>
      </trkpt>
      <trkpt lat="45.20443" lon="5.03596">
        <ele>491</ele>
        <time>2013-09-14T11:41:54Z</time>
      </trkpt>
      <trkpt lat="45.20455" lon="5.03597">
        <ele>492</ele>
        <time>2013-09-14T11:41:58Z</time>
      </trkpt>
      <trkpt lat="45.20467" lon="5.03599">
        <ele>493</ele>
        <time>2013-09-14T11:42:02Z</time>
      </trkpt>
      <trkpt lat="45.20477" lon="5.03601">
        <ele>493</ele>
        <time>2013-09-14T11:42:05Z</time>
      </trkpt>
      <trkpt lat="45.20488" lon="5.03602">
        <ele>494</ele>
        <time>2013-09-14T11:42:09Z</time>
      </trkpt>
      <trkpt lat="45.20498" lon="5.03604">
        <ele>495</ele>
        <time>2013-09-14T11:42:12Z</time>
      </trkpt>
      <trkpt lat="45.2051" lon="5.03607">
        <ele>494</ele>
        <time>2013-09-14T11:42:16Z</time>
      </trkpt>
      <trkpt lat="45.2052" lon="5.03608">
        <ele>494</ele>
        <time>2013-09-14T11:42:19Z</time>
      </trkpt>
      <trkpt lat="45.20531" lon="5.0361">
        <ele>496</ele>
        <time>2013-09-14T11:42:23Z</time>
      </trkpt>
      <trkpt lat="45.2054" lon="5.03612">
        <ele>496</ele>
        <time>2013-09-14T11:42:26Z</time>
      </trkpt>
      <trkpt lat="45.20552" lon="5.03614">
        <ele>496</ele>
        <time>2013-09-14T11:42:30Z</time>
      </trkpt>
      <trkpt lat="45.20561" lon="5.03615">
        <ele>497</ele>
        <time>2013-09-14T11:42:33Z</time>
      </trkpt>
      <trkpt lat="45.20573" lon="5.03615">
        <ele>498</ele>
        <time>2013-09-14T11:42:37Z</time>
      </trkpt>
      <trkpt lat="45.20581" lon="5.03615">
        <ele>497</ele>
        <time>2013-09-14T11:42:40Z</time>
      </trkpt>
      <trkpt lat="45.20593" lon="5.03614">
        <ele>498</ele>
        <time>2013-09-14T11:42:44Z</time>
      </trkpt>
      <trkpt lat="45.20601" lon="5.03613">
        <ele>499</ele>
        <time>2013-09-14T11:42:47Z</time>
      </trkpt>
      <trkpt lat="45.20611" lon="5.0361">
        <ele>499</ele>
        <time>2013-09-14T11:42:51Z</time>
      </trkpt>
      <trkpt lat="45.20619" lon="5.03608">
        <ele>500</ele>
        <time>2013-09-14T11:42:54Z</time>
      </trkpt>
      <trkpt lat="45.2063" lon="5.03604">
        <ele>501</ele>
        <time>2013-09-14T11:42:58Z</time>
      </trkpt>
      <trkpt lat="45.2064" lon="5.03602">
        <ele>501</ele>
        <time>2013-09-14T11:43:01Z</time>
      </trkpt>
      <trkpt lat="45.20653" lon="5.03596">
        <ele>501</ele>
        <time>2013-09-14T11:43:05Z</time>
      </trkpt>
      <trkpt lat="45.20663" lon="5.03592">
        <ele>502</ele>
        <time>2013-09-14T11:43:08Z</time>
      </trkpt>
      <trkpt lat="45.20674" lon="5.03586">
        <ele>502</ele>
        <time>2013-09-14T11:43:12Z</time>
      </trkpt>
      <trkpt lat="45.20683" lon="5.0358">
        <ele>503</ele>
        <time>2013-09-14T11:43:15Z</time>
      </trkpt>
      <trkpt lat="45.20695" lon="5.03574">
        <ele>503</ele>
        <time>2013-09-14T11:43:19Z</time>
      </trkpt>
      <trkpt lat="45.20703" lon="5.0357">
        <ele>503</ele>
        <time>2013-09-14T11:43:22Z</time>
      </trkpt>
      <trkpt lat="45.20715" lon="5.03564">
        <ele>504</ele>
        <time>2013-09-14T11:43:26Z</time>
      </trkpt>
      <trkpt lat="45.20722" lon="5.0356">
        <ele>505</ele>
        <time>2013-09-14T11:43:29Z</time>
      </trkpt>
      <trkpt lat="45.20733" lon="5.03554">
        <ele>504</ele>
        <time>2013-09-14T11:43:33Z</time>
      </trkpt>
      <trkpt lat="45.20742" lon="5.03551">
        <ele>505</ele>
        <time>2013-09-14T11:43:36Z</time>
      </trkpt>
      <trkpt lat="45.20753" lon="5.03546">
        <ele>505</ele>
        <time>2013-09-14T11:43:40Z</time>
      </trkpt>
      <trkpt lat="45.20764" lon="5.0354">
        <ele>505</ele>
        <time>2013-09-14T11:43:44Z</time>
      </trkpt>
      <trkpt lat="45.20773" lon="5.03535">
        <ele>506</ele>
        <time>2013-09-14T11:43:47Z</time>
      </trkpt>
      <trkpt lat="45.20785" lon="5.03528">
        <ele>506</ele>
        <time>2013-09-14T11:43:51Z</time>
      </trkpt>
      <trkpt lat="45.20794" lon="5.03523">
        <ele>507</ele>
        <time>2013-09-14T11:43:54Z</time>
      </trkpt>
      <trkpt lat="45.20806" lon="5.03517">
        <ele>507</ele>
        <time>2013-09-14T11:43:58Z</time>
      </trkpt>
      <trkpt lat="45.20815" lon="5.03512">
        <ele>507</ele>
        <time>2013-09-14T11:44:01Z</time>
      </trkpt>
      <trkpt lat="45.20827" lon="5.03507">
        <ele>508</ele>
        <time>2013-09-14T11:44:05Z</time>
      </trkpt>
      <trkpt lat="45.20835" lon="5.03502">
        <ele>509</ele>
        <time>2013-09-14T11:44:08Z</time>
      </trkpt>
      <trkpt lat="45.20847" lon="5.03494">
        <ele>509</ele>
        <time>2013-09-14T11:44:12Z</time>
      </trkpt>
      <trkpt lat="45.20855" lon="5.03488">
        <ele>509</ele>
        <time>2013-09-14T11:44:15Z</time>
      </trkpt>
      <trkpt lat="45.20864" lon="5.03477">
        <ele>510</ele>
        <time>2013-09-14T11:44:19Z</time>
      </trkpt>
      <trkpt lat="45.20871" lon="5.03467">
        <ele>510</ele>
        <time>2013-09-14T11:44:22Z</time>
      </trkpt>
      <trkpt lat="45.20878" lon="5.03454">
        <ele>510</ele>
        <time>2013-09-14T11:44:26Z</time>
      </trkpt>
      <trkpt lat="45.20883" lon="5.03441">
        <ele>510</ele>
        <time>2013-09-14T11:44:29Z</time>
      </trkpt>
      <trkpt lat="45.20885" lon="5.03424">
        <ele>511</ele>
        <time>2013-09-14T11:44:33Z</time>
      </trkpt>
      <trkpt lat="45.20886" lon="5.03408">
        <ele>511</ele>
        <time>2013-09-14T11:44:36Z</time>
      </trkpt>
      <trkpt lat="45.20881" lon="5.03382">
        <ele>511</ele>
        <time>2013-09-14T11:44:40Z</time>
      </trkpt>
      <trkpt lat="45.20875" lon="5.03365">
        <ele>511</ele>
        <time>2013-09-14T11:44:43Z</time>
      </trkpt>
      <trkpt lat="45.20866" lon="5.03341">
        <ele>511</ele>
        <time>2013-09-14T11:44:47Z</time>
      </trkpt>
      <trkpt lat="45.20862" lon="5.0332">
        <ele>511</ele>
        <time>2013-09-14T11:44:50Z</time>
      </trkpt>
      <trkpt lat="45.20862" lon="5.03292">
        <ele>511</ele>
        <time>2013-09-14T11:44:54Z</time>
      </trkpt>
      <trkpt lat="45.20865" lon="5.03271">
        <ele>511</ele>
        <time>2013-09-14T11:44:57Z</time>
      </trkpt>
      <trkpt lat="45.2087" lon="5.03241">
        <ele>512</ele>
        <time>2013-09-14T11:45:01Z</time>
      </trkpt>
      <trkpt lat="45.20875" lon="5.03222">
        <ele>512</ele>
        <time>2013-09-14T11:45:04Z</time>
      </trkpt>
      <trkpt lat="45.20881" lon="5.03199">
        <ele>513</ele>
        <time>2013-09-14T11:45:08Z</time>
      </trkpt>
      <trkpt lat="45.20884" lon="5.03186">
        <ele>513</ele>
        <time>2013-09-14T11:45:11Z</time>
      </trkpt>
      <trkpt lat="45.20889" lon="5.03173">
        <ele>514</ele>
        <time>2013-09-14T11:45:15Z</time>
      </trkpt>
      <trkpt lat="45.20896" lon="5.03163">
        <ele>515</ele>
        <time>2013-09-14T11:45:19Z</time>
      </trkpt>
      <trkpt lat="45.20903" lon="5.03157">
        <ele>516</ele>
        <time>2013-09-14T11:45:22Z</time>
      </trkpt>
      <trkpt lat="45.20912" lon="5.03151">
        <ele>517</ele>
        <time>2013-09-14T11:45:26Z</time>
      </trkpt>
      <trkpt lat="45.20919" lon="5.03147">
        <ele>516</ele>
        <time>2013-09-14T11:45:29Z</time>
      </trkpt>
      <trkpt lat="45.20927" lon="5.03142">
        <ele>517</ele>
        <time>2013-09-14T11:45:33Z</time>
      </trkpt>
      <trkpt lat="45.20935" lon="5.03138">
        <ele>517</ele>
        <time>2013-09-14T11:45:36Z</time>
      </trkpt>
      <trkpt lat="45.20945" lon="5.03134">
        <ele>518</ele>
        <time>2013-09-14T11:45:40Z</time>
      </trkpt>
      <trkpt lat="45.20952" lon="5.03131">
        <ele>519</ele>
        <time>2013-09-14T11:45:43Z</time>
      </trkpt>
      <trkpt lat="45.20963" lon="5.03127">
        <ele>519</ele>
        <time>2013-09-14T11:45:47Z</time>
      </trkpt>
      <trkpt lat="45.20971" lon="5.03124">
        <ele>520</ele>
        <time>2013-09-14T11:45:50Z</time>
      </trkpt>
      <trkpt lat="45.20981" lon="5.0312">
        <ele>520</ele>
        <time>2013-09-14T11:45:54Z</time>
      </trkpt>
      <trkpt lat="45.20988" lon="5.03116">
        <ele>521</ele>
        <time>2013-09-14T11:45:57Z</time>
      </trkpt>
      <trkpt lat="45.20999" lon="5.03113">
        <ele>521</ele>
        <time>2013-09-14T11:46:01Z</time>
      </trkpt>
      <trkpt lat="45.21007" lon="5.03109">
        <ele>521</ele>
        <time>2013-09-14T11:46:04Z</time>
      </trkpt>
      <trkpt lat="45.21019" lon="5.03104">
        <ele>522</ele>
        <time>2013-09-14T11:46:08Z</time>
      </trkpt>
      <trkpt lat="45.21027" lon="5.03101">
        <ele>522</ele>
        <time>2013-09-14T11:46:11Z</time>
      </trkpt>
      <trkpt lat="45.21037" lon="5.03097">
        <ele>523</ele>
        <time>2013-09-14T11:46:15Z</time>
      </trkpt>
      <trkpt lat="45.21045" lon="5.03094">
        <ele>524</ele>
        <time>2013-09-14T11:46:18Z</time>
      </trkpt>
      <trkpt lat="45.21056" lon="5.03091">
        <ele>524</ele>
        <time>2013-09-14T11:46:22Z</time>
      </trkpt>
      <trkpt lat="45.21063" lon="5.03089">
        <ele>525</ele>
        <time>2013-09-14T11:46:25Z</time>
      </trkpt>
      <trkpt lat="45.21073" lon="5.03088">
        <ele>525</ele>
        <time>2013-09-14T11:46:29Z</time>
      </trkpt>
      <trkpt lat="45.21081" lon="5.03088">
        <ele>525</ele>
        <time>2013-09-14T11:46:32Z</time>
      </trkpt>
      <trkpt lat="45.21091" lon="5.03089">
        <ele>526</ele>
        <time>2013-09-14T11:46:36Z</time>
      </trkpt>
      <trkpt lat="45.21099" lon="5.03091">
        <ele>526</ele>
        <time>2013-09-14T11:46:39Z</time>
      </trkpt>
      <trkpt lat="45.21109" lon="5.03093">
        <ele>527</ele>
        <time>2013-09-14T11:46:43Z</time>
      </trkpt>
      <trkpt lat="45.21117" lon="5.03096">
        <ele>527</ele>
        <time>2013-09-14T11:46:46Z</time>
      </trkpt>
      <trkpt lat="45.21127" lon="5.031">
        <ele>528</ele>
        <time>2013-09-14T11:46:50Z</time>
      </trkpt>
      <trkpt lat="45.21137" lon="5.03104">
        <ele>529</ele>
        <time>2013-09-14T11:46:54Z</time>
      </trkpt>
      <trkpt lat="45.21145" lon="5.03107">
        <ele>529</ele>
        <time>2013-09-14T11:46:57Z</time>
      </trkpt>
      <trkpt lat="45.21154" lon="5.0311">
        <ele>529</ele>
        <time>2013-09-14T11:47:01Z</time>
      </trkpt>
      <trkpt lat="45.21162" lon="5.03113">
        <ele>530</ele>
        <time>2013-09-14T11:47:04Z</time>
      </trkpt>
      <trkpt lat="45.21172" lon="5.03118">
        <ele>531</ele>
        <time>2013-09-14T11:47:08Z</time>
      </trkpt>
      <trkpt lat="45.2118" lon="5.03122">
        <ele>531</ele>
        <time>2013-09-14T11:47:11Z</time>
      </trkpt>
      <trkpt lat="45.21191" lon="5.03126">
        <ele>532</ele>
        <time>2013-09-14T11:47:15Z</time>
      </trkpt>
      <trkpt lat="45.21198" lon="5.03129">
        <ele>532</ele>
        <time>2013-09-14T11:47:18Z</time>
      </trkpt>
      <trkpt lat="45.21208" lon="5.03134">
        <ele>532</ele>
        <time>2013-09-14T11:47:22Z</time>
      </trkpt>
      <trkpt lat="45.21215" lon="5.03136">
        <ele>533</ele>
        <time>2013-09-14T11:47:25Z</time>
      </trkpt>
      <trkpt lat="45.21224" lon="5.0314">
        <ele>534</ele>
        <time>2013-09-14T11:47:29Z</time>
      </trkpt>
      <trkpt lat="45.2123" lon="5.03144">
        <ele>534</ele>
        <time>2013-09-14T11:47:32Z</time>
      </trkpt>
      <trkpt lat="45.21241" lon="5.03149">
        <ele>534</ele>
        <time>2013-09-14T11:47:36Z</time>
      </trkpt>
      <trkpt lat="45.21249" lon="5.03152">
        <ele>535</ele>
        <time>2013-09-14T11:47:39Z</time>
      </trkpt>
      <trkpt lat="45.21258" lon="5.03157">
        <ele>536</ele>
        <time>2013-09-14T11:47:43Z</time>
      </trkpt>
      <trkpt lat="45.21265" lon="5.0316">
        <ele>535</ele>
        <time>2013-09-14T11:47:46Z</time>
      </trkpt>
      <trkpt lat="45.21275" lon="5.03164">
        <ele>537</ele>
        <time>2013-09-14T11:47:50Z</time>
      </trkpt>
      <trkpt lat="45.21283" lon="5.03165">
        <ele>538</ele>
        <time>2013-09-14T11:47:53Z</time>
      </trkpt>
      <trkpt lat="45.21293" lon="5.03165">
        <ele>537</ele>
        <time>2013-09-14T11:47:57Z</time>
      </trkpt>
      <trkpt lat="45.21301" lon="5.03163">
        <ele>537</ele>
        <time>2013-09-14T11:48:00Z</time>
      </trkpt>
      <trkpt lat="45.21311" lon="5.03161">
        <ele>538</ele>
        <time>2013-09-14T11:48:04Z</time>
      </trkpt>
      <trkpt lat="45.21319" lon="5.03159">
        <ele>538</ele>
        <time>2013-09-14T11:48:07Z</time>
      </trkpt>
      <trkpt lat="45.2133" lon="5.03155">
        <ele>539</ele>
        <time>2013-09-14T11:48:11Z</time>
      </trkpt>
      <trkpt lat="45.21338" lon="5.03153">
        <ele>540</ele>
        <time>2013-09-14T11:48:14Z</time>
      </trkpt>
      <trkpt lat="45.21346" lon="5.03149">
        <ele>540</ele>
        <time>2013-09-14T11:48:18Z</time>
      </trkpt>
      <trkpt lat="45.21354" lon="5.03148">
        <ele>541</ele>
        <time>2013-09-14T11:48:21Z</time>
      </trkpt>
      <trkpt lat="45.21364" lon="5.03144">
        <ele>542</ele>
        <time>2013-09-14T11:48:25Z</time>
      </trkpt>
      <trkpt lat="45.21371" lon="5.03142">
        <ele>541</ele>
        <time>2013-09-14T11:48:28Z</time>
      </trkpt>
      <trkpt lat="45.2138" lon="5.03138">
        <ele>542</ele>
        <time>2013-09-14T11:48:32Z</time>
      </trkpt>
      <trkpt lat="45.21388" lon="5.03134">
        <ele>542</ele>
        <time>2013-09-14T11:48:36Z</time>
      </trkpt>
      <trkpt lat="45.21395" lon="5.03131">
        <ele>543</ele>
        <time>2013-09-14T11:48:39Z</time>
      </trkpt>
      <trkpt lat="45.21407" lon="5.03128">
        <ele>543</ele>
        <time>2013-09-14T11:48:43Z</time>
      </trkpt>
      <trkpt lat="45.21415" lon="5.03125">
        <ele>544</ele>
        <time>2013-09-14T11:48:46Z</time>
      </trkpt>
      <trkpt lat="45.21428" lon="5.03121">
        <ele>544</ele>
        <time>2013-09-14T11:48:50Z</time>
      </trkpt>
      <trkpt lat="45.21435" lon="5.03119">
        <ele>544</ele>
        <time>2013-09-14T11:48:53Z</time>
      </trkpt>
      <trkpt lat="45.21446" lon="5.03117">
        <ele>545</ele>
        <time>2013-09-14T11:48:57Z</time>
      </trkpt>
      <trkpt lat="45.21455" lon="5.03115">
        <ele>546</ele>
        <time>2013-09-14T11:49:00Z</time>
      </trkpt>
      <trkpt lat="45.21465" lon="5.03113">
        <ele>546</ele>
        <time>2013-09-14T11:49:04Z</time>
      </trkpt>
      <trkpt lat="45.21473" lon="5.03112">
        <ele>546</ele>
        <time>2013-09-14T11:49:07Z</time>
      </trkpt>
      <trkpt lat="45.21486" lon="5.03114">
        <ele>546</ele>
        <time>2013-09-14T11:49:11Z</time>
      </trkpt>
      <trkpt lat="45.21496" lon="5.03116">
        <ele>546</ele>
        <time>2013-09-14T11:49:14Z</time>
      </trkpt>
      <trkpt lat="45.2151" lon="5.0312">
        <ele>547</ele>
        <time>2013-09-14T11:49:18Z</time>
      </trkpt>
      <trkpt lat="45.21522" lon="5.03124">
        <ele>547</ele>
        <time>2013-09-14T11:49:21Z</time>
      </trkpt>
      <trkpt lat="45.21539" lon="5.0313">
        <ele>546</ele>
        <time>2013-09-14T11:49:25Z</time>
      </trkpt>
      <trkpt lat="45.21552" lon="5.03134">
        <ele>547</ele>
        <time>2013-09-14T11:49:28Z</time>
      </trkpt>
      <trkpt lat="45.21567" lon="5.03138">
        <ele>547</ele>
        <time>2013-09-14T11:49:32Z</time>
      </trkpt>
      <trkpt lat="45.21576" lon="5.03143">
        <ele>547</ele>
        <time>2013-09-14T11:49:35Z</time>
      </trkpt>
      <trkpt lat="45.21592" lon="5.03149">
        <ele>546</ele>
        <time>2013-09-14T11:49:39Z</time>
      </trkpt>
      <trkpt lat="45.216" lon="5.03152">
        <ele>546</ele>
        <time>2013-09-14T11:49:42Z</time>
      </trkpt>
      <trkpt lat="45.21613" lon="5.03157">
        <ele>546</ele>
        <time>2013-09-14T11:49:46Z</time>
      </trkpt>
      <trkpt lat="45.21626" lon="5.03159">
        <ele>547</ele>
        <time>2013-09-14T11:49:49Z</time>
      </trkpt>
      <trkpt lat="45.21644" lon="5.03161">
        <ele>547</ele>
        <time>2013-09-14T11:49:53Z</time>
      </trkpt>
      <trkpt lat="45.21656" lon="5.03161">
        <ele>547</ele>
        <time>2013-09-14T11:49:56Z</time>
      </trkpt>
      <trkpt lat="45.21676" lon="5.03157">
        <ele>547</ele>
        <time>2013-09-14T11:50:00Z</time>
      </trkpt>
      <trkpt lat="45.21695" lon="5.03152">
        <ele>547</ele>
        <time>2013-09-14T11:50:03Z</time>
      </trkpt>
      <trkpt lat="45.21715" lon="5.03147">
        <ele>547</ele>
        <time>2013-09-14T11:50:07Z</time>
      </trkpt>
      <trkpt lat="45.21734" lon="5.03144">
        <ele>548</ele>
        <time>2013-09-14T11:50:11Z</time>
      </trkpt>
      <trkpt lat="45.21746" lon="5.0314">
        <ele>548</ele>
        <time>2013-09-14T11:50:14Z</time>
      </trkpt>
      <trkpt lat="45.21765" lon="5.03137">
        <ele>548</ele>
        <time>2013-09-14T11:50:18Z</time>
      </trkpt>
      <trkpt lat="45.21782" lon="5.03134">
        <ele>547</ele>
        <time>2013-09-14T11:50:21Z</time>
      </trkpt>
      <trkpt lat="45.21802" lon="5.03129">
        <ele>547</ele>
        <time>2013-09-14T11:50:25Z</time>
      </trkpt>
      <trkpt lat="45.21815" lon="5.03125">
        <ele>548</ele>
        <time>2013-09-14T11:50:28Z</time>
      </trkpt>
      <trkpt lat="45.21834" lon="5.03119">
        <ele>548</ele>
        <time>2013-09-14T11:50:32Z</time>
      </trkpt>
      <trkpt lat="45.2185" lon="5.03116">
        <ele>547</ele>
        <time>2013-09-14T11:50:35Z</time>
      </trkpt>
      <trkpt lat="45.21869" lon="5.03111">
        <ele>548</ele>
        <time>2013-09-14T11:50:39Z</time>
      </trkpt>
      <trkpt lat="45.21882" lon="5.03108">
        <ele>547</ele>
        <time>2013-09-14T11:50:42Z</time>
      </trkpt>
      <trkpt lat="45.21893" lon="5.03107">
        <ele>547</ele>
        <time>2013-09-14T11:50:46Z</time>
      </trkpt>
      <trkpt lat="45.21893" lon="5.03107">
        <ele>547</ele>
        <time>2013-09-14T11:50:49Z</time>
      </trkpt>
      <trkpt lat="45.21893" lon="5.03107">
        <ele>546</ele>
        <time>2013-09-14T11:50:53Z</time>
      </trkpt>
      <trkpt lat="45.21893" lon="5.03107">
        <ele>547</ele>
        <time>2013-09-14T11:50:56Z</time>
      </trkpt>
      <trkpt lat="45.21893" lon="5.03107">
        <ele>547</ele>
        <time>2013-09-14T11:51:00Z</time>
      </trkpt>
      <trkpt lat="45.21893" lon="5.03107">
        <ele>547</ele>
        <time>2013-09-14T11:51:03Z</time>
      </trkpt>
      <trkpt lat="45.21893" lon="5.03107">
        <ele>546</ele>
        <time>2013-09-14T11:51:07Z</time>
      </trkpt>
      <trkpt lat="45.21904" lon="5.03102">
        <ele>547</ele>
        <time>2013-09-14T11:51:10Z</time>
      </trkpt>
      <trkpt lat="45.2191" lon="5.03098">
        <ele>547</ele>
        <time>2013-09-14T11:51:14Z</time>
      </trkpt>
      <trkpt lat="45.21916" lon="5.03095">
        <ele>547</ele>
        <time>2013-09-14T11:51:17Z</time>
      </trkpt>
      <trkpt lat="45.21927" lon="5.03088">
        <ele>547</ele>
        <time>2013-09-14T11:51:21Z</time>
      </trkpt>
      <trkpt lat="45.21938" lon="5.03081">
        <ele>547</ele>
        <time>2013-09-14T11:51:24Z</time>
      </trkpt>
      <trkpt lat="45.21953" lon="5.0307">
        <ele>547</ele>
        <time>2013-09-14T11:51:28Z</time>
      </trkpt>
      <trkpt lat="45.21963" lon="5.03063">
        <ele>547</ele>
        <time>2013-09-14T11:51:31Z</time>
      </trkpt>
      <trkpt lat="45.21975" lon="5.03051">
        <ele>548</ele>
        <time>2013-09-14T11:51:35Z</time>
      </trkpt>
      <trkpt lat="45.21987" lon="5.03039">
        <ele>547</ele>
        <time>2013-09-14T11:51:38Z</time>
      </trkpt>
      <trkpt lat="45.22002" lon="5.03024">
        <ele>547</ele>
        <time>2013-09-14T11:51:42Z</time>
      </trkpt>
      <trkpt lat="45.22013" lon="5.03014">
        <ele>547</ele>
        <time>2013-09-14T11:51:45Z</time>
      </trkpt>
      <trkpt lat="45.22029" lon="5.02999">
        <ele>547</ele>
        <time>2013-09-14T11:51:49Z</time>
      </trkpt>
      <trkpt lat="45.22048" lon="5.02982">
        <ele>547</ele>
        <time>2013-09-14T11:51:53Z</time>
      </trkpt>
      <trkpt lat="45.22062" lon="5.02968">
        <ele>546</ele>
        <time>2013-09-14T11:51:56Z</time>
      </trkpt>
      <trkpt lat="45.22081" lon="5.02951">
        <ele>546</ele>
        <time>2013-09-14T11:52:00Z</time>
      </trkpt>
      <trkpt lat="45.22094" lon="5.02937">
        <ele>546</ele>
        <time>2013-09-14T11:52:03Z</time>
      </trkpt>
      <trkpt lat="45.22113" lon="5.0292">
        <ele>545</ele>
        <time>2013-09-14T11:52:07Z</time>
      </trkpt>
      <trkpt lat="45.22128" lon="5.02906">
        <ele>545</ele>
        <time>2013-09-14T11:52:10Z</time>
      </trkpt>
      <trkpt lat="45.22151" lon="5.02888">
        <ele>545</ele>
        <time>2013-09-14T11:52:14Z</time>
      </trkpt>
      <trkpt lat="45.22168" lon="5.02877">
        <ele>545</ele>
        <time>2013-09-14T11:52:17Z</time>
      </trkpt>
      <trkpt lat="45.22191" lon="5.02867">
        <ele>544</ele>
        <time>2013-09-14T11:52:21Z</time>
      </trkpt>
      <trkpt lat="45.22211" lon="5.02861">
        <ele>544</ele>
        <time>2013-09-14T11:52:24Z</time>
      </trkpt>
      <trkpt lat="45.22237" lon="5.02855">
        <ele>545</ele>
        <time>2013-09-14T11:52:28Z</time>
      </trkpt>
      <trkpt lat="45.22257" lon="5.02851">
        <ele>544</ele>
        <time>2013-09-14T11:52:31Z</time>
      </trkpt>
      <trkpt lat="45.22285" lon="5.02847">
        <ele>543</ele>
        <time>2013-09-14T11:52:35Z</time>
      </trkpt>
      <trkpt lat="45.22306" lon="5.02844">
        <ele>542</ele>
        <time>2013-09-14T11:52:38Z</time>
      </trkpt>
      <trkpt lat="45.22332" lon="5.02839">
        <ele>543</ele>
        <time>2013-09-14T11:52:42Z</time>
      </trkpt>
      <trkpt lat="45.22352" lon="5.02837">
        <ele>542</ele>
        <time>2013-09-14T11:52:45Z</time>
      </trkpt>
      <trkpt lat="45.22377" lon="5.02833">
        <ele>542</ele>
        <time>2013-09-14T11:52:49Z</time>
      </trkpt>
      <trkpt lat="45.22395" lon="5.02829">
        <ele>542</ele>
        <time>2013-09-14T11:52:52Z</time>
      </trkpt>
      <trkpt lat="45.2242" lon="5.02825">
        <ele>541</ele>
        <time>2013-09-14T11:52:56Z</time>
      </trkpt>
      <trkpt lat="45.2244" lon="5.0282">
        <ele>541</ele>
        <time>2013-09-14T11:52:59Z</time>
      </trkpt>
      <trkpt lat="45.22467" lon="5.02807">
        <ele>539</ele>
        <time>2013-09-14T11:53:03Z</time>
      </trkpt>
      <trkpt lat="45.22486" lon="5.0279">
        <ele>538</ele>
        <time>2013-09-14T11:53:06Z</time>
      </trkpt>
      <trkpt lat="45.22508" lon="5.02761">
        <ele>538</ele>
        <time>2013-09-14T11:53:10Z</time>
      </trkpt>
      <trkpt lat="45.22521" lon="5.02734">
        <ele>537</ele>
        <time>2013-09-14T11:53:13Z</time>
      </trkpt>
      <trkpt lat="45.22539" lon="5.02698">
        <ele>536</ele>
        <time>2013-09-14T11:53:17Z</time>
      </trkpt>
      <trkpt lat="45.22554" lon="5.02669">
        <ele>536</ele>
        <time>2013-09-14T11:53:20Z</time>
      </trkpt>
      <trkpt lat="45.22575" lon="5.02627">
        <ele>533</ele>
        <time>2013-09-14T11:53:24Z</time>
      </trkpt>
      <trkpt lat="45.22606" lon="5.02595">
        <ele>531</ele>
        <time>2013-09-14T11:53:28Z</time>
      </trkpt>
      <trkpt lat="45.22636" lon="5.02585">
        <ele>530</ele>
        <time>2013-09-14T11:53:31Z</time>
      </trkpt>
      <trkpt lat="45.22676" lon="5.02581">
        <ele>528</ele>
        <time>2013-09-14T11:53:35Z</time>
      </trkpt>
      <trkpt lat="45.22708" lon="5.02577">
        <ele>527</ele>
        <time>2013-09-14T11:53:38Z</time>
      </trkpt>
      <trkpt lat="45.22751" lon="5.02568">
        <ele>525</ele>
        <time>2013-09-14T11:53:42Z</time>
      </trkpt>
      <trkpt lat="45.22783" lon="5.0256">
        <ele>523</ele>
        <time>2013-09-14T11:53:45Z</time>
      </trkpt>
      <trkpt lat="45.22828" lon="5.02548">
        <ele>521</ele>
        <time>2013-09-14T11:53:49Z</time>
      </trkpt>
      <trkpt lat="45.22862" lon="5.02539">
        <ele>519</ele>
        <time>2013-09-14T11:53:52Z</time>
      </trkpt>
      <trkpt lat="45.22909" lon="5.02536">
        <ele>517</ele>
        <time>2013-09-14T11:53:56Z</time>
      </trkpt>
      <trkpt lat="45.22944" lon="5.02546">
        <ele>514</ele>
        <time>2013-09-14T11:53:59Z</time>
      </trkpt>
      <trkpt lat="45.22986" lon="5.02575">
        <ele>513</ele>
        <time>2013-09-14T11:54:03Z</time>
      </trkpt>
      <trkpt lat="45.23017" lon="5.02601">
        <ele>511</ele>
        <time>2013-09-14T11:54:06Z</time>
      </trkpt>
      <trkpt lat="45.23059" lon="5.02635">
        <ele>508</ele>
        <time>2013-09-14T11:54:10Z</time>
      </trkpt>
      <trkpt lat="45.23085" lon="5.02667">
        <ele>506</ele>
        <time>2013-09-14T11:54:13Z</time>
      </trkpt>
      <trkpt lat="45.23115" lon="5.02718">
        <ele>504</ele>
        <time>2013-09-14T11:54:17Z</time>
      </trkpt>
      <trkpt lat="45.23138" lon="5.02754">
        <ele>503</ele>
        <time>2013-09-14T11:54:20Z</time>
      </trkpt>
      <trkpt lat="45.23178" lon="5.02788">
        <ele>500</ele>
        <time>2013-09-14T11:54:24Z</time>
      </trkpt>
      <trkpt lat="45.23211" lon="5.02804">
        <ele>498</ele>
        <time>2013-09-14T11:54:27Z</time>
      </trkpt>
      <trkpt lat="45.23257" lon="5.02822">
        <ele>496</ele>
        <time>2013-09-14T11:54:31Z</time>
      </trkpt>
      <trkpt lat="45.23292" lon="5.02835">
        <ele>494</ele>
        <time>2013-09-14T11:54:34Z</time>
      </trkpt>
      <trkpt lat="45.2334" lon="5.02849">
        <ele>492</ele>
        <time>2013-09-14T11:54:38Z</time>
      </trkpt>
      <trkpt lat="45.23376" lon="5.02859">
        <ele>490</ele>
        <time>2013-09-14T11:54:41Z</time>
      </trkpt>
      <trkpt lat="45.23423" lon="5.02874">
        <ele>488</ele>
        <time>2013-09-14T11:54:45Z</time>
      </trkpt>
      <trkpt lat="45.23456" lon="5.0289">
        <ele>486</ele>
        <time>2013-09-14T11:54:48Z</time>
      </trkpt>
      <trkpt lat="45.23495" lon="5.02926">
        <ele>483</ele>
        <time>2013-09-14T11:54:52Z</time>
      </trkpt>
      <trkpt lat="45.23524" lon="5.02961">
        <ele>480</ele>
        <time>2013-09-14T11:54:55Z</time>
      </trkpt>
      <trkpt lat="45.2356" lon="5.03009">
        <ele>478</ele>
        <time>2013-09-14T11:54:59Z</time>
      </trkpt>
      <trkpt lat="45.23599" lon="5.03049">
        <ele>475</ele>
        <time>2013-09-14T11:55:03Z</time>
      </trkpt>
      <trkpt lat="45.2363" lon="5.03074">
        <ele>473</ele>
        <time>2013-09-14T11:55:06Z</time>
      </trkpt>
      <trkpt lat="45.23673" lon="5.03108">
        <ele>469</ele>
        <time>2013-09-14T11:55:10Z</time>
      </trkpt>
      <trkpt lat="45.23704" lon="5.03136">
        <ele>467</ele>
        <time>2013-09-14T11:55:13Z</time>
      </trkpt>
      <trkpt lat="45.23737" lon="5.03188">
        <ele>467</ele>
        <time>2013-09-14T11:55:17Z</time>
      </trkpt>
      <trkpt lat="45.23759" lon="5.03227">
        <ele>464</ele>
        <time>2013-09-14T11:55:20Z</time>
      </trkpt>
      <trkpt lat="45.23798" lon="5.03265">
        <ele>462</ele>
        <time>2013-09-14T11:55:24Z</time>
      </trkpt>
      <trkpt lat="45.23831" lon="5.03282">
        <ele>460</ele>
        <time>2013-09-14T11:55:27Z</time>
      </trkpt>
      <trkpt lat="45.23876" lon="5.03283">
        <ele>459</ele>
        <time>2013-09-14T11:55:31Z</time>
      </trkpt>
      <trkpt lat="45.23907" lon="5.03282">
        <ele>458</ele>
        <time>2013-09-14T11:55:34Z</time>
      </trkpt>
      <trkpt lat="45.23947" lon="5.03293">
        <ele>456</ele>
        <time>2013-09-14T11:55:38Z</time>
      </trkpt>
      <trkpt lat="45.23973" lon="5.0331">
        <ele>454</ele>
        <time>2013-09-14T11:55:41Z</time>
      </trkpt>
      <trkpt lat="45.24008" lon="5.03322">
        <ele>454</ele>
        <time>2013-09-14T11:55:45Z</time>
      </trkpt>
      <trkpt lat="45.24033" lon="5.03323">
        <ele>453</ele>
        <time>2013-09-14T11:55:48Z</time>
      </trkpt>
      <trkpt lat="45.24063" lon="5.03321">
        <ele>454</ele>
        <time>2013-09-14T11:55:52Z</time>
      </trkpt>
      <trkpt lat="45.24084" lon="5.03319">
        <ele>454</ele>
        <time>2013-09-14T11:55:55Z</time>
      </trkpt>
      <trkpt lat="45.24112" lon="5.03317">
        <ele>452</ele>
        <time>2013-09-14T11:55:59Z</time>
      </trkpt>
      <trkpt lat="45.24132" lon="5.03315">
        <ele>451</ele>
        <time>2013-09-14T11:56:02Z</time>
      </trkpt>
      <trkpt lat="45.24159" lon="5.03313">
        <ele>450</ele>
        <time>2013-09-14T11:56:06Z</time>
      </trkpt>
      <trkpt lat="45.2418" lon="5.03311">
        <ele>450</ele>
        <time>2013-09-14T11:56:09Z</time>
      </trkpt>
      <trkpt lat="45.2421" lon="5.03309">
        <ele>449</ele>
        <time>2013-09-14T11:56:13Z</time>
      </trkpt>
      <trkpt lat="45.24236" lon="5.03307">
        <ele>447</ele>
        <time>2013-09-14T11:56:16Z</time>
      </trkpt>
      <trkpt lat="45.24273" lon="5.03303">
        <ele>446</ele>
        <time>2013-09-14T11:56:20Z</time>
      </trkpt>
      <trkpt lat="45.24301" lon="5.03292">
        <ele>444</ele>
        <time>2013-09-14T11:56:23Z</time>
      </trkpt>
      <trkpt lat="45.24334" lon="5.0326">
        <ele>443</ele>
        <time>2013-09-14T11:56:27Z</time>
      </trkpt>
      <trkpt lat="45.24357" lon="5.03231">
        <ele>442</ele>
        <time>2013-09-14T11:56:30Z</time>
      </trkpt>
      <trkpt lat="45.24397" lon="5.03206">
        <ele>440</ele>
        <time>2013-09-14T11:56:34Z</time>
      </trkpt>
      <trkpt lat="45.2443" lon="5.03196">
        <ele>438</ele>
        <time>2013-09-14T11:56:37Z</time>
      </trkpt>
      <trkpt lat="45.24473" lon="5.03184">
        <ele>435</ele>
        <time>2013-09-14T11:56:41Z</time>
      </trkpt>
      <trkpt lat="45.24517" lon="5.03171">
        <ele>434</ele>
        <time>2013-09-14T11:56:45Z</time>
      </trkpt>
      <trkpt lat="45.2455" lon="5.03156">
        <ele>431</ele>
        <time>2013-09-14T11:56:48Z</time>
      </trkpt>
      <trkpt lat="45.2459" lon="5.0312">
        <ele>429</ele>
        <time>2013-09-14T11:56:52Z</time>
      </trkpt>
      <trkpt lat="45.24614" lon="5.03084">
        <ele>427</ele>
        <time>2013-09-14T11:56:55Z</time>
      </trkpt>
      <trkpt lat="45.24645" lon="5.03034">
        <ele>424</ele>
        <time>2013-09-14T11:56:59Z</time>
      </trkpt>
      <trkpt lat="45.24671" lon="5.02998">
        <ele>422</ele>
        <time>2013-09-14T11:57:02Z</time>
      </trkpt>
      <trkpt lat="45.2472" lon="5.0297">
        <ele>418</ele>
        <time>2013-09-14T11:57:06Z</time>
      </trkpt>
      <trkpt lat="45.24756" lon="5.02954">
        <ele>416</ele>
        <time>2013-09-14T11:57:09Z</time>
      </trkpt>
      <trkpt lat="45.24801" lon="5.02922">
        <ele>412</ele>
        <time>2013-09-14T11:57:13Z</time>
      </trkpt>
      <trkpt lat="45.24827" lon="5.02881">
        <ele>410</ele>
        <time>2013-09-14T11:57:16Z</time>
      </trkpt>
      <trkpt lat="45.2485" lon="5.02817">
        <ele>406</ele>
        <time>2013-09-14T11:57:20Z</time>
      </trkpt>
      <trkpt lat="45.24859" lon="5.02766">
        <ele>404</ele>
        <time>2013-09-14T11:57:23Z</time>
      </trkpt>
      <trkpt lat="45.24855" lon="5.02693">
        <ele>400</ele>
        <time>2013-09-14T11:57:27Z</time>
      </trkpt>
      <trkpt lat="45.24851" lon="5.0264">
        <ele>398</ele>
        <time>2013-09-14T11:57:30Z</time>
      </trkpt>
      <trkpt lat="45.24848" lon="5.02582">
        <ele>394</ele>
        <time>2013-09-14T11:57:34Z</time>
      </trkpt>
      <trkpt lat="45.24859" lon="5.0255">
        <ele>392</ele>
        <time>2013-09-14T11:57:37Z</time>
      </trkpt>
      <trkpt lat="45.24896" lon="5.02538">
        <ele>388</ele>
        <time>2013-09-14T11:57:41Z</time>
      </trkpt>
      <trkpt lat="45.24919" lon="5.02565">
        <ele>386</ele>
        <time>2013-09-14T11:57:44Z</time>
      </trkpt>
      <trkpt lat="45.24932" lon="5.02617">
        <ele>383</ele>
        <time>2013-09-14T11:57:48Z</time>
      </trkpt>
      <trkpt lat="45.24944" lon="5.02656">
        <ele>383</ele>
        <time>2013-09-14T11:57:51Z</time>
      </trkpt>
      <trkpt lat="45.24966" lon="5.027">
        <ele>381</ele>
        <time>2013-09-14T11:57:55Z</time>
      </trkpt>
      <trkpt lat="45.24988" lon="5.02728">
        <ele>379</ele>
        <time>2013-09-14T11:57:58Z</time>
      </trkpt>
      <trkpt lat="45.25018" lon="5.02761">
        <ele>377</ele>
        <time>2013-09-14T11:58:02Z</time>
      </trkpt>
      <trkpt lat="45.25041" lon="5.02784">
        <ele>377</ele>
        <time>2013-09-14T11:58:05Z</time>
      </trkpt>
      <trkpt lat="45.25072" lon="5.02811">
        <ele>376</ele>
        <time>2013-09-14T11:58:09Z</time>
      </trkpt>
      <trkpt lat="45.25097" lon="5.02814">
        <ele>375</ele>
        <time>2013-09-14T11:58:12Z</time>
      </trkpt>
      <trkpt lat="45.25126" lon="5.02799">
        <ele>375</ele>
        <time>2013-09-14T11:58:16Z</time>
      </trkpt>
      <trkpt lat="45.2515" lon="5.02775">
        <ele>375</ele>
        <time>2013-09-14T11:58:20Z</time>
      </trkpt>
      <trkpt lat="45.25167" lon="5.02757">
        <ele>374</ele>
        <time>2013-09-14T11:58:23Z</time>
      </trkpt>
      <trkpt lat="45.25189" lon="5.02733">
        <ele>374</ele>
        <time>2013-09-14T11:58:27Z</time>
      </trkpt>
      <trkpt lat="45.25206" lon="5.02714">
        <ele>374</ele>
        <time>2013-09-14T11:58:30Z</time>
      </trkpt>
      <trkpt lat="45.2523" lon="5.02687">
        <ele>374</ele>
        <time>2013-09-14T11:58:34Z</time>
      </trkpt>
      <trkpt lat="45.25247" lon="5.02667">
        <ele>374</ele>
        <time>2013-09-14T11:58:37Z</time>
      </trkpt>
      <trkpt lat="45.25268" lon="5.02643">
        <ele>373</ele>
        <time>2013-09-14T11:58:41Z</time>
      </trkpt>
      <trkpt lat="45.25281" lon="5.02625">
        <ele>373</ele>
        <time>2013-09-14T11:58:44Z</time>
      </trkpt>
      <trkpt lat="45.25292" lon="5.02609">
        <ele>372</ele>
        <time>2013-09-14T11:58:48Z</time>
      </trkpt>
      <trkpt lat="45.25294" lon="5.02607">
        <ele>372</ele>
        <time>2013-09-14T11:58:51Z</time>
      </trkpt>
      <trkpt lat="45.25294" lon="5.02607">
        <ele>372</ele>
        <time>2013-09-14T11:58:55Z</time>
      </trkpt>
      <trkpt lat="45.25294" lon="5.02607">
        <ele>373</ele>
        <time>2013-09-14T11:58:58Z</time>
      </trkpt>
      <trkpt lat="45.25294" lon="5.02607">
        <ele>372</ele>
        <time>2013-09-14T11:59:02Z</time>
      </trkpt>
      <trkpt lat="45.25295" lon="5.02607">
        <ele>372</ele>
        <time>2013-09-14T11:59:05Z</time>
      </trkpt>
      <trkpt lat="45.25294" lon="5.02606">
        <ele>372</ele>
        <time>2013-09-14T11:59:09Z</time>
      </trkpt>
      <trkpt lat="45.25294" lon="5.02605">
        <ele>373</ele>
        <time>2013-09-14T11:59:12Z</time>
      </trkpt>
      <trkpt lat="45.25294" lon="5.02605">
        <ele>373</ele>
        <time>2013-09-14T11:59:16Z</time>
      </trkpt>
      <trkpt lat="45.25294" lon="5.02605">
        <ele>373</ele>
        <time>2013-09-14T11:59:19Z</time>
      </trkpt>
      <trkpt lat="45.25294" lon="5.02605">
        <ele>372</ele>
        <time>2013-09-14T11:59:23Z</time>
      </trkpt>
      <trkpt lat="45.25294" lon="5.02605">
        <ele>372</ele>
        <time>2013-09-14T11:59:26Z</time>
      </trkpt>
      <trkpt lat="45.25294" lon="5.02605">
        <ele>372</ele>
        <time>2013-09-14T11:59:30Z</time>
      </trkpt>
      <trkpt lat="45.25294" lon="5.02605">
        <ele>373</ele>
        <time>2013-09-14T11:59:33Z</time>
      </trkpt>
      <trkpt lat="45.25294" lon="5.02605">
        <ele>372</ele>
        <time>2013-09-14T11:59:37Z</time>
      </trkpt>
      <trkpt lat="45.25294" lon="5.02605">
        <ele>373</ele>
        <time>2013-09-14T11:59:40Z</time>
      </trkpt>
      <trkpt lat="45.25294" lon="5.02605">
        <ele>372</ele>
        <time>2013-09-14T11:59:44Z</time>
      </trkpt>
      <trkpt lat="45.25294" lon="5.02605">
        <ele>372</ele>
        <time>2013-09-14T11:59:47Z</time>
      </trkpt>
      <trkpt lat="45.25295" lon="5.02604">
        <ele>372</ele>
        <time>2013-09-14T11:59:51Z</time>
      </trkpt>
      <trkpt lat="45.25295" lon="5.02604">
        <ele>372</ele>
        <time>2013-09-14T11:59:55Z</time>
      </trkpt>
      <trkpt lat="45.25295" lon="5.02604">
        <ele>372</ele>
        <time>2013-09-14T11:59:58Z</time>
      </trkpt>
      <trkpt lat="45.25295" lon="5.02604">
        <ele>373</ele>
        <time>2013-09-14T12:00:02Z</time>
      </trkpt>
      <trkpt lat="45.25295" lon="5.02604">
        <ele>372</ele>
        <time>2013-09-14T12:00:05Z</time>
      </trkpt>
      <trkpt lat="45.25295" lon="5.02604">
        <ele>373</ele>
        <time>2013-09-14T12:00:09Z</time>
      </trkpt>
      <trkpt lat="45.25295" lon="5.02604">
        <ele>372</ele>
        <time>2013-09-14T12:00:12Z</time>
      </trkpt>
      <trkpt lat="45.25295" lon="5.02604">
        <ele>372</ele>
        <time>2013-09-14T12:00:16Z</time>
      </trkpt>
      <trkpt lat="45.25295" lon="5.02604">
        <ele>373</ele>
        <time>2013-09-14T12:00:19Z</time>
      </trkpt>
      <trkpt lat="45.25295" lon="5.02604">
        <ele>373</ele>
        <time>2013-09-14T12:00:23Z</time>
      </trkpt>
      <trkpt lat="45.25295" lon="5.02604">
        <ele>373</ele>
        <time>2013-09-14T12:00:26Z</time>
      </trkpt>
      <trkpt lat="45.25295" lon="5.02604">
        <ele>372</ele>
        <time>2013-09-14T12:00:30Z</time>
      </trkpt>
      <trkpt lat="45.25295" lon="5.02604">
        <ele>373</ele>
        <time>2013-09-14T12:00:33Z</time>
      </trkpt>
      <trkpt lat="45.25295" lon="5.02604">
        <ele>373</ele>
        <time>2013-09-14T12:00:37Z</time>
      </trkpt>
      <trkpt lat="45.25295" lon="5.02604">
        <ele>373</ele>
        <time>2013-09-14T12:00:40Z</time>
      </trkpt>
      <trkpt lat="45.25295" lon="5.02604">
        <ele>373</ele>
        <time>2013-09-14T12:00:44Z</time>
      </trkpt>
      <trkpt lat="45.25295" lon="5.02604">
        <ele>373</ele>
        <time>2013-09-14T12:00:47Z</time>
      </trkpt>
      <trkpt lat="45.25295" lon="5.02604">
        <ele>373</ele>
        <time>2013-09-14T12:00:51Z</time>
      </trkpt>
      <trkpt lat="45.25295" lon="5.02604">
        <ele>373</ele>
        <time>2013-09-14T12:00:54Z</time>
      </trkpt>
      <trkpt lat="45.25295" lon="5.02604">
        <ele>373</ele>
        <time>2013-09-14T12:00:58Z</time>
      </trkpt>
      <trkpt lat="45.25295" lon="5.02604">
        <ele>373</ele>
        <time>2013-09-14T12:01:01Z</time>
      </trkpt>
      <trkpt lat="45.25295" lon="5.02604">
        <ele>373</ele>
        <time>2013-09-14T12:01:05Z</time>
      </trkpt>
      <trkpt lat="45.25295" lon="5.02604">
        <ele>373</ele>
        <time>2013-09-14T12:01:08Z</time>
      </trkpt>
      <trkpt lat="45.25295" lon="5.02604">
        <ele>373</ele>
        <time>2013-09-14T12:01:12Z</time>
      </trkpt>
      <trkpt lat="45.25295" lon="5.02604">
        <ele>374</ele>
        <time>2013-09-14T12:01:15Z</time>
      </trkpt>
      <trkpt lat="45.25295" lon="5.02604">
        <ele>373</ele>
        <time>2013-09-14T12:01:19Z</time>
      </trkpt>
      <trkpt lat="45.25295" lon="5.02604">
        <ele>373</ele>
        <time>2013-09-14T12:01:22Z</time>
      </trkpt>
      <trkpt lat="45.25295" lon="5.02604">
        <ele>373</ele>
        <time>2013-09-14T12:01:26Z</time>
      </trkpt>
      <trkpt lat="45.25295" lon="5.02604">
        <ele>373</ele>
        <time>2013-09-14T12:01:29Z</time>
      </trkpt>
      <trkpt lat="45.25295" lon="5.02604">
        <ele>374</ele>
        <time>2013-09-14T12:01:33Z</time>
      </trkpt>
      <trkpt lat="45.25295" lon="5.02604">
        <ele>373</ele>
        <time>2013-09-14T12:01:37Z</time>
      </trkpt>
      <trkpt lat="45.25295" lon="5.02604">
        <ele>373</ele>
        <time>2013-09-14T12:01:40Z</time>
      </trkpt>
      <trkpt lat="45.25295" lon="5.02604">
        <ele>373</ele>
        <time>2013-09-14T12:01:44Z</time>
      </trkpt>
      <trkpt lat="45.25295" lon="5.02604">
        <ele>373</ele>
        <time>2013-09-14T12:01:47Z</time>
      </trkpt>
      <trkpt lat="45.25294" lon="5.02604">
        <ele>373</ele>
        <time>2013-09-14T12:01:51Z</time>
      </trkpt>
      <trkpt lat="45.25294" lon="5.02604">
        <ele>373</ele>
        <time>2013-09-14T12:01:54Z</time>
      </trkpt>
      <trkpt lat="45.25294" lon="5.02604">
        <ele>373</ele>
        <time>2013-09-14T12:01:58Z</time>
      </trkpt>
      <trkpt lat="45.25294" lon="5.02604">
        <ele>373</ele>
        <time>2013-09-14T12:02:01Z</time>
      </trkpt>
      <trkpt lat="45.25294" lon="5.02604">
        <ele>373</ele>
        <time>2013-09-14T12:02:05Z</time>
      </trkpt>
      <trkpt lat="45.25294" lon="5.02604">
        <ele>373</ele>
        <time>2013-09-14T12:02:08Z</time>
      </trkpt>
      <trkpt lat="45.25294" lon="5.02604">
        <ele>373</ele>
        <time>2013-09-14T12:02:12Z</time>
      </trkpt>
      <trkpt lat="45.25294" lon="5.02604">
        <ele>373</ele>
        <time>2013-09-14T12:02:15Z</time>
      </trkpt>
      <trkpt lat="45.25294" lon="5.02604">
        <ele>373</ele>
        <time>2013-09-14T12:02:19Z</time>
      </trkpt>
      <trkpt lat="45.25294" lon="5.02604">
        <ele>373</ele>
        <time>2013-09-14T12:02:22Z</time>
      </trkpt>
      <trkpt lat="45.25294" lon="5.02604">
        <ele>373</ele>
        <time>2013-09-14T12:02:26Z</time>
      </trkpt>
      <trkpt lat="45.25294" lon="5.02604">
        <ele>373</ele>
        <time>2013-09-14T12:02:29Z</time>
      </trkpt>
      <trkpt lat="45.25294" lon="5.02604">
        <ele>373</ele>
        <time>2013-09-14T12:02:33Z</time>
      </trkpt>
      <trkpt lat="45.25294" lon="5.02604">
        <ele>373</ele>
        <time>2013-09-14T12:02:36Z</time>
      </trkpt>
      <trkpt lat="45.25294" lon="5.02604">
        <ele>373</ele>
        <time>2013-09-14T12:02:40Z</time>
      </trkpt>
      <trkpt lat="45.25294" lon="5.02604">
        <ele>373</ele>
        <time>2013-09-14T12:02:43Z</time>
      </trkpt>
      <trkpt lat="45.25294" lon="5.02604">
        <ele>373</ele>
        <time>2013-09-14T12:02:47Z</time>
      </trkpt>
      <trkpt lat="45.25294" lon="5.02604">
        <ele>373</ele>
        <time>2013-09-14T12:02:50Z</time>
      </trkpt>
      <trkpt lat="45.25294" lon="5.02604">
        <ele>373</ele>
        <time>2013-09-14T12:02:54Z</time>
      </trkpt>
      <trkpt lat="45.25294" lon="5.02604">
        <ele>373</ele>
        <time>2013-09-14T12:02:57Z</time>
      </trkpt>
      <trkpt lat="45.25294" lon="5.02604">
        <ele>373</ele>
        <time>2013-09-14T12:03:01Z</time>
      </trkpt>
      <trkpt lat="45.25294" lon="5.02604">
        <ele>373</ele>
        <time>2013-09-14T12:03:04Z</time>
      </trkpt>
      <trkpt lat="45.25294" lon="5.02604">
        <ele>373</ele>
        <time>2013-09-14T12:03:08Z</time>
      </trkpt>
      <trkpt lat="45.25296" lon="5.02604">
        <ele>373</ele>
        <time>2013-09-14T12:03:12Z</time>
      </trkpt>
      <trkpt lat="45.25296" lon="5.02604">
        <ele>374</ele>
        <time>2013-09-14T12:03:15Z</time>
      </trkpt>
      <trkpt lat="45.25296" lon="5.02604">
        <ele>373</ele>
        <time>2013-09-14T12:03:19Z</time>
      </trkpt>
      <trkpt lat="45.25296" lon="5.02604">
        <ele>373</ele>
        <time>2013-09-14T12:03:22Z</time>
      </trkpt>
      <trkpt lat="45.25296" lon="5.02604">
        <ele>373</ele>
        <time>2013-09-14T12:03:26Z</time>
      </trkpt>
      <trkpt lat="45.25296" lon="5.02604">
        <ele>373</ele>
        <time>2013-09-14T12:03:29Z</time>
      </trkpt>
      <trkpt lat="45.25296" lon="5.02604">
        <ele>373</ele>
        <time>2013-09-14T12:03:33Z</time>
      </trkpt>
      <trkpt lat="45.25296" lon="5.02604">
        <ele>373</ele>
        <time>2013-09-14T12:03:36Z</time>
      </trkpt>
      <trkpt lat="45.25296" lon="5.02604">
        <ele>373</ele>
        <time>2013-09-14T12:03:40Z</time>
      </trkpt>
      <trkpt lat="45.25296" lon="5.02604">
        <ele>373</ele>
        <time>2013-09-14T12:03:43Z</time>
      </trkpt>
      <trkpt lat="45.25296" lon="5.02604">
        <ele>374</ele>
        <time>2013-09-14T12:03:47Z</time>
      </trkpt>
      <trkpt lat="45.25295" lon="5.02604">
        <ele>373</ele>
        <time>2013-09-14T12:03:50Z</time>
      </trkpt>
      <trkpt lat="45.25295" lon="5.02604">
        <ele>373</ele>
        <time>2013-09-14T12:03:54Z</time>
      </trkpt>
      <trkpt lat="45.25295" lon="5.02604">
        <ele>374</ele>
        <time>2013-09-14T12:03:57Z</time>
      </trkpt>
      <trkpt lat="45.25295" lon="5.02604">
        <ele>374</ele>
        <time>2013-09-14T12:04:01Z</time>
      </trkpt>
      <trkpt lat="45.25295" lon="5.02604">
        <ele>373</ele>
        <time>2013-09-14T12:04:04Z</time>
      </trkpt>
      <trkpt lat="45.25295" lon="5.02604">
        <ele>373</ele>
        <time>2013-09-14T12:04:08Z</time>
      </trkpt>
      <trkpt lat="45.25295" lon="5.02604">
        <ele>373</ele>
        <time>2013-09-14T12:04:11Z</time>
      </trkpt>
      <trkpt lat="45.25295" lon="5.02604">
        <ele>374</ele>
        <time>2013-09-14T12:04:15Z</time>
      </trkpt>
      <trkpt lat="45.25295" lon="5.02604">
        <ele>374</ele>
        <time>2013-09-14T12:04:18Z</time>
      </trkpt>
      <trkpt lat="45.25295" lon="5.02604">
        <ele>374</ele>
        <time>2013-09-14T12:04:22Z</time>
      </trkpt>
      <trkpt lat="45.25295" lon="5.02604">
        <ele>373</ele>
        <time>2013-09-14T12:04:25Z</time>
      </trkpt>
      <trkpt lat="45.25295" lon="5.02604">
        <ele>373</ele>
        <time>2013-09-14T12:04:29Z</time>
      </trkpt>
      <trkpt lat="45.25295" lon="5.02604">
        <ele>374</ele>
        <time>2013-09-14T12:04:32Z</time>
      </trkpt>
      <trkpt lat="45.25295" lon="5.02604">
        <ele>374</ele>
        <time>2013-09-14T12:04:36Z</time>
      </trkpt>
      <trkpt lat="45.25295" lon="5.02604">
        <ele>373</ele>
        <time>2013-09-14T12:04:39Z</time>
      </trkpt>
      <trkpt lat="45.25295" lon="5.02604">
        <ele>374</ele>
        <time>2013-09-14T12:04:43Z</time>
      </trkpt>
      <trkpt lat="45.25295" lon="5.02604">
        <ele>374</ele>
        <time>2013-09-14T12:04:46Z</time>
      </trkpt>
      <trkpt lat="45.25295" lon="5.02604">
        <ele>374</ele>
        <time>2013-09-14T12:04:50Z</time>
      </trkpt>
      <trkpt lat="45.25295" lon="5.02604">
        <ele>374</ele>
        <time>2013-09-14T12:04:54Z</time>
      </trkpt>
      <trkpt lat="45.25295" lon="5.02604">
        <ele>374</ele>
        <time>2013-09-14T12:04:57Z</time>
      </trkpt>
      <trkpt lat="45.25295" lon="5.02604">
        <ele>374</ele>
        <time>2013-09-14T12:05:01Z</time>
      </trkpt>
      <trkpt lat="45.25295" lon="5.02604">
        <ele>373</ele>
        <time>2013-09-14T12:05:04Z</time>
      </trkpt>
      <trkpt lat="45.25295" lon="5.02604">
        <ele>374</ele>
        <time>2013-09-14T12:05:08Z</time>
      </trkpt>
      <trkpt lat="45.25295" lon="5.02603">
        <ele>373</ele>
        <time>2013-09-14T12:05:11Z</time>
      </trkpt>
      <trkpt lat="45.25295" lon="5.02603">
        <ele>374</ele>
        <time>2013-09-14T12:05:15Z</time>
      </trkpt>
      <trkpt lat="45.25295" lon="5.02603">
        <ele>374</ele>
        <time>2013-09-14T12:05:18Z</time>
      </trkpt>
      <trkpt lat="45.25295" lon="5.02603">
        <ele>374</ele>
        <time>2013-09-14T12:05:22Z</time>
      </trkpt>
      <trkpt lat="45.25295" lon="5.02603">
        <ele>374</ele>
        <time>2013-09-14T12:05:25Z</time>
      </trkpt>
      <trkpt lat="45.25295" lon="5.02603">
        <ele>374</ele>
        <time>2013-09-14T12:05:29Z</time>
      </trkpt>
      <trkpt lat="45.25295" lon="5.02603">
        <ele>374</ele>
        <time>2013-09-14T12:05:32Z</time>
      </trkpt>
      <trkpt lat="45.25295" lon="5.02603">
        <ele>374</ele>
        <time>2013-09-14T12:05:36Z</time>
      </trkpt>
      <trkpt lat="45.25295" lon="5.02603">
        <ele>374</ele>
        <time>2013-09-14T12:05:39Z</time>
      </trkpt>
      <trkpt lat="45.25295" lon="5.02603">
        <ele>374</ele>
        <time>2013-09-14T12:05:43Z</time>
      </trkpt>
      <trkpt lat="45.25295" lon="5.02603">
        <ele>374</ele>
        <time>2013-09-14T12:05:46Z</time>
      </trkpt>
      <trkpt lat="45.25295" lon="5.02604">
        <ele>374</ele>
        <time>2013-09-14T12:05:50Z</time>
      </trkpt>
      <trkpt lat="45.25295" lon="5.02604">
        <ele>374</ele>
        <time>2013-09-14T12:05:53Z</time>
      </trkpt>
      <trkpt lat="45.25295" lon="5.02604">
        <ele>374</ele>
        <time>2013-09-14T12:05:57Z</time>
      </trkpt>
      <trkpt lat="45.25295" lon="5.02604">
        <ele>373</ele>
        <time>2013-09-14T12:06:00Z</time>
      </trkpt>
      <trkpt lat="45.25295" lon="5.02604">
        <ele>374</ele>
        <time>2013-09-14T12:06:04Z</time>
      </trkpt>
      <trkpt lat="45.25295" lon="5.02604">
        <ele>374</ele>
        <time>2013-09-14T12:06:07Z</time>
      </trkpt>
      <trkpt lat="45.25295" lon="5.02604">
        <ele>374</ele>
        <time>2013-09-14T12:06:11Z</time>
      </trkpt>
      <trkpt lat="45.25295" lon="5.02604">
        <ele>374</ele>
        <time>2013-09-14T12:06:14Z</time>
      </trkpt>
      <trkpt lat="45.25295" lon="5.02604">
        <ele>374</ele>
        <time>2013-09-14T12:06:18Z</time>
      </trkpt>
      <trkpt lat="45.25295" lon="5.02604">
        <ele>374</ele>
        <time>2013-09-14T12:06:21Z</time>
      </trkpt>
      <trkpt lat="45.25295" lon="5.02604">
        <ele>374</ele>
        <time>2013-09-14T12:06:25Z</time>
      </trkpt>
      <trkpt lat="45.25295" lon="5.02604">
        <ele>374</ele>
        <time>2013-09-14T12:06:29Z</time>
      </trkpt>
      <trkpt lat="45.25295" lon="5.02604">
        <ele>374</ele>
        <time>2013-09-14T12:06:32Z</time>
      </trkpt>
      <trkpt lat="45.25295" lon="5.02604">
        <ele>374</ele>
        <time>2013-09-14T12:06:36Z</time>
      </trkpt>
      <trkpt lat="45.25295" lon="5.02604">
        <ele>374</ele>
        <time>2013-09-14T12:06:39Z</time>
      </trkpt>
      <trkpt lat="45.25295" lon="5.02604">
        <ele>374</ele>
        <time>2013-09-14T12:06:43Z</time>
      </trkpt>
      <trkpt lat="45.25295" lon="5.02604">
        <ele>374</ele>
        <time>2013-09-14T12:06:46Z</time>
      </trkpt>
      <trkpt lat="45.25295" lon="5.02604">
        <ele>374</ele>
        <time>2013-09-14T12:06:50Z</time>
      </trkpt>
      <trkpt lat="45.25295" lon="5.02604">
        <ele>374</ele>
        <time>2013-09-14T12:06:53Z</time>
      </trkpt>
      <trkpt lat="45.25295" lon="5.02604">
        <ele>374</ele>
        <time>2013-09-14T12:06:57Z</time>
      </trkpt>
      <trkpt lat="45.25295" lon="5.02604">
        <ele>374</ele>
        <time>2013-09-14T12:07:00Z</time>
      </trkpt>
      <trkpt lat="45.25295" lon="5.02604">
        <ele>374</ele>
        <time>2013-09-14T12:07:04Z</time>
      </trkpt>
      <trkpt lat="45.25295" lon="5.02604">
        <ele>374</ele>
        <time>2013-09-14T12:07:07Z</time>
      </trkpt>
      <trkpt lat="45.25295" lon="5.02603">
        <ele>374</ele>
        <time>2013-09-14T12:07:11Z</time>
      </trkpt>
      <trkpt lat="45.25295" lon="5.02603">
        <ele>374</ele>
        <time>2013-09-14T12:07:14Z</time>
      </trkpt>
      <trkpt lat="45.25295" lon="5.02603">
        <ele>374</ele>
        <time>2013-09-14T12:07:18Z</time>
      </trkpt>
      <trkpt lat="45.25295" lon="5.02603">
        <ele>374</ele>
        <time>2013-09-14T12:07:21Z</time>
      </trkpt>
      <trkpt lat="45.25295" lon="5.02603">
        <ele>374</ele>
        <time>2013-09-14T12:07:25Z</time>
      </trkpt>
      <trkpt lat="45.25295" lon="5.02603">
        <ele>374</ele>
        <time>2013-09-14T12:07:28Z</time>
      </trkpt>
      <trkpt lat="45.25295" lon="5.02603">
        <ele>373</ele>
        <time>2013-09-14T12:07:32Z</time>
      </trkpt>
      <trkpt lat="45.25295" lon="5.02603">
        <ele>374</ele>
        <time>2013-09-14T12:07:35Z</time>
      </trkpt>
      <trkpt lat="45.25295" lon="5.02603">
        <ele>374</ele>
        <time>2013-09-14T12:07:39Z</time>
      </trkpt>
      <trkpt lat="45.25295" lon="5.02603">
        <ele>374</ele>
        <time>2013-09-14T12:07:42Z</time>
      </trkpt>
      <trkpt lat="45.25295" lon="5.02603">
        <ele>374</ele>
        <time>2013-09-14T12:07:46Z</time>
      </trkpt>
      <trkpt lat="45.25295" lon="5.02603">
        <ele>374</ele>
        <time>2013-09-14T12:07:49Z</time>
      </trkpt>
      <trkpt lat="45.25295" lon="5.02603">
        <ele>374</ele>
        <time>2013-09-14T12:07:53Z</time>
      </trkpt>
      <trkpt lat="45.25295" lon="5.02603">
        <ele>374</ele>
        <time>2013-09-14T12:07:56Z</time>
      </trkpt>
      <trkpt lat="45.25295" lon="5.02603">
        <ele>374</ele>
        <time>2013-09-14T12:08:00Z</time>
      </trkpt>
      <trkpt lat="45.25295" lon="5.02603">
        <ele>374</ele>
        <time>2013-09-14T12:08:04Z</time>
      </trkpt>
      <trkpt lat="45.25295" lon="5.02603">
        <ele>374</ele>
        <time>2013-09-14T12:08:07Z</time>
      </trkpt>
      <trkpt lat="45.25295" lon="5.02603">
        <ele>374</ele>
        <time>2013-09-14T12:08:11Z</time>
      </trkpt>
      <trkpt lat="45.25295" lon="5.02603">
        <ele>374</ele>
        <time>2013-09-14T12:08:14Z</time>
      </trkpt>
      <trkpt lat="45.25295" lon="5.02603">
        <ele>374</ele>
        <time>2013-09-14T12:08:18Z</time>
      </trkpt>
      <trkpt lat="45.25295" lon="5.02603">
        <ele>374</ele>
        <time>2013-09-14T12:08:21Z</time>
      </trkpt>
      <trkpt lat="45.25295" lon="5.02603">
        <ele>374</ele>
        <time>2013-09-14T12:08:25Z</time>
      </trkpt>
      <trkpt lat="45.25295" lon="5.02603">
        <ele>374</ele>
        <time>2013-09-14T12:08:28Z</time>
      </trkpt>
      <trkpt lat="45.25296" lon="5.02603">
        <ele>374</ele>
        <time>2013-09-14T12:08:32Z</time>
      </trkpt>
      <trkpt lat="45.25296" lon="5.02603">
        <ele>374</ele>
        <time>2013-09-14T12:08:35Z</time>
      </trkpt>
      <trkpt lat="45.25296" lon="5.02603">
        <ele>374</ele>
        <time>2013-09-14T12:08:39Z</time>
      </trkpt>
      <trkpt lat="45.25296" lon="5.02603">
        <ele>374</ele>
        <time>2013-09-14T12:08:42Z</time>
      </trkpt>
      <trkpt lat="45.25296" lon="5.02603">
        <ele>375</ele>
        <time>2013-09-14T12:08:46Z</time>
      </trkpt>
      <trkpt lat="45.25296" lon="5.02603">
        <ele>374</ele>
        <time>2013-09-14T12:08:49Z</time>
      </trkpt>
      <trkpt lat="45.25296" lon="5.02603">
        <ele>374</ele>
        <time>2013-09-14T12:08:53Z</time>
      </trkpt>
      <trkpt lat="45.25296" lon="5.02603">
        <ele>374</ele>
        <time>2013-09-14T12:08:56Z</time>
      </trkpt>
      <trkpt lat="45.25296" lon="5.02603">
        <ele>374</ele>
        <time>2013-09-14T12:09:00Z</time>
      </trkpt>
      <trkpt lat="45.25296" lon="5.02603">
        <ele>374</ele>
        <time>2013-09-14T12:09:03Z</time>
      </trkpt>
      <trkpt lat="45.25296" lon="5.02603">
        <ele>374</ele>
        <time>2013-09-14T12:09:07Z</time>
      </trkpt>
      <trkpt lat="45.25296" lon="5.02603">
        <ele>374</ele>
        <time>2013-09-14T12:09:10Z</time>
      </trkpt>
      <trkpt lat="45.25296" lon="5.02603">
        <ele>374</ele>
        <time>2013-09-14T12:09:14Z</time>
      </trkpt>
      <trkpt lat="45.25296" lon="5.02603">
        <ele>374</ele>
        <time>2013-09-14T12:09:17Z</time>
      </trkpt>
      <trkpt lat="45.25296" lon="5.02603">
        <ele>374</ele>
        <time>2013-09-14T12:09:21Z</time>
      </trkpt>
      <trkpt lat="45.25296" lon="5.02603">
        <ele>374</ele>
        <time>2013-09-14T12:09:24Z</time>
      </trkpt>
      <trkpt lat="45.25296" lon="5.02603">
        <ele>374</ele>
        <time>2013-09-14T12:09:28Z</time>
      </trkpt>
      <trkpt lat="45.25296" lon="5.02603">
        <ele>374</ele>
        <time>2013-09-14T12:09:31Z</time>
      </trkpt>
      <trkpt lat="45.25296" lon="5.02603">
        <ele>374</ele>
        <time>2013-09-14T12:09:35Z</time>
      </trkpt>
      <trkpt lat="45.25296" lon="5.02603">
        <ele>374</ele>
        <time>2013-09-14T12:09:38Z</time>
      </trkpt>
      <trkpt lat="45.25296" lon="5.02603">
        <ele>374</ele>
        <time>2013-09-14T12:09:42Z</time>
      </trkpt>
      <trkpt lat="45.25296" lon="5.02603">
        <ele>374</ele>
        <time>2013-09-14T12:09:46Z</time>
      </trkpt>
      <trkpt lat="45.25296" lon="5.02603">
        <ele>374</ele>
        <time>2013-09-14T12:09:49Z</time>
      </trkpt>
      <trkpt lat="45.25296" lon="5.02603">
        <ele>374</ele>
        <time>2013-09-14T12:09:53Z</time>
      </trkpt>
      <trkpt lat="45.25296" lon="5.02603">
        <ele>374</ele>
        <time>2013-09-14T12:09:56Z</time>
      </trkpt>
      <trkpt lat="45.25296" lon="5.02603">
        <ele>375</ele>
        <time>2013-09-14T12:10:00Z</time>
      </trkpt>
      <trkpt lat="45.25296" lon="5.02603">
        <ele>375</ele>
        <time>2013-09-14T12:10:03Z</time>
      </trkpt>
      <trkpt lat="45.25296" lon="5.02603">
        <ele>374</ele>
        <time>2013-09-14T12:10:07Z</time>
      </trkpt>
      <trkpt lat="45.25296" lon="5.02603">
        <ele>374</ele>
        <time>2013-09-14T12:10:10Z</time>
      </trkpt>
      <trkpt lat="45.25296" lon="5.02603">
        <ele>374</ele>
        <time>2013-09-14T12:10:14Z</time>
      </trkpt>
      <trkpt lat="45.25296" lon="5.02603">
        <ele>374</ele>
        <time>2013-09-14T12:10:17Z</time>
      </trkpt>
      <trkpt lat="45.25296" lon="5.02603">
        <ele>374</ele>
        <time>2013-09-14T12:10:21Z</time>
      </trkpt>
      <trkpt lat="45.25296" lon="5.02603">
        <ele>374</ele>
        <time>2013-09-14T12:10:24Z</time>
      </trkpt>
      <trkpt lat="45.25296" lon="5.02603">
        <ele>374</ele>
        <time>2013-09-14T12:10:28Z</time>
      </trkpt>
      <trkpt lat="45.25296" lon="5.02603">
        <ele>374</ele>
        <time>2013-09-14T12:10:31Z</time>
      </trkpt>
      <trkpt lat="45.25296" lon="5.02603">
        <ele>374</ele>
        <time>2013-09-14T12:10:35Z</time>
      </trkpt>
      <trkpt lat="45.25296" lon="5.02603">
        <ele>375</ele>
        <time>2013-09-14T12:10:38Z</time>
      </trkpt>
      <trkpt lat="45.25296" lon="5.02603">
        <ele>374</ele>
        <time>2013-09-14T12:10:42Z</time>
      </trkpt>
      <trkpt lat="45.25296" lon="5.02603">
        <ele>375</ele>
        <time>2013-09-14T12:10:45Z</time>
      </trkpt>
      <trkpt lat="45.25296" lon="5.02603">
        <ele>374</ele>
        <time>2013-09-14T12:10:49Z</time>
      </trkpt>
      <trkpt lat="45.25296" lon="5.02603">
        <ele>374</ele>
        <time>2013-09-14T12:10:52Z</time>
      </trkpt>
      <trkpt lat="45.25296" lon="5.02603">
        <ele>374</ele>
        <time>2013-09-14T12:10:56Z</time>
      </trkpt>
      <trkpt lat="45.25296" lon="5.02603">
        <ele>374</ele>
        <time>2013-09-14T12:10:59Z</time>
      </trkpt>
      <trkpt lat="45.25296" lon="5.02603">
        <ele>375</ele>
        <time>2013-09-14T12:11:03Z</time>
      </trkpt>
      <trkpt lat="45.25296" lon="5.02603">
        <ele>374</ele>
        <time>2013-09-14T12:11:06Z</time>
      </trkpt>
      <trkpt lat="45.25296" lon="5.02603">
        <ele>374</ele>
        <time>2013-09-14T12:11:10Z</time>
      </trkpt>
      <trkpt lat="45.25296" lon="5.02603">
        <ele>374</ele>
        <time>2013-09-14T12:11:13Z</time>
      </trkpt>
      <trkpt lat="45.25296" lon="5.02603">
        <ele>375</ele>
        <time>2013-09-14T12:11:17Z</time>
      </trkpt>
      <trkpt lat="45.25296" lon="5.02603">
        <ele>374</ele>
        <time>2013-09-14T12:11:21Z</time>
      </trkpt>
      <trkpt lat="45.25296" lon="5.02603">
        <ele>375</ele>
        <time>2013-09-14T12:11:24Z</time>
      </trkpt>
      <trkpt lat="45.25296" lon="5.02603">
        <ele>375</ele>
        <time>2013-09-14T12:11:28Z</time>
      </trkpt>
      <trkpt lat="45.25296" lon="5.02603">
        <ele>374</ele>
        <time>2013-09-14T12:11:31Z</time>
      </trkpt>
      <trkpt lat="45.25296" lon="5.02603">
        <ele>374</ele>
        <time>2013-09-14T12:11:35Z</time>
      </trkpt>
      <trkpt lat="45.25296" lon="5.02603">
        <ele>374</ele>
        <time>2013-09-14T12:11:38Z</time>
      </trkpt>
      <trkpt lat="45.25297" lon="5.02603">
        <ele>375</ele>
        <time>2013-09-14T12:11:42Z</time>
      </trkpt>
      <trkpt lat="45.25302" lon="5.02601">
        <ele>374</ele>
        <time>2013-09-14T12:11:45Z</time>
      </trkpt>
      <trkpt lat="45.25308" lon="5.02597">
        <ele>375</ele>
        <time>2013-09-14T12:11:49Z</time>
      </trkpt>
      <trkpt lat="45.25313" lon="5.02591">
        <ele>374</ele>
        <time>2013-09-14T12:11:52Z</time>
      </trkpt>
      <trkpt lat="45.25319" lon="5.02584">
        <ele>375</ele>
        <time>2013-09-14T12:11:56Z</time>
      </trkpt>
      <trkpt lat="45.25325" lon="5.02578">
        <ele>375</ele>
        <time>2013-09-14T12:11:59Z</time>
      </trkpt>
      <trkpt lat="45.25334" lon="5.02568">
        <ele>375</ele>
        <time>2013-09-14T12:12:03Z</time>
      </trkpt>
      <trkpt lat="45.25341" lon="5.02561">
        <ele>375</ele>
        <time>2013-09-14T12:12:06Z</time>
      </trkpt>
      <trkpt lat="45.2535" lon="5.02551">
        <ele>375</ele>
        <time>2013-09-14T12:12:10Z</time>
      </trkpt>
      <trkpt lat="45.25358" lon="5.02543">
        <ele>376</ele>
        <time>2013-09-14T12:12:13Z</time>
      </trkpt>
      <trkpt lat="45.25369" lon="5.0253">
        <ele>375</ele>
        <time>2013-09-14T12:12:17Z</time>
      </trkpt>
      <trkpt lat="45.25377" lon="5.0252">
        <ele>375</ele>
        <time>2013-09-14T12:12:20Z</time>
      </trkpt>
      <trkpt lat="45.25386" lon="5.02509">
        <ele>374</ele>
        <time>2013-09-14T12:12:24Z</time>
      </trkpt>
      <trkpt lat="45.25389" lon="5.02502">
        <ele>374</ele>
        <time>2013-09-14T12:12:27Z</time>
      </trkpt>
      <trkpt lat="45.25407" lon="5.02483">
        <ele>374</ele>
        <time>2013-09-14T12:12:31Z</time>
      </trkpt>
      <trkpt lat="45.25425" lon="5.02467">
        <ele>374</ele>
        <time>2013-09-14T12:12:34Z</time>
      </trkpt>
      <trkpt lat="45.2544" lon="5.02451">
        <ele>374</ele>
        <time>2013-09-14T12:12:38Z</time>
      </trkpt>
      <trkpt lat="45.2545" lon="5.02441">
        <ele>374</ele>
        <time>2013-09-14T12:12:41Z</time>
      </trkpt>
      <trkpt lat="45.25465" lon="5.0244">
        <ele>374</ele>
        <time>2013-09-14T12:12:45Z</time>
      </trkpt>
      <trkpt lat="45.25474" lon="5.02453">
        <ele>374</ele>
        <time>2013-09-14T12:12:48Z</time>
      </trkpt>
      <trkpt lat="45.25487" lon="5.02475">
        <ele>374</ele>
        <time>2013-09-14T12:12:52Z</time>
      </trkpt>
      <trkpt lat="45.25497" lon="5.02494">
        <ele>374</ele>
        <time>2013-09-14T12:12:55Z</time>
      </trkpt>
      <trkpt lat="45.2551" lon="5.0252">
        <ele>373</ele>
        <time>2013-09-14T12:12:59Z</time>
      </trkpt>
      <trkpt lat="45.25523" lon="5.02543">
        <ele>374</ele>
        <time>2013-09-14T12:13:03Z</time>
      </trkpt>
      <trkpt lat="45.25532" lon="5.02559">
        <ele>373</ele>
        <time>2013-09-14T12:13:06Z</time>
      </trkpt>
      <trkpt lat="45.25542" lon="5.02582">
        <ele>374</ele>
        <time>2013-09-14T12:13:10Z</time>
      </trkpt>
      <trkpt lat="45.25549" lon="5.02598">
        <ele>375</ele>
        <time>2013-09-14T12:13:13Z</time>
      </trkpt>
      <trkpt lat="45.25557" lon="5.02617">
        <ele>375</ele>
        <time>2013-09-14T12:13:17Z</time>
      </trkpt>
      <trkpt lat="45.25562" lon="5.0263">
        <ele>375</ele>
        <time>2013-09-14T12:13:20Z</time>
      </trkpt>
      <trkpt lat="45.25572" lon="5.02649">
        <ele>376</ele>
        <time>2013-09-14T12:13:24Z</time>
      </trkpt>
      <trkpt lat="45.2558" lon="5.02662">
        <ele>376</ele>
        <time>2013-09-14T12:13:27Z</time>
      </trkpt>
      <trkpt lat="45.25591" lon="5.02675">
        <ele>377</ele>
        <time>2013-09-14T12:13:31Z</time>
      </trkpt>
      <trkpt lat="45.25598" lon="5.02685">
        <ele>377</ele>
        <time>2013-09-14T12:13:34Z</time>
      </trkpt>
      <trkpt lat="45.25607" lon="5.02697">
        <ele>378</ele>
        <time>2013-09-14T12:13:38Z</time>
      </trkpt>
      <trkpt lat="45.25613" lon="5.02704">
        <ele>379</ele>
        <time>2013-09-14T12:13:41Z</time>
      </trkpt>
      <trkpt lat="45.25623" lon="5.02715">
        <ele>379</ele>
        <time>2013-09-14T12:13:45Z</time>
      </trkpt>
      <trkpt lat="45.25632" lon="5.02723">
        <ele>380</ele>
        <time>2013-09-14T12:13:48Z</time>
      </trkpt>
      <trkpt lat="45.25644" lon="5.02734">
        <ele>380</ele>
        <time>2013-09-14T12:13:52Z</time>
      </trkpt>
      <trkpt lat="45.25653" lon="5.02741">
        <ele>381</ele>
        <time>2013-09-14T12:13:55Z</time>
      </trkpt>
      <trkpt lat="45.25666" lon="5.02753">
        <ele>383</ele>
        <time>2013-09-14T12:13:59Z</time>
      </trkpt>
      <trkpt lat="45.25675" lon="5.02761">
        <ele>383</ele>
        <time>2013-09-14T12:14:02Z</time>
      </trkpt>
      <trkpt lat="45.25687" lon="5.02771">
        <ele>383</ele>
        <time>2013-09-14T12:14:06Z</time>
      </trkpt>
      <trkpt lat="45.25696" lon="5.02777">
        <ele>384</ele>
        <time>2013-09-14T12:14:09Z</time>
      </trkpt>
      <trkpt lat="45.25709" lon="5.02791">
        <ele>384</ele>
        <time>2013-09-14T12:14:13Z</time>
      </trkpt>
      <trkpt lat="45.25714" lon="5.02807">
        <ele>385</ele>
        <time>2013-09-14T12:14:16Z</time>
      </trkpt>
      <trkpt lat="45.2572" lon="5.02828">
        <ele>385</ele>
        <time>2013-09-14T12:14:20Z</time>
      </trkpt>
      <trkpt lat="45.25728" lon="5.02843">
        <ele>385</ele>
        <time>2013-09-14T12:14:23Z</time>
      </trkpt>
      <trkpt lat="45.25742" lon="5.02869">
        <ele>384</ele>
        <time>2013-09-14T12:14:27Z</time>
      </trkpt>
      <trkpt lat="45.25753" lon="5.02889">
        <ele>383</ele>
        <time>2013-09-14T12:14:30Z</time>
      </trkpt>
      <trkpt lat="45.25768" lon="5.02915">
        <ele>382</ele>
        <time>2013-09-14T12:14:34Z</time>
      </trkpt>
      <trkpt lat="45.25782" lon="5.02941">
        <ele>383</ele>
        <time>2013-09-14T12:14:38Z</time>
      </trkpt>
      <trkpt lat="45.25793" lon="5.02961">
        <ele>383</ele>
        <time>2013-09-14T12:14:41Z</time>
      </trkpt>
      <trkpt lat="45.25808" lon="5.02986">
        <ele>383</ele>
        <time>2013-09-14T12:14:45Z</time>
      </trkpt>
      <trkpt lat="45.2581" lon="5.02998">
        <ele>383</ele>
        <time>2013-09-14T12:14:48Z</time>
      </trkpt>
      <trkpt lat="45.25807" lon="5.03004">
        <ele>383</ele>
        <time>2013-09-14T12:14:52Z</time>
      </trkpt>
      <trkpt lat="45.25804" lon="5.03009">
        <ele>382</ele>
        <time>2013-09-14T12:14:55Z</time>
      </trkpt>
      <trkpt lat="45.25794" lon="5.03012">
        <ele>382</ele>
        <time>2013-09-14T12:14:59Z</time>
      </trkpt>
      <trkpt lat="45.25784" lon="5.03007">
        <ele>381</ele>
        <time>2013-09-14T12:15:02Z</time>
      </trkpt>
      <trkpt lat="45.25767" lon="5.02995">
        <ele>380</ele>
        <time>2013-09-14T12:15:06Z</time>
      </trkpt>
      <trkpt lat="45.25753" lon="5.02984">
        <ele>380</ele>
        <time>2013-09-14T12:15:09Z</time>
      </trkpt>
      <trkpt lat="45.25735" lon="5.02973">
        <ele>379</ele>
        <time>2013-09-14T12:15:13Z</time>
      </trkpt>
      <trkpt lat="45.25722" lon="5.02965">
        <ele>379</ele>
        <time>2013-09-14T12:15:16Z</time>
      </trkpt>
      <trkpt lat="45.25708" lon="5.02955">
        <ele>379</ele>
        <time>2013-09-14T12:15:20Z</time>
      </trkpt>
      <trkpt lat="45.25696" lon="5.02947">
        <ele>377</ele>
        <time>2013-09-14T12:15:23Z</time>
      </trkpt>
      <trkpt lat="45.25679" lon="5.02934">
        <ele>377</ele>
        <time>2013-09-14T12:15:27Z</time>
      </trkpt>
      <trkpt lat="45.25665" lon="5.02924">
        <ele>376</ele>
        <time>2013-09-14T12:15:30Z</time>
      </trkpt>
      <trkpt lat="45.25651" lon="5.02912">
        <ele>376</ele>
        <time>2013-09-14T12:15:34Z</time>
      </trkpt>
      <trkpt lat="45.25642" lon="5.02908">
        <ele>376</ele>
        <time>2013-09-14T12:15:37Z</time>
      </trkpt>
      <trkpt lat="45.25633" lon="5.02901">
        <ele>376</ele>
        <time>2013-09-14T12:15:41Z</time>
      </trkpt>
      <trkpt lat="45.25628" lon="5.02897">
        <ele>375</ele>
        <time>2013-09-14T12:15:44Z</time>
      </trkpt>
      <trkpt lat="45.25622" lon="5.02894">
        <ele>375</ele>
        <time>2013-09-14T12:15:48Z</time>
      </trkpt>
      <trkpt lat="45.2562" lon="5.02891">
        <ele>375</ele>
        <time>2013-09-14T12:15:51Z</time>
      </trkpt>
      <trkpt lat="45.25616" lon="5.0289">
        <ele>375</ele>
        <time>2013-09-14T12:15:55Z</time>
      </trkpt>
      <trkpt lat="45.25609" lon="5.02888">
        <ele>374</ele>
        <time>2013-09-14T12:15:58Z</time>
      </trkpt>
      <trkpt lat="45.25599" lon="5.02882">
        <ele>374</ele>
        <time>2013-09-14T12:16:02Z</time>
      </trkpt>
      <trkpt lat="45.25593" lon="5.02877">
        <ele>374</ele>
        <time>2013-09-14T12:16:05Z</time>
      </trkpt>
      <trkpt lat="45.25588" lon="5.02871">
        <ele>374</ele>
        <time>2013-09-14T12:16:09Z</time>
      </trkpt>
      <trkpt lat="45.25579" lon="5.02865">
        <ele>374</ele>
        <time>2013-09-14T12:16:13Z</time>
      </trkpt>
      <trkpt lat="45.25574" lon="5.02861">
        <ele>374</ele>
        <time>2013-09-14T12:16:16Z</time>
      </trkpt>
      <trkpt lat="45.25573" lon="5.02859">
        <ele>374</ele>
        <time>2013-09-14T12:16:20Z</time>
      </trkpt>
      <trkpt lat="45.25573" lon="5.02859">
        <ele>374</ele>
        <time>2013-09-14T12:16:23Z</time>
      </trkpt>
      <trkpt lat="45.25575" lon="5.02866">
        <ele>374</ele>
        <time>2013-09-14T12:16:27Z</time>
      </trkpt>
      <trkpt lat="45.25579" lon="5.02869">
        <ele>373</ele>
        <time>2013-09-14T12:16:30Z</time>
      </trkpt>
      <trkpt lat="45.25585" lon="5.02872">
        <ele>374</ele>
        <time>2013-09-14T12:16:34Z</time>
      </trkpt>
      <trkpt lat="45.25591" lon="5.02877">
        <ele>374</ele>
        <time>2013-09-14T12:16:37Z</time>
      </trkpt>
      <trkpt lat="45.25599" lon="5.02883">
        <ele>375</ele>
        <time>2013-09-14T12:16:41Z</time>
      </trkpt>
      <trkpt lat="45.25608" lon="5.02888">
        <ele>375</ele>
        <time>2013-09-14T12:16:44Z</time>
      </trkpt>
      <trkpt lat="45.25618" lon="5.02895">
        <ele>375</ele>
        <time>2013-09-14T12:16:48Z</time>
      </trkpt>
      <trkpt lat="45.25624" lon="5.02899">
        <ele>375</ele>
        <time>2013-09-14T12:16:51Z</time>
      </trkpt>
      <trkpt lat="45.25631" lon="5.02904">
        <ele>375</ele>
        <time>2013-09-14T12:16:55Z</time>
      </trkpt>
      <trkpt lat="45.25635" lon="5.02906">
        <ele>375</ele>
        <time>2013-09-14T12:16:58Z</time>
      </trkpt>
      <trkpt lat="45.25636" lon="5.02904">
        <ele>375</ele>
        <time>2013-09-14T12:17:02Z</time>
      </trkpt>
      <trkpt lat="45.25636" lon="5.02904">
        <ele>375</ele>
        <time>2013-09-14T12:17:05Z</time>
      </trkpt>
      <trkpt lat="45.25636" lon="5.02904">
        <ele>375</ele>
        <time>2013-09-14T12:17:09Z</time>
      </trkpt>
      <trkpt lat="45.25636" lon="5.02904">
        <ele>375</ele>
        <time>2013-09-14T12:17:12Z</time>
      </trkpt>
      <trkpt lat="45.25639" lon="5.02907">
        <ele>375</ele>
        <time>2013-09-14T12:17:16Z</time>
      </trkpt>
      <trkpt lat="45.25639" lon="5.02907">
        <ele>375</ele>
        <time>2013-09-14T12:17:19Z</time>
      </trkpt>
      <trkpt lat="45.25643" lon="5.02909">
        <ele>376</ele>
        <time>2013-09-14T12:17:23Z</time>
      </trkpt>
      <trkpt lat="45.25647" lon="5.0291">
        <ele>376</ele>
        <time>2013-09-14T12:17:26Z</time>
      </trkpt>
      <trkpt lat="45.25655" lon="5.02915">
        <ele>376</ele>
        <time>2013-09-14T12:17:30Z</time>
      </trkpt>
      <trkpt lat="45.25662" lon="5.0292">
        <ele>376</ele>
        <time>2013-09-14T12:17:33Z</time>
      </trkpt>
      <trkpt lat="45.25673" lon="5.0293">
        <ele>377</ele>
        <time>2013-09-14T12:17:37Z</time>
      </trkpt>
      <trkpt lat="45.25681" lon="5.02936">
        <ele>377</ele>
        <time>2013-09-14T12:17:40Z</time>
      </trkpt>
      <trkpt lat="45.25693" lon="5.02945">
        <ele>378</ele>
        <time>2013-09-14T12:17:44Z</time>
      </trkpt>
      <trkpt lat="45.25701" lon="5.02953">
        <ele>377</ele>
        <time>2013-09-14T12:17:47Z</time>
      </trkpt>
      <trkpt lat="45.25714" lon="5.02962">
        <ele>378</ele>
        <time>2013-09-14T12:17:51Z</time>
      </trkpt>
      <trkpt lat="45.25726" lon="5.0297">
        <ele>378</ele>
        <time>2013-09-14T12:17:55Z</time>
      </trkpt>
      <trkpt lat="45.25736" lon="5.02974">
        <ele>378</ele>
        <time>2013-09-14T12:17:58Z</time>
      </trkpt>
      <trkpt lat="45.25747" lon="5.02984">
        <ele>379</ele>
        <time>2013-09-14T12:18:02Z</time>
      </trkpt>
      <trkpt lat="45.25756" lon="5.02991">
        <ele>380</ele>
        <time>2013-09-14T12:18:05Z</time>
      </trkpt>
      <trkpt lat="45.25768" lon="5.03">
        <ele>380</ele>
        <time>2013-09-14T12:18:09Z</time>
      </trkpt>
      <trkpt lat="45.25778" lon="5.03006">
        <ele>380</ele>
        <time>2013-09-14T12:18:12Z</time>
      </trkpt>
      <trkpt lat="45.25791" lon="5.03012">
        <ele>381</ele>
        <time>2013-09-14T12:18:16Z</time>
      </trkpt>
      <trkpt lat="45.258" lon="5.03011">
        <ele>382</ele>
        <time>2013-09-14T12:18:19Z</time>
      </trkpt>
      <trkpt lat="45.25813" lon="5.0301">
        <ele>382</ele>
        <time>2013-09-14T12:18:23Z</time>
      </trkpt>
      <trkpt lat="45.25821" lon="5.03019">
        <ele>383</ele>
        <time>2013-09-14T12:18:26Z</time>
      </trkpt>
      <trkpt lat="45.25832" lon="5.03036">
        <ele>383</ele>
        <time>2013-09-14T12:18:30Z</time>
      </trkpt>
      <trkpt lat="45.2584" lon="5.0305">
        <ele>383</ele>
        <time>2013-09-14T12:18:33Z</time>
      </trkpt>
      <trkpt lat="45.2585" lon="5.03069">
        <ele>383</ele>
        <time>2013-09-14T12:18:37Z</time>
      </trkpt>
      <trkpt lat="45.25857" lon="5.03085">
        <ele>384</ele>
        <time>2013-09-14T12:18:40Z</time>
      </trkpt>
      <trkpt lat="45.25868" lon="5.03106">
        <ele>384</ele>
        <time>2013-09-14T12:18:44Z</time>
      </trkpt>
      <trkpt lat="45.25875" lon="5.03122">
        <ele>385</ele>
        <time>2013-09-14T12:18:47Z</time>
      </trkpt>
      <trkpt lat="45.25884" lon="5.03144">
        <ele>384</ele>
        <time>2013-09-14T12:18:51Z</time>
      </trkpt>
      <trkpt lat="45.25891" lon="5.03164">
        <ele>385</ele>
        <time>2013-09-14T12:18:54Z</time>
      </trkpt>
      <trkpt lat="45.25901" lon="5.03189">
        <ele>384</ele>
        <time>2013-09-14T12:18:58Z</time>
      </trkpt>
      <trkpt lat="45.25909" lon="5.03209">
        <ele>385</ele>
        <time>2013-09-14T12:19:01Z</time>
      </trkpt>
      <trkpt lat="45.2592" lon="5.03236">
        <ele>385</ele>
        <time>2013-09-14T12:19:05Z</time>
      </trkpt>
      <trkpt lat="45.2593" lon="5.03257">
        <ele>384</ele>
        <time>2013-09-14T12:19:08Z</time>
      </trkpt>
      <trkpt lat="45.25943" lon="5.03287">
        <ele>385</ele>
        <time>2013-09-14T12:19:12Z</time>
      </trkpt>
      <trkpt lat="45.25952" lon="5.03309">
        <ele>384</ele>
        <time>2013-09-14T12:19:15Z</time>
      </trkpt>
      <trkpt lat="45.25964" lon="5.03339">
        <ele>385</ele>
        <time>2013-09-14T12:19:19Z</time>
      </trkpt>
      <trkpt lat="45.25973" lon="5.03361">
        <ele>384</ele>
        <time>2013-09-14T12:19:22Z</time>
      </trkpt>
      <trkpt lat="45.25984" lon="5.03391">
        <ele>384</ele>
        <time>2013-09-14T12:19:26Z</time>
      </trkpt>
      <trkpt lat="45.25994" lon="5.0342">
        <ele>384</ele>
        <time>2013-09-14T12:19:30Z</time>
      </trkpt>
      <trkpt lat="45.26002" lon="5.03442">
        <ele>384</ele>
        <time>2013-09-14T12:19:33Z</time>
      </trkpt>
      <trkpt lat="45.26012" lon="5.03472">
        <ele>384</ele>
        <time>2013-09-14T12:19:37Z</time>
      </trkpt>
      <trkpt lat="45.26019" lon="5.03495">
        <ele>385</ele>
        <time>2013-09-14T12:19:40Z</time>
      </trkpt>
      <trkpt lat="45.2603" lon="5.03526">
        <ele>386</ele>
        <time>2013-09-14T12:19:44Z</time>
      </trkpt>
      <trkpt lat="45.26037" lon="5.03549">
        <ele>386</ele>
        <time>2013-09-14T12:19:47Z</time>
      </trkpt>
      <trkpt lat="45.26048" lon="5.03579">
        <ele>387</ele>
        <time>2013-09-14T12:19:51Z</time>
      </trkpt>
      <trkpt lat="45.26056" lon="5.03601">
        <ele>388</ele>
        <time>2013-09-14T12:19:54Z</time>
      </trkpt>
      <trkpt lat="45.26065" lon="5.03631">
        <ele>388</ele>
        <time>2013-09-14T12:19:58Z</time>
      </trkpt>
      <trkpt lat="45.26073" lon="5.03654">
        <ele>388</ele>
        <time>2013-09-14T12:20:01Z</time>
      </trkpt>
      <trkpt lat="45.26084" lon="5.03684">
        <ele>388</ele>
        <time>2013-09-14T12:20:05Z</time>
      </trkpt>
      <trkpt lat="45.26092" lon="5.03706">
        <ele>388</ele>
        <time>2013-09-14T12:20:08Z</time>
      </trkpt>
      <trkpt lat="45.26104" lon="5.03736">
        <ele>388</ele>
        <time>2013-09-14T12:20:12Z</time>
      </trkpt>
      <trkpt lat="45.26112" lon="5.03759">
        <ele>389</ele>
        <time>2013-09-14T12:20:15Z</time>
      </trkpt>
      <trkpt lat="45.26122" lon="5.0379">
        <ele>387</ele>
        <time>2013-09-14T12:20:19Z</time>
      </trkpt>
      <trkpt lat="45.26129" lon="5.03813">
        <ele>388</ele>
        <time>2013-09-14T12:20:22Z</time>
      </trkpt>
      <trkpt lat="45.26137" lon="5.03845">
        <ele>389</ele>
        <time>2013-09-14T12:20:26Z</time>
      </trkpt>
      <trkpt lat="45.26142" lon="5.03869">
        <ele>389</ele>
        <time>2013-09-14T12:20:29Z</time>
      </trkpt>
      <trkpt lat="45.26148" lon="5.03902">
        <ele>389</ele>
        <time>2013-09-14T12:20:33Z</time>
      </trkpt>
      <trkpt lat="45.26153" lon="5.03927">
        <ele>390</ele>
        <time>2013-09-14T12:20:36Z</time>
      </trkpt>
      <trkpt lat="45.26159" lon="5.03959">
        <ele>390</ele>
        <time>2013-09-14T12:20:40Z</time>
      </trkpt>
      <trkpt lat="45.26166" lon="5.03983">
        <ele>391</ele>
        <time>2013-09-14T12:20:43Z</time>
      </trkpt>
      <trkpt lat="45.26179" lon="5.04012">
        <ele>391</ele>
        <time>2013-09-14T12:20:47Z</time>
      </trkpt>
      <trkpt lat="45.26188" lon="5.04033">
        <ele>391</ele>
        <time>2013-09-14T12:20:50Z</time>
      </trkpt>
      <trkpt lat="45.26198" lon="5.04064">
        <ele>391</ele>
        <time>2013-09-14T12:20:54Z</time>
      </trkpt>
      <trkpt lat="45.26205" lon="5.04088">
        <ele>392</ele>
        <time>2013-09-14T12:20:57Z</time>
      </trkpt>
      <trkpt lat="45.26213" lon="5.04119">
        <ele>393</ele>
        <time>2013-09-14T12:21:01Z</time>
      </trkpt>
      <trkpt lat="45.26218" lon="5.04143">
        <ele>393</ele>
        <time>2013-09-14T12:21:04Z</time>
      </trkpt>
      <trkpt lat="45.26226" lon="5.04175">
        <ele>393</ele>
        <time>2013-09-14T12:21:08Z</time>
      </trkpt>
      <trkpt lat="45.26234" lon="5.04206">
        <ele>393</ele>
        <time>2013-09-14T12:21:12Z</time>
      </trkpt>
      <trkpt lat="45.26239" lon="5.04229">
        <ele>393</ele>
        <time>2013-09-14T12:21:15Z</time>
      </trkpt>
      <trkpt lat="45.26247" lon="5.04261">
        <ele>394</ele>
        <time>2013-09-14T12:21:19Z</time>
      </trkpt>
      <trkpt lat="45.26253" lon="5.04283">
        <ele>393</ele>
        <time>2013-09-14T12:21:22Z</time>
      </trkpt>
      <trkpt lat="45.26261" lon="5.04315">
        <ele>393</ele>
        <time>2013-09-14T12:21:26Z</time>
      </trkpt>
      <trkpt lat="45.26265" lon="5.0434">
        <ele>394</ele>
        <time>2013-09-14T12:21:29Z</time>
      </trkpt>
      <trkpt lat="45.26272" lon="5.04372">
        <ele>395</ele>
        <time>2013-09-14T12:21:33Z</time>
      </trkpt>
      <trkpt lat="45.26277" lon="5.04397">
        <ele>394</ele>
        <time>2013-09-14T12:21:36Z</time>
      </trkpt>
      <trkpt lat="45.26285" lon="5.04431">
        <ele>394</ele>
        <time>2013-09-14T12:21:40Z</time>
      </trkpt>
      <trkpt lat="45.26291" lon="5.04456">
        <ele>395</ele>
        <time>2013-09-14T12:21:43Z</time>
      </trkpt>
      <trkpt lat="45.26301" lon="5.04487">
        <ele>396</ele>
        <time>2013-09-14T12:21:47Z</time>
      </trkpt>
      <trkpt lat="45.26309" lon="5.04513">
        <ele>395</ele>
        <time>2013-09-14T12:21:50Z</time>
      </trkpt>
      <trkpt lat="45.26319" lon="5.04549">
        <ele>395</ele>
        <time>2013-09-14T12:21:54Z</time>
      </trkpt>
      <trkpt lat="45.26325" lon="5.04577">
        <ele>395</ele>
        <time>2013-09-14T12:21:57Z</time>
      </trkpt>
      <trkpt lat="45.26332" lon="5.04614">
        <ele>395</ele>
        <time>2013-09-14T12:22:01Z</time>
      </trkpt>
      <trkpt lat="45.26336" lon="5.04641">
        <ele>395</ele>
        <time>2013-09-14T12:22:04Z</time>
      </trkpt>
      <trkpt lat="45.26342" lon="5.04676">
        <ele>395</ele>
        <time>2013-09-14T12:22:08Z</time>
      </trkpt>
      <trkpt lat="45.26346" lon="5.04699">
        <ele>396</ele>
        <time>2013-09-14T12:22:11Z</time>
      </trkpt>
      <trkpt lat="45.26352" lon="5.0473">
        <ele>396</ele>
        <time>2013-09-14T12:22:15Z</time>
      </trkpt>
      <trkpt lat="45.26356" lon="5.04753">
        <ele>396</ele>
        <time>2013-09-14T12:22:18Z</time>
      </trkpt>
      <trkpt lat="45.26362" lon="5.04783">
        <ele>396</ele>
        <time>2013-09-14T12:22:22Z</time>
      </trkpt>
      <trkpt lat="45.26368" lon="5.04806">
        <ele>397</ele>
        <time>2013-09-14T12:22:25Z</time>
      </trkpt>
      <trkpt lat="45.26376" lon="5.04837">
        <ele>398</ele>
        <time>2013-09-14T12:22:29Z</time>
      </trkpt>
      <trkpt lat="45.26382" lon="5.04861">
        <ele>398</ele>
        <time>2013-09-14T12:22:32Z</time>
      </trkpt>
      <trkpt lat="45.2639" lon="5.04892">
        <ele>399</ele>
        <time>2013-09-14T12:22:36Z</time>
      </trkpt>
      <trkpt lat="45.26396" lon="5.04915">
        <ele>399</ele>
        <time>2013-09-14T12:22:39Z</time>
      </trkpt>
      <trkpt lat="45.26403" lon="5.04944">
        <ele>400</ele>
        <time>2013-09-14T12:22:43Z</time>
      </trkpt>
      <trkpt lat="45.26411" lon="5.04974">
        <ele>400</ele>
        <time>2013-09-14T12:22:47Z</time>
      </trkpt>
      <trkpt lat="45.26417" lon="5.04998">
        <ele>400</ele>
        <time>2013-09-14T12:22:50Z</time>
      </trkpt>
      <trkpt lat="45.26425" lon="5.05032">
        <ele>401</ele>
        <time>2013-09-14T12:22:54Z</time>
      </trkpt>
      <trkpt lat="45.26429" lon="5.05059">
        <ele>401</ele>
        <time>2013-09-14T12:22:57Z</time>
      </trkpt>
      <trkpt lat="45.26436" lon="5.05096">
        <ele>402</ele>
        <time>2013-09-14T12:23:01Z</time>
      </trkpt>
      <trkpt lat="45.2644" lon="5.05123">
        <ele>402</ele>
        <time>2013-09-14T12:23:04Z</time>
      </trkpt>
      <trkpt lat="45.26445" lon="5.0516">
        <ele>402</ele>
        <time>2013-09-14T12:23:08Z</time>
      </trkpt>
      <trkpt lat="45.26449" lon="5.05187">
        <ele>403</ele>
        <time>2013-09-14T12:23:11Z</time>
      </trkpt>
      <trkpt lat="45.26455" lon="5.05224">
        <ele>403</ele>
        <time>2013-09-14T12:23:15Z</time>
      </trkpt>
      <trkpt lat="45.26459" lon="5.05251">
        <ele>403</ele>
        <time>2013-09-14T12:23:18Z</time>
      </trkpt>
      <trkpt lat="45.26463" lon="5.05285">
        <ele>403</ele>
        <time>2013-09-14T12:23:22Z</time>
      </trkpt>
      <trkpt lat="45.26467" lon="5.0531">
        <ele>403</ele>
        <time>2013-09-14T12:23:25Z</time>
      </trkpt>
      <trkpt lat="45.26472" lon="5.05342">
        <ele>404</ele>
        <time>2013-09-14T12:23:29Z</time>
      </trkpt>
      <trkpt lat="45.26475" lon="5.05366">
        <ele>405</ele>
        <time>2013-09-14T12:23:32Z</time>
      </trkpt>
      <trkpt lat="45.2648" lon="5.05396">
        <ele>404</ele>
        <time>2013-09-14T12:23:36Z</time>
      </trkpt>
      <trkpt lat="45.26483" lon="5.05418">
        <ele>405</ele>
        <time>2013-09-14T12:23:39Z</time>
      </trkpt>
      <trkpt lat="45.26488" lon="5.05449">
        <ele>406</ele>
        <time>2013-09-14T12:23:43Z</time>
      </trkpt>
      <trkpt lat="45.26491" lon="5.05471">
        <ele>406</ele>
        <time>2013-09-14T12:23:46Z</time>
      </trkpt>
      <trkpt lat="45.26492" lon="5.05501">
        <ele>406</ele>
        <time>2013-09-14T12:23:50Z</time>
      </trkpt>
      <trkpt lat="45.26493" lon="5.05524">
        <ele>408</ele>
        <time>2013-09-14T12:23:53Z</time>
      </trkpt>
      <trkpt lat="45.26493" lon="5.05554">
        <ele>408</ele>
        <time>2013-09-14T12:23:57Z</time>
      </trkpt>
      <trkpt lat="45.26493" lon="5.05575">
        <ele>409</ele>
        <time>2013-09-14T12:24:00Z</time>
      </trkpt>
      <trkpt lat="45.26493" lon="5.05602">
        <ele>409</ele>
        <time>2013-09-14T12:24:04Z</time>
      </trkpt>
      <trkpt lat="45.26492" lon="5.05623">
        <ele>410</ele>
        <time>2013-09-14T12:24:07Z</time>
      </trkpt>
      <trkpt lat="45.26492" lon="5.05654">
        <ele>409</ele>
        <time>2013-09-14T12:24:11Z</time>
      </trkpt>
      <trkpt lat="45.26492" lon="5.05681">
        <ele>410</ele>
        <time>2013-09-14T12:24:14Z</time>
      </trkpt>
      <trkpt lat="45.26494" lon="5.05719">
        <ele>410</ele>
        <time>2013-09-14T12:24:18Z</time>
      </trkpt>
      <trkpt lat="45.26498" lon="5.05757">
        <ele>410</ele>
        <time>2013-09-14T12:24:22Z</time>
      </trkpt>
      <trkpt lat="45.26502" lon="5.05786">
        <ele>409</ele>
        <time>2013-09-14T12:24:25Z</time>
      </trkpt>
      <trkpt lat="45.26507" lon="5.05821">
        <ele>410</ele>
        <time>2013-09-14T12:24:29Z</time>
      </trkpt>
      <trkpt lat="45.26511" lon="5.05847">
        <ele>410</ele>
        <time>2013-09-14T12:24:32Z</time>
      </trkpt>
      <trkpt lat="45.26516" lon="5.05882">
        <ele>410</ele>
        <time>2013-09-14T12:24:36Z</time>
      </trkpt>
      <trkpt lat="45.26519" lon="5.05908">
        <ele>410</ele>
        <time>2013-09-14T12:24:39Z</time>
      </trkpt>
      <trkpt lat="45.26524" lon="5.0594">
        <ele>411</ele>
        <time>2013-09-14T12:24:43Z</time>
      </trkpt>
      <trkpt lat="45.26527" lon="5.05963">
        <ele>411</ele>
        <time>2013-09-14T12:24:46Z</time>
      </trkpt>
      <trkpt lat="45.26531" lon="5.05992">
        <ele>411</ele>
        <time>2013-09-14T12:24:50Z</time>
      </trkpt>
      <trkpt lat="45.26534" lon="5.06013">
        <ele>412</ele>
        <time>2013-09-14T12:24:53Z</time>
      </trkpt>
      <trkpt lat="45.26538" lon="5.0604">
        <ele>412</ele>
        <time>2013-09-14T12:24:57Z</time>
      </trkpt>
      <trkpt lat="45.26541" lon="5.06061">
        <ele>413</ele>
        <time>2013-09-14T12:25:00Z</time>
      </trkpt>
      <trkpt lat="45.26545" lon="5.06087">
        <ele>413</ele>
        <time>2013-09-14T12:25:04Z</time>
      </trkpt>
      <trkpt lat="45.26548" lon="5.06107">
        <ele>414</ele>
        <time>2013-09-14T12:25:07Z</time>
      </trkpt>
      <trkpt lat="45.26551" lon="5.06131">
        <ele>414</ele>
        <time>2013-09-14T12:25:11Z</time>
      </trkpt>
      <trkpt lat="45.26554" lon="5.0615">
        <ele>415</ele>
        <time>2013-09-14T12:25:14Z</time>
      </trkpt>
      <trkpt lat="45.26557" lon="5.06174">
        <ele>415</ele>
        <time>2013-09-14T12:25:18Z</time>
      </trkpt>
      <trkpt lat="45.26559" lon="5.06191">
        <ele>415</ele>
        <time>2013-09-14T12:25:21Z</time>
      </trkpt>
      <trkpt lat="45.26564" lon="5.06214">
        <ele>416</ele>
        <time>2013-09-14T12:25:25Z</time>
      </trkpt>
      <trkpt lat="45.26567" lon="5.06231">
        <ele>416</ele>
        <time>2013-09-14T12:25:28Z</time>
      </trkpt>
      <trkpt lat="45.26569" lon="5.06254">
        <ele>417</ele>
        <time>2013-09-14T12:25:32Z</time>
      </trkpt>
      <trkpt lat="45.2657" lon="5.06271">
        <ele>417</ele>
        <time>2013-09-14T12:25:35Z</time>
      </trkpt>
      <trkpt lat="45.2657" lon="5.06293">
        <ele>417</ele>
        <time>2013-09-14T12:25:39Z</time>
      </trkpt>
      <trkpt lat="45.26568" lon="5.06312">
        <ele>418</ele>
        <time>2013-09-14T12:25:42Z</time>
      </trkpt>
      <trkpt lat="45.26564" lon="5.06337">
        <ele>418</ele>
        <time>2013-09-14T12:25:46Z</time>
      </trkpt>
      <trkpt lat="45.2656" lon="5.06358">
        <ele>418</ele>
        <time>2013-09-14T12:25:49Z</time>
      </trkpt>
      <trkpt lat="45.26554" lon="5.06386">
        <ele>419</ele>
        <time>2013-09-14T12:25:53Z</time>
      </trkpt>
      <trkpt lat="45.26549" lon="5.06409">
        <ele>419</ele>
        <time>2013-09-14T12:25:56Z</time>
      </trkpt>
      <trkpt lat="45.26544" lon="5.06441">
        <ele>418</ele>
        <time>2013-09-14T12:26:00Z</time>
      </trkpt>
      <trkpt lat="45.26539" lon="5.06474">
        <ele>418</ele>
        <time>2013-09-14T12:26:04Z</time>
      </trkpt>
      <trkpt lat="45.26535" lon="5.065">
        <ele>418</ele>
        <time>2013-09-14T12:26:07Z</time>
      </trkpt>
      <trkpt lat="45.26529" lon="5.06535">
        <ele>418</ele>
        <time>2013-09-14T12:26:11Z</time>
      </trkpt>
      <trkpt lat="45.26525" lon="5.06561">
        <ele>418</ele>
        <time>2013-09-14T12:26:14Z</time>
      </trkpt>
      <trkpt lat="45.26524" lon="5.06594">
        <ele>418</ele>
        <time>2013-09-14T12:26:18Z</time>
      </trkpt>
      <trkpt lat="45.26523" lon="5.0662">
        <ele>418</ele>
        <time>2013-09-14T12:26:21Z</time>
      </trkpt>
      <trkpt lat="45.26523" lon="5.06658">
        <ele>417</ele>
        <time>2013-09-14T12:26:25Z</time>
      </trkpt>
      <trkpt lat="45.26525" lon="5.06689">
        <ele>417</ele>
        <time>2013-09-14T12:26:28Z</time>
      </trkpt>
      <trkpt lat="45.26527" lon="5.06734">
        <ele>417</ele>
        <time>2013-09-14T12:26:32Z</time>
      </trkpt>
      <trkpt lat="45.26527" lon="5.06768">
        <ele>416</ele>
        <time>2013-09-14T12:26:35Z</time>
      </trkpt>
      <trkpt lat="45.26527" lon="5.06812">
        <ele>415</ele>
        <time>2013-09-14T12:26:39Z</time>
      </trkpt>
      <trkpt lat="45.26527" lon="5.0684">
        <ele>416</ele>
        <time>2013-09-14T12:26:42Z</time>
      </trkpt>
      <trkpt lat="45.26529" lon="5.06876">
        <ele>417</ele>
        <time>2013-09-14T12:26:46Z</time>
      </trkpt>
      <trkpt lat="45.2653" lon="5.06902">
        <ele>417</ele>
        <time>2013-09-14T12:26:49Z</time>
      </trkpt>
      <trkpt lat="45.26532" lon="5.06934">
        <ele>417</ele>
        <time>2013-09-14T12:26:53Z</time>
      </trkpt>
      <trkpt lat="45.26533" lon="5.06957">
        <ele>417</ele>
        <time>2013-09-14T12:26:56Z</time>
      </trkpt>
      <trkpt lat="45.26533" lon="5.06986">
        <ele>418</ele>
        <time>2013-09-14T12:27:00Z</time>
      </trkpt>
      <trkpt lat="45.26534" lon="5.07008">
        <ele>418</ele>
        <time>2013-09-14T12:27:03Z</time>
      </trkpt>
      <trkpt lat="45.26534" lon="5.07037">
        <ele>419</ele>
        <time>2013-09-14T12:27:07Z</time>
      </trkpt>
      <trkpt lat="45.26535" lon="5.07058">
        <ele>420</ele>
        <time>2013-09-14T12:27:10Z</time>
      </trkpt>
      <trkpt lat="45.26537" lon="5.07087">
        <ele>419</ele>
        <time>2013-09-14T12:27:14Z</time>
      </trkpt>
      <trkpt lat="45.26537" lon="5.07108">
        <ele>420</ele>
        <time>2013-09-14T12:27:17Z</time>
      </trkpt>
      <trkpt lat="45.26538" lon="5.07137">
        <ele>421</ele>
        <time>2013-09-14T12:27:21Z</time>
      </trkpt>
      <trkpt lat="45.26538" lon="5.07158">
        <ele>421</ele>
        <time>2013-09-14T12:27:24Z</time>
      </trkpt>
      <trkpt lat="45.26539" lon="5.07187">
        <ele>421</ele>
        <time>2013-09-14T12:27:28Z</time>
      </trkpt>
      <trkpt lat="45.26539" lon="5.07208">
        <ele>421</ele>
        <time>2013-09-14T12:27:31Z</time>
      </trkpt>
      <trkpt lat="45.2654" lon="5.07237">
        <ele>422</ele>
        <time>2013-09-14T12:27:35Z</time>
      </trkpt>
      <trkpt lat="45.26541" lon="5.07266">
        <ele>423</ele>
        <time>2013-09-14T12:27:39Z</time>
      </trkpt>
      <trkpt lat="45.26541" lon="5.07287">
        <ele>423</ele>
        <time>2013-09-14T12:27:42Z</time>
      </trkpt>
      <trkpt lat="45.26542" lon="5.07314">
        <ele>423</ele>
        <time>2013-09-14T12:27:46Z</time>
      </trkpt>
      <trkpt lat="45.26543" lon="5.07335">
        <ele>424</ele>
        <time>2013-09-14T12:27:49Z</time>
      </trkpt>
      <trkpt lat="45.26545" lon="5.07362">
        <ele>425</ele>
        <time>2013-09-14T12:27:53Z</time>
      </trkpt>
      <trkpt lat="45.26545" lon="5.07382">
        <ele>425</ele>
        <time>2013-09-14T12:27:56Z</time>
      </trkpt>
      <trkpt lat="45.26547" lon="5.0741">
        <ele>425</ele>
        <time>2013-09-14T12:28:00Z</time>
      </trkpt>
      <trkpt lat="45.26548" lon="5.0743">
        <ele>426</ele>
        <time>2013-09-14T12:28:03Z</time>
      </trkpt>
      <trkpt lat="45.26549" lon="5.07458">
        <ele>426</ele>
        <time>2013-09-14T12:28:07Z</time>
      </trkpt>
      <trkpt lat="45.26549" lon="5.07478">
        <ele>427</ele>
        <time>2013-09-14T12:28:10Z</time>
      </trkpt>
      <trkpt lat="45.2655" lon="5.07506">
        <ele>427</ele>
        <time>2013-09-14T12:28:14Z</time>
      </trkpt>
      <trkpt lat="45.26551" lon="5.07527">
        <ele>427</ele>
        <time>2013-09-14T12:28:17Z</time>
      </trkpt>
      <trkpt lat="45.26551" lon="5.07556">
        <ele>428</ele>
        <time>2013-09-14T12:28:21Z</time>
      </trkpt>
      <trkpt lat="45.26551" lon="5.07576">
        <ele>427</ele>
        <time>2013-09-14T12:28:24Z</time>
      </trkpt>
      <trkpt lat="45.26551" lon="5.07604">
        <ele>428</ele>
        <time>2013-09-14T12:28:28Z</time>
      </trkpt>
      <trkpt lat="45.26549" lon="5.07625">
        <ele>428</ele>
        <time>2013-09-14T12:28:31Z</time>
      </trkpt>
      <trkpt lat="45.26544" lon="5.07654">
        <ele>428</ele>
        <time>2013-09-14T12:28:35Z</time>
      </trkpt>
      <trkpt lat="45.2654" lon="5.07677">
        <ele>429</ele>
        <time>2013-09-14T12:28:38Z</time>
      </trkpt>
      <trkpt lat="45.26534" lon="5.07709">
        <ele>429</ele>
        <time>2013-09-14T12:28:42Z</time>
      </trkpt>
      <trkpt lat="45.26531" lon="5.07733">
        <ele>429</ele>
        <time>2013-09-14T12:28:45Z</time>
      </trkpt>
      <trkpt lat="45.26527" lon="5.07767">
        <ele>429</ele>
        <time>2013-09-14T12:28:49Z</time>
      </trkpt>
      <trkpt lat="45.26522" lon="5.07792">
        <ele>430</ele>
        <time>2013-09-14T12:28:52Z</time>
      </trkpt>
      <trkpt lat="45.26517" lon="5.07826">
        <ele>428</ele>
        <time>2013-09-14T12:28:56Z</time>
      </trkpt>
      <trkpt lat="45.26512" lon="5.07852">
        <ele>429</ele>
        <time>2013-09-14T12:28:59Z</time>
      </trkpt>
      <trkpt lat="45.26507" lon="5.07886">
        <ele>429</ele>
        <time>2013-09-14T12:29:03Z</time>
      </trkpt>
      <trkpt lat="45.26502" lon="5.07912">
        <ele>428</ele>
        <time>2013-09-14T12:29:06Z</time>
      </trkpt>
      <trkpt lat="45.26497" lon="5.07947">
        <ele>429</ele>
        <time>2013-09-14T12:29:10Z</time>
      </trkpt>
      <trkpt lat="45.26491" lon="5.07983">
        <ele>429</ele>
        <time>2013-09-14T12:29:14Z</time>
      </trkpt>
      <trkpt lat="45.26486" lon="5.0801">
        <ele>429</ele>
        <time>2013-09-14T12:29:17Z</time>
      </trkpt>
      <trkpt lat="45.2648" lon="5.08045">
        <ele>429</ele>
        <time>2013-09-14T12:29:21Z</time>
      </trkpt>
      <trkpt lat="45.26477" lon="5.08071">
        <ele>429</ele>
        <time>2013-09-14T12:29:24Z</time>
      </trkpt>
      <trkpt lat="45.26474" lon="5.08104">
        <ele>430</ele>
        <time>2013-09-14T12:29:28Z</time>
      </trkpt>
      <trkpt lat="45.26473" lon="5.0813">
        <ele>430</ele>
        <time>2013-09-14T12:29:31Z</time>
      </trkpt>
      <trkpt lat="45.26474" lon="5.08164">
        <ele>430</ele>
        <time>2013-09-14T12:29:35Z</time>
      </trkpt>
      <trkpt lat="45.26476" lon="5.08189">
        <ele>430</ele>
        <time>2013-09-14T12:29:38Z</time>
      </trkpt>
      <trkpt lat="45.26478" lon="5.08222">
        <ele>431</ele>
        <time>2013-09-14T12:29:42Z</time>
      </trkpt>
      <trkpt lat="45.26479" lon="5.08245">
        <ele>431</ele>
        <time>2013-09-14T12:29:45Z</time>
      </trkpt>
      <trkpt lat="45.26481" lon="5.08276">
        <ele>431</ele>
        <time>2013-09-14T12:29:49Z</time>
      </trkpt>
      <trkpt lat="45.26481" lon="5.08299">
        <ele>431</ele>
        <time>2013-09-14T12:29:52Z</time>
      </trkpt>
      <trkpt lat="45.26482" lon="5.0833">
        <ele>432</ele>
        <time>2013-09-14T12:29:56Z</time>
      </trkpt>
      <trkpt lat="45.26482" lon="5.08353">
        <ele>432</ele>
        <time>2013-09-14T12:29:59Z</time>
      </trkpt>
      <trkpt lat="45.26483" lon="5.08383">
        <ele>431</ele>
        <time>2013-09-14T12:30:03Z</time>
      </trkpt>
      <trkpt lat="45.26484" lon="5.08405">
        <ele>432</ele>
        <time>2013-09-14T12:30:06Z</time>
      </trkpt>
      <trkpt lat="45.26487" lon="5.08433">
        <ele>433</ele>
        <time>2013-09-14T12:30:10Z</time>
      </trkpt>
      <trkpt lat="45.26488" lon="5.08455">
        <ele>432</ele>
        <time>2013-09-14T12:30:13Z</time>
      </trkpt>
      <trkpt lat="45.26491" lon="5.08483">
        <ele>433</ele>
        <time>2013-09-14T12:30:17Z</time>
      </trkpt>
      <trkpt lat="45.26493" lon="5.08504">
        <ele>433</ele>
        <time>2013-09-14T12:30:20Z</time>
      </trkpt>
      <trkpt lat="45.26497" lon="5.08534">
        <ele>433</ele>
        <time>2013-09-14T12:30:24Z</time>
      </trkpt>
      <trkpt lat="45.26499" lon="5.08557">
        <ele>433</ele>
        <time>2013-09-14T12:30:27Z</time>
      </trkpt>
      <trkpt lat="45.26502" lon="5.08588">
        <ele>433</ele>
        <time>2013-09-14T12:30:31Z</time>
      </trkpt>
      <trkpt lat="45.26503" lon="5.08612">
        <ele>434</ele>
        <time>2013-09-14T12:30:34Z</time>
      </trkpt>
      <trkpt lat="45.26504" lon="5.08644">
        <ele>434</ele>
        <time>2013-09-14T12:30:38Z</time>
      </trkpt>
      <trkpt lat="45.26504" lon="5.08667">
        <ele>435</ele>
        <time>2013-09-14T12:30:41Z</time>
      </trkpt>
      <trkpt lat="45.26503" lon="5.08699">
        <ele>435</ele>
        <time>2013-09-14T12:30:45Z</time>
      </trkpt>
      <trkpt lat="45.26502" lon="5.08722">
        <ele>435</ele>
        <time>2013-09-14T12:30:48Z</time>
      </trkpt>
      <trkpt lat="45.26501" lon="5.08753">
        <ele>435</ele>
        <time>2013-09-14T12:30:52Z</time>
      </trkpt>
      <trkpt lat="45.26499" lon="5.08784">
        <ele>435</ele>
        <time>2013-09-14T12:30:56Z</time>
      </trkpt>
      <trkpt lat="45.26498" lon="5.08807">
        <ele>435</ele>
        <time>2013-09-14T12:30:59Z</time>
      </trkpt>
      <trkpt lat="45.26496" lon="5.08839">
        <ele>435</ele>
        <time>2013-09-14T12:31:03Z</time>
      </trkpt>
      <trkpt lat="45.26495" lon="5.08863">
        <ele>437</ele>
        <time>2013-09-14T12:31:06Z</time>
      </trkpt>
      <trkpt lat="45.26493" lon="5.08896">
        <ele>436</ele>
        <time>2013-09-14T12:31:10Z</time>
      </trkpt>
      <trkpt lat="45.26491" lon="5.08921">
        <ele>436</ele>
        <time>2013-09-14T12:31:13Z</time>
      </trkpt>
      <trkpt lat="45.2649" lon="5.08954">
        <ele>437</ele>
        <time>2013-09-14T12:31:17Z</time>
      </trkpt>
      <trkpt lat="45.26488" lon="5.08979">
        <ele>437</ele>
        <time>2013-09-14T12:31:20Z</time>
      </trkpt>
      <trkpt lat="45.26486" lon="5.09012">
        <ele>438</ele>
        <time>2013-09-14T12:31:24Z</time>
      </trkpt>
      <trkpt lat="45.26484" lon="5.09037">
        <ele>437</ele>
        <time>2013-09-14T12:31:27Z</time>
      </trkpt>
      <trkpt lat="45.26483" lon="5.0907">
        <ele>437</ele>
        <time>2013-09-14T12:31:31Z</time>
      </trkpt>
      <trkpt lat="45.26481" lon="5.09096">
        <ele>438</ele>
        <time>2013-09-14T12:31:34Z</time>
      </trkpt>
      <trkpt lat="45.26479" lon="5.09129">
        <ele>438</ele>
        <time>2013-09-14T12:31:38Z</time>
      </trkpt>
      <trkpt lat="45.26478" lon="5.09154">
        <ele>439</ele>
        <time>2013-09-14T12:31:41Z</time>
      </trkpt>
      <trkpt lat="45.26476" lon="5.09186">
        <ele>439</ele>
        <time>2013-09-14T12:31:45Z</time>
      </trkpt>
      <trkpt lat="45.26474" lon="5.09209">
        <ele>438</ele>
        <time>2013-09-14T12:31:48Z</time>
      </trkpt>
      <trkpt lat="45.26473" lon="5.09241">
        <ele>439</ele>
        <time>2013-09-14T12:31:52Z</time>
      </trkpt>
      <trkpt lat="45.26472" lon="5.09264">
        <ele>439</ele>
        <time>2013-09-14T12:31:55Z</time>
      </trkpt>
      <trkpt lat="45.2647" lon="5.09295">
        <ele>439</ele>
        <time>2013-09-14T12:31:59Z</time>
      </trkpt>
      <trkpt lat="45.26469" lon="5.09318">
        <ele>440</ele>
        <time>2013-09-14T12:32:02Z</time>
      </trkpt>
      <trkpt lat="45.26467" lon="5.09348">
        <ele>440</ele>
        <time>2013-09-14T12:32:06Z</time>
      </trkpt>
      <trkpt lat="45.26466" lon="5.09371">
        <ele>440</ele>
        <time>2013-09-14T12:32:09Z</time>
      </trkpt>
      <trkpt lat="45.26464" lon="5.09403">
        <ele>440</ele>
        <time>2013-09-14T12:32:13Z</time>
      </trkpt>
      <trkpt lat="45.26463" lon="5.09426">
        <ele>440</ele>
        <time>2013-09-14T12:32:16Z</time>
      </trkpt>
      <trkpt lat="45.26461" lon="5.0946">
        <ele>440</ele>
        <time>2013-09-14T12:32:20Z</time>
      </trkpt>
      <trkpt lat="45.2646" lon="5.09484">
        <ele>440</ele>
        <time>2013-09-14T12:32:23Z</time>
      </trkpt>
      <trkpt lat="45.26458" lon="5.09515">
        <ele>440</ele>
        <time>2013-09-14T12:32:27Z</time>
      </trkpt>
      <trkpt lat="45.26456" lon="5.09545">
        <ele>441</ele>
        <time>2013-09-14T12:32:31Z</time>
      </trkpt>
      <trkpt lat="45.26455" lon="5.09569">
        <ele>440</ele>
        <time>2013-09-14T12:32:34Z</time>
      </trkpt>
      <trkpt lat="45.26455" lon="5.09599">
        <ele>441</ele>
        <time>2013-09-14T12:32:38Z</time>
      </trkpt>
      <trkpt lat="45.26456" lon="5.09622">
        <ele>441</ele>
        <time>2013-09-14T12:32:41Z</time>
      </trkpt>
      <trkpt lat="45.2646" lon="5.09653">
        <ele>442</ele>
        <time>2013-09-14T12:32:45Z</time>
      </trkpt>
      <trkpt lat="45.26463" lon="5.09676">
        <ele>442</ele>
        <time>2013-09-14T12:32:48Z</time>
      </trkpt>
      <trkpt lat="45.26467" lon="5.09707">
        <ele>441</ele>
        <time>2013-09-14T12:32:52Z</time>
      </trkpt>
      <trkpt lat="45.26467" lon="5.0973">
        <ele>442</ele>
        <time>2013-09-14T12:32:55Z</time>
      </trkpt>
      <trkpt lat="45.26464" lon="5.09761">
        <ele>442</ele>
        <time>2013-09-14T12:32:59Z</time>
      </trkpt>
      <trkpt lat="45.26461" lon="5.09783">
        <ele>442</ele>
        <time>2013-09-14T12:33:02Z</time>
      </trkpt>
      <trkpt lat="45.26457" lon="5.0981">
        <ele>443</ele>
        <time>2013-09-14T12:33:06Z</time>
      </trkpt>
      <trkpt lat="45.26455" lon="5.09831">
        <ele>443</ele>
        <time>2013-09-14T12:33:09Z</time>
      </trkpt>
      <trkpt lat="45.26455" lon="5.09861">
        <ele>442</ele>
        <time>2013-09-14T12:33:13Z</time>
      </trkpt>
      <trkpt lat="45.26458" lon="5.09882">
        <ele>443</ele>
        <time>2013-09-14T12:33:16Z</time>
      </trkpt>
      <trkpt lat="45.26463" lon="5.09909">
        <ele>444</ele>
        <time>2013-09-14T12:33:20Z</time>
      </trkpt>
      <trkpt lat="45.26468" lon="5.09928">
        <ele>444</ele>
        <time>2013-09-14T12:33:23Z</time>
      </trkpt>
      <trkpt lat="45.26475" lon="5.09953">
        <ele>444</ele>
        <time>2013-09-14T12:33:27Z</time>
      </trkpt>
      <trkpt lat="45.2648" lon="5.09972">
        <ele>444</ele>
        <time>2013-09-14T12:33:30Z</time>
      </trkpt>
      <trkpt lat="45.26486" lon="5.09999">
        <ele>445</ele>
        <time>2013-09-14T12:33:34Z</time>
      </trkpt>
      <trkpt lat="45.26491" lon="5.1002">
        <ele>445</ele>
        <time>2013-09-14T12:33:37Z</time>
      </trkpt>
      <trkpt lat="45.26498" lon="5.10047">
        <ele>445</ele>
        <time>2013-09-14T12:33:41Z</time>
      </trkpt>
      <trkpt lat="45.26502" lon="5.10068">
        <ele>445</ele>
        <time>2013-09-14T12:33:44Z</time>
      </trkpt>
      <trkpt lat="45.26507" lon="5.10096">
        <ele>445</ele>
        <time>2013-09-14T12:33:48Z</time>
      </trkpt>
      <trkpt lat="45.26509" lon="5.10118">
        <ele>446</ele>
        <time>2013-09-14T12:33:51Z</time>
      </trkpt>
      <trkpt lat="45.26508" lon="5.10148">
        <ele>445</ele>
        <time>2013-09-14T12:33:55Z</time>
      </trkpt>
      <trkpt lat="45.26505" lon="5.1017">
        <ele>445</ele>
        <time>2013-09-14T12:33:58Z</time>
      </trkpt>
      <trkpt lat="45.265" lon="5.10198">
        <ele>446</ele>
        <time>2013-09-14T12:34:02Z</time>
      </trkpt>
      <trkpt lat="45.26496" lon="5.1022">
        <ele>446</ele>
        <time>2013-09-14T12:34:05Z</time>
      </trkpt>
      <trkpt lat="45.26492" lon="5.10248">
        <ele>446</ele>
        <time>2013-09-14T12:34:09Z</time>
      </trkpt>
      <trkpt lat="45.26487" lon="5.10277">
        <ele>446</ele>
        <time>2013-09-14T12:34:13Z</time>
      </trkpt>
      <trkpt lat="45.26482" lon="5.103">
        <ele>446</ele>
        <time>2013-09-14T12:34:16Z</time>
      </trkpt>
      <trkpt lat="45.26476" lon="5.1033">
        <ele>447</ele>
        <time>2013-09-14T12:34:20Z</time>
      </trkpt>
      <trkpt lat="45.26473" lon="5.10352">
        <ele>446</ele>
        <time>2013-09-14T12:34:23Z</time>
      </trkpt>
      <trkpt lat="45.26467" lon="5.1038">
        <ele>447</ele>
        <time>2013-09-14T12:34:27Z</time>
      </trkpt>
      <trkpt lat="45.26464" lon="5.10403">
        <ele>448</ele>
        <time>2013-09-14T12:34:30Z</time>
      </trkpt>
      <trkpt lat="45.26459" lon="5.10432">
        <ele>447</ele>
        <time>2013-09-14T12:34:34Z</time>
      </trkpt>
      <trkpt lat="45.26456" lon="5.10453">
        <ele>447</ele>
        <time>2013-09-14T12:34:37Z</time>
      </trkpt>
      <trkpt lat="45.26451" lon="5.10483">
        <ele>447</ele>
        <time>2013-09-14T12:34:41Z</time>
      </trkpt>
      <trkpt lat="45.26448" lon="5.10504">
        <ele>447</ele>
        <time>2013-09-14T12:34:44Z</time>
      </trkpt>
      <trkpt lat="45.26442" lon="5.10531">
        <ele>448</ele>
        <time>2013-09-14T12:34:48Z</time>
      </trkpt>
      <trkpt lat="45.26438" lon="5.1055">
        <ele>448</ele>
        <time>2013-09-14T12:34:51Z</time>
      </trkpt>
      <trkpt lat="45.26432" lon="5.10578">
        <ele>449</ele>
        <time>2013-09-14T12:34:55Z</time>
      </trkpt>
      <trkpt lat="45.26428" lon="5.10601">
        <ele>448</ele>
        <time>2013-09-14T12:34:58Z</time>
      </trkpt>
      <trkpt lat="45.26423" lon="5.10632">
        <ele>449</ele>
        <time>2013-09-14T12:35:02Z</time>
      </trkpt>
      <trkpt lat="45.26419" lon="5.10655">
        <ele>448</ele>
        <time>2013-09-14T12:35:05Z</time>
      </trkpt>
      <trkpt lat="45.26415" lon="5.10685">
        <ele>449</ele>
        <time>2013-09-14T12:35:09Z</time>
      </trkpt>
      <trkpt lat="45.26414" lon="5.10708">
        <ele>450</ele>
        <time>2013-09-14T12:35:12Z</time>
      </trkpt>
      <trkpt lat="45.26417" lon="5.10738">
        <ele>449</ele>
        <time>2013-09-14T12:35:16Z</time>
      </trkpt>
      <trkpt lat="45.26421" lon="5.10761">
        <ele>449</ele>
        <time>2013-09-14T12:35:19Z</time>
      </trkpt>
      <trkpt lat="45.26427" lon="5.1079">
        <ele>449</ele>
        <time>2013-09-14T12:35:23Z</time>
      </trkpt>
      <trkpt lat="45.26431" lon="5.10813">
        <ele>450</ele>
        <time>2013-09-14T12:35:26Z</time>
      </trkpt>
      <trkpt lat="45.26433" lon="5.10843">
        <ele>450</ele>
        <time>2013-09-14T12:35:30Z</time>
      </trkpt>
      <trkpt lat="45.26433" lon="5.10867">
        <ele>450</ele>
        <time>2013-09-14T12:35:33Z</time>
      </trkpt>
      <trkpt lat="45.26429" lon="5.10899">
        <ele>450</ele>
        <time>2013-09-14T12:35:37Z</time>
      </trkpt>
      <trkpt lat="45.26427" lon="5.10923">
        <ele>451</ele>
        <time>2013-09-14T12:35:40Z</time>
      </trkpt>
      <trkpt lat="45.26425" lon="5.10954">
        <ele>452</ele>
        <time>2013-09-14T12:35:44Z</time>
      </trkpt>
      <trkpt lat="45.26425" lon="5.10985">
        <ele>451</ele>
        <time>2013-09-14T12:35:48Z</time>
      </trkpt>
      <trkpt lat="45.26426" lon="5.11009">
        <ele>451</ele>
        <time>2013-09-14T12:35:51Z</time>
      </trkpt>
      <trkpt lat="45.26428" lon="5.11041">
        <ele>452</ele>
        <time>2013-09-14T12:35:55Z</time>
      </trkpt>
      <trkpt lat="45.26428" lon="5.11064">
        <ele>453</ele>
        <time>2013-09-14T12:35:58Z</time>
      </trkpt>
      <trkpt lat="45.26429" lon="5.11095">
        <ele>453</ele>
        <time>2013-09-14T12:36:02Z</time>
      </trkpt>
      <trkpt lat="45.26429" lon="5.11118">
        <ele>453</ele>
        <time>2013-09-14T12:36:05Z</time>
      </trkpt>
      <trkpt lat="45.26426" lon="5.11149">
        <ele>453</ele>
        <time>2013-09-14T12:36:09Z</time>
      </trkpt>
      <trkpt lat="45.26422" lon="5.11173">
        <ele>453</ele>
        <time>2013-09-14T12:36:12Z</time>
      </trkpt>
      <trkpt lat="45.26416" lon="5.11204">
        <ele>453</ele>
        <time>2013-09-14T12:36:16Z</time>
      </trkpt>
      <trkpt lat="45.26412" lon="5.11227">
        <ele>453</ele>
        <time>2013-09-14T12:36:19Z</time>
      </trkpt>
      <trkpt lat="45.26409" lon="5.11259">
        <ele>453</ele>
        <time>2013-09-14T12:36:23Z</time>
      </trkpt>
      <trkpt lat="45.26408" lon="5.11283">
        <ele>453</ele>
        <time>2013-09-14T12:36:26Z</time>
      </trkpt>
      <trkpt lat="45.26406" lon="5.11318">
        <ele>453</ele>
        <time>2013-09-14T12:36:30Z</time>
      </trkpt>
      <trkpt lat="45.26404" lon="5.11344">
        <ele>454</ele>
        <time>2013-09-14T12:36:33Z</time>
      </trkpt>
      <trkpt lat="45.26401" lon="5.11381">
        <ele>454</ele>
        <time>2013-09-14T12:36:37Z</time>
      </trkpt>
      <trkpt lat="45.26398" lon="5.11408">
        <ele>454</ele>
        <time>2013-09-14T12:36:40Z</time>
      </trkpt>
      <trkpt lat="45.26394" lon="5.1144">
        <ele>453</ele>
        <time>2013-09-14T12:36:44Z</time>
      </trkpt>
      <trkpt lat="45.26391" lon="5.11463">
        <ele>454</ele>
        <time>2013-09-14T12:36:47Z</time>
      </trkpt>
      <trkpt lat="45.26382" lon="5.11492">
        <ele>453</ele>
        <time>2013-09-14T12:36:51Z</time>
      </trkpt>
      <trkpt lat="45.26373" lon="5.11513">
        <ele>454</ele>
        <time>2013-09-14T12:36:54Z</time>
      </trkpt>
      <trkpt lat="45.26363" lon="5.11538">
        <ele>455</ele>
        <time>2013-09-14T12:36:58Z</time>
      </trkpt>
      <trkpt lat="45.26357" lon="5.11558">
        <ele>454</ele>
        <time>2013-09-14T12:37:01Z</time>
      </trkpt>
      <trkpt lat="45.26352" lon="5.11587">
        <ele>455</ele>
        <time>2013-09-14T12:37:05Z</time>
      </trkpt>
      <trkpt lat="45.26352" lon="5.11609">
        <ele>455</ele>
        <time>2013-09-14T12:37:08Z</time>
      </trkpt>
      <trkpt lat="45.26351" lon="5.11643">
        <ele>455</ele>
        <time>2013-09-14T12:37:12Z</time>
      </trkpt>
      <trkpt lat="45.26353" lon="5.11669">
        <ele>455</ele>
        <time>2013-09-14T12:37:15Z</time>
      </trkpt>
      <trkpt lat="45.26356" lon="5.11705">
        <ele>455</ele>
        <time>2013-09-14T12:37:19Z</time>
      </trkpt>
      <trkpt lat="45.26359" lon="5.11739">
        <ele>455</ele>
        <time>2013-09-14T12:37:23Z</time>
      </trkpt>
      <trkpt lat="45.26361" lon="5.11763">
        <ele>456</ele>
        <time>2013-09-14T12:37:26Z</time>
      </trkpt>
      <trkpt lat="45.26362" lon="5.11797">
        <ele>455</ele>
        <time>2013-09-14T12:37:30Z</time>
      </trkpt>
      <trkpt lat="45.2636" lon="5.11823">
        <ele>456</ele>
        <time>2013-09-14T12:37:33Z</time>
      </trkpt>
      <trkpt lat="45.26355" lon="5.11858">
        <ele>456</ele>
        <time>2013-09-14T12:37:37Z</time>
      </trkpt>
      <trkpt lat="45.2635" lon="5.1188">
        <ele>457</ele>
        <time>2013-09-14T12:37:40Z</time>
      </trkpt>
      <trkpt lat="45.26345" lon="5.1191">
        <ele>456</ele>
        <time>2013-09-14T12:37:44Z</time>
      </trkpt>
      <trkpt lat="45.26341" lon="5.11934">
        <ele>456</ele>
        <time>2013-09-14T12:37:47Z</time>
      </trkpt>
      <trkpt lat="45.26337" lon="5.11966">
        <ele>456</ele>
        <time>2013-09-14T12:37:51Z</time>
      </trkpt>
      <trkpt lat="45.26333" lon="5.1199">
        <ele>457</ele>
        <time>2013-09-14T12:37:54Z</time>
      </trkpt>
      <trkpt lat="45.26329" lon="5.12022">
        <ele>456</ele>
        <time>2013-09-14T12:37:58Z</time>
      </trkpt>
      <trkpt lat="45.26325" lon="5.12046">
        <ele>457</ele>
        <time>2013-09-14T12:38:01Z</time>
      </trkpt>
      <trkpt lat="45.26321" lon="5.12076">
        <ele>457</ele>
        <time>2013-09-14T12:38:05Z</time>
      </trkpt>
      <trkpt lat="45.26319" lon="5.12098">
        <ele>457</ele>
        <time>2013-09-14T12:38:08Z</time>
      </trkpt>
      <trkpt lat="45.26314" lon="5.12127">
        <ele>458</ele>
        <time>2013-09-14T12:38:12Z</time>
      </trkpt>
      <trkpt lat="45.26311" lon="5.1215">
        <ele>458</ele>
        <time>2013-09-14T12:38:15Z</time>
      </trkpt>
      <trkpt lat="45.26308" lon="5.12179">
        <ele>459</ele>
        <time>2013-09-14T12:38:19Z</time>
      </trkpt>
      <trkpt lat="45.26304" lon="5.122">
        <ele>459</ele>
        <time>2013-09-14T12:38:22Z</time>
      </trkpt>
      <trkpt lat="45.263" lon="5.12229">
        <ele>460</ele>
        <time>2013-09-14T12:38:26Z</time>
      </trkpt>
      <trkpt lat="45.26295" lon="5.1225">
        <ele>460</ele>
        <time>2013-09-14T12:38:29Z</time>
      </trkpt>
      <trkpt lat="45.26286" lon="5.12276">
        <ele>460</ele>
        <time>2013-09-14T12:38:33Z</time>
      </trkpt>
      <trkpt lat="45.26277" lon="5.12295">
        <ele>460</ele>
        <time>2013-09-14T12:38:36Z</time>
      </trkpt>
      <trkpt lat="45.26264" lon="5.12319">
        <ele>461</ele>
        <time>2013-09-14T12:38:40Z</time>
      </trkpt>
      <trkpt lat="45.26254" lon="5.12337">
        <ele>462</ele>
        <time>2013-09-14T12:38:43Z</time>
      </trkpt>
      <trkpt lat="45.26242" lon="5.12358">
        <ele>461</ele>
        <time>2013-09-14T12:38:47Z</time>
      </trkpt>
      <trkpt lat="45.26232" lon="5.12374">
        <ele>463</ele>
        <time>2013-09-14T12:38:50Z</time>
      </trkpt>
      <trkpt lat="45.26219" lon="5.12397">
        <ele>462</ele>
        <time>2013-09-14T12:38:54Z</time>
      </trkpt>
      <trkpt lat="45.26209" lon="5.12413">
        <ele>463</ele>
        <time>2013-09-14T12:38:57Z</time>
      </trkpt>
      <trkpt lat="45.26196" lon="5.12434">
        <ele>463</ele>
        <time>2013-09-14T12:39:01Z</time>
      </trkpt>
      <trkpt lat="45.26184" lon="5.12455">
        <ele>463</ele>
        <time>2013-09-14T12:39:05Z</time>
      </trkpt>
      <trkpt lat="45.26175" lon="5.12474">
        <ele>463</ele>
        <time>2013-09-14T12:39:08Z</time>
      </trkpt>
      <trkpt lat="45.26166" lon="5.125">
        <ele>464</ele>
        <time>2013-09-14T12:39:12Z</time>
      </trkpt>
      <trkpt lat="45.26159" lon="5.1252">
        <ele>464</ele>
        <time>2013-09-14T12:39:15Z</time>
      </trkpt>
      <trkpt lat="45.2615" lon="5.12546">
        <ele>464</ele>
        <time>2013-09-14T12:39:19Z</time>
      </trkpt>
      <trkpt lat="45.26142" lon="5.12566">
        <ele>465</ele>
        <time>2013-09-14T12:39:22Z</time>
      </trkpt>
      <trkpt lat="45.26131" lon="5.12592">
        <ele>465</ele>
        <time>2013-09-14T12:39:26Z</time>
      </trkpt>
      <trkpt lat="45.26122" lon="5.12611">
        <ele>465</ele>
        <time>2013-09-14T12:39:29Z</time>
      </trkpt>
      <trkpt lat="45.26109" lon="5.12637">
        <ele>466</ele>
        <time>2013-09-14T12:39:33Z</time>
      </trkpt>
      <trkpt lat="45.261" lon="5.12657">
        <ele>465</ele>
        <time>2013-09-14T12:39:36Z</time>
      </trkpt>
      <trkpt lat="45.26087" lon="5.12684">
        <ele>465</ele>
        <time>2013-09-14T12:39:40Z</time>
      </trkpt>
      <trkpt lat="45.2608" lon="5.12704">
        <ele>466</ele>
        <time>2013-09-14T12:39:43Z</time>
      </trkpt>
      <trkpt lat="45.2607" lon="5.12732">
        <ele>466</ele>
        <time>2013-09-14T12:39:47Z</time>
      </trkpt>
      <trkpt lat="45.26065" lon="5.12754">
        <ele>468</ele>
        <time>2013-09-14T12:39:50Z</time>
      </trkpt>
      <trkpt lat="45.26058" lon="5.12783">
        <ele>467</ele>
        <time>2013-09-14T12:39:54Z</time>
      </trkpt>
      <trkpt lat="45.26054" lon="5.12806">
        <ele>467</ele>
        <time>2013-09-14T12:39:57Z</time>
      </trkpt>
      <trkpt lat="45.26047" lon="5.12837">
        <ele>468</ele>
        <time>2013-09-14T12:40:01Z</time>
      </trkpt>
      <trkpt lat="45.26042" lon="5.12859">
        <ele>468</ele>
        <time>2013-09-14T12:40:04Z</time>
      </trkpt>
      <trkpt lat="45.26036" lon="5.12889">
        <ele>468</ele>
        <time>2013-09-14T12:40:08Z</time>
      </trkpt>
      <trkpt lat="45.26032" lon="5.12912">
        <ele>468</ele>
        <time>2013-09-14T12:40:11Z</time>
      </trkpt>
      <trkpt lat="45.26025" lon="5.12943">
        <ele>468</ele>
        <time>2013-09-14T12:40:15Z</time>
      </trkpt>
      <trkpt lat="45.2602" lon="5.12966">
        <ele>468</ele>
        <time>2013-09-14T12:40:18Z</time>
      </trkpt>
      <trkpt lat="45.26013" lon="5.12996">
        <ele>468</ele>
        <time>2013-09-14T12:40:22Z</time>
      </trkpt>
      <trkpt lat="45.26008" lon="5.13018">
        <ele>468</ele>
        <time>2013-09-14T12:40:25Z</time>
      </trkpt>
      <trkpt lat="45.26" lon="5.13048">
        <ele>469</ele>
        <time>2013-09-14T12:40:29Z</time>
      </trkpt>
      <trkpt lat="45.25994" lon="5.1307">
        <ele>469</ele>
        <time>2013-09-14T12:40:32Z</time>
      </trkpt>
      <trkpt lat="45.25987" lon="5.13098">
        <ele>469</ele>
        <time>2013-09-14T12:40:36Z</time>
      </trkpt>
      <trkpt lat="45.25982" lon="5.13129">
        <ele>470</ele>
        <time>2013-09-14T12:40:40Z</time>
      </trkpt>
      <trkpt lat="45.25982" lon="5.13152">
        <ele>470</ele>
        <time>2013-09-14T12:40:43Z</time>
      </trkpt>
      <trkpt lat="45.25985" lon="5.13183">
        <ele>471</ele>
        <time>2013-09-14T12:40:47Z</time>
      </trkpt>
      <trkpt lat="45.25989" lon="5.13204">
        <ele>471</ele>
        <time>2013-09-14T12:40:50Z</time>
      </trkpt>
      <trkpt lat="45.25994" lon="5.13233">
        <ele>470</ele>
        <time>2013-09-14T12:40:54Z</time>
      </trkpt>
      <trkpt lat="45.25997" lon="5.13254">
        <ele>472</ele>
        <time>2013-09-14T12:40:57Z</time>
      </trkpt>
      <trkpt lat="45.26003" lon="5.13282">
        <ele>471</ele>
        <time>2013-09-14T12:41:01Z</time>
      </trkpt>
      <trkpt lat="45.26007" lon="5.13303">
        <ele>471</ele>
        <time>2013-09-14T12:41:04Z</time>
      </trkpt>
      <trkpt lat="45.26013" lon="5.13331">
        <ele>473</ele>
        <time>2013-09-14T12:41:08Z</time>
      </trkpt>
      <trkpt lat="45.26017" lon="5.13353">
        <ele>473</ele>
        <time>2013-09-14T12:41:11Z</time>
      </trkpt>
      <trkpt lat="45.26022" lon="5.13382">
        <ele>473</ele>
        <time>2013-09-14T12:41:15Z</time>
      </trkpt>
      <trkpt lat="45.26026" lon="5.13404">
        <ele>472</ele>
        <time>2013-09-14T12:41:18Z</time>
      </trkpt>
      <trkpt lat="45.2603" lon="5.13434">
        <ele>473</ele>
        <time>2013-09-14T12:41:22Z</time>
      </trkpt>
      <trkpt lat="45.26032" lon="5.13456">
        <ele>474</ele>
        <time>2013-09-14T12:41:25Z</time>
      </trkpt>
      <trkpt lat="45.26036" lon="5.13486">
        <ele>473</ele>
        <time>2013-09-14T12:41:29Z</time>
      </trkpt>
      <trkpt lat="45.26039" lon="5.13509">
        <ele>473</ele>
        <time>2013-09-14T12:41:32Z</time>
      </trkpt>
      <trkpt lat="45.26042" lon="5.1354">
        <ele>473</ele>
        <time>2013-09-14T12:41:36Z</time>
      </trkpt>
      <trkpt lat="45.26044" lon="5.13562">
        <ele>474</ele>
        <time>2013-09-14T12:41:39Z</time>
      </trkpt>
      <trkpt lat="45.26047" lon="5.13591">
        <ele>474</ele>
        <time>2013-09-14T12:41:43Z</time>
      </trkpt>
      <trkpt lat="45.26049" lon="5.13612">
        <ele>473</ele>
        <time>2013-09-14T12:41:46Z</time>
      </trkpt>
      <trkpt lat="45.26052" lon="5.13642">
        <ele>474</ele>
        <time>2013-09-14T12:41:50Z</time>
      </trkpt>
      <trkpt lat="45.26054" lon="5.13665">
        <ele>475</ele>
        <time>2013-09-14T12:41:53Z</time>
      </trkpt>
      <trkpt lat="45.26057" lon="5.13695">
        <ele>475</ele>
        <time>2013-09-14T12:41:57Z</time>
      </trkpt>
      <trkpt lat="45.26059" lon="5.13718">
        <ele>475</ele>
        <time>2013-09-14T12:42:00Z</time>
      </trkpt>
      <trkpt lat="45.26063" lon="5.13749">
        <ele>475</ele>
        <time>2013-09-14T12:42:04Z</time>
      </trkpt>
      <trkpt lat="45.26066" lon="5.13772">
        <ele>475</ele>
        <time>2013-09-14T12:42:07Z</time>
      </trkpt>
      <trkpt lat="45.26069" lon="5.13802">
        <ele>474</ele>
        <time>2013-09-14T12:42:11Z</time>
      </trkpt>
      <trkpt lat="45.26069" lon="5.13826">
        <ele>475</ele>
        <time>2013-09-14T12:42:14Z</time>
      </trkpt>
      <trkpt lat="45.26068" lon="5.13858">
        <ele>476</ele>
        <time>2013-09-14T12:42:18Z</time>
      </trkpt>
      <trkpt lat="45.26063" lon="5.1389">
        <ele>476</ele>
        <time>2013-09-14T12:42:22Z</time>
      </trkpt>
      <trkpt lat="45.26056" lon="5.13914">
        <ele>476</ele>
        <time>2013-09-14T12:42:25Z</time>
      </trkpt>
      <trkpt lat="45.26046" lon="5.13945">
        <ele>476</ele>
        <time>2013-09-14T12:42:29Z</time>
      </trkpt>
      <trkpt lat="45.2604" lon="5.13968">
        <ele>476</ele>
        <time>2013-09-14T12:42:32Z</time>
      </trkpt>
      <trkpt lat="45.26036" lon="5.14">
        <ele>477</ele>
        <time>2013-09-14T12:42:36Z</time>
      </trkpt>
      <trkpt lat="45.26035" lon="5.14023">
        <ele>477</ele>
        <time>2013-09-14T12:42:39Z</time>
      </trkpt>
      <trkpt lat="45.26037" lon="5.14054">
        <ele>477</ele>
        <time>2013-09-14T12:42:43Z</time>
      </trkpt>
      <trkpt lat="45.26039" lon="5.14076">
        <ele>478</ele>
        <time>2013-09-14T12:42:46Z</time>
      </trkpt>
      <trkpt lat="45.26045" lon="5.14105">
        <ele>478</ele>
        <time>2013-09-14T12:42:50Z</time>
      </trkpt>
      <trkpt lat="45.2605" lon="5.14127">
        <ele>479</ele>
        <time>2013-09-14T12:42:53Z</time>
      </trkpt>
      <trkpt lat="45.26057" lon="5.14156">
        <ele>478</ele>
        <time>2013-09-14T12:42:57Z</time>
      </trkpt>
      <trkpt lat="45.26062" lon="5.14178">
        <ele>478</ele>
        <time>2013-09-14T12:43:00Z</time>
      </trkpt>
      <trkpt lat="45.26064" lon="5.14208">
        <ele>479</ele>
        <time>2013-09-14T12:43:04Z</time>
      </trkpt>
      <trkpt lat="45.26063" lon="5.14228">
        <ele>479</ele>
        <time>2013-09-14T12:43:07Z</time>
      </trkpt>
      <trkpt lat="45.26061" lon="5.14254">
        <ele>479</ele>
        <time>2013-09-14T12:43:11Z</time>
      </trkpt>
      <trkpt lat="45.26061" lon="5.14273">
        <ele>480</ele>
        <time>2013-09-14T12:43:14Z</time>
      </trkpt>
      <trkpt lat="45.26057" lon="5.14295">
        <ele>481</ele>
        <time>2013-09-14T12:43:18Z</time>
      </trkpt>
      <trkpt lat="45.26055" lon="5.14314">
        <ele>480</ele>
        <time>2013-09-14T12:43:21Z</time>
      </trkpt>
      <trkpt lat="45.26052" lon="5.14339">
        <ele>481</ele>
        <time>2013-09-14T12:43:25Z</time>
      </trkpt>
      <trkpt lat="45.26048" lon="5.14357">
        <ele>482</ele>
        <time>2013-09-14T12:43:28Z</time>
      </trkpt>
      <trkpt lat="45.26044" lon="5.1438">
        <ele>482</ele>
        <time>2013-09-14T12:43:32Z</time>
      </trkpt>
      <trkpt lat="45.26042" lon="5.14397">
        <ele>482</ele>
        <time>2013-09-14T12:43:35Z</time>
      </trkpt>
      <trkpt lat="45.26039" lon="5.14419">
        <ele>483</ele>
        <time>2013-09-14T12:43:39Z</time>
      </trkpt>
      <trkpt lat="45.26036" lon="5.14435">
        <ele>483</ele>
        <time>2013-09-14T12:43:42Z</time>
      </trkpt>
      <trkpt lat="45.2603" lon="5.14456">
        <ele>483</ele>
        <time>2013-09-14T12:43:46Z</time>
      </trkpt>
      <trkpt lat="45.26024" lon="5.14473">
        <ele>483</ele>
        <time>2013-09-14T12:43:49Z</time>
      </trkpt>
      <trkpt lat="45.26017" lon="5.14495">
        <ele>484</ele>
        <time>2013-09-14T12:43:53Z</time>
      </trkpt>
      <trkpt lat="45.26011" lon="5.14517">
        <ele>485</ele>
        <time>2013-09-14T12:43:57Z</time>
      </trkpt>
      <trkpt lat="45.26008" lon="5.14533">
        <ele>485</ele>
        <time>2013-09-14T12:44:00Z</time>
      </trkpt>
      <trkpt lat="45.26005" lon="5.14555">
        <ele>485</ele>
        <time>2013-09-14T12:44:04Z</time>
      </trkpt>
      <trkpt lat="45.26003" lon="5.14575">
        <ele>486</ele>
        <time>2013-09-14T12:44:07Z</time>
      </trkpt>
      <trkpt lat="45.26" lon="5.14602">
        <ele>485</ele>
        <time>2013-09-14T12:44:11Z</time>
      </trkpt>
      <trkpt lat="45.25999" lon="5.1462">
        <ele>485</ele>
        <time>2013-09-14T12:44:14Z</time>
      </trkpt>
      <trkpt lat="45.26" lon="5.14646">
        <ele>486</ele>
        <time>2013-09-14T12:44:18Z</time>
      </trkpt>
      <trkpt lat="45.26001" lon="5.14668">
        <ele>486</ele>
        <time>2013-09-14T12:44:21Z</time>
      </trkpt>
      <trkpt lat="45.26002" lon="5.14698">
        <ele>485</ele>
        <time>2013-09-14T12:44:25Z</time>
      </trkpt>
      <trkpt lat="45.26002" lon="5.14721">
        <ele>486</ele>
        <time>2013-09-14T12:44:28Z</time>
      </trkpt>
      <trkpt lat="45.25999" lon="5.14754">
        <ele>485</ele>
        <time>2013-09-14T12:44:32Z</time>
      </trkpt>
      <trkpt lat="45.25994" lon="5.14778">
        <ele>486</ele>
        <time>2013-09-14T12:44:35Z</time>
      </trkpt>
      <trkpt lat="45.25986" lon="5.14807">
        <ele>486</ele>
        <time>2013-09-14T12:44:39Z</time>
      </trkpt>
      <trkpt lat="45.2598" lon="5.14827">
        <ele>485</ele>
        <time>2013-09-14T12:44:42Z</time>
      </trkpt>
      <trkpt lat="45.25971" lon="5.14853">
        <ele>485</ele>
        <time>2013-09-14T12:44:46Z</time>
      </trkpt>
      <trkpt lat="45.25964" lon="5.14873">
        <ele>486</ele>
        <time>2013-09-14T12:44:49Z</time>
      </trkpt>
      <trkpt lat="45.25956" lon="5.149">
        <ele>485</ele>
        <time>2013-09-14T12:44:53Z</time>
      </trkpt>
      <trkpt lat="45.25949" lon="5.14921">
        <ele>486</ele>
        <time>2013-09-14T12:44:56Z</time>
      </trkpt>
      <trkpt lat="45.25938" lon="5.14946">
        <ele>486</ele>
        <time>2013-09-14T12:45:00Z</time>
      </trkpt>
      <trkpt lat="45.25929" lon="5.14966">
        <ele>486</ele>
        <time>2013-09-14T12:45:03Z</time>
      </trkpt>
      <trkpt lat="45.25913" lon="5.14991">
        <ele>486</ele>
        <time>2013-09-14T12:45:07Z</time>
      </trkpt>
      <trkpt lat="45.259" lon="5.15009">
        <ele>486</ele>
        <time>2013-09-14T12:45:10Z</time>
      </trkpt>
      <trkpt lat="45.25881" lon="5.15032">
        <ele>486</ele>
        <time>2013-09-14T12:45:14Z</time>
      </trkpt>
      <trkpt lat="45.25866" lon="5.15051">
        <ele>487</ele>
        <time>2013-09-14T12:45:17Z</time>
      </trkpt>
      <trkpt lat="45.25852" lon="5.15077">
        <ele>487</ele>
        <time>2013-09-14T12:45:21Z</time>
      </trkpt>
      <trkpt lat="45.25843" lon="5.151">
        <ele>487</ele>
        <time>2013-09-14T12:45:24Z</time>
      </trkpt>
      <trkpt lat="45.25829" lon="5.15129">
        <ele>487</ele>
        <time>2013-09-14T12:45:28Z</time>
      </trkpt>
      <trkpt lat="45.25813" lon="5.15156">
        <ele>488</ele>
        <time>2013-09-14T12:45:32Z</time>
      </trkpt>
      <trkpt lat="45.258" lon="5.15174">
        <ele>487</ele>
        <time>2013-09-14T12:45:35Z</time>
      </trkpt>
      <trkpt lat="45.25783" lon="5.152">
        <ele>488</ele>
        <time>2013-09-14T12:45:39Z</time>
      </trkpt>
      <trkpt lat="45.25773" lon="5.1522">
        <ele>488</ele>
        <time>2013-09-14T12:45:42Z</time>
      </trkpt>
      <trkpt lat="45.25762" lon="5.15248">
        <ele>488</ele>
        <time>2013-09-14T12:45:46Z</time>
      </trkpt>
      <trkpt lat="45.25756" lon="5.15271">
        <ele>488</ele>
        <time>2013-09-14T12:45:49Z</time>
      </trkpt>
      <trkpt lat="45.25748" lon="5.15301">
        <ele>488</ele>
        <time>2013-09-14T12:45:53Z</time>
      </trkpt>
      <trkpt lat="45.25743" lon="5.15323">
        <ele>488</ele>
        <time>2013-09-14T12:45:56Z</time>
      </trkpt>
      <trkpt lat="45.25738" lon="5.15349">
        <ele>489</ele>
        <time>2013-09-14T12:46:00Z</time>
      </trkpt>
      <trkpt lat="45.25735" lon="5.15367">
        <ele>489</ele>
        <time>2013-09-14T12:46:03Z</time>
      </trkpt>
      <trkpt lat="45.25733" lon="5.15394">
        <ele>490</ele>
        <time>2013-09-14T12:46:07Z</time>
      </trkpt>
      <trkpt lat="45.25731" lon="5.15414">
        <ele>490</ele>
        <time>2013-09-14T12:46:10Z</time>
      </trkpt>
      <trkpt lat="45.25731" lon="5.1544">
        <ele>490</ele>
        <time>2013-09-14T12:46:14Z</time>
      </trkpt>
      <trkpt lat="45.25732" lon="5.1546">
        <ele>490</ele>
        <time>2013-09-14T12:46:17Z</time>
      </trkpt>
      <trkpt lat="45.25733" lon="5.15487">
        <ele>490</ele>
        <time>2013-09-14T12:46:21Z</time>
      </trkpt>
      <trkpt lat="45.25732" lon="5.15508">
        <ele>491</ele>
        <time>2013-09-14T12:46:24Z</time>
      </trkpt>
      <trkpt lat="45.2573" lon="5.15536">
        <ele>491</ele>
        <time>2013-09-14T12:46:28Z</time>
      </trkpt>
      <trkpt lat="45.25728" lon="5.15557">
        <ele>491</ele>
        <time>2013-09-14T12:46:31Z</time>
      </trkpt>
      <trkpt lat="45.25724" lon="5.15585">
        <ele>492</ele>
        <time>2013-09-14T12:46:35Z</time>
      </trkpt>
      <trkpt lat="45.2572" lon="5.15605">
        <ele>492</ele>
        <time>2013-09-14T12:46:38Z</time>
      </trkpt>
      <trkpt lat="45.25715" lon="5.1563">
        <ele>492</ele>
        <time>2013-09-14T12:46:42Z</time>
      </trkpt>
      <trkpt lat="45.25711" lon="5.15649">
        <ele>492</ele>
        <time>2013-09-14T12:46:45Z</time>
      </trkpt>
      <trkpt lat="45.25706" lon="5.15674">
        <ele>493</ele>
        <time>2013-09-14T12:46:49Z</time>
      </trkpt>
      <trkpt lat="45.25702" lon="5.15693">
        <ele>493</ele>
        <time>2013-09-14T12:46:52Z</time>
      </trkpt>
      <trkpt lat="45.25696" lon="5.1572">
        <ele>494</ele>
        <time>2013-09-14T12:46:56Z</time>
      </trkpt>
      <trkpt lat="45.25692" lon="5.1574">
        <ele>493</ele>
        <time>2013-09-14T12:46:59Z</time>
      </trkpt>
      <trkpt lat="45.25687" lon="5.15767">
        <ele>493</ele>
        <time>2013-09-14T12:47:03Z</time>
      </trkpt>
      <trkpt lat="45.25683" lon="5.15788">
        <ele>494</ele>
        <time>2013-09-14T12:47:06Z</time>
      </trkpt>
      <trkpt lat="45.25677" lon="5.15816">
        <ele>494</ele>
        <time>2013-09-14T12:47:10Z</time>
      </trkpt>
      <trkpt lat="45.25672" lon="5.15843">
        <ele>495</ele>
        <time>2013-09-14T12:47:14Z</time>
      </trkpt>
      <trkpt lat="45.25668" lon="5.15865">
        <ele>495</ele>
        <time>2013-09-14T12:47:17Z</time>
      </trkpt>
      <trkpt lat="45.25662" lon="5.15892">
        <ele>495</ele>
        <time>2013-09-14T12:47:21Z</time>
      </trkpt>
      <trkpt lat="45.25658" lon="5.15913">
        <ele>495</ele>
        <time>2013-09-14T12:47:24Z</time>
      </trkpt>
      <trkpt lat="45.25654" lon="5.1594">
        <ele>496</ele>
        <time>2013-09-14T12:47:28Z</time>
      </trkpt>
      <trkpt lat="45.25651" lon="5.15959">
        <ele>496</ele>
        <time>2013-09-14T12:47:31Z</time>
      </trkpt>
      <trkpt lat="45.25649" lon="5.15985">
        <ele>496</ele>
        <time>2013-09-14T12:47:35Z</time>
      </trkpt>
      <trkpt lat="45.25648" lon="5.16005">
        <ele>497</ele>
        <time>2013-09-14T12:47:38Z</time>
      </trkpt>
      <trkpt lat="45.25649" lon="5.16032">
        <ele>497</ele>
        <time>2013-09-14T12:47:42Z</time>
      </trkpt>
      <trkpt lat="45.25651" lon="5.16049">
        <ele>498</ele>
        <time>2013-09-14T12:47:45Z</time>
      </trkpt>
      <trkpt lat="45.25654" lon="5.16074">
        <ele>498</ele>
        <time>2013-09-14T12:47:49Z</time>
      </trkpt>
      <trkpt lat="45.25656" lon="5.16091">
        <ele>498</ele>
        <time>2013-09-14T12:47:52Z</time>
      </trkpt>
      <trkpt lat="45.25658" lon="5.16114">
        <ele>499</ele>
        <time>2013-09-14T12:47:56Z</time>
      </trkpt>
      <trkpt lat="45.25661" lon="5.16133">
        <ele>500</ele>
        <time>2013-09-14T12:47:59Z</time>
      </trkpt>
      <trkpt lat="45.25665" lon="5.16159">
        <ele>499</ele>
        <time>2013-09-14T12:48:03Z</time>
      </trkpt>
      <trkpt lat="45.25667" lon="5.16181">
        <ele>500</ele>
        <time>2013-09-14T12:48:06Z</time>
      </trkpt>
      <trkpt lat="45.25667" lon="5.16207">
        <ele>500</ele>
        <time>2013-09-14T12:48:10Z</time>
      </trkpt>
      <trkpt lat="45.25667" lon="5.16228">
        <ele>499</ele>
        <time>2013-09-14T12:48:13Z</time>
      </trkpt>
      <trkpt lat="45.25666" lon="5.16255">
        <ele>500</ele>
        <time>2013-09-14T12:48:17Z</time>
      </trkpt>
      <trkpt lat="45.25664" lon="5.16278">
        <ele>500</ele>
        <time>2013-09-14T12:48:20Z</time>
      </trkpt>
      <trkpt lat="45.25663" lon="5.16311">
        <ele>499</ele>
        <time>2013-09-14T12:48:24Z</time>
      </trkpt>
      <trkpt lat="45.25662" lon="5.16337">
        <ele>499</ele>
        <time>2013-09-14T12:48:27Z</time>
      </trkpt>
      <trkpt lat="45.2566" lon="5.16374">
        <ele>500</ele>
        <time>2013-09-14T12:48:31Z</time>
      </trkpt>
      <trkpt lat="45.2566" lon="5.16401">
        <ele>499</ele>
        <time>2013-09-14T12:48:34Z</time>
      </trkpt>
      <trkpt lat="45.25661" lon="5.16434">
        <ele>499</ele>
        <time>2013-09-14T12:48:38Z</time>
      </trkpt>
      <trkpt lat="45.25661" lon="5.16458">
        <ele>499</ele>
        <time>2013-09-14T12:48:41Z</time>
      </trkpt>
      <trkpt lat="45.25665" lon="5.16488">
        <ele>500</ele>
        <time>2013-09-14T12:48:45Z</time>
      </trkpt>
      <trkpt lat="45.2567" lon="5.16516">
        <ele>500</ele>
        <time>2013-09-14T12:48:49Z</time>
      </trkpt>
      <trkpt lat="45.25674" lon="5.16536">
        <ele>500</ele>
        <time>2013-09-14T12:48:52Z</time>
      </trkpt>
      <trkpt lat="45.2568" lon="5.16561">
        <ele>501</ele>
        <time>2013-09-14T12:48:56Z</time>
      </trkpt>
      <trkpt lat="45.25685" lon="5.16581">
        <ele>501</ele>
        <time>2013-09-14T12:48:59Z</time>
      </trkpt>
      <trkpt lat="45.25689" lon="5.16606">
        <ele>502</ele>
        <time>2013-09-14T12:49:03Z</time>
      </trkpt>
      <trkpt lat="45.25693" lon="5.16624">
        <ele>501</ele>
        <time>2013-09-14T12:49:06Z</time>
      </trkpt>
      <trkpt lat="45.25698" lon="5.16649">
        <ele>501</ele>
        <time>2013-09-14T12:49:10Z</time>
      </trkpt>
      <trkpt lat="45.257" lon="5.16668">
        <ele>503</ele>
        <time>2013-09-14T12:49:13Z</time>
      </trkpt>
      <trkpt lat="45.25704" lon="5.16695">
        <ele>503</ele>
        <time>2013-09-14T12:49:17Z</time>
      </trkpt>
      <trkpt lat="45.25705" lon="5.16716">
        <ele>503</ele>
        <time>2013-09-14T12:49:20Z</time>
      </trkpt>
      <trkpt lat="45.25707" lon="5.16744">
        <ele>504</ele>
        <time>2013-09-14T12:49:24Z</time>
      </trkpt>
      <trkpt lat="45.25708" lon="5.16765">
        <ele>503</ele>
        <time>2013-09-14T12:49:27Z</time>
      </trkpt>
      <trkpt lat="45.2571" lon="5.16793">
        <ele>504</ele>
        <time>2013-09-14T12:49:31Z</time>
      </trkpt>
      <trkpt lat="45.25712" lon="5.16814">
        <ele>504</ele>
        <time>2013-09-14T12:49:34Z</time>
      </trkpt>
      <trkpt lat="45.25714" lon="5.16841">
        <ele>504</ele>
        <time>2013-09-14T12:49:38Z</time>
      </trkpt>
      <trkpt lat="45.25716" lon="5.16862">
        <ele>504</ele>
        <time>2013-09-14T12:49:41Z</time>
      </trkpt>
      <trkpt lat="45.25717" lon="5.1689">
        <ele>505</ele>
        <time>2013-09-14T12:49:45Z</time>
      </trkpt>
      <trkpt lat="45.25718" lon="5.16911">
        <ele>506</ele>
        <time>2013-09-14T12:49:48Z</time>
      </trkpt>
      <trkpt lat="45.25718" lon="5.1694">
        <ele>505</ele>
        <time>2013-09-14T12:49:52Z</time>
      </trkpt>
      <trkpt lat="45.25716" lon="5.16961">
        <ele>506</ele>
        <time>2013-09-14T12:49:55Z</time>
      </trkpt>
      <trkpt lat="45.25714" lon="5.16991">
        <ele>506</ele>
        <time>2013-09-14T12:49:59Z</time>
      </trkpt>
      <trkpt lat="45.25711" lon="5.17013">
        <ele>506</ele>
        <time>2013-09-14T12:50:02Z</time>
      </trkpt>
      <trkpt lat="45.25708" lon="5.17044">
        <ele>506</ele>
        <time>2013-09-14T12:50:06Z</time>
      </trkpt>
      <trkpt lat="45.25705" lon="5.17067">
        <ele>505</ele>
        <time>2013-09-14T12:50:09Z</time>
      </trkpt>
      <trkpt lat="45.25701" lon="5.17097">
        <ele>506</ele>
        <time>2013-09-14T12:50:13Z</time>
      </trkpt>
      <trkpt lat="45.25699" lon="5.17121">
        <ele>506</ele>
        <time>2013-09-14T12:50:16Z</time>
      </trkpt>
      <trkpt lat="45.25695" lon="5.17152">
        <ele>506</ele>
        <time>2013-09-14T12:50:20Z</time>
      </trkpt>
      <trkpt lat="45.25692" lon="5.17175">
        <ele>506</ele>
        <time>2013-09-14T12:50:23Z</time>
      </trkpt>
      <trkpt lat="45.25688" lon="5.17206">
        <ele>506</ele>
        <time>2013-09-14T12:50:27Z</time>
      </trkpt>
      <trkpt lat="45.25684" lon="5.17238">
        <ele>506</ele>
        <time>2013-09-14T12:50:31Z</time>
      </trkpt>
      <trkpt lat="45.25681" lon="5.17259">
        <ele>506</ele>
        <time>2013-09-14T12:50:34Z</time>
      </trkpt>
      <trkpt lat="45.25678" lon="5.17286">
        <ele>507</ele>
        <time>2013-09-14T12:50:38Z</time>
      </trkpt>
      <trkpt lat="45.25675" lon="5.17306">
        <ele>507</ele>
        <time>2013-09-14T12:50:41Z</time>
      </trkpt>
      <trkpt lat="45.25674" lon="5.17334">
        <ele>508</ele>
        <time>2013-09-14T12:50:45Z</time>
      </trkpt>
      <trkpt lat="45.25676" lon="5.17355">
        <ele>507</ele>
        <time>2013-09-14T12:50:48Z</time>
      </trkpt>
      <trkpt lat="45.25678" lon="5.17381">
        <ele>508</ele>
        <time>2013-09-14T12:50:52Z</time>
      </trkpt>
      <trkpt lat="45.25679" lon="5.174">
        <ele>509</ele>
        <time>2013-09-14T12:50:55Z</time>
      </trkpt>
      <trkpt lat="45.25681" lon="5.17424">
        <ele>509</ele>
        <time>2013-09-14T12:50:59Z</time>
      </trkpt>
      <trkpt lat="45.25683" lon="5.17442">
        <ele>510</ele>
        <time>2013-09-14T12:51:02Z</time>
      </trkpt>
      <trkpt lat="45.25686" lon="5.17466">
        <ele>510</ele>
        <time>2013-09-14T12:51:06Z</time>
      </trkpt>
      <trkpt lat="45.25689" lon="5.17483">
        <ele>510</ele>
        <time>2013-09-14T12:51:09Z</time>
      </trkpt>
      <trkpt lat="45.25694" lon="5.17507">
        <ele>511</ele>
        <time>2013-09-14T12:51:13Z</time>
      </trkpt>
      <trkpt lat="45.25698" lon="5.17525">
        <ele>511</ele>
        <time>2013-09-14T12:51:16Z</time>
      </trkpt>
      <trkpt lat="45.25704" lon="5.1755">
        <ele>510</ele>
        <time>2013-09-14T12:51:20Z</time>
      </trkpt>
      <trkpt lat="45.25708" lon="5.17569">
        <ele>511</ele>
        <time>2013-09-14T12:51:23Z</time>
      </trkpt>
      <trkpt lat="45.25714" lon="5.17594">
        <ele>511</ele>
        <time>2013-09-14T12:51:27Z</time>
      </trkpt>
      <trkpt lat="45.25718" lon="5.17613">
        <ele>510</ele>
        <time>2013-09-14T12:51:30Z</time>
      </trkpt>
      <trkpt lat="45.25724" lon="5.17638">
        <ele>512</ele>
        <time>2013-09-14T12:51:34Z</time>
      </trkpt>
      <trkpt lat="45.25728" lon="5.17657">
        <ele>511</ele>
        <time>2013-09-14T12:51:37Z</time>
      </trkpt>
      <trkpt lat="45.25734" lon="5.17682">
        <ele>512</ele>
        <time>2013-09-14T12:51:41Z</time>
      </trkpt>
      <trkpt lat="45.25738" lon="5.17702">
        <ele>512</ele>
        <time>2013-09-14T12:51:44Z</time>
      </trkpt>
      <trkpt lat="45.25744" lon="5.17728">
        <ele>512</ele>
        <time>2013-09-14T12:51:48Z</time>
      </trkpt>
      <trkpt lat="45.2575" lon="5.17748">
        <ele>512</ele>
        <time>2013-09-14T12:51:51Z</time>
      </trkpt>
      <trkpt lat="45.25757" lon="5.17774">
        <ele>512</ele>
        <time>2013-09-14T12:51:55Z</time>
      </trkpt>
      <trkpt lat="45.25764" lon="5.17793">
        <ele>513</ele>
        <time>2013-09-14T12:51:58Z</time>
      </trkpt>
      <trkpt lat="45.25773" lon="5.17819">
        <ele>513</ele>
        <time>2013-09-14T12:52:02Z</time>
      </trkpt>
      <trkpt lat="45.25783" lon="5.17845">
        <ele>513</ele>
        <time>2013-09-14T12:52:06Z</time>
      </trkpt>
      <trkpt lat="45.25789" lon="5.17863">
        <ele>513</ele>
        <time>2013-09-14T12:52:09Z</time>
      </trkpt>
      <trkpt lat="45.25799" lon="5.17889">
        <ele>513</ele>
        <time>2013-09-14T12:52:13Z</time>
      </trkpt>
      <trkpt lat="45.25805" lon="5.17909">
        <ele>513</ele>
        <time>2013-09-14T12:52:16Z</time>
      </trkpt>
      <trkpt lat="45.25815" lon="5.17936">
        <ele>514</ele>
        <time>2013-09-14T12:52:20Z</time>
      </trkpt>
      <trkpt lat="45.25822" lon="5.17956">
        <ele>514</ele>
        <time>2013-09-14T12:52:23Z</time>
      </trkpt>
      <trkpt lat="45.25831" lon="5.17982">
        <ele>515</ele>
        <time>2013-09-14T12:52:27Z</time>
      </trkpt>
      <trkpt lat="45.25838" lon="5.18001">
        <ele>515</ele>
        <time>2013-09-14T12:52:30Z</time>
      </trkpt>
      <trkpt lat="45.25843" lon="5.18028">
        <ele>515</ele>
        <time>2013-09-14T12:52:34Z</time>
      </trkpt>
      <trkpt lat="45.25846" lon="5.18049">
        <ele>515</ele>
        <time>2013-09-14T12:52:37Z</time>
      </trkpt>
      <trkpt lat="45.25846" lon="5.18079">
        <ele>515</ele>
        <time>2013-09-14T12:52:41Z</time>
      </trkpt>
      <trkpt lat="45.25846" lon="5.18101">
        <ele>515</ele>
        <time>2013-09-14T12:52:44Z</time>
      </trkpt>
      <trkpt lat="45.25846" lon="5.18131">
        <ele>516</ele>
        <time>2013-09-14T12:52:48Z</time>
      </trkpt>
      <trkpt lat="45.25846" lon="5.18154">
        <ele>516</ele>
        <time>2013-09-14T12:52:51Z</time>
      </trkpt>
      <trkpt lat="45.25846" lon="5.18184">
        <ele>516</ele>
        <time>2013-09-14T12:52:55Z</time>
      </trkpt>
      <trkpt lat="45.25846" lon="5.18206">
        <ele>516</ele>
        <time>2013-09-14T12:52:58Z</time>
      </trkpt>
      <trkpt lat="45.25847" lon="5.18235">
        <ele>516</ele>
        <time>2013-09-14T12:53:02Z</time>
      </trkpt>
      <trkpt lat="45.25847" lon="5.18256">
        <ele>517</ele>
        <time>2013-09-14T12:53:05Z</time>
      </trkpt>
      <trkpt lat="45.25846" lon="5.18284">
        <ele>517</ele>
        <time>2013-09-14T12:53:09Z</time>
      </trkpt>
      <trkpt lat="45.25846" lon="5.18305">
        <ele>517</ele>
        <time>2013-09-14T12:53:12Z</time>
      </trkpt>
      <trkpt lat="45.25846" lon="5.18334">
        <ele>517</ele>
        <time>2013-09-14T12:53:16Z</time>
      </trkpt>
      <trkpt lat="45.25847" lon="5.18356">
        <ele>517</ele>
        <time>2013-09-14T12:53:19Z</time>
      </trkpt>
      <trkpt lat="45.25847" lon="5.18384">
        <ele>518</ele>
        <time>2013-09-14T12:53:23Z</time>
      </trkpt>
      <trkpt lat="45.25849" lon="5.18403">
        <ele>519</ele>
        <time>2013-09-14T12:53:26Z</time>
      </trkpt>
      <trkpt lat="45.25854" lon="5.1843">
        <ele>519</ele>
        <time>2013-09-14T12:53:30Z</time>
      </trkpt>
      <trkpt lat="45.25858" lon="5.1845">
        <ele>519</ele>
        <time>2013-09-14T12:53:33Z</time>
      </trkpt>
      <trkpt lat="45.25864" lon="5.18477">
        <ele>519</ele>
        <time>2013-09-14T12:53:37Z</time>
      </trkpt>
      <trkpt lat="45.25871" lon="5.18505">
        <ele>519</ele>
        <time>2013-09-14T12:53:41Z</time>
      </trkpt>
      <trkpt lat="45.25876" lon="5.18527">
        <ele>519</ele>
        <time>2013-09-14T12:53:44Z</time>
      </trkpt>
      <trkpt lat="45.25883" lon="5.18559">
        <ele>519</ele>
        <time>2013-09-14T12:53:48Z</time>
      </trkpt>
      <trkpt lat="45.25886" lon="5.18582">
        <ele>519</ele>
        <time>2013-09-14T12:53:51Z</time>
      </trkpt>
      <trkpt lat="45.2589" lon="5.18611">
        <ele>518</ele>
        <time>2013-09-14T12:53:55Z</time>
      </trkpt>
      <trkpt lat="45.25893" lon="5.1863">
        <ele>518</ele>
        <time>2013-09-14T12:53:58Z</time>
      </trkpt>
      <trkpt lat="45.25897" lon="5.18657">
        <ele>519</ele>
        <time>2013-09-14T12:54:02Z</time>
      </trkpt>
      <trkpt lat="45.259" lon="5.18679">
        <ele>520</ele>
        <time>2013-09-14T12:54:05Z</time>
      </trkpt>
      <trkpt lat="45.25905" lon="5.18707">
        <ele>520</ele>
        <time>2013-09-14T12:54:09Z</time>
      </trkpt>
      <trkpt lat="45.25908" lon="5.18727">
        <ele>520</ele>
        <time>2013-09-14T12:54:12Z</time>
      </trkpt>
      <trkpt lat="45.25911" lon="5.18754">
        <ele>521</ele>
        <time>2013-09-14T12:54:16Z</time>
      </trkpt>
      <trkpt lat="45.25914" lon="5.18774">
        <ele>521</ele>
        <time>2013-09-14T12:54:19Z</time>
      </trkpt>
      <trkpt lat="45.25918" lon="5.188">
        <ele>521</ele>
        <time>2013-09-14T12:54:23Z</time>
      </trkpt>
      <trkpt lat="45.25923" lon="5.18819">
        <ele>522</ele>
        <time>2013-09-14T12:54:26Z</time>
      </trkpt>
      <trkpt lat="45.2593" lon="5.18842">
        <ele>522</ele>
        <time>2013-09-14T12:54:30Z</time>
      </trkpt>
      <trkpt lat="45.25935" lon="5.18858">
        <ele>523</ele>
        <time>2013-09-14T12:54:33Z</time>
      </trkpt>
      <trkpt lat="45.25941" lon="5.18879">
        <ele>524</ele>
        <time>2013-09-14T12:54:37Z</time>
      </trkpt>
      <trkpt lat="45.25945" lon="5.18894">
        <ele>524</ele>
        <time>2013-09-14T12:54:40Z</time>
      </trkpt>
      <trkpt lat="45.25951" lon="5.18914">
        <ele>524</ele>
        <time>2013-09-14T12:54:44Z</time>
      </trkpt>
      <trkpt lat="45.25956" lon="5.18928">
        <ele>524</ele>
        <time>2013-09-14T12:54:47Z</time>
      </trkpt>
      <trkpt lat="45.25962" lon="5.18947">
        <ele>525</ele>
        <time>2013-09-14T12:54:51Z</time>
      </trkpt>
      <trkpt lat="45.25966" lon="5.1896">
        <ele>525</ele>
        <time>2013-09-14T12:54:54Z</time>
      </trkpt>
      <trkpt lat="45.25971" lon="5.18979">
        <ele>526</ele>
        <time>2013-09-14T12:54:58Z</time>
      </trkpt>
      <trkpt lat="45.25976" lon="5.18993">
        <ele>527</ele>
        <time>2013-09-14T12:55:01Z</time>
      </trkpt>
      <trkpt lat="45.25982" lon="5.19011">
        <ele>527</ele>
        <time>2013-09-14T12:55:05Z</time>
      </trkpt>
      <trkpt lat="45.25986" lon="5.19024">
        <ele>527</ele>
        <time>2013-09-14T12:55:08Z</time>
      </trkpt>
      <trkpt lat="45.25992" lon="5.19041">
        <ele>528</ele>
        <time>2013-09-14T12:55:12Z</time>
      </trkpt>
      <trkpt lat="45.25996" lon="5.19055">
        <ele>528</ele>
        <time>2013-09-14T12:55:15Z</time>
      </trkpt>
      <trkpt lat="45.26002" lon="5.19072">
        <ele>529</ele>
        <time>2013-09-14T12:55:19Z</time>
      </trkpt>
      <trkpt lat="45.26007" lon="5.1909">
        <ele>529</ele>
        <time>2013-09-14T12:55:23Z</time>
      </trkpt>
      <trkpt lat="45.26011" lon="5.19104">
        <ele>530</ele>
        <time>2013-09-14T12:55:26Z</time>
      </trkpt>
      <trkpt lat="45.26017" lon="5.19122">
        <ele>530</ele>
        <time>2013-09-14T12:55:30Z</time>
      </trkpt>
      <trkpt lat="45.26021" lon="5.19136">
        <ele>530</ele>
        <time>2013-09-14T12:55:33Z</time>
      </trkpt>
      <trkpt lat="45.26026" lon="5.19154">
        <ele>531</ele>
        <time>2013-09-14T12:55:37Z</time>
      </trkpt>
      <trkpt lat="45.2603" lon="5.19168">
        <ele>531</ele>
        <time>2013-09-14T12:55:40Z</time>
      </trkpt>
      <trkpt lat="45.26036" lon="5.19186">
        <ele>532</ele>
        <time>2013-09-14T12:55:44Z</time>
      </trkpt>
      <trkpt lat="45.2604" lon="5.192">
        <ele>532</ele>
        <time>2013-09-14T12:55:47Z</time>
      </trkpt>
      <trkpt lat="45.26046" lon="5.19219">
        <ele>533</ele>
        <time>2013-09-14T12:55:51Z</time>
      </trkpt>
      <trkpt lat="45.26051" lon="5.19234">
        <ele>532</ele>
        <time>2013-09-14T12:55:54Z</time>
      </trkpt>
      <trkpt lat="45.26054" lon="5.19249">
        <ele>532</ele>
        <time>2013-09-14T12:55:58Z</time>
      </trkpt>
      <trkpt lat="45.26058" lon="5.1926">
        <ele>533</ele>
        <time>2013-09-14T12:56:01Z</time>
      </trkpt>
      <trkpt lat="45.26065" lon="5.19279">
        <ele>533</ele>
        <time>2013-09-14T12:56:05Z</time>
      </trkpt>
      <trkpt lat="45.26069" lon="5.19294">
        <ele>533</ele>
        <time>2013-09-14T12:56:08Z</time>
      </trkpt>
      <trkpt lat="45.26074" lon="5.19315">
        <ele>533</ele>
        <time>2013-09-14T12:56:12Z</time>
      </trkpt>
      <trkpt lat="45.26078" lon="5.19331">
        <ele>533</ele>
        <time>2013-09-14T12:56:15Z</time>
      </trkpt>
      <trkpt lat="45.26084" lon="5.19354">
        <ele>532</ele>
        <time>2013-09-14T12:56:19Z</time>
      </trkpt>
      <trkpt lat="45.26087" lon="5.19369">
        <ele>533</ele>
        <time>2013-09-14T12:56:22Z</time>
      </trkpt>
      <trkpt lat="45.2609" lon="5.19387">
        <ele>533</ele>
        <time>2013-09-14T12:56:26Z</time>
      </trkpt>
      <trkpt lat="45.26092" lon="5.194">
        <ele>533</ele>
        <time>2013-09-14T12:56:29Z</time>
      </trkpt>
      <trkpt lat="45.26097" lon="5.19421">
        <ele>533</ele>
        <time>2013-09-14T12:56:33Z</time>
      </trkpt>
      <trkpt lat="45.26099" lon="5.19437">
        <ele>534</ele>
        <time>2013-09-14T12:56:36Z</time>
      </trkpt>
      <trkpt lat="45.26102" lon="5.19458">
        <ele>534</ele>
        <time>2013-09-14T12:56:40Z</time>
      </trkpt>
      <trkpt lat="45.26104" lon="5.19475">
        <ele>535</ele>
        <time>2013-09-14T12:56:43Z</time>
      </trkpt>
      <trkpt lat="45.26105" lon="5.19496">
        <ele>535</ele>
        <time>2013-09-14T12:56:47Z</time>
      </trkpt>
      <trkpt lat="45.26105" lon="5.19513">
        <ele>535</ele>
        <time>2013-09-14T12:56:50Z</time>
      </trkpt>
      <trkpt lat="45.26106" lon="5.19534">
        <ele>535</ele>
        <time>2013-09-14T12:56:54Z</time>
      </trkpt>
      <trkpt lat="45.26106" lon="5.19557">
        <ele>536</ele>
        <time>2013-09-14T12:56:58Z</time>
      </trkpt>
      <trkpt lat="45.26106" lon="5.19573">
        <ele>536</ele>
        <time>2013-09-14T12:57:01Z</time>
      </trkpt>
      <trkpt lat="45.26107" lon="5.19595">
        <ele>536</ele>
        <time>2013-09-14T12:57:05Z</time>
      </trkpt>
      <trkpt lat="45.26109" lon="5.19611">
        <ele>536</ele>
        <time>2013-09-14T12:57:08Z</time>
      </trkpt>
      <trkpt lat="45.26112" lon="5.19633">
        <ele>537</ele>
        <time>2013-09-14T12:57:12Z</time>
      </trkpt>
      <trkpt lat="45.26116" lon="5.19649">
        <ele>537</ele>
        <time>2013-09-14T12:57:15Z</time>
      </trkpt>
      <trkpt lat="45.26122" lon="5.19673">
        <ele>536</ele>
        <time>2013-09-14T12:57:19Z</time>
      </trkpt>
      <trkpt lat="45.26126" lon="5.19688">
        <ele>537</ele>
        <time>2013-09-14T12:57:22Z</time>
      </trkpt>
      <trkpt lat="45.26131" lon="5.19706">
        <ele>537</ele>
        <time>2013-09-14T12:57:26Z</time>
      </trkpt>
      <trkpt lat="45.26136" lon="5.19721">
        <ele>538</ele>
        <time>2013-09-14T12:57:29Z</time>
      </trkpt>
      <trkpt lat="45.26141" lon="5.1974">
        <ele>538</ele>
        <time>2013-09-14T12:57:33Z</time>
      </trkpt>
      <trkpt lat="45.26146" lon="5.19755">
        <ele>538</ele>
        <time>2013-09-14T12:57:36Z</time>
      </trkpt>
      <trkpt lat="45.2615" lon="5.19775">
        <ele>539</ele>
        <time>2013-09-14T12:57:40Z</time>
      </trkpt>
      <trkpt lat="45.26154" lon="5.1979">
        <ele>538</ele>
        <time>2013-09-14T12:57:43Z</time>
      </trkpt>
      <trkpt lat="45.26156" lon="5.19811">
        <ele>540</ele>
        <time>2013-09-14T12:57:47Z</time>
      </trkpt>
      <trkpt lat="45.26159" lon="5.19828">
        <ele>539</ele>
        <time>2013-09-14T12:57:50Z</time>
      </trkpt>
      <trkpt lat="45.26163" lon="5.19851">
        <ele>540</ele>
        <time>2013-09-14T12:57:54Z</time>
      </trkpt>
      <trkpt lat="45.26165" lon="5.19868">
        <ele>540</ele>
        <time>2013-09-14T12:57:57Z</time>
      </trkpt>
      <trkpt lat="45.26168" lon="5.19891">
        <ele>540</ele>
        <time>2013-09-14T12:58:01Z</time>
      </trkpt>
      <trkpt lat="45.2617" lon="5.19906">
        <ele>540</ele>
        <time>2013-09-14T12:58:04Z</time>
      </trkpt>
      <trkpt lat="45.26172" lon="5.19925">
        <ele>540</ele>
        <time>2013-09-14T12:58:08Z</time>
      </trkpt>
      <trkpt lat="45.26175" lon="5.19942">
        <ele>540</ele>
        <time>2013-09-14T12:58:11Z</time>
      </trkpt>
      <trkpt lat="45.26179" lon="5.19964">
        <ele>541</ele>
        <time>2013-09-14T12:58:15Z</time>
      </trkpt>
      <trkpt lat="45.26182" lon="5.19981">
        <ele>540</ele>
        <time>2013-09-14T12:58:18Z</time>
      </trkpt>
      <trkpt lat="45.26185" lon="5.20004">
        <ele>541</ele>
        <time>2013-09-14T12:58:22Z</time>
      </trkpt>
      <trkpt lat="45.26188" lon="5.2002">
        <ele>541</ele>
        <time>2013-09-14T12:58:25Z</time>
      </trkpt>
      <trkpt lat="45.2619" lon="5.2004">
        <ele>541</ele>
        <time>2013-09-14T12:58:29Z</time>
      </trkpt>
      <trkpt lat="45.26192" lon="5.20059">
        <ele>542</ele>
        <time>2013-09-14T12:58:33Z</time>
      </trkpt>
      <trkpt lat="45.26195" lon="5.20076">
        <ele>541</ele>
        <time>2013-09-14T12:58:36Z</time>
      </trkpt>
      <trkpt lat="45.26198" lon="5.20097">
        <ele>542</ele>
        <time>2013-09-14T12:58:40Z</time>
      </trkpt>
      <trkpt lat="45.26201" lon="5.20114">
        <ele>542</ele>
        <time>2013-09-14T12:58:43Z</time>
      </trkpt>
      <trkpt lat="45.26204" lon="5.20138">
        <ele>542</ele>
        <time>2013-09-14T12:58:47Z</time>
      </trkpt>
      <trkpt lat="45.26207" lon="5.20155">
        <ele>543</ele>
        <time>2013-09-14T12:58:50Z</time>
      </trkpt>
      <trkpt lat="45.2621" lon="5.20175">
        <ele>542</ele>
        <time>2013-09-14T12:58:54Z</time>
      </trkpt>
      <trkpt lat="45.26212" lon="5.2019">
        <ele>543</ele>
        <time>2013-09-14T12:58:57Z</time>
      </trkpt>
      <trkpt lat="45.26216" lon="5.20212">
        <ele>543</ele>
        <time>2013-09-14T12:59:01Z</time>
      </trkpt>
      <trkpt lat="45.26218" lon="5.20228">
        <ele>543</ele>
        <time>2013-09-14T12:59:04Z</time>
      </trkpt>
      <trkpt lat="45.26222" lon="5.2025">
        <ele>544</ele>
        <time>2013-09-14T12:59:08Z</time>
      </trkpt>
      <trkpt lat="45.26224" lon="5.20266">
        <ele>544</ele>
        <time>2013-09-14T12:59:11Z</time>
      </trkpt>
      <trkpt lat="45.26229" lon="5.20289">
        <ele>544</ele>
        <time>2013-09-14T12:59:15Z</time>
      </trkpt>
      <trkpt lat="45.26231" lon="5.20308">
        <ele>544</ele>
        <time>2013-09-14T12:59:18Z</time>
      </trkpt>
      <trkpt lat="45.26236" lon="5.2033">
        <ele>543</ele>
        <time>2013-09-14T12:59:22Z</time>
      </trkpt>
      <trkpt lat="45.26239" lon="5.20346">
        <ele>544</ele>
        <time>2013-09-14T12:59:25Z</time>
      </trkpt>
      <trkpt lat="45.26241" lon="5.20365">
        <ele>544</ele>
        <time>2013-09-14T12:59:29Z</time>
      </trkpt>
      <trkpt lat="45.26244" lon="5.20379">
        <ele>545</ele>
        <time>2013-09-14T12:59:32Z</time>
      </trkpt>
      <trkpt lat="45.26248" lon="5.20402">
        <ele>545</ele>
        <time>2013-09-14T12:59:36Z</time>
      </trkpt>
      <trkpt lat="45.26252" lon="5.20421">
        <ele>543</ele>
        <time>2013-09-14T12:59:39Z</time>
      </trkpt>
      <trkpt lat="45.26255" lon="5.20448">
        <ele>543</ele>
        <time>2013-09-14T12:59:43Z</time>
      </trkpt>
      <trkpt lat="45.26258" lon="5.20468">
        <ele>543</ele>
        <time>2013-09-14T12:59:46Z</time>
      </trkpt>
      <trkpt lat="45.26262" lon="5.20496">
        <ele>543</ele>
        <time>2013-09-14T12:59:50Z</time>
      </trkpt>
      <trkpt lat="45.26264" lon="5.20518">
        <ele>543</ele>
        <time>2013-09-14T12:59:53Z</time>
      </trkpt>
      <trkpt lat="45.26266" lon="5.20547">
        <ele>543</ele>
        <time>2013-09-14T12:59:57Z</time>
      </trkpt>
      <trkpt lat="45.26268" lon="5.20566">
        <ele>543</ele>
        <time>2013-09-14T13:00:00Z</time>
      </trkpt>
      <trkpt lat="45.2627" lon="5.20593">
        <ele>543</ele>
        <time>2013-09-14T13:00:04Z</time>
      </trkpt>
      <trkpt lat="45.26271" lon="5.20613">
        <ele>543</ele>
        <time>2013-09-14T13:00:07Z</time>
      </trkpt>
      <trkpt lat="45.26273" lon="5.20644">
        <ele>543</ele>
        <time>2013-09-14T13:00:11Z</time>
      </trkpt>
      <trkpt lat="45.26275" lon="5.20677">
        <ele>542</ele>
        <time>2013-09-14T13:00:15Z</time>
      </trkpt>
      <trkpt lat="45.26276" lon="5.20703">
        <ele>543</ele>
        <time>2013-09-14T13:00:18Z</time>
      </trkpt>
      <trkpt lat="45.26278" lon="5.20738">
        <ele>543</ele>
        <time>2013-09-14T13:00:22Z</time>
      </trkpt>
      <trkpt lat="45.26278" lon="5.20762">
        <ele>542</ele>
        <time>2013-09-14T13:00:25Z</time>
      </trkpt>
      <trkpt lat="45.2628" lon="5.2079">
        <ele>543</ele>
        <time>2013-09-14T13:00:29Z</time>
      </trkpt>
      <trkpt lat="45.26281" lon="5.20813">
        <ele>543</ele>
        <time>2013-09-14T13:00:32Z</time>
      </trkpt>
      <trkpt lat="45.26283" lon="5.20843">
        <ele>543</ele>
        <time>2013-09-14T13:00:36Z</time>
      </trkpt>
      <trkpt lat="45.26284" lon="5.20865">
        <ele>544</ele>
        <time>2013-09-14T13:00:39Z</time>
      </trkpt>
      <trkpt lat="45.26285" lon="5.20894">
        <ele>544</ele>
        <time>2013-09-14T13:00:43Z</time>
      </trkpt>
      <trkpt lat="45.26287" lon="5.20917">
        <ele>544</ele>
        <time>2013-09-14T13:00:46Z</time>
      </trkpt>
      <trkpt lat="45.26288" lon="5.20947">
        <ele>544</ele>
        <time>2013-09-14T13:00:50Z</time>
      </trkpt>
      <trkpt lat="45.26289" lon="5.2097">
        <ele>544</ele>
        <time>2013-09-14T13:00:53Z</time>
      </trkpt>
      <trkpt lat="45.26291" lon="5.21">
        <ele>545</ele>
        <time>2013-09-14T13:00:57Z</time>
      </trkpt>
      <trkpt lat="45.26292" lon="5.21022">
        <ele>545</ele>
        <time>2013-09-14T13:01:00Z</time>
      </trkpt>
      <trkpt lat="45.26294" lon="5.21048">
        <ele>546</ele>
        <time>2013-09-14T13:01:04Z</time>
      </trkpt>
      <trkpt lat="45.26295" lon="5.21067">
        <ele>546</ele>
        <time>2013-09-14T13:01:07Z</time>
      </trkpt>
      <trkpt lat="45.26295" lon="5.21092">
        <ele>546</ele>
        <time>2013-09-14T13:01:11Z</time>
      </trkpt>
      <trkpt lat="45.26294" lon="5.21111">
        <ele>547</ele>
        <time>2013-09-14T13:01:14Z</time>
      </trkpt>
      <trkpt lat="45.26292" lon="5.21138">
        <ele>547</ele>
        <time>2013-09-14T13:01:18Z</time>
      </trkpt>
      <trkpt lat="45.26289" lon="5.2116">
        <ele>547</ele>
        <time>2013-09-14T13:01:21Z</time>
      </trkpt>
      <trkpt lat="45.26281" lon="5.2119">
        <ele>546</ele>
        <time>2013-09-14T13:01:25Z</time>
      </trkpt>
      <trkpt lat="45.26275" lon="5.21213">
        <ele>546</ele>
        <time>2013-09-14T13:01:28Z</time>
      </trkpt>
      <trkpt lat="45.26267" lon="5.21242">
        <ele>546</ele>
        <time>2013-09-14T13:01:32Z</time>
      </trkpt>
      <trkpt lat="45.26262" lon="5.21262">
        <ele>546</ele>
        <time>2013-09-14T13:01:35Z</time>
      </trkpt>
      <trkpt lat="45.26255" lon="5.21289">
        <ele>547</ele>
        <time>2013-09-14T13:01:39Z</time>
      </trkpt>
      <trkpt lat="45.26249" lon="5.2131">
        <ele>547</ele>
        <time>2013-09-14T13:01:42Z</time>
      </trkpt>
      <trkpt lat="45.26242" lon="5.21337">
        <ele>547</ele>
        <time>2013-09-14T13:01:46Z</time>
      </trkpt>
      <trkpt lat="45.26235" lon="5.21363">
        <ele>547</ele>
        <time>2013-09-14T13:01:50Z</time>
      </trkpt>
      <trkpt lat="45.2623" lon="5.21381">
        <ele>547</ele>
        <time>2013-09-14T13:01:53Z</time>
      </trkpt>
      <trkpt lat="45.26224" lon="5.21405">
        <ele>548</ele>
        <time>2013-09-14T13:01:57Z</time>
      </trkpt>
      <trkpt lat="45.26219" lon="5.21422">
        <ele>549</ele>
        <time>2013-09-14T13:02:00Z</time>
      </trkpt>
      <trkpt lat="45.26214" lon="5.21445">
        <ele>549</ele>
        <time>2013-09-14T13:02:04Z</time>
      </trkpt>
      <trkpt lat="45.26211" lon="5.21462">
        <ele>549</ele>
        <time>2013-09-14T13:02:07Z</time>
      </trkpt>
      <trkpt lat="45.26207" lon="5.21487">
        <ele>549</ele>
        <time>2013-09-14T13:02:11Z</time>
      </trkpt>
      <trkpt lat="45.26206" lon="5.21505">
        <ele>548</ele>
        <time>2013-09-14T13:02:14Z</time>
      </trkpt>
      <trkpt lat="45.26203" lon="5.21528">
        <ele>549</ele>
        <time>2013-09-14T13:02:18Z</time>
      </trkpt>
      <trkpt lat="45.26202" lon="5.21546">
        <ele>549</ele>
        <time>2013-09-14T13:02:21Z</time>
      </trkpt>
      <trkpt lat="45.26199" lon="5.21573">
        <ele>549</ele>
        <time>2013-09-14T13:02:25Z</time>
      </trkpt>
      <trkpt lat="45.26197" lon="5.21594">
        <ele>549</ele>
        <time>2013-09-14T13:02:28Z</time>
      </trkpt>
      <trkpt lat="45.26194" lon="5.21622">
        <ele>549</ele>
        <time>2013-09-14T13:02:32Z</time>
      </trkpt>
      <trkpt lat="45.26192" lon="5.21643">
        <ele>549</ele>
        <time>2013-09-14T13:02:35Z</time>
      </trkpt>
      <trkpt lat="45.2619" lon="5.21672">
        <ele>550</ele>
        <time>2013-09-14T13:02:39Z</time>
      </trkpt>
      <trkpt lat="45.26188" lon="5.21693">
        <ele>550</ele>
        <time>2013-09-14T13:02:42Z</time>
      </trkpt>
      <trkpt lat="45.26184" lon="5.21723">
        <ele>550</ele>
        <time>2013-09-14T13:02:46Z</time>
      </trkpt>
      <trkpt lat="45.26181" lon="5.21744">
        <ele>551</ele>
        <time>2013-09-14T13:02:49Z</time>
      </trkpt>
      <trkpt lat="45.26178" lon="5.21773">
        <ele>551</ele>
        <time>2013-09-14T13:02:53Z</time>
      </trkpt>
      <trkpt lat="45.26176" lon="5.21796">
        <ele>551</ele>
        <time>2013-09-14T13:02:56Z</time>
      </trkpt>
      <trkpt lat="45.26173" lon="5.21824">
        <ele>551</ele>
        <time>2013-09-14T13:03:00Z</time>
      </trkpt>
      <trkpt lat="45.26172" lon="5.21845">
        <ele>551</ele>
        <time>2013-09-14T13:03:03Z</time>
      </trkpt>
      <trkpt lat="45.26169" lon="5.21871">
        <ele>552</ele>
        <time>2013-09-14T13:03:07Z</time>
      </trkpt>
      <trkpt lat="45.26168" lon="5.2189">
        <ele>553</ele>
        <time>2013-09-14T13:03:10Z</time>
      </trkpt>
      <trkpt lat="45.26168" lon="5.21914">
        <ele>553</ele>
        <time>2013-09-14T13:03:14Z</time>
      </trkpt>
      <trkpt lat="45.26167" lon="5.21933">
        <ele>553</ele>
        <time>2013-09-14T13:03:17Z</time>
      </trkpt>
      <trkpt lat="45.26167" lon="5.21957">
        <ele>554</ele>
        <time>2013-09-14T13:03:21Z</time>
      </trkpt>
      <trkpt lat="45.26167" lon="5.21975">
        <ele>555</ele>
        <time>2013-09-14T13:03:24Z</time>
      </trkpt>
      <trkpt lat="45.26167" lon="5.21999">
        <ele>555</ele>
        <time>2013-09-14T13:03:28Z</time>
      </trkpt>
      <trkpt lat="45.26166" lon="5.22021">
        <ele>555</ele>
        <time>2013-09-14T13:03:32Z</time>
      </trkpt>
      <trkpt lat="45.26165" lon="5.22038">
        <ele>556</ele>
        <time>2013-09-14T13:03:35Z</time>
      </trkpt>
      <trkpt lat="45.26166" lon="5.22061">
        <ele>556</ele>
        <time>2013-09-14T13:03:39Z</time>
      </trkpt>
      <trkpt lat="45.26166" lon="5.22079">
        <ele>557</ele>
        <time>2013-09-14T13:03:42Z</time>
      </trkpt>
      <trkpt lat="45.26168" lon="5.22103">
        <ele>557</ele>
        <time>2013-09-14T13:03:46Z</time>
      </trkpt>
      <trkpt lat="45.2617" lon="5.22121">
        <ele>557</ele>
        <time>2013-09-14T13:03:49Z</time>
      </trkpt>
      <trkpt lat="45.26173" lon="5.22145">
        <ele>557</ele>
        <time>2013-09-14T13:03:53Z</time>
      </trkpt>
      <trkpt lat="45.26177" lon="5.22165">
        <ele>557</ele>
        <time>2013-09-14T13:03:56Z</time>
      </trkpt>
      <trkpt lat="45.2618" lon="5.22187">
        <ele>558</ele>
        <time>2013-09-14T13:04:00Z</time>
      </trkpt>
      <trkpt lat="45.26182" lon="5.22203">
        <ele>558</ele>
        <time>2013-09-14T13:04:03Z</time>
      </trkpt>
      <trkpt lat="45.26186" lon="5.22226">
        <ele>558</ele>
        <time>2013-09-14T13:04:07Z</time>
      </trkpt>
      <trkpt lat="45.26188" lon="5.22244">
        <ele>558</ele>
        <time>2013-09-14T13:04:10Z</time>
      </trkpt>
      <trkpt lat="45.26191" lon="5.22267">
        <ele>559</ele>
        <time>2013-09-14T13:04:14Z</time>
      </trkpt>
      <trkpt lat="45.26194" lon="5.22286">
        <ele>559</ele>
        <time>2013-09-14T13:04:17Z</time>
      </trkpt>
      <trkpt lat="45.26197" lon="5.22309">
        <ele>559</ele>
        <time>2013-09-14T13:04:21Z</time>
      </trkpt>
      <trkpt lat="45.262" lon="5.22326">
        <ele>559</ele>
        <time>2013-09-14T13:04:24Z</time>
      </trkpt>
      <trkpt lat="45.26204" lon="5.22348">
        <ele>560</ele>
        <time>2013-09-14T13:04:28Z</time>
      </trkpt>
      <trkpt lat="45.26207" lon="5.22364">
        <ele>560</ele>
        <time>2013-09-14T13:04:31Z</time>
      </trkpt>
      <trkpt lat="45.26209" lon="5.22388">
        <ele>561</ele>
        <time>2013-09-14T13:04:35Z</time>
      </trkpt>
      <trkpt lat="45.26209" lon="5.22407">
        <ele>561</ele>
        <time>2013-09-14T13:04:38Z</time>
      </trkpt>
      <trkpt lat="45.26207" lon="5.22432">
        <ele>563</ele>
        <time>2013-09-14T13:04:42Z</time>
      </trkpt>
      <trkpt lat="45.26204" lon="5.22449">
        <ele>563</ele>
        <time>2013-09-14T13:04:45Z</time>
      </trkpt>
      <trkpt lat="45.26199" lon="5.22473">
        <ele>563</ele>
        <time>2013-09-14T13:04:49Z</time>
      </trkpt>
      <trkpt lat="45.26194" lon="5.22491">
        <ele>564</ele>
        <time>2013-09-14T13:04:52Z</time>
      </trkpt>
      <trkpt lat="45.2619" lon="5.22512">
        <ele>564</ele>
        <time>2013-09-14T13:04:56Z</time>
      </trkpt>
      <trkpt lat="45.26186" lon="5.22527">
        <ele>565</ele>
        <time>2013-09-14T13:04:59Z</time>
      </trkpt>
      <trkpt lat="45.26182" lon="5.22548">
        <ele>565</ele>
        <time>2013-09-14T13:05:03Z</time>
      </trkpt>
      <trkpt lat="45.26177" lon="5.22569">
        <ele>565</ele>
        <time>2013-09-14T13:05:07Z</time>
      </trkpt>
      <trkpt lat="45.26173" lon="5.22584">
        <ele>566</ele>
        <time>2013-09-14T13:05:10Z</time>
      </trkpt>
      <trkpt lat="45.26168" lon="5.22603">
        <ele>566</ele>
        <time>2013-09-14T13:05:14Z</time>
      </trkpt>
      <trkpt lat="45.26164" lon="5.22617">
        <ele>566</ele>
        <time>2013-09-14T13:05:17Z</time>
      </trkpt>
      <trkpt lat="45.26158" lon="5.22636">
        <ele>567</ele>
        <time>2013-09-14T13:05:21Z</time>
      </trkpt>
      <trkpt lat="45.26154" lon="5.22651">
        <ele>567</ele>
        <time>2013-09-14T13:05:24Z</time>
      </trkpt>
      <trkpt lat="45.26149" lon="5.2267">
        <ele>568</ele>
        <time>2013-09-14T13:05:28Z</time>
      </trkpt>
      <trkpt lat="45.26145" lon="5.22684">
        <ele>568</ele>
        <time>2013-09-14T13:05:31Z</time>
      </trkpt>
      <trkpt lat="45.26139" lon="5.22702">
        <ele>569</ele>
        <time>2013-09-14T13:05:35Z</time>
      </trkpt>
      <trkpt lat="45.26135" lon="5.22716">
        <ele>568</ele>
        <time>2013-09-14T13:05:38Z</time>
      </trkpt>
      <trkpt lat="45.2613" lon="5.22733">
        <ele>569</ele>
        <time>2013-09-14T13:05:42Z</time>
      </trkpt>
      <trkpt lat="45.26126" lon="5.22748">
        <ele>570</ele>
        <time>2013-09-14T13:05:45Z</time>
      </trkpt>
      <trkpt lat="45.26121" lon="5.22767">
        <ele>570</ele>
        <time>2013-09-14T13:05:49Z</time>
      </trkpt>
      <trkpt lat="45.26117" lon="5.22782">
        <ele>571</ele>
        <time>2013-09-14T13:05:52Z</time>
      </trkpt>
      <trkpt lat="45.26112" lon="5.22801">
        <ele>571</ele>
        <time>2013-09-14T13:05:56Z</time>
      </trkpt>
      <trkpt lat="45.26108" lon="5.22815">
        <ele>571</ele>
        <time>2013-09-14T13:05:59Z</time>
      </trkpt>
      <trkpt lat="45.26103" lon="5.22835">
        <ele>572</ele>
        <time>2013-09-14T13:06:03Z</time>
      </trkpt>
      <trkpt lat="45.261" lon="5.2285">
        <ele>572</ele>
        <time>2013-09-14T13:06:06Z</time>
      </trkpt>
      <trkpt lat="45.26094" lon="5.22871">
        <ele>572</ele>
        <time>2013-09-14T13:06:10Z</time>
      </trkpt>
      <trkpt lat="45.2609" lon="5.22885">
        <ele>572</ele>
        <time>2013-09-14T13:06:13Z</time>
      </trkpt>
      <trkpt lat="45.26086" lon="5.22901">
        <ele>572</ele>
        <time>2013-09-14T13:06:17Z</time>
      </trkpt>
      <trkpt lat="45.26084" lon="5.22913">
        <ele>572</ele>
        <time>2013-09-14T13:06:20Z</time>
      </trkpt>
      <trkpt lat="45.2608" lon="5.22927">
        <ele>572</ele>
        <time>2013-09-14T13:06:24Z</time>
      </trkpt>
      <trkpt lat="45.26076" lon="5.22939">
        <ele>573</ele>
        <time>2013-09-14T13:06:27Z</time>
      </trkpt>
      <trkpt lat="45.2607" lon="5.2296">
        <ele>572</ele>
        <time>2013-09-14T13:06:31Z</time>
      </trkpt>
      <trkpt lat="45.26066" lon="5.22977">
        <ele>572</ele>
        <time>2013-09-14T13:06:34Z</time>
      </trkpt>
      <trkpt lat="45.26059" lon="5.23004">
        <ele>573</ele>
        <time>2013-09-14T13:06:38Z</time>
      </trkpt>
      <trkpt lat="45.26053" lon="5.23028">
        <ele>573</ele>
        <time>2013-09-14T13:06:42Z</time>
      </trkpt>
      <trkpt lat="45.26048" lon="5.23045">
        <ele>574</ele>
        <time>2013-09-14T13:06:45Z</time>
      </trkpt>
      <trkpt lat="45.26042" lon="5.23067">
        <ele>573</ele>
        <time>2013-09-14T13:06:49Z</time>
      </trkpt>
      <trkpt lat="45.26037" lon="5.23084">
        <ele>574</ele>
        <time>2013-09-14T13:06:52Z</time>
      </trkpt>
      <trkpt lat="45.2603" lon="5.23109">
        <ele>573</ele>
        <time>2013-09-14T13:06:56Z</time>
      </trkpt>
      <trkpt lat="45.26024" lon="5.23128">
        <ele>574</ele>
        <time>2013-09-14T13:06:59Z</time>
      </trkpt>
      <trkpt lat="45.26016" lon="5.23156">
        <ele>573</ele>
        <time>2013-09-14T13:07:03Z</time>
      </trkpt>
      <trkpt lat="45.26011" lon="5.23177">
        <ele>574</ele>
        <time>2013-09-14T13:07:06Z</time>
      </trkpt>
      <trkpt lat="45.26005" lon="5.23205">
        <ele>574</ele>
        <time>2013-09-14T13:07:10Z</time>
      </trkpt>
      <trkpt lat="45.26001" lon="5.23227">
        <ele>574</ele>
        <time>2013-09-14T13:07:13Z</time>
      </trkpt>
      <trkpt lat="45.25997" lon="5.23258">
        <ele>573</ele>
        <time>2013-09-14T13:07:17Z</time>
      </trkpt>
      <trkpt lat="45.25995" lon="5.23281">
        <ele>573</ele>
        <time>2013-09-14T13:07:20Z</time>
      </trkpt>
      <trkpt lat="45.25993" lon="5.2331">
        <ele>573</ele>
        <time>2013-09-14T13:07:24Z</time>
      </trkpt>
      <trkpt lat="45.2599" lon="5.23331">
        <ele>573</ele>
        <time>2013-09-14T13:07:27Z</time>
      </trkpt>
      <trkpt lat="45.25987" lon="5.23359">
        <ele>573</ele>
        <time>2013-09-14T13:07:31Z</time>
      </trkpt>
      <trkpt lat="45.25987" lon="5.23381">
        <ele>573</ele>
        <time>2013-09-14T13:07:34Z</time>
      </trkpt>
      <trkpt lat="45.25987" lon="5.2341">
        <ele>573</ele>
        <time>2013-09-14T13:07:38Z</time>
      </trkpt>
      <trkpt lat="45.25988" lon="5.23436">
        <ele>572</ele>
        <time>2013-09-14T13:07:41Z</time>
      </trkpt>
      <trkpt lat="45.2599" lon="5.2347">
        <ele>573</ele>
        <time>2013-09-14T13:07:45Z</time>
      </trkpt>
      <trkpt lat="45.25991" lon="5.23496">
        <ele>571</ele>
        <time>2013-09-14T13:07:48Z</time>
      </trkpt>
      <trkpt lat="45.25992" lon="5.23532">
        <ele>572</ele>
        <time>2013-09-14T13:07:52Z</time>
      </trkpt>
      <trkpt lat="45.25992" lon="5.23558">
        <ele>571</ele>
        <time>2013-09-14T13:07:55Z</time>
      </trkpt>
      <trkpt lat="45.25994" lon="5.23593">
        <ele>571</ele>
        <time>2013-09-14T13:07:59Z</time>
      </trkpt>
      <trkpt lat="45.25996" lon="5.2362">
        <ele>571</ele>
        <time>2013-09-14T13:08:02Z</time>
      </trkpt>
      <trkpt lat="45.25999" lon="5.23654">
        <ele>571</ele>
        <time>2013-09-14T13:08:06Z</time>
      </trkpt>
      <trkpt lat="45.26004" lon="5.23679">
        <ele>572</ele>
        <time>2013-09-14T13:08:09Z</time>
      </trkpt>
      <trkpt lat="45.26011" lon="5.2371">
        <ele>572</ele>
        <time>2013-09-14T13:08:13Z</time>
      </trkpt>
      <trkpt lat="45.26015" lon="5.23734">
        <ele>573</ele>
        <time>2013-09-14T13:08:16Z</time>
      </trkpt>
      <trkpt lat="45.26016" lon="5.23764">
        <ele>573</ele>
        <time>2013-09-14T13:08:20Z</time>
      </trkpt>
      <trkpt lat="45.26008" lon="5.23792">
        <ele>573</ele>
        <time>2013-09-14T13:08:24Z</time>
      </trkpt>
      <trkpt lat="45.25996" lon="5.23808">
        <ele>573</ele>
        <time>2013-09-14T13:08:27Z</time>
      </trkpt>
      <trkpt lat="45.25979" lon="5.23823">
        <ele>573</ele>
        <time>2013-09-14T13:08:31Z</time>
      </trkpt>
      <trkpt lat="45.25966" lon="5.23833">
        <ele>574</ele>
        <time>2013-09-14T13:08:34Z</time>
      </trkpt>
      <trkpt lat="45.25951" lon="5.23854">
        <ele>574</ele>
        <time>2013-09-14T13:08:38Z</time>
      </trkpt>
      <trkpt lat="45.25942" lon="5.23875">
        <ele>572</ele>
        <time>2013-09-14T13:08:41Z</time>
      </trkpt>
      <trkpt lat="45.25931" lon="5.23908">
        <ele>572</ele>
        <time>2013-09-14T13:08:45Z</time>
      </trkpt>
      <trkpt lat="45.25924" lon="5.23932">
        <ele>572</ele>
        <time>2013-09-14T13:08:48Z</time>
      </trkpt>
      <trkpt lat="45.25914" lon="5.23961">
        <ele>572</ele>
        <time>2013-09-14T13:08:52Z</time>
      </trkpt>
      <trkpt lat="45.25908" lon="5.2398">
        <ele>571</ele>
        <time>2013-09-14T13:08:55Z</time>
      </trkpt>
      <trkpt lat="45.259" lon="5.24004">
        <ele>571</ele>
        <time>2013-09-14T13:08:59Z</time>
      </trkpt>
      <trkpt lat="45.25894" lon="5.24022">
        <ele>572</ele>
        <time>2013-09-14T13:09:02Z</time>
      </trkpt>
      <trkpt lat="45.25886" lon="5.24044">
        <ele>573</ele>
        <time>2013-09-14T13:09:06Z</time>
      </trkpt>
      <trkpt lat="45.25879" lon="5.24059">
        <ele>573</ele>
        <time>2013-09-14T13:09:09Z</time>
      </trkpt>
      <trkpt lat="45.25871" lon="5.2408">
        <ele>575</ele>
        <time>2013-09-14T13:09:13Z</time>
      </trkpt>
      <trkpt lat="45.25864" lon="5.24096">
        <ele>575</ele>
        <time>2013-09-14T13:09:16Z</time>
      </trkpt>
      <trkpt lat="45.25855" lon="5.24116">
        <ele>575</ele>
        <time>2013-09-14T13:09:20Z</time>
      </trkpt>
      <trkpt lat="45.25849" lon="5.24127">
        <ele>575</ele>
        <time>2013-09-14T13:09:23Z</time>
      </trkpt>
      <trkpt lat="45.25838" lon="5.24127">
        <ele>575</ele>
        <time>2013-09-14T13:09:27Z</time>
      </trkpt>
      <trkpt lat="45.25828" lon="5.24126">
        <ele>575</ele>
        <time>2013-09-14T13:09:30Z</time>
      </trkpt>
      <trkpt lat="45.25818" lon="5.24137">
        <ele>575</ele>
        <time>2013-09-14T13:09:34Z</time>
      </trkpt>
      <trkpt lat="45.25808" lon="5.24149">
        <ele>575</ele>
        <time>2013-09-14T13:09:37Z</time>
      </trkpt>
      <trkpt lat="45.25793" lon="5.24166">
        <ele>575</ele>
        <time>2013-09-14T13:09:41Z</time>
      </trkpt>
      <trkpt lat="45.25782" lon="5.2418">
        <ele>575</ele>
        <time>2013-09-14T13:09:44Z</time>
      </trkpt>
      <trkpt lat="45.25765" lon="5.24199">
        <ele>575</ele>
        <time>2013-09-14T13:09:48Z</time>
      </trkpt>
      <trkpt lat="45.25753" lon="5.24214">
        <ele>576</ele>
        <time>2013-09-14T13:09:51Z</time>
      </trkpt>
      <trkpt lat="45.25735" lon="5.24235">
        <ele>575</ele>
        <time>2013-09-14T13:09:55Z</time>
      </trkpt>
      <trkpt lat="45.25717" lon="5.24256">
        <ele>574</ele>
        <time>2013-09-14T13:09:59Z</time>
      </trkpt>
      <trkpt lat="45.25706" lon="5.2427">
        <ele>574</ele>
        <time>2013-09-14T13:10:02Z</time>
      </trkpt>
      <trkpt lat="45.25692" lon="5.24288">
        <ele>575</ele>
        <time>2013-09-14T13:10:06Z</time>
      </trkpt>
      <trkpt lat="45.25681" lon="5.24303">
        <ele>576</ele>
        <time>2013-09-14T13:10:09Z</time>
      </trkpt>
      <trkpt lat="45.25666" lon="5.24323">
        <ele>576</ele>
        <time>2013-09-14T13:10:13Z</time>
      </trkpt>
      <trkpt lat="45.25654" lon="5.24339">
        <ele>576</ele>
        <time>2013-09-14T13:10:16Z</time>
      </trkpt>
      <trkpt lat="45.25638" lon="5.24358">
        <ele>576</ele>
        <time>2013-09-14T13:10:20Z</time>
      </trkpt>
      <trkpt lat="45.25626" lon="5.24372">
        <ele>577</ele>
        <time>2013-09-14T13:10:23Z</time>
      </trkpt>
      <trkpt lat="45.25611" lon="5.24389">
        <ele>578</ele>
        <time>2013-09-14T13:10:27Z</time>
      </trkpt>
      <trkpt lat="45.25598" lon="5.24399">
        <ele>578</ele>
        <time>2013-09-14T13:10:30Z</time>
      </trkpt>
      <trkpt lat="45.25582" lon="5.24407">
        <ele>578</ele>
        <time>2013-09-14T13:10:34Z</time>
      </trkpt>
      <trkpt lat="45.25571" lon="5.24412">
        <ele>579</ele>
        <time>2013-09-14T13:10:37Z</time>
      </trkpt>
      <trkpt lat="45.25554" lon="5.24422">
        <ele>579</ele>
        <time>2013-09-14T13:10:41Z</time>
      </trkpt>
      <trkpt lat="45.2554" lon="5.24429">
        <ele>580</ele>
        <time>2013-09-14T13:10:44Z</time>
      </trkpt>
      <trkpt lat="45.25521" lon="5.24438">
        <ele>579</ele>
        <time>2013-09-14T13:10:48Z</time>
      </trkpt>
      <trkpt lat="45.25507" lon="5.24445">
        <ele>580</ele>
        <time>2013-09-14T13:10:51Z</time>
      </trkpt>
      <trkpt lat="45.25488" lon="5.24455">
        <ele>580</ele>
        <time>2013-09-14T13:10:55Z</time>
      </trkpt>
      <trkpt lat="45.25474" lon="5.24461">
        <ele>580</ele>
        <time>2013-09-14T13:10:58Z</time>
      </trkpt>
      <trkpt lat="45.25454" lon="5.24468">
        <ele>581</ele>
        <time>2013-09-14T13:11:02Z</time>
      </trkpt>
      <trkpt lat="45.2544" lon="5.24471">
        <ele>582</ele>
        <time>2013-09-14T13:11:05Z</time>
      </trkpt>
      <trkpt lat="45.25424" lon="5.24477">
        <ele>582</ele>
        <time>2013-09-14T13:11:09Z</time>
      </trkpt>
      <trkpt lat="45.25414" lon="5.24482">
        <ele>583</ele>
        <time>2013-09-14T13:11:12Z</time>
      </trkpt>
      <trkpt lat="45.25401" lon="5.24487">
        <ele>583</ele>
        <time>2013-09-14T13:11:16Z</time>
      </trkpt>
      <trkpt lat="45.2539" lon="5.24491">
        <ele>583</ele>
        <time>2013-09-14T13:11:19Z</time>
      </trkpt>
      <trkpt lat="45.25374" lon="5.24494">
        <ele>583</ele>
        <time>2013-09-14T13:11:23Z</time>
      </trkpt>
      <trkpt lat="45.25361" lon="5.24495">
        <ele>583</ele>
        <time>2013-09-14T13:11:26Z</time>
      </trkpt>
      <trkpt lat="45.25345" lon="5.24493">
        <ele>583</ele>
        <time>2013-09-14T13:11:30Z</time>
      </trkpt>
      <trkpt lat="45.25334" lon="5.2449">
        <ele>584</ele>
        <time>2013-09-14T13:11:33Z</time>
      </trkpt>
      <trkpt lat="45.25323" lon="5.24486">
        <ele>585</ele>
        <time>2013-09-14T13:11:37Z</time>
      </trkpt>
      <trkpt lat="45.25313" lon="5.24482">
        <ele>587</ele>
        <time>2013-09-14T13:11:41Z</time>
      </trkpt>
      <trkpt lat="45.25305" lon="5.24478">
        <ele>587</ele>
        <time>2013-09-14T13:11:44Z</time>
      </trkpt>
      <trkpt lat="45.25295" lon="5.24476">
        <ele>589</ele>
        <time>2013-09-14T13:11:48Z</time>
      </trkpt>
      <trkpt lat="45.25289" lon="5.24475">
        <ele>589</ele>
        <time>2013-09-14T13:11:51Z</time>
      </trkpt>
      <trkpt lat="45.2528" lon="5.24475">
        <ele>590</ele>
        <time>2013-09-14T13:11:55Z</time>
      </trkpt>
      <trkpt lat="45.25274" lon="5.24477">
        <ele>591</ele>
        <time>2013-09-14T13:11:58Z</time>
      </trkpt>
      <trkpt lat="45.25265" lon="5.2448">
        <ele>592</ele>
        <time>2013-09-14T13:12:02Z</time>
      </trkpt>
      <trkpt lat="45.25258" lon="5.24482">
        <ele>592</ele>
        <time>2013-09-14T13:12:05Z</time>
      </trkpt>
      <trkpt lat="45.25249" lon="5.24485">
        <ele>592</ele>
        <time>2013-09-14T13:12:09Z</time>
      </trkpt>
      <trkpt lat="45.2524" lon="5.24487">
        <ele>592</ele>
        <time>2013-09-14T13:12:12Z</time>
      </trkpt>
      <trkpt lat="45.25228" lon="5.24489">
        <ele>591</ele>
        <time>2013-09-14T13:12:16Z</time>
      </trkpt>
      <trkpt lat="45.25219" lon="5.24492">
        <ele>592</ele>
        <time>2013-09-14T13:12:19Z</time>
      </trkpt>
      <trkpt lat="45.25207" lon="5.24495">
        <ele>592</ele>
        <time>2013-09-14T13:12:23Z</time>
      </trkpt>
      <trkpt lat="45.25199" lon="5.24501">
        <ele>592</ele>
        <time>2013-09-14T13:12:26Z</time>
      </trkpt>
      <trkpt lat="45.25187" lon="5.24508">
        <ele>593</ele>
        <time>2013-09-14T13:12:30Z</time>
      </trkpt>
      <trkpt lat="45.2518" lon="5.24512">
        <ele>594</ele>
        <time>2013-09-14T13:12:33Z</time>
      </trkpt>
      <trkpt lat="45.25171" lon="5.24517">
        <ele>595</ele>
        <time>2013-09-14T13:12:37Z</time>
      </trkpt>
      <trkpt lat="45.25164" lon="5.2452">
        <ele>595</ele>
        <time>2013-09-14T13:12:40Z</time>
      </trkpt>
      <trkpt lat="45.25155" lon="5.24523">
        <ele>596</ele>
        <time>2013-09-14T13:12:44Z</time>
      </trkpt>
      <trkpt lat="45.25148" lon="5.24524">
        <ele>596</ele>
        <time>2013-09-14T13:12:47Z</time>
      </trkpt>
      <trkpt lat="45.25139" lon="5.24526">
        <ele>597</ele>
        <time>2013-09-14T13:12:51Z</time>
      </trkpt>
      <trkpt lat="45.25132" lon="5.24528">
        <ele>598</ele>
        <time>2013-09-14T13:12:54Z</time>
      </trkpt>
      <trkpt lat="45.25122" lon="5.24529">
        <ele>598</ele>
        <time>2013-09-14T13:12:58Z</time>
      </trkpt>
      <trkpt lat="45.25115" lon="5.24532">
        <ele>599</ele>
        <time>2013-09-14T13:13:01Z</time>
      </trkpt>
      <trkpt lat="45.25106" lon="5.24537">
        <ele>600</ele>
        <time>2013-09-14T13:13:05Z</time>
      </trkpt>
      <trkpt lat="45.25099" lon="5.24541">
        <ele>600</ele>
        <time>2013-09-14T13:13:08Z</time>
      </trkpt>
      <trkpt lat="45.25089" lon="5.24547">
        <ele>600</ele>
        <time>2013-09-14T13:13:12Z</time>
      </trkpt>
      <trkpt lat="45.25078" lon="5.24551">
        <ele>600</ele>
        <time>2013-09-14T13:13:16Z</time>
      </trkpt>
      <trkpt lat="45.2507" lon="5.24552">
        <ele>600</ele>
        <time>2013-09-14T13:13:19Z</time>
      </trkpt>
      <trkpt lat="45.2506" lon="5.24556">
        <ele>600</ele>
        <time>2013-09-14T13:13:23Z</time>
      </trkpt>
      <trkpt lat="45.25051" lon="5.24559">
        <ele>601</ele>
        <time>2013-09-14T13:13:26Z</time>
      </trkpt>
      <trkpt lat="45.25039" lon="5.24565">
        <ele>601</ele>
        <time>2013-09-14T13:13:30Z</time>
      </trkpt>
      <trkpt lat="45.25032" lon="5.24568">
        <ele>601</ele>
        <time>2013-09-14T13:13:33Z</time>
      </trkpt>
      <trkpt lat="45.25022" lon="5.24571">
        <ele>601</ele>
        <time>2013-09-14T13:13:37Z</time>
      </trkpt>
      <trkpt lat="45.25014" lon="5.24573">
        <ele>601</ele>
        <time>2013-09-14T13:13:40Z</time>
      </trkpt>
      <trkpt lat="45.25005" lon="5.24576">
        <ele>601</ele>
        <time>2013-09-14T13:13:44Z</time>
      </trkpt>
      <trkpt lat="45.24997" lon="5.24577">
        <ele>601</ele>
        <time>2013-09-14T13:13:47Z</time>
      </trkpt>
      <trkpt lat="45.24986" lon="5.2458">
        <ele>601</ele>
        <time>2013-09-14T13:13:51Z</time>
      </trkpt>
      <trkpt lat="45.24983" lon="5.24583">
        <ele>601</ele>
        <time>2013-09-14T13:13:54Z</time>
      </trkpt>
      <trkpt lat="45.24984" lon="5.24581">
        <ele>601</ele>
        <time>2013-09-14T13:13:58Z</time>
      </trkpt>
      <trkpt lat="45.24981" lon="5.24581">
        <ele>601</ele>
        <time>2013-09-14T13:14:01Z</time>
      </trkpt>
      <trkpt lat="45.24981" lon="5.2458">
        <ele>600</ele>
        <time>2013-09-14T13:14:05Z</time>
      </trkpt>
      <trkpt lat="45.2498" lon="5.2458">
        <ele>601</ele>
        <time>2013-09-14T13:14:08Z</time>
      </trkpt>
      <trkpt lat="45.24981" lon="5.2458">
        <ele>601</ele>
        <time>2013-09-14T13:14:12Z</time>
      </trkpt>
      <trkpt lat="45.24981" lon="5.2458">
        <ele>601</ele>
        <time>2013-09-14T13:14:15Z</time>
      </trkpt>
      <trkpt lat="45.24981" lon="5.2458">
        <ele>601</ele>
        <time>2013-09-14T13:14:19Z</time>
      </trkpt>
      <trkpt lat="45.24981" lon="5.2458">
        <ele>600</ele>
        <time>2013-09-14T13:14:22Z</time>
      </trkpt>
      <trkpt lat="45.24981" lon="5.2458">
        <ele>601</ele>
        <time>2013-09-14T13:14:26Z</time>
      </trkpt>
      <trkpt lat="45.24981" lon="5.2458">
        <ele>601</ele>
        <time>2013-09-14T13:14:29Z</time>
      </trkpt>
      <trkpt lat="45.24981" lon="5.2458">
        <ele>600</ele>
        <time>2013-09-14T13:14:33Z</time>
      </trkpt>
      <trkpt lat="45.24981" lon="5.2458">
        <ele>601</ele>
        <time>2013-09-14T13:14:36Z</time>
      </trkpt>
      <trkpt lat="45.24981" lon="5.2458">
        <ele>601</ele>
        <time>2013-09-14T13:14:40Z</time>
      </trkpt>
      <trkpt lat="45.24981" lon="5.2458">
        <ele>601</ele>
        <time>2013-09-14T13:14:43Z</time>
      </trkpt>
      <trkpt lat="45.24981" lon="5.2458">
        <ele>601</ele>
        <time>2013-09-14T13:14:47Z</time>
      </trkpt>
      <trkpt lat="45.24981" lon="5.2458">
        <ele>601</ele>
        <time>2013-09-14T13:14:51Z</time>
      </trkpt>
      <trkpt lat="45.24981" lon="5.2458">
        <ele>601</ele>
        <time>2013-09-14T13:14:54Z</time>
      </trkpt>
      <trkpt lat="45.24981" lon="5.2458">
        <ele>601</ele>
        <time>2013-09-14T13:14:58Z</time>
      </trkpt>
      <trkpt lat="45.24981" lon="5.2458">
        <ele>601</ele>
        <time>2013-09-14T13:15:01Z</time>
      </trkpt>
      <trkpt lat="45.24981" lon="5.2458">
        <ele>601</ele>
        <time>2013-09-14T13:15:05Z</time>
      </trkpt>
      <trkpt lat="45.24981" lon="5.2458">
        <ele>601</ele>
        <time>2013-09-14T13:15:08Z</time>
      </trkpt>
      <trkpt lat="45.24981" lon="5.2458">
        <ele>601</ele>
        <time>2013-09-14T13:15:12Z</time>
      </trkpt>
      <trkpt lat="45.24981" lon="5.2458">
        <ele>600</ele>
        <time>2013-09-14T13:15:15Z</time>
      </trkpt>
      <trkpt lat="45.24981" lon="5.2458">
        <ele>601</ele>
        <time>2013-09-14T13:15:19Z</time>
      </trkpt>
      <trkpt lat="45.24981" lon="5.2458">
        <ele>600</ele>
        <time>2013-09-14T13:15:22Z</time>
      </trkpt>
      <trkpt lat="45.24981" lon="5.2458">
        <ele>600</ele>
        <time>2013-09-14T13:15:26Z</time>
      </trkpt>
      <trkpt lat="45.24981" lon="5.2458">
        <ele>600</ele>
        <time>2013-09-14T13:15:29Z</time>
      </trkpt>
      <trkpt lat="45.24981" lon="5.2458">
        <ele>601</ele>
        <time>2013-09-14T13:15:33Z</time>
      </trkpt>
      <trkpt lat="45.24981" lon="5.2458">
        <ele>600</ele>
        <time>2013-09-14T13:15:36Z</time>
      </trkpt>
      <trkpt lat="45.24981" lon="5.2458">
        <ele>601</ele>
        <time>2013-09-14T13:15:40Z</time>
      </trkpt>
      <trkpt lat="45.24981" lon="5.2458">
        <ele>601</ele>
        <time>2013-09-14T13:15:43Z</time>
      </trkpt>
      <trkpt lat="45.24981" lon="5.2458">
        <ele>601</ele>
        <time>2013-09-14T13:15:47Z</time>
      </trkpt>
      <trkpt lat="45.24981" lon="5.2458">
        <ele>601</ele>
        <time>2013-09-14T13:15:50Z</time>
      </trkpt>
      <trkpt lat="45.24981" lon="5.2458">
        <ele>601</ele>
        <time>2013-09-14T13:15:54Z</time>
      </trkpt>
      <trkpt lat="45.24981" lon="5.2458">
        <ele>601</ele>
        <time>2013-09-14T13:15:57Z</time>
      </trkpt>
      <trkpt lat="45.24981" lon="5.2458">
        <ele>601</ele>
        <time>2013-09-14T13:16:01Z</time>
      </trkpt>
      <trkpt lat="45.24981" lon="5.2458">
        <ele>601</ele>
        <time>2013-09-14T13:16:04Z</time>
      </trkpt>
      <trkpt lat="45.24981" lon="5.2458">
        <ele>601</ele>
        <time>2013-09-14T13:16:08Z</time>
      </trkpt>
      <trkpt lat="45.24981" lon="5.24579">
        <ele>600</ele>
        <time>2013-09-14T13:16:11Z</time>
      </trkpt>
      <trkpt lat="45.24981" lon="5.24579">
        <ele>601</ele>
        <time>2013-09-14T13:16:15Z</time>
      </trkpt>
      <trkpt lat="45.24981" lon="5.24579">
        <ele>601</ele>
        <time>2013-09-14T13:16:18Z</time>
      </trkpt>
      <trkpt lat="45.24981" lon="5.24579">
        <ele>601</ele>
        <time>2013-09-14T13:16:22Z</time>
      </trkpt>
      <trkpt lat="45.24981" lon="5.24579">
        <ele>600</ele>
        <time>2013-09-14T13:16:25Z</time>
      </trkpt>
      <trkpt lat="45.24981" lon="5.24579">
        <ele>600</ele>
        <time>2013-09-14T13:16:29Z</time>
      </trkpt>
      <trkpt lat="45.24981" lon="5.24579">
        <ele>601</ele>
        <time>2013-09-14T13:16:33Z</time>
      </trkpt>
      <trkpt lat="45.24981" lon="5.24579">
        <ele>601</ele>
        <time>2013-09-14T13:16:36Z</time>
      </trkpt>
      <trkpt lat="45.24981" lon="5.24579">
        <ele>601</ele>
        <time>2013-09-14T13:16:40Z</time>
      </trkpt>
      <trkpt lat="45.24981" lon="5.24579">
        <ele>601</ele>
        <time>2013-09-14T13:16:43Z</time>
      </trkpt>
      <trkpt lat="45.24981" lon="5.24579">
        <ele>601</ele>
        <time>2013-09-14T13:16:47Z</time>
      </trkpt>
      <trkpt lat="45.24981" lon="5.24579">
        <ele>601</ele>
        <time>2013-09-14T13:16:50Z</time>
      </trkpt>
      <trkpt lat="45.24981" lon="5.24579">
        <ele>601</ele>
        <time>2013-09-14T13:16:54Z</time>
      </trkpt>
      <trkpt lat="45.24981" lon="5.24579">
        <ele>601</ele>
        <time>2013-09-14T13:16:57Z</time>
      </trkpt>
      <trkpt lat="45.24981" lon="5.24579">
        <ele>601</ele>
        <time>2013-09-14T13:17:01Z</time>
      </trkpt>
      <trkpt lat="45.24981" lon="5.24579">
        <ele>600</ele>
        <time>2013-09-14T13:17:04Z</time>
      </trkpt>
      <trkpt lat="45.24981" lon="5.24579">
        <ele>601</ele>
        <time>2013-09-14T13:17:08Z</time>
      </trkpt>
      <trkpt lat="45.24981" lon="5.24579">
        <ele>601</ele>
        <time>2013-09-14T13:17:11Z</time>
      </trkpt>
      <trkpt lat="45.24981" lon="5.24579">
        <ele>601</ele>
        <time>2013-09-14T13:17:15Z</time>
      </trkpt>
      <trkpt lat="45.24981" lon="5.24579">
        <ele>601</ele>
        <time>2013-09-14T13:17:18Z</time>
      </trkpt>
      <trkpt lat="45.24981" lon="5.24579">
        <ele>601</ele>
        <time>2013-09-14T13:17:22Z</time>
      </trkpt>
      <trkpt lat="45.24981" lon="5.24579">
        <ele>600</ele>
        <time>2013-09-14T13:17:25Z</time>
      </trkpt>
      <trkpt lat="45.24982" lon="5.24579">
        <ele>601</ele>
        <time>2013-09-14T13:17:29Z</time>
      </trkpt>
      <trkpt lat="45.24982" lon="5.24579">
        <ele>601</ele>
        <time>2013-09-14T13:17:32Z</time>
      </trkpt>
      <trkpt lat="45.24982" lon="5.24579">
        <ele>601</ele>
        <time>2013-09-14T13:17:36Z</time>
      </trkpt>
      <trkpt lat="45.24982" lon="5.24579">
        <ele>601</ele>
        <time>2013-09-14T13:17:39Z</time>
      </trkpt>
      <trkpt lat="45.24982" lon="5.24579">
        <ele>601</ele>
        <time>2013-09-14T13:17:43Z</time>
      </trkpt>
      <trkpt lat="45.24982" lon="5.24579">
        <ele>601</ele>
        <time>2013-09-14T13:17:46Z</time>
      </trkpt>
      <trkpt lat="45.24982" lon="5.24579">
        <ele>601</ele>
        <time>2013-09-14T13:17:50Z</time>
      </trkpt>
      <trkpt lat="45.24982" lon="5.24579">
        <ele>601</ele>
        <time>2013-09-14T13:17:53Z</time>
      </trkpt>
      <trkpt lat="45.24982" lon="5.24579">
        <ele>601</ele>
        <time>2013-09-14T13:17:57Z</time>
      </trkpt>
      <trkpt lat="45.24982" lon="5.24579">
        <ele>601</ele>
        <time>2013-09-14T13:18:00Z</time>
      </trkpt>
      <trkpt lat="45.24982" lon="5.24579">
        <ele>601</ele>
        <time>2013-09-14T13:18:04Z</time>
      </trkpt>
      <trkpt lat="45.24982" lon="5.24579">
        <ele>601</ele>
        <time>2013-09-14T13:18:08Z</time>
      </trkpt>
      <trkpt lat="45.24982" lon="5.24579">
        <ele>601</ele>
        <time>2013-09-14T13:18:11Z</time>
      </trkpt>
      <trkpt lat="45.24982" lon="5.24579">
        <ele>601</ele>
        <time>2013-09-14T13:18:15Z</time>
      </trkpt>
      <trkpt lat="45.24982" lon="5.24579">
        <ele>601</ele>
        <time>2013-09-14T13:18:18Z</time>
      </trkpt>
      <trkpt lat="45.24982" lon="5.24579">
        <ele>601</ele>
        <time>2013-09-14T13:18:22Z</time>
      </trkpt>
      <trkpt lat="45.24982" lon="5.24579">
        <ele>601</ele>
        <time>2013-09-14T13:18:25Z</time>
      </trkpt>
      <trkpt lat="45.24982" lon="5.24579">
        <ele>601</ele>
        <time>2013-09-14T13:18:29Z</time>
      </trkpt>
      <trkpt lat="45.24982" lon="5.24579">
        <ele>601</ele>
        <time>2013-09-14T13:18:32Z</time>
      </trkpt>
      <trkpt lat="45.24982" lon="5.24579">
        <ele>601</ele>
        <time>2013-09-14T13:18:36Z</time>
      </trkpt>
      <trkpt lat="45.24982" lon="5.24579">
        <ele>600</ele>
        <time>2013-09-14T13:18:39Z</time>
      </trkpt>
      <trkpt lat="45.24982" lon="5.24579">
        <ele>600</ele>
        <time>2013-09-14T13:18:43Z</time>
      </trkpt>
      <trkpt lat="45.24982" lon="5.24579">
        <ele>600</ele>
        <time>2013-09-14T13:18:46Z</time>
      </trkpt>
      <trkpt lat="45.24982" lon="5.2458">
        <ele>601</ele>
        <time>2013-09-14T13:18:50Z</time>
      </trkpt>
      <trkpt lat="45.24982" lon="5.2458">
        <ele>601</ele>
        <time>2013-09-14T13:18:53Z</time>
      </trkpt>
      <trkpt lat="45.24982" lon="5.2458">
        <ele>601</ele>
        <time>2013-09-14T13:18:57Z</time>
      </trkpt>
      <trkpt lat="45.24982" lon="5.2458">
        <ele>601</ele>
        <time>2013-09-14T13:19:00Z</time>
      </trkpt>
      <trkpt lat="45.24982" lon="5.2458">
        <ele>601</ele>
        <time>2013-09-14T13:19:04Z</time>
      </trkpt>
      <trkpt lat="45.24982" lon="5.2458">
        <ele>601</ele>
        <time>2013-09-14T13:19:07Z</time>
      </trkpt>
      <trkpt lat="45.24982" lon="5.2458">
        <ele>601</ele>
        <time>2013-09-14T13:19:11Z</time>
      </trkpt>
      <trkpt lat="45.24982" lon="5.2458">
        <ele>601</ele>
        <time>2013-09-14T13:19:14Z</time>
      </trkpt>
      <trkpt lat="45.24982" lon="5.2458">
        <ele>601</ele>
        <time>2013-09-14T13:19:18Z</time>
      </trkpt>
      <trkpt lat="45.24982" lon="5.2458">
        <ele>601</ele>
        <time>2013-09-14T13:19:21Z</time>
      </trkpt>
      <trkpt lat="45.24982" lon="5.2458">
        <ele>601</ele>
        <time>2013-09-14T13:19:25Z</time>
      </trkpt>
      <trkpt lat="45.24982" lon="5.2458">
        <ele>601</ele>
        <time>2013-09-14T13:19:28Z</time>
      </trkpt>
      <trkpt lat="45.24981" lon="5.24579">
        <ele>601</ele>
        <time>2013-09-14T13:19:32Z</time>
      </trkpt>
      <trkpt lat="45.24981" lon="5.24579">
        <ele>601</ele>
        <time>2013-09-14T13:19:35Z</time>
      </trkpt>
      <trkpt lat="45.24981" lon="5.2458">
        <ele>601</ele>
        <time>2013-09-14T13:19:39Z</time>
      </trkpt>
      <trkpt lat="45.24981" lon="5.2458">
        <ele>600</ele>
        <time>2013-09-14T13:19:42Z</time>
      </trkpt>
    </trkseg>
  </trk>
</gpx>